# Wetter Temperatur Luftdruck Luftfeuchtigkeit Sichtweite Windgeschwindigkeit Windrichtung Zeit
1 Fog -18 1012 100 805 0 0 14:21 01.02.2023
2 Fog -18 1012 100 805 0 0 14:21 01.02.2023
3 Fog -17 1013 92 805 0 0 13:19 01.02.2023
4 Fog -14 1013 100 805 0 0 12:26 01.02.2023
5 Mist -12 1013 100 1609 1.54 300 10:46 01.02.2023
6 Fog -7 1013 93 805 2.06 290 08:41 01.02.2023
7 Clouds -7 1013 100 10000 0 0 22:59 31.01.2023
8 Clouds -7 1013 100 10000 2.57 200 21:20 31.01.2023
9 Clouds -9 1013 100 10000 0 0 19:24 31.01.2023
10 Fog -8 1012 100 805 1.54 250 17:41 31.01.2023
11 Mist -7 1012 100 2816 0 0 15:36 31.01.2023
12 Mist -8 1012 100 3219 1.54 0 15:18 31.01.2023
13 Mist -6 1012 100 4023 0 0 13:34 31.01.2023
14 Mist -4 1012 100 1207 2.57 270 11:28 31.01.2023
15 Mist -6 1012 100 1207 1.54 210 10:25 31.01.2023
16 Mist -6 1011 100 2012 0 0 09:44 31.01.2023
17 Mist -5 1011 93 1207 1.54 20 08:36 31.01.2023
18 Mist -3 1011 100 1609 0 0 07:36 31.01.2023
19 Snow -1 1009 100 4828 2.57 80 03:34 31.01.2023
20 Snow -1 1010 100 2816 5.66 80 23:27 30.01.2023
21 Snow -1 1009 93 2012 5.66 90 22:50 30.01.2023
22 Snow -1 1009 93 2414 5.66 90 21:48 30.01.2023
23 Snow -2 1009 100 3219 6.17 90 20:44 30.01.2023
24 Snow -1 1010 93 4023 8.75 90 18:26 30.01.2023
25 Snow -1 1010 93 6437 8.23 90 17:25 30.01.2023
26 Snow -1 1011 86 10000 8.75 90 14:47 30.01.2023
27 Snow -1 1012 86 10000 8.75 90 13:55 30.01.2023
28 Snow -1 1013 86 10000 7.72 80 12:18 30.01.2023
29 Snow -2 1013 93 10000 6.69 80 10:21 30.01.2023
30 Clouds -2 1013 92 10000 7.24 84 09:53 30.01.2023
31 Snow -2 1014 93 10000 8.23 80 08:23 30.01.2023
32 Snow -2 1015 93 10000 9.26 90 06:23 30.01.2023
33 Clouds 0 1018 93 10000 9.26 90 00:50 30.01.2023
34 Clouds 1 1019 86 10000 8.23 90 23:31 29.01.2023
35 Rain 1 1019 93 10000 9.26 90 22:36 29.01.2023
36 Snow 1 1020 86 8047 7.72 80 20:54 29.01.2023
37 Mist 1 1020 86 4828 9.26 80 20:19 29.01.2023
38 Snow 1 1021 86 4828 8.75 70 19:32 29.01.2023
39 Clouds -7 1022 85 10000 3.61 48 17:56 29.01.2023
40 Clouds 1 1023 75 10000 6.69 70 16:43 29.01.2023
41 Clouds 1 1023 75 10000 6.69 70 16:19 29.01.2023
42 Clear -3 1026 86 10000 5.66 40 14:20 29.01.2023
43 Clouds -5 1027 94 10000 3.16 40 12:59 29.01.2023
44 Clear -6 1028 93 10000 4.12 30 12:36 29.01.2023
45 Clear -6 1028 93 10000 4.12 30 12:18 29.01.2023
46 Clouds -5 1029 93 10000 2.57 50 11:36 29.01.2023
47 Clear -5 1030 100 10000 2.06 40 10:47 29.01.2023
48 Mist -4 1032 93 4828 4.63 80 08:32 29.01.2023
49 Clouds -4 1033 93 10000 3.6 80 04:44 29.01.2023
50 Snow -4 1033 93 805 3.6 100 23:51 28.01.2023
51 Clouds -4 1031 96 1296 2.2 79 20:53 28.01.2023
52 Clouds -5 1030 96 1394 2.54 63 19:56 28.01.2023
53 Mist -6 1028 100 2816 5.66 100 18:53 28.01.2023
54 Mist -6 1028 100 2816 4.63 90 17:44 28.01.2023
55 Mist -7 1027 100 2414 5.14 70 16:41 28.01.2023
56 Snow -7 1027 93 1609 4.63 80 16:19 28.01.2023
57 Mist -7 1026 93 1609 5.14 80 15:36 28.01.2023
58 Snow -8 1026 93 4828 4.63 80 13:50 28.01.2023
59 Snow -8 1025 93 2816 5.66 80 12:28 28.01.2023
60 Snow -7 1025 93 3219 8.23 110 10:35 28.01.2023
61 Snow -6 1025 93 2816 10.8 100 09:49 28.01.2023
62 Snow -5 1028 93 10000 6.69 80 04:38 28.01.2023
63 Mist -7 1030 93 4828 7.2 80 01:31 28.01.2023
64 Mist -8 1031 93 1609 9.26 70 00:19 28.01.2023
65 Mist -8 1032 93 4023 9.26 70 20:25 27.01.2023
66 Clouds -8 1032 91 616 5.57 75 17:58 27.01.2023
67 Snow -9 1030 86 10000 9.26 80 17:21 27.01.2023
68 Snow -9 1030 86 4828 8.23 80 16:58 27.01.2023
69 Snow -10 1029 92 1609 9.77 80 15:49 27.01.2023
70 Mist -11 1029 92 8047 9.77 80 14:28 27.01.2023
71 Mist -11 1028 85 3219 11.32 80 13:44 27.01.2023
72 Snow -13 1028 85 1207 11.83 80 11:51 27.01.2023
73 Snow -15 1028 85 1609 11.83 80 08:35 27.01.2023
74 Clear -19 1028 71 10000 1.54 80 00:45 27.01.2023
75 Mist -18 1027 85 4828 4.12 180 22:48 26.01.2023
76 Mist -18 1025 78 6437 4.12 170 21:21 26.01.2023
77 Clouds -18 1023 78 10000 4.63 170 20:34 26.01.2023
78 Clouds -18 1020 78 10000 7.72 180 18:20 26.01.2023
79 Clouds -18 1019 71 10000 5.66 200 17:40 26.01.2023
80 Clouds -18 1018 71 10000 5.14 190 16:26 26.01.2023
81 Snow -18 1017 71 4828 6.17 170 15:48 26.01.2023
82 Snow -18 1017 71 4828 6.17 170 15:28 26.01.2023
83 Clouds -20 1017 97 432 5.52 207 13:58 26.01.2023
84 Snow -19 1013 71 10000 5.14 190 12:43 26.01.2023
85 Haze -18 1012 71 8047 7.2 200 11:26 26.01.2023
86 Snow -19 1010 78 6437 5.14 190 10:28 26.01.2023
87 Snow -18 1009 78 10000 5.14 180 09:44 26.01.2023
88 Snow -20 1008 84 6437 4.12 100 08:25 26.01.2023
89 Snow -20 1008 84 4023 4.12 100 08:25 26.01.2023
90 Clear -28 1009 96 10000 1.72 34 23:59 25.01.2023
91 Clear -22 1005 64 10000 4.12 350 23:38 25.01.2023
92 Clear -28 1009 95 10000 2.18 13 21:57 25.01.2023
93 Clear -23 1006 64 10000 5.14 350 21:21 25.01.2023
94 Clouds -27 1010 90 10000 2.81 10 18:57 25.01.2023
95 Clear -22 1008 59 10000 6.17 360 18:22 25.01.2023
96 Clear -23 1010 59 10000 5.14 340 15:44 25.01.2023
97 Clear -26 1013 92 10000 3.39 0 12:59 25.01.2023
98 Clear -23 1013 64 10000 5.14 350 11:21 25.01.2023
99 Clear -22 1014 64 10000 8.23 20 09:48 25.01.2023
100 Clear -23 1015 70 10000 6.17 360 07:45 25.01.2023
101 Clear -18 1017 50 10000 3.09 50 01:37 25.01.2023
102 Clear -19 1017 55 10000 1.54 310 00:25 25.01.2023
103 Clear -20 1017 59 10000 3.6 80 21:35 24.01.2023
104 Clear -20 1017 59 10000 2.06 50 20:23 24.01.2023
105 Clear -19 1017 60 10000 8.23 40 18:47 24.01.2023
106 Clear -19 1016 65 10000 8.75 30 17:31 24.01.2023
107 Clear -24 1017 86 10000 4.27 357 16:53 24.01.2023
108 Clear -19 1017 60 10000 6.69 50 16:29 24.01.2023
109 Clear -19 1016 65 10000 4.12 70 13:46 24.01.2023
110 Clear -18 1016 60 10000 6.69 50 11:43 24.01.2023
111 Clear -18 1015 60 10000 8.75 10 08:43 24.01.2023
112 Clear -18 1015 60 10000 8.75 10 08:18 24.01.2023
113 Clear -18 1015 65 10000 9.77 30 07:48 24.01.2023
114 Clear -17 1015 55 10000 4.63 60 02:43 24.01.2023
115 Clear -21 1015 65 10000 1.54 0 00:38 24.01.2023
116 Clear -19 1016 65 10000 3.09 350 22:32 23.01.2023
117 Clear -19 1016 65 10000 0 0 20:43 23.01.2023
118 Clear -22 1016 71 10000 2.57 20 19:21 23.01.2023
119 Clear -18 1016 65 10000 2.57 40 17:20 23.01.2023
120 Clear -18 1016 60 10000 6.17 60 15:32 23.01.2023
121 Clear -25 1015 86 10000 3.64 20 13:56 23.01.2023
122 Clear -24 1015 83 10000 4.19 17 12:55 23.01.2023
123 Clear -24 1015 83 10000 4.56 17 11:57 23.01.2023
124 Clear -17 1017 60 10000 4.12 70 11:28 23.01.2023
125 Haze -17 1016 60 9656 11.32 50 08:25 23.01.2023
126 Clear -19 1021 55 10000 2.57 70 00:24 23.01.2023
127 Clear -22 1022 71 10000 9.77 20 22:19 22.01.2023
128 Clear -22 1022 64 10000 3.6 360 21:19 22.01.2023
129 Clear -24 1023 77 10000 6.69 110 19:58 22.01.2023
130 Clear -24 1023 77 10000 6.69 110 19:40 22.01.2023
131 Clear -23 1024 70 10000 7.2 30 18:43 22.01.2023
132 Clouds -30 1024 92 10000 3.63 24 17:55 22.01.2023
133 Clear -23 1025 64 10000 9.26 50 17:24 22.01.2023
134 Clear -25 1027 64 10000 5.66 50 15:30 22.01.2023
135 Clear -28 1028 69 10000 0 0 14:43 22.01.2023
136 Clear -29 1028 69 10000 5.14 350 13:28 22.01.2023
137 Clear -29 1029 69 10000 3.09 20 12:32 22.01.2023
138 Clear -31 1030 83 10000 0 0 11:34 22.01.2023
139 Clear -29 1030 69 10000 1.54 0 09:35 22.01.2023
140 Clear -30 1030 76 10000 2.06 20 05:51 22.01.2023
141 Clear -27 1029 69 10000 0 0 00:40 22.01.2023
142 Clear -27 1029 76 10000 1.54 90 23:30 21.01.2023
143 Clear -27 1027 76 10000 4.63 10 21:40 21.01.2023
144 Clear -28 1026 83 10000 5.14 280 19:46 21.01.2023
145 Clear -31 1025 100 10000 2.83 289 16:55 21.01.2023
146 Clear -26 1023 76 10000 6.69 290 14:24 21.01.2023
147 Clear -31 1022 99 10000 2.63 300 12:57 21.01.2023
148 Clear -24 1021 70 10000 7.2 300 12:35 21.01.2023
149 Clear -24 1020 77 10000 4.63 300 11:22 21.01.2023
150 Clear -22 1019 71 10000 6.17 310 09:29 21.01.2023
151 Clouds -22 1015 84 10000 2.57 330 04:34 21.01.2023
152 Clouds -22 1011 84 10000 4.12 310 22:29 20.01.2023
153 Clouds -22 1011 84 10000 4.12 310 22:29 20.01.2023
154 Clouds -27 1011 83 10000 2.57 360 21:38 20.01.2023
155 Clouds -25 1011 95 10000 2 314 20:58 20.01.2023
156 Clear -28 1009 76 10000 3.6 310 19:52 20.01.2023
157 Clear -30 1007 83 10000 3.6 320 16:47 20.01.2023
158 Clear -28 1006 83 10000 0 0 14:47 20.01.2023
159 Clear -29 1005 83 10000 0 0 13:51 20.01.2023
160 Clear -31 1004 76 10000 1.54 360 10:24 20.01.2023
161 Clouds -30 1004 79 10000 2.09 334 08:57 20.01.2023
162 Clouds -30 1003 78 10000 2.15 339 05:56 20.01.2023
163 Clear -28 1000 83 10000 0 0 02:31 20.01.2023
164 Clear -30 998 83 10000 0 0 22:36 19.01.2023
165 Clear -30 998 83 10000 0 0 22:36 19.01.2023
166 Clear -29 998 76 10000 0 0 21:20 19.01.2023
167 Clear -29 997 76 10000 2.06 20 19:29 19.01.2023
168 Clear -27 997 76 10000 1.54 360 17:20 19.01.2023
169 Clouds -27 998 76 10000 2.26 1 13:47 19.01.2023
170 Clear -24 995 65 10000 1.54 10 10:18 19.01.2023
171 Clear -26 995 76 10000 3.09 20 08:49 19.01.2023
172 Clear -24 996 70 10000 2.06 40 22:30 18.01.2023
173 Clear -24 995 70 10000 5.66 340 20:20 18.01.2023
174 Clear -24 995 70 10000 5.14 340 19:38 18.01.2023
175 Clear -24 995 70 10000 5.14 340 19:20 18.01.2023
176 Clear -22 995 64 10000 7.2 340 16:19 18.01.2023
177 Clouds -21 995 65 10000 7.2 350 13:59 18.01.2023
178 Clouds -18 995 65 10000 5.66 360 11:46 18.01.2023
179 Clouds -20 995 71 10000 3.09 320 09:28 18.01.2023
180 Clouds -19 994 71 10000 5.14 340 06:22 18.01.2023
181 Clouds -21 993 71 10000 6.69 350 00:37 18.01.2023
182 Clouds -18 993 65 10000 7.2 350 21:27 17.01.2023
183 Clouds -17 993 71 10000 4.12 360 19:37 17.01.2023
184 Clouds -16 992 72 10000 4.63 10 18:48 17.01.2023
185 Clouds -17 992 71 10000 5.66 10 17:40 17.01.2023
186 Clouds -14 992 78 10000 4.12 350 15:27 17.01.2023
187 Clouds -15 991 78 10000 4.63 340 14:45 17.01.2023
188 Clouds -21 993 93 987 4.69 9 13:32 17.01.2023
189 Snow -13 991 78 6437 5.66 340 11:47 17.01.2023
190 Snow -12 990 79 10000 5.14 350 09:36 17.01.2023
191 Snow -11 990 73 10000 7.72 340 08:45 17.01.2023
192 Snow -11 990 79 10000 5.66 350 07:28 17.01.2023
193 Haze -7 987 79 9656 9.77 40 01:32 17.01.2023
194 Clouds -6 988 79 10000 7.72 10 00:48 17.01.2023
195 Clouds -7 988 73 10000 8.23 10 22:38 16.01.2023
196 Clouds -7 987 73 8047 9.26 30 21:43 16.01.2023
197 Clouds -14 989 85 10000 4.52 22 19:55 16.01.2023
198 Clouds -7 986 79 8047 10.8 30 18:57 16.01.2023
199 Clouds -7 986 79 8047 10.8 30 18:37 16.01.2023
200 Clouds -7 986 73 2816 12.86 30 18:18 16.01.2023
201 Clouds -7 987 73 10000 10.29 30 17:20 16.01.2023
202 Clouds -6 988 79 10000 3.6 20 14:19 16.01.2023
203 Clouds -7 988 86 10000 5.66 20 13:36 16.01.2023
204 Mist -8 989 79 9656 9.77 30 10:25 16.01.2023
205 Clouds -8 989 79 10000 5.66 30 08:23 16.01.2023
206 Clear -16 990 85 10000 2.57 30 22:44 15.01.2023
207 Clear -15 990 78 10000 1.54 170 21:23 15.01.2023
208 Clear -16 989 85 10000 3.6 280 20:31 15.01.2023
209 Clear -11 989 67 10000 6.17 340 19:34 15.01.2023
210 Clear -12 990 67 10000 5.66 20 17:25 15.01.2023
211 Clouds -18 991 88 10000 3.76 24 13:55 15.01.2023
212 Clear -12 991 72 10000 5.66 30 12:25 15.01.2023
213 Clear -11 992 67 10000 4.12 350 11:29 15.01.2023
214 Clear -11 992 67 10000 8.23 360 10:24 15.01.2023
215 Clear -11 992 73 10000 7.72 360 08:29 15.01.2023
216 Clouds -16 995 86 10000 3.5 20 23:56 14.01.2023
217 Clouds -8 995 73 10000 4.12 30 22:44 14.01.2023
218 Clouds -9 995 79 10000 4.63 30 21:54 14.01.2023
219 Clouds -9 995 79 10000 4.63 30 21:36 14.01.2023
220 Clouds -9 995 79 10000 4.63 30 21:36 14.01.2023
221 Clouds -9 995 73 10000 5.14 30 21:18 14.01.2023
222 Clouds -9 995 73 10000 5.14 30 21:18 14.01.2023
223 Clouds -9 995 67 10000 6.17 30 20:28 14.01.2023
224 Clouds -12 996 72 10000 5.14 360 18:18 14.01.2023
225 Clear -19 997 78 10000 1.54 270 15:41 14.01.2023
226 Clear -19 997 78 10000 1.54 270 15:23 14.01.2023
227 Clear -19 998 84 10000 1.54 270 14:22 14.01.2023
228 Clear -19 999 78 10000 2.57 220 13:25 14.01.2023
229 Clear -21 1000 84 10000 2.06 20 10:50 14.01.2023
230 Clear -25 1000 92 10000 0 0 09:23 14.01.2023
231 Clear -21 1001 99 10000 0 0 02:39 14.01.2023
232 Clouds -12 1003 85 10000 2.57 330 23:20 13.01.2023
233 Clouds -12 1003 85 10000 3.09 340 22:41 13.01.2023
234 Clear -19 1004 91 10000 3.44 14 21:58 13.01.2023
235 Clouds -12 1004 85 10000 2.57 20 20:38 13.01.2023
236 Clouds -12 1004 79 10000 2.57 360 19:27 13.01.2023
237 Clouds -12 1004 79 10000 3.6 360 17:42 13.01.2023
238 Clouds -12 1005 72 10000 3.6 360 15:20 13.01.2023
239 Clouds -13 1005 72 10000 2.57 360 12:33 13.01.2023
240 Clouds -21 1006 92 10000 3.09 340 10:43 13.01.2023
241 Clouds -21 1006 92 10000 3.09 340 10:23 13.01.2023
242 Clouds -14 1006 78 10000 2.57 320 09:44 13.01.2023
243 Clouds -15 1006 85 10000 3.09 330 08:51 13.01.2023
244 Clouds -25 1008 99 10000 2.42 10 06:57 13.01.2023
245 Clouds -16 1006 92 10000 0 0 06:30 13.01.2023
246 Clouds -13 1005 92 10000 3.6 80 02:29 13.01.2023
247 Snow -13 1005 92 2414 3.09 70 22:57 12.01.2023
248 Snow -13 1005 85 4828 3.6 90 21:59 12.01.2023
249 Snow -13 1004 78 10000 4.12 90 20:52 12.01.2023
250 Clouds -13 1004 85 10000 2.06 90 18:27 12.01.2023
251 Clouds -12 1004 79 10000 3.6 110 17:20 12.01.2023
252 Snow -12 1004 85 10000 4.12 140 15:28 12.01.2023
253 Snow -12 1004 85 10000 5.14 140 14:42 12.01.2023
254 Snow -12 1004 85 10000 5.14 140 14:19 12.01.2023
255 Clouds -11 1002 85 10000 4.12 140 12:29 12.01.2023
256 Snow -11 1002 92 10000 3.6 110 10:26 12.01.2023
257 Snow -10 1001 85 10000 2.57 140 07:38 12.01.2023
258 Mist -8 998 100 2414 6.69 110 00:34 12.01.2023
259 Mist -8 998 100 2816 6.17 120 23:57 11.01.2023
260 Snow -7 998 93 10000 5.14 110 23:38 11.01.2023
261 Snow -7 998 93 10000 5.14 110 23:19 11.01.2023
262 Snow -7 997 93 1609 7.72 90 21:32 11.01.2023
263 Snow -7 995 93 2816 7.72 100 19:19 11.01.2023
264 Snow -7 994 93 4828 7.2 90 17:49 11.01.2023
265 Snow -7 994 93 6437 5.66 80 15:53 11.01.2023
266 Snow -7 994 86 8047 5.66 60 13:59 11.01.2023
267 Snow -8 994 86 4023 4.63 50 12:34 11.01.2023
268 Snow -8 994 79 4828 5.66 40 11:40 11.01.2023
269 Snow -9 994 86 8047 4.63 40 09:46 11.01.2023
270 Snow -10 994 85 2012 3.6 350 07:37 11.01.2023
271 Snow -11 994 92 2816 3.6 10 06:56 11.01.2023
272 Clouds -16 998 86 6876 3.75 21 23:55 10.01.2023
273 Clear -13 998 66 10000 5.66 350 22:36 10.01.2023
274 Clear -13 998 66 10000 9.77 20 21:29 10.01.2023
275 Clear -19 999 90 10000 3.34 11 19:56 10.01.2023
276 Clear -12 999 67 10000 8.75 360 19:34 10.01.2023
277 Clear -13 1000 66 10000 9.26 360 18:47 10.01.2023
278 Clear -20 1001 91 10000 3.63 7 17:53 10.01.2023
279 Clear -13 1002 72 10000 10.29 10 15:48 10.01.2023
280 Clear -13 1002 72 10000 10.29 10 15:22 10.01.2023
281 Clear -14 1003 66 10000 7.72 10 13:42 10.01.2023
282 Clear -15 1004 72 10000 8.75 20 11:28 10.01.2023
283 Clear -21 1005 92 10000 3.94 16 08:57 10.01.2023
284 Clear -21 1006 91 10000 3.26 26 07:59 10.01.2023
285 Clear -21 1006 91 10000 3.26 26 07:59 10.01.2023
286 Clear -13 1005 56 10000 5.66 360 07:25 10.01.2023
287 Clear -12 1007 56 10000 2.06 0 04:50 10.01.2023
288 Clear -17 1010 66 10000 4.63 290 22:50 09.01.2023
289 Clear -18 1011 71 10000 3.09 330 21:20 09.01.2023
290 Clear -20 1011 84 10000 2.57 360 20:32 09.01.2023
291 Clear -22 1011 92 10000 1.54 320 18:41 09.01.2023
292 Clear -21 1012 92 10000 0 0 17:51 09.01.2023
293 Clear -21 1012 92 10000 0 0 16:41 09.01.2023
294 Clear -20 1012 86 10000 2.64 24 15:59 09.01.2023
295 Clear -21 1013 92 10000 1.54 90 15:22 09.01.2023
296 Clear -21 1013 92 10000 1.54 90 15:22 09.01.2023
297 Clear -19 1013 84 10000 0 0 14:43 09.01.2023
298 Clear -19 1013 84 10000 0 0 14:43 09.01.2023
299 Clear -20 1013 87 10000 2.25 16 12:54 09.01.2023
300 Clear -19 1013 87 10000 2.48 21 11:59 09.01.2023
301 Clear -18 1013 85 10000 1.54 350 11:19 09.01.2023
302 Clouds -16 1013 92 10000 2.57 40 07:20 09.01.2023
303 Clouds -11 1013 85 10000 3.09 50 04:46 09.01.2023
304 Clouds -10 1012 79 10000 5.14 10 02:52 09.01.2023
305 Clouds -13 1012 78 10000 3.09 10 22:29 08.01.2023
306 Clouds -9 1012 73 10000 5.66 40 21:22 08.01.2023
307 Clouds -17 1012 93 10000 2.18 21 20:54 08.01.2023
308 Clouds -9 1011 79 10000 3.6 10 18:52 08.01.2023
309 Clouds -9 1011 79 10000 0 0 17:37 08.01.2023
310 Clouds -9 1011 79 10000 0 0 17:18 08.01.2023
311 Clouds -11 1010 92 10000 0 0 15:36 08.01.2023
312 Clear -17 1011 94 10000 2.32 21 13:59 08.01.2023
313 Clouds -9 1011 92 10000 1.54 360 13:31 08.01.2023
314 Clouds -9 1011 92 10000 1.54 340 12:54 08.01.2023
315 Clouds -9 1011 86 10000 1.54 280 10:52 08.01.2023
316 Clouds -8 1010 93 10000 0 0 09:36 08.01.2023
317 Snow -8 1009 93 10000 1.54 40 07:49 08.01.2023
318 Clouds -8 1008 93 10000 1.54 20 00:30 08.01.2023
319 Snow -9 1008 100 6437 1.54 350 22:48 07.01.2023
320 Snow -9 1008 100 6437 1.54 350 22:24 07.01.2023
321 Snow -8 1007 93 6437 2.06 50 21:49 07.01.2023
322 Clouds -8 1007 93 10000 2.06 70 20:48 07.01.2023
323 Clouds -8 1007 93 10000 2.06 70 20:24 07.01.2023
324 Clouds -11 1006 92 10000 2.06 10 18:52 07.01.2023
325 Snow -11 1006 100 4023 1.54 10 17:59 07.01.2023
326 Snow -11 1006 100 4023 1.54 10 17:36 07.01.2023
327 Snow -9 1006 92 6437 1.54 30 16:38 07.01.2023
328 Mist -9 1006 86 4828 0 0 15:50 07.01.2023
329 Mist -10 1006 92 3219 0 0 15:29 07.01.2023
330 Clouds -11 1006 100 10000 0 0 14:30 07.01.2023
331 Clouds -12 1007 91 729 1.5 58 13:54 07.01.2023
332 Snow -11 1006 92 10000 0 0 13:26 07.01.2023
333 Clouds -11 1005 92 10000 1.54 20 12:23 07.01.2023
334 Snow -12 1005 92 10000 2.06 360 11:51 07.01.2023
335 Clouds -13 1005 92 10000 2.06 20 10:25 07.01.2023
336 Clouds -12 1004 92 10000 3.09 40 08:38 07.01.2023
337 Clouds -11 1004 92 10000 3.6 50 07:45 07.01.2023
338 Clouds -11 1004 92 10000 3.6 50 07:19 07.01.2023
339 Clouds -9 1003 92 10000 3.09 70 02:49 07.01.2023
340 Clouds -9 1002 100 10000 4.12 100 22:38 06.01.2023
341 Clouds -9 1002 100 10000 4.12 100 22:19 06.01.2023
342 Clouds -9 1002 100 10000 3.6 100 21:27 06.01.2023
343 Clouds -9 1001 100 10000 4.12 100 19:58 06.01.2023
344 Clouds -9 1001 100 10000 4.12 100 19:40 06.01.2023
345 Clouds -9 1001 100 10000 4.63 100 19:22 06.01.2023
346 Mist -8 1000 93 4828 4.63 90 18:42 06.01.2023
347 Mist -8 1000 100 3219 4.63 90 17:23 06.01.2023
348 Mist -8 1000 100 3219 4.63 100 16:36 06.01.2023
349 Mist -8 1000 100 4023 4.63 70 15:57 06.01.2023
350 Mist -8 1000 100 4023 4.63 70 15:39 06.01.2023
351 Mist -8 1000 93 4828 4.63 70 14:54 06.01.2023
352 Snow -8 999 100 10000 4.63 140 12:42 06.01.2023
353 Mist -6 998 93 4023 4.12 90 10:58 06.01.2023
354 Clouds -7 997 100 10000 4.63 80 09:27 06.01.2023
355 Clouds -6 997 86 10000 4.63 80 07:46 06.01.2023
356 Clouds -7 996 79 10000 4.63 40 01:45 06.01.2023
357 Clouds -10 997 89 10000 2.69 36 22:55 05.01.2023
358 Clouds -9 997 89 10000 3.01 23 21:54 05.01.2023
359 Clouds -9 996 86 10000 2.06 10 19:32 05.01.2023
360 Clear -12 996 92 10000 0 0 17:28 05.01.2023
361 Clear -12 996 85 10000 3.6 360 16:28 05.01.2023
362 Clear -17 996 100 10000 0 0 15:46 05.01.2023
363 Clear -14 996 92 10000 0 0 14:51 05.01.2023
364 Clouds -14 996 85 10000 1.54 290 12:44 05.01.2023
365 Clouds -15 995 92 10000 0 0 11:54 05.01.2023
366 Mist -13 995 92 2012 0 0 09:55 05.01.2023
367 Clear -13 994 100 10000 0 0 08:31 05.01.2023
368 Clear -12 994 92 10000 0 0 07:20 05.01.2023
369 Clear -12 995 92 10000 0 0 05:20 05.01.2023
370 Clouds -4 996 86 10000 0 0 23:26 04.01.2023
371 Clouds -5 996 93 10000 1.54 110 21:33 04.01.2023
372 Clouds -4 996 93 10000 2.06 110 20:55 04.01.2023
373 Clouds -10 997 98 1600 2.34 51 19:57 04.01.2023
374 Clouds -4 996 93 10000 3.09 100 19:33 04.01.2023
375 Clouds -4 995 93 10000 4.63 90 18:37 04.01.2023
376 Snow -4 995 100 10000 4.12 100 16:32 04.01.2023
377 Snow -4 995 100 10000 4.12 100 16:32 04.01.2023
378 Mist -4 995 100 9656 4.63 120 15:55 04.01.2023
379 Snow -4 994 100 10000 5.66 90 14:39 04.01.2023
380 Snow -4 994 93 10000 5.14 90 11:43 04.01.2023
381 Snow -4 994 93 8047 4.63 90 11:21 04.01.2023
382 Snow -4 993 93 2414 4.63 90 10:43 04.01.2023
383 Snow -4 993 93 2414 4.63 90 10:22 04.01.2023
384 Snow -4 993 93 4828 4.12 80 08:52 04.01.2023
385 Snow -4 992 86 10000 5.66 70 05:35 04.01.2023
386 Snow -7 992 93 10000 2.06 20 00:32 04.01.2023
387 Mist -7 992 86 4828 3.6 10 23:35 03.01.2023
388 Snow -7 992 79 10000 2.57 330 22:44 03.01.2023
389 Snow -8 991 86 10000 0 0 20:53 03.01.2023
390 Clouds -8 991 86 10000 3.09 340 19:26 03.01.2023
391 Clouds -8 991 86 10000 2.57 350 17:37 03.01.2023
392 Clouds -8 990 79 10000 2.57 330 16:36 03.01.2023
393 Clouds -15 992 87 10000 2.82 16 13:55 03.01.2023
394 Clouds -8 990 79 10000 2.57 340 13:30 03.01.2023
395 Clouds -15 992 86 10000 2.93 11 12:57 03.01.2023
396 Clouds -8 989 79 10000 2.57 340 12:30 03.01.2023
397 Clouds -8 989 79 10000 2.57 340 12:30 03.01.2023
398 Clouds -8 989 79 10000 2.06 360 11:21 03.01.2023
399 Clouds -9 987 79 10000 4.12 350 07:29 03.01.2023
400 Clouds -9 986 79 10000 3.09 350 04:22 03.01.2023
401 Clouds -9 986 73 10000 3.6 350 03:43 03.01.2023
402 Clouds -8 985 73 10000 3.6 40 01:39 03.01.2023
403 Clouds -9 984 79 10000 4.63 350 22:42 02.01.2023
404 Clouds -9 984 79 10000 4.63 350 22:19 02.01.2023
405 Clouds -8 983 73 10000 3.6 340 20:40 02.01.2023
406 Clouds -9 983 73 10000 4.63 330 19:52 02.01.2023
407 Clouds -8 982 67 10000 6.17 360 17:29 02.01.2023
408 Clouds -8 982 67 10000 4.12 30 15:19 02.01.2023
409 Clouds -7 982 63 10000 4.63 340 13:23 02.01.2023
410 Clouds -15 984 84 10000 3.69 1 11:57 02.01.2023
411 Clear -9 981 67 10000 1.54 0 10:43 02.01.2023
412 Clear -10 981 73 10000 1.54 110 07:33 02.01.2023
413 Clouds -15 983 86 10000 4.95 355 00:58 02.01.2023
414 Clear -6 983 63 10000 13.38 20 22:32 01.01.2023
415 Clear -7 983 68 10000 15.95 20 21:30 01.01.2023
416 Clear -6 984 63 10000 10.8 10 20:47 01.01.2023
417 Clear -7 984 68 10000 11.32 10 19:44 01.01.2023
418 Clouds -16 987 87 10000 4.29 360 17:59 01.01.2023
419 Clouds -8 985 73 10000 12.35 340 17:21 01.01.2023
420 Clear -7 985 68 10000 11.83 350 16:32 01.01.2023
421 Clouds -15 988 88 10000 4.34 1 14:53 01.01.2023
422 Clear -7 987 68 10000 12.86 10 13:40 01.01.2023
423 Clouds -7 988 68 10000 9.26 360 12:40 01.01.2023
424 Clouds -7 990 68 10000 10.29 10 11:37 01.01.2023
425 Clouds -7 990 68 10000 11.32 360 10:36 01.01.2023
426 Clouds -6 991 68 10000 5.66 350 08:51 01.01.2023
427 Clouds -6 991 68 10000 5.66 350 08:20 01.01.2023
428 Clouds -6 991 68 10000 5.66 360 07:18 01.01.2023
429 Clouds -9 992 79 10000 5.14 340 01:42 01.01.2023
430 Clouds -9 993 73 10000 6.17 350 23:42 31.12.2022
431 Clouds -9 992 73 10000 7.2 350 22:33 31.12.2022
432 Clouds -10 992 79 10000 5.66 360 21:36 31.12.2022
433 Clouds -10 992 79 10000 5.66 360 21:18 31.12.2022
434 Clear -11 992 79 10000 5.14 360 19:33 31.12.2022
435 Clear -10 991 73 10000 6.17 10 18:42 31.12.2022
436 Clear -10 991 73 10000 6.17 10 18:18 31.12.2022
437 Clear -11 991 79 10000 6.17 350 17:46 31.12.2022
438 Clear -11 991 79 10000 5.66 340 16:42 31.12.2022
439 Clear -11 991 79 10000 5.66 340 16:20 31.12.2022
440 Clear -11 991 73 10000 6.69 340 14:39 31.12.2022
441 Clear -11 991 79 10000 6.17 350 13:37 31.12.2022
442 Clear -11 991 79 10000 7.2 350 12:40 31.12.2022
443 Clear -11 991 79 10000 7.2 350 12:19 31.12.2022
444 Clear -11 991 79 10000 7.2 350 12:19 31.12.2022
445 Clear -11 991 79 10000 7.2 350 12:19 31.12.2022
446 Clear -11 991 79 10000 5.14 350 11:50 31.12.2022
447 Clouds -17 992 89 10000 3.26 22 10:35 31.12.2022
448 Clouds -17 992 89 10000 3.35 22 09:53 31.12.2022
449 Clear -10 990 73 10000 6.69 360 09:18 31.12.2022
450 Clear -11 990 79 10000 7.2 350 07:48 31.12.2022
451 Clear -12 990 85 10000 5.14 350 00:35 31.12.2022
452 Clear -12 990 85 10000 5.14 350 00:35 31.12.2022
453 Clear -12 990 85 10000 5.14 350 00:35 31.12.2022
454 Clear -12 990 85 10000 5.66 350 23:45 30.12.2022
455 Clear -12 990 85 10000 6.17 340 22:49 30.12.2022
456 Clouds -12 989 85 10000 7.2 350 21:43 30.12.2022
457 Clouds -12 989 85 10000 7.2 350 21:23 30.12.2022
458 Clouds -17 991 87 10000 3.39 17 18:59 30.12.2022
459 Clear -12 989 85 10000 4.12 350 17:45 30.12.2022
460 Clear -12 989 85 10000 4.12 350 17:26 30.12.2022
461 Clouds -16 990 86 10000 3.43 17 15:56 30.12.2022
462 Clear -12 988 85 10000 5.14 340 14:38 30.12.2022
463 Clouds -12 989 79 10000 6.69 350 10:25 30.12.2022
464 Clouds -13 988 78 10000 5.66 350 08:19 30.12.2022
465 Clouds -17 990 88 10000 2.91 9 02:59 30.12.2022
466 Clear -20 989 77 10000 0 0 01:53 30.12.2022
467 Clear -20 990 77 10000 3.09 10 22:50 29.12.2022
468 Clear -21 990 84 10000 2.57 360 21:31 29.12.2022
469 Clouds -19 991 90 10000 2.74 11 20:54 29.12.2022
470 Clear -20 989 84 10000 0 0 20:25 29.12.2022
471 Clear -20 989 84 10000 2.06 360 18:26 29.12.2022
472 Clouds -19 989 78 10000 2.57 20 17:29 29.12.2022
473 Clouds -18 991 90 10000 2.5 10 16:55 29.12.2022
474 Clouds -18 991 90 10000 2.41 9 15:59 29.12.2022
475 Clouds -21 990 84 10000 0 0 15:18 29.12.2022
476 Clear -21 990 84 10000 0 0 13:33 29.12.2022
477 Clear -21 990 92 10000 0 0 11:28 29.12.2022
478 Clear -20 990 84 10000 0 0 07:43 29.12.2022
479 Clouds -14 991 78 10000 2.57 50 00:18 29.12.2022
480 Clouds -14 991 78 10000 2.06 80 23:27 28.12.2022
481 Clouds -14 990 78 10000 2.57 80 21:21 28.12.2022
482 Clouds -14 990 78 10000 3.09 70 20:25 28.12.2022
483 Clouds -14 990 78 10000 3.6 70 19:23 28.12.2022
484 Clouds -14 991 84 5973 2.06 35 16:56 28.12.2022
485 Clouds -14 990 78 10000 3.6 60 14:39 28.12.2022
486 Clouds -14 990 78 10000 4.12 70 12:54 28.12.2022
487 Clouds -14 990 78 10000 4.12 70 11:52 28.12.2022
488 Clouds -14 990 78 10000 3.6 70 10:37 28.12.2022
489 Clouds -14 989 78 10000 4.12 70 08:42 28.12.2022
490 Snow -14 988 78 10000 5.14 70 06:50 28.12.2022
491 Snow -14 988 78 10000 4.63 70 03:45 28.12.2022
492 Clouds -14 987 72 10000 3.09 50 23:23 27.12.2022
493 Clouds -18 987 74 10000 1.93 50 19:58 27.12.2022
494 Clouds -15 985 62 10000 3.09 70 19:24 27.12.2022
495 Clouds -18 985 71 10000 1.54 20 17:20 27.12.2022
496 Clear -16 984 61 10000 0 0 16:39 27.12.2022
497 Clear -17 985 66 10000 3.6 70 15:22 27.12.2022
498 Clear -15 984 56 10000 2.06 360 12:28 27.12.2022
499 Clear -14 984 56 10000 5.14 50 11:24 27.12.2022
500 Clear -15 984 61 10000 3.6 40 09:45 27.12.2022
501 Clear -15 984 61 10000 3.6 40 09:22 27.12.2022
502 Clear -13 984 47 10000 6.69 50 06:49 27.12.2022
503 Clear -13 984 52 10000 5.14 10 04:29 27.12.2022
504 Clear -12 985 44 10000 8.75 50 22:20 26.12.2022
505 Clear -12 986 44 10000 8.23 40 20:46 26.12.2022
506 Clear -12 986 44 10000 8.23 40 20:24 26.12.2022
507 Clear -13 988 47 10000 4.12 20 18:43 26.12.2022
508 Clear -13 988 47 10000 2.57 40 17:26 26.12.2022
509 Clear -14 990 51 10000 4.12 20 15:44 26.12.2022
510 Clear -14 992 51 10000 7.2 40 13:20 26.12.2022
511 Clear -14 993 52 10000 12.35 40 11:46 26.12.2022
512 Clear -16 998 55 10000 11.83 40 06:42 26.12.2022
513 Haze -14 1006 56 10000 14.92 60 23:46 25.12.2022
514 Clear -13 1008 64 10000 13.12 55 22:57 25.12.2022
515 Haze -14 1006 61 4828 15.43 50 22:26 25.12.2022
516 Haze -14 1007 57 6437 15.95 60 20:40 25.12.2022
517 Haze -15 1008 72 4828 15.43 60 18:27 25.12.2022
518 Haze -15 1008 72 2816 15.95 50 17:51 25.12.2022
519 Haze -15 1009 72 3219 15.95 50 17:33 25.12.2022
520 Clear -14 1010 66 4828 15.43 50 14:47 25.12.2022
521 Clear -13 1012 47 10000 11.32 50 11:49 25.12.2022
522 Clear -14 1012 56 10000 13.38 20 06:20 25.12.2022
523 Clear -13 1015 61 10000 8.75 50 23:22 24.12.2022
524 Clear -12 1016 56 10000 8.23 310 21:18 24.12.2022
525 Clear -14 1015 78 10000 3.66 20 17:56 24.12.2022
526 Clear -11 1018 57 10000 6.17 30 16:27 24.12.2022
527 Clear -10 1020 57 10000 1.54 120 14:37 24.12.2022
528 Clear -8 1021 49 10000 3.09 50 12:41 24.12.2022
529 Clear -7 1023 49 10000 7.2 40 10:31 24.12.2022
530 Clear -13 1021 82 10000 2.64 22 09:55 24.12.2022
531 Clear -7 1023 49 10000 5.14 350 09:36 24.12.2022
532 Clear -7 1026 49 10000 3.6 70 04:28 24.12.2022
533 Clear -7 1027 58 10000 4.63 10 00:52 24.12.2022
534 Clear -7 1028 53 10000 6.17 20 23:35 23.12.2022
535 Clear -8 1026 61 10000 3.8 2 21:55 23.12.2022
536 Clear -6 1028 53 10000 7.2 50 20:22 23.12.2022
537 Clear -5 1028 50 10000 5.66 50 19:39 23.12.2022
538 Clear -5 1028 50 10000 5.66 50 19:21 23.12.2022
539 Clear -4 1028 50 10000 10.8 60 18:38 23.12.2022
540 Clear -4 1028 50 10000 10.8 60 18:18 23.12.2022
541 Clear -4 1027 46 10000 11.83 50 16:32 23.12.2022
542 Clear -5 1026 50 10000 11.83 50 14:44 23.12.2022
543 Clear -5 1025 64 10000 8.63 53 10:57 23.12.2022
544 Clear -5 1025 58 10000 10.8 60 09:36 23.12.2022
545 Clear -6 1025 58 10000 11.32 50 07:45 23.12.2022
546 Clear -4 1025 54 10000 10.29 50 06:50 23.12.2022
547 Clear -5 1025 58 10000 9.26 20 05:27 23.12.2022
548 Clear -6 1026 45 10000 11.32 40 23:21 22.12.2022
549 Clear -7 1026 49 10000 11.32 50 22:34 22.12.2022
550 Clear -7 1027 45 10000 7.72 60 20:26 22.12.2022
551 Clear -8 1026 49 10000 9.77 50 19:23 22.12.2022
552 Clear -6 1027 42 10000 12.35 50 18:37 22.12.2022
553 Clear -11 1027 54 10000 4.8 33 16:59 22.12.2022
554 Clear -7 1028 45 10000 10.29 60 16:37 22.12.2022
555 Clear -7 1028 45 10000 12.86 60 15:32 22.12.2022
556 Clear -7 1028 45 10000 14.4 60 14:45 22.12.2022
557 Clear -7 1029 42 10000 13.38 50 13:32 22.12.2022
558 Clear -8 1030 45 10000 11.83 60 12:40 22.12.2022
559 Clear -9 1031 45 10000 12.35 50 10:32 22.12.2022
560 Clear -9 1031 54 10000 9.22 53 09:59 22.12.2022
561 Clear -9 1031 46 10000 11.83 60 09:20 22.12.2022
562 Clear -8 1031 45 10000 12.35 70 08:22 22.12.2022
563 Clear -9 1032 48 10000 12.86 60 05:18 22.12.2022
564 Clear -9 1033 45 10000 12.86 60 04:18 22.12.2022
565 Clear -13 1035 50 10000 8.66 58 22:56 21.12.2022
566 Clear -12 1035 63 10000 9.49 59 21:53 21.12.2022
567 Clear -10 1034 48 10000 12.35 70 21:21 21.12.2022
568 Snow -11 1035 52 10000 13.38 70 20:48 21.12.2022
569 Clear -12 1035 50 10000 10.67 57 19:58 21.12.2022
570 Clear -12 1035 56 10000 9.77 60 19:40 21.12.2022
571 Clear -12 1035 56 10000 9.77 60 19:21 21.12.2022
572 Clear -12 1034 56 10000 13.38 60 18:43 21.12.2022
573 Clear -13 1035 61 10000 10.29 40 17:35 21.12.2022
574 Clear -13 1036 57 10000 7.2 40 14:24 21.12.2022
575 Clear -12 1036 56 10000 8.75 60 12:49 21.12.2022
576 Clear -12 1037 56 10000 9.26 30 11:41 21.12.2022
577 Clear -12 1037 56 10000 9.26 30 11:19 21.12.2022
578 Clear -12 1035 56 10000 9.77 50 08:52 21.12.2022
579 Clear -18 1035 81 10000 3.51 38 06:59 21.12.2022
580 Clear -13 1034 66 10000 2.57 110 00:48 21.12.2022
581 Clear -9 1034 62 10000 5.14 50 22:41 20.12.2022
582 Clear -18 1034 78 10000 0 0 21:18 20.12.2022
583 Clear -18 1035 78 10000 0 0 20:18 20.12.2022
584 Clouds -18 1035 78 10000 0 0 18:49 20.12.2022
585 Clouds -18 1035 78 10000 0 0 18:26 20.12.2022
586 Clouds -18 1035 78 10000 0 0 18:26 20.12.2022
587 Clouds -20 1036 77 10000 0 0 17:51 20.12.2022
588 Clouds -20 1036 77 10000 0 0 17:28 20.12.2022
589 Clouds -21 1036 84 10000 0 0 16:32 20.12.2022
590 Clouds -16 1035 78 10000 1.62 11 14:57 20.12.2022
591 Clear -20 1037 77 10000 0 0 14:36 20.12.2022
592 Clear -19 1037 78 10000 0 0 13:52 20.12.2022
593 Clear -19 1037 78 10000 0 0 12:40 20.12.2022
594 Clouds -16 1036 77 10000 2.14 15 11:55 20.12.2022
595 Clear -17 1037 71 10000 0 0 10:47 20.12.2022
596 Clear -12 1037 52 10000 3.6 90 07:41 20.12.2022
597 Clear -9 1037 46 10000 4.63 70 00:23 20.12.2022
598 Clear -8 1037 41 10000 5.14 70 22:36 19.12.2022
599 Clear -8 1036 41 10000 4.12 70 21:33 19.12.2022
600 Clear -8 1036 42 10000 4.63 70 19:50 19.12.2022
601 Clear -8 1036 42 10000 4.63 70 19:31 19.12.2022
602 Clear -9 1036 48 10000 5.66 80 18:23 19.12.2022
603 Clear -8 1036 49 10000 6.69 80 16:29 19.12.2022
604 Clear -8 1037 50 10000 5.14 80 13:22 19.12.2022
605 Clouds -12 1035 63 10000 2.42 63 11:55 19.12.2022
606 Clear -8 1037 45 10000 4.63 90 08:47 19.12.2022
607 Clear -7 1037 38 10000 5.66 70 07:25 19.12.2022
608 Clouds -15 1037 70 10000 2.52 67 00:56 19.12.2022
609 Clear -8 1038 41 10000 4.63 90 21:50 18.12.2022
610 Clear -8 1038 41 10000 4.63 90 21:31 18.12.2022
611 Clear -12 1037 53 10000 2.64 64 20:57 18.12.2022
612 Clear -8 1038 41 10000 5.14 80 19:45 18.12.2022
613 Clear -8 1038 41 10000 5.14 80 19:24 18.12.2022
614 Clear -9 1038 48 10000 2.57 40 17:52 18.12.2022
615 Clear -8 1038 45 10000 2.06 60 16:26 18.12.2022
616 Clear -9 1038 48 10000 5.66 30 15:39 18.12.2022
617 Clear -9 1038 48 10000 5.66 30 15:18 18.12.2022
618 Clear -9 1038 57 10000 4.63 30 13:35 18.12.2022
619 Clear -7 1038 49 10000 4.63 10 12:51 18.12.2022
620 Clouds -13 1037 68 10000 2.93 62 11:53 18.12.2022
621 Clear -6 1037 42 10000 4.12 80 10:19 18.12.2022
622 Clear -4 1037 33 10000 7.2 70 08:47 18.12.2022
623 Clear -4 1037 36 10000 6.69 70 07:20 18.12.2022
624 Clear -4 1037 36 10000 4.63 70 06:19 18.12.2022
625 Clouds -12 1036 76 10000 2.23 59 01:59 18.12.2022
626 Clear -7 1038 45 10000 4.63 40 23:40 17.12.2022
627 Clouds -7 1038 49 10000 4.12 40 21:40 17.12.2022
628 Clouds -4 1038 36 10000 5.66 70 18:54 17.12.2022
629 Clear -6 1039 45 10000 5.14 70 16:39 17.12.2022
630 Clouds -6 1040 45 10000 5.66 80 14:23 17.12.2022
631 Clouds -6 1042 39 10000 7.2 70 11:36 17.12.2022
632 Clear -6 1042 39 10000 6.17 60 10:46 17.12.2022
633 Clear -7 1042 45 10000 5.66 50 09:41 17.12.2022
634 Clear -7 1043 43 10000 5.14 60 07:26 17.12.2022
635 Clear -9 1043 54 10000 5.14 50 06:45 17.12.2022
636 Clear -10 1047 53 10000 5.14 50 23:49 16.12.2022
637 Haze -18 1048 71 2816 0 0 20:56 16.12.2022
638 Clear -22 1048 92 10000 0 0 19:36 16.12.2022
639 Clear -13 1050 66 10000 4.12 70 15:43 16.12.2022
640 Clear -16 1050 78 10000 3.6 60 14:47 16.12.2022
641 Clear -19 1051 78 10000 0 0 13:44 16.12.2022
642 Clear -18 1051 89 10000 2.36 50 11:58 16.12.2022
643 Clear -22 1051 85 10000 1.83 72 09:53 16.12.2022
644 Clear -23 1050 92 10000 2.06 10 09:24 16.12.2022
645 Clear -18 1050 90 10000 2.56 45 07:55 16.12.2022
646 Clear -20 1050 84 10000 3.09 20 07:32 16.12.2022
647 Clear -23 1044 84 10000 2.57 350 23:30 15.12.2022
648 Clear -22 1044 92 10000 2.06 30 22:27 15.12.2022
649 Clear -20 1041 84 10000 1.54 140 20:36 15.12.2022
650 Clear -17 1039 78 10000 4.12 330 19:36 15.12.2022
651 Clear -17 1037 78 10000 2.57 10 18:24 15.12.2022
652 Clouds -17 1036 85 10000 4.63 320 17:25 15.12.2022
653 Clouds -11 1033 79 10000 2.06 0 15:35 15.12.2022
654 Clouds -11 1033 79 10000 2.06 0 15:35 15.12.2022
655 Clouds -11 1031 85 10000 4.63 300 13:36 15.12.2022
656 Clouds -12 1029 85 10000 2.57 300 12:33 15.12.2022
657 Clouds -12 1025 85 10000 1.54 80 09:41 15.12.2022
658 Clouds -16 1025 89 10000 2.26 68 08:53 15.12.2022
659 Clouds -13 1024 78 10000 4.63 80 06:24 15.12.2022
660 Clouds -16 1024 85 10000 5.14 70 04:54 15.12.2022
661 Clear -16 1024 85 10000 6.17 70 21:25 14.12.2022
662 Clouds -18 1025 91 10000 2.75 77 20:59 14.12.2022
663 Clear -15 1024 78 10000 5.14 70 20:31 14.12.2022
664 Clear -16 1024 85 10000 3.6 70 18:26 14.12.2022
665 Clouds -14 1024 78 10000 4.12 70 16:57 14.12.2022
666 Clouds -15 1024 78 10000 3.6 70 15:40 14.12.2022
667 Clear -16 1023 78 10000 4.12 60 13:53 14.12.2022
668 Clear -24 1022 77 10000 0 0 12:20 14.12.2022
669 Clear -26 1021 84 10000 1.54 10 10:36 14.12.2022
670 Clear -18 1021 92 10000 2.05 51 08:54 14.12.2022
671 Clear -17 1011 78 10000 2.57 270 23:22 13.12.2022
672 Clear -16 1009 78 10000 0 0 21:49 13.12.2022
673 Clear -16 1009 78 10000 0 0 21:19 13.12.2022
674 Clear -14 1007 67 10000 1.54 0 20:46 13.12.2022
675 Clouds -14 1007 85 10000 3.1 350 17:55 13.12.2022
676 Clear -15 1005 85 10000 5.66 290 16:22 13.12.2022
677 Clouds -14 1004 85 10000 4.63 300 14:52 13.12.2022
678 Clouds -13 1004 92 10000 0 0 12:43 13.12.2022
679 Snow -9 1004 100 10000 0 0 10:38 13.12.2022
680 Clouds -9 1004 86 10000 2.06 310 09:45 13.12.2022
681 Snow -11 1004 100 4828 1.54 10 07:51 13.12.2022
682 Mist -4 1003 86 4828 7.72 170 22:23 12.12.2022
683 Snow -5 1004 93 1609 2.57 160 21:39 12.12.2022
684 Snow -5 1004 80 4828 5.14 230 19:32 12.12.2022
685 Clouds -6 1004 79 10000 5.66 240 17:34 12.12.2022
686 Clouds -6 1003 69 10000 8.75 260 15:23 12.12.2022
687 Snow -7 1002 79 6437 4.63 290 12:44 12.12.2022
688 Clouds -7 1000 79 10000 6.69 280 09:20 12.12.2022
689 Snow -6 998 79 6437 6.69 290 07:37 12.12.2022
690 Clouds -10 997 87 10000 3.21 300 03:53 12.12.2022
691 Clouds -3 992 86 10000 5.14 240 23:51 11.12.2022
692 Mist -3 992 93 9656 5.66 250 21:43 11.12.2022
693 Clouds -2 991 93 10000 6.69 260 20:26 11.12.2022
694 Snow -2 990 100 4828 5.66 230 19:37 11.12.2022
695 Snow -1 988 93 10000 4.12 230 18:29 11.12.2022
696 Mist -1 988 100 9656 4.63 220 17:33 11.12.2022
697 Snow -1 988 100 4828 6.17 220 16:52 11.12.2022
698 Mist -1 987 100 2012 6.69 170 15:56 11.12.2022
699 Snow -1 987 100 2414 7.72 150 15:35 11.12.2022
700 Mist -1 987 100 1609 8.23 140 13:33 11.12.2022
701 Mist -1 987 100 3219 7.72 140 12:40 11.12.2022
702 Snow -1 987 100 4828 7.72 140 09:47 11.12.2022
703 Snow -3 990 100 402 13.89 110 00:39 11.12.2022
704 Snow -3 990 100 402 13.89 110 00:21 11.12.2022
705 Snow -3 993 100 402 14.4 110 22:33 10.12.2022
706 Fog -3 994 93 402 15.95 110 21:29 10.12.2022
707 Snow -3 996 100 402 14.4 100 20:41 10.12.2022
708 Snow -3 997 100 402 14.92 100 19:55 10.12.2022
709 Snow -3 1000 100 805 13.89 100 17:44 10.12.2022
710 Snow -3 1003 100 805 11.83 110 16:37 10.12.2022
711 Snow -2 1005 93 2816 8.75 120 15:40 10.12.2022
712 Snow -2 1005 93 2816 8.75 120 15:40 10.12.2022
713 Snow -2 1005 93 2816 8.75 120 15:20 10.12.2022
714 Snow -2 1008 93 10000 5.14 120 13:33 10.12.2022
715 Clouds -2 1009 98 8194 4.32 117 11:57 10.12.2022
716 Clouds -2 1010 100 10000 5.14 150 10:49 10.12.2022
717 Mist -2 1012 100 2414 4.63 160 09:41 10.12.2022
718 Mist -2 1013 100 4828 2.06 100 07:22 10.12.2022
719 Snow -5 1014 98 111 1.29 96 04:57 10.12.2022
720 Clouds -7 1016 96 1782 1.12 158 23:38 09.12.2022
721 Snow -7 1016 95 520 0.88 89 22:42 09.12.2022
722 Mist -4 1015 93 1609 2.06 350 21:28 09.12.2022
723 Snow -7 1015 86 2012 7.2 80 20:58 09.12.2022
724 Snow -7 1015 86 2414 7.2 80 19:46 09.12.2022
725 Clouds -7 1017 80 10000 5.14 80 17:56 09.12.2022
726 Snow -8 1017 79 10000 2.57 80 16:53 09.12.2022
727 Snow -8 1017 79 10000 2.57 80 16:18 09.12.2022
728 Clouds -13 1017 85 10000 0 0 15:27 09.12.2022
729 Clouds -18 1016 85 10000 1.54 40 12:41 09.12.2022
730 Clouds -18 1017 88 10000 1.78 10 10:50 09.12.2022
731 Clouds -17 1016 87 10000 1.83 1 10:20 09.12.2022
732 Clouds -7 1014 79 10000 4.12 290 05:37 09.12.2022
733 Clouds -8 1013 93 10000 2.57 290 03:18 09.12.2022
734 Clouds -9 1011 79 10000 2.06 360 22:51 08.12.2022
735 Clouds -14 1012 96 10000 1.93 347 20:55 08.12.2022
736 Clouds -17 1011 92 10000 2.16 347 18:57 08.12.2022
737 Clouds -8 1010 74 10000 3.6 330 16:26 08.12.2022
738 Clouds -7 1009 63 10000 4.12 340 14:30 08.12.2022
739 Clouds -7 1008 74 10000 2.57 340 12:28 08.12.2022
740 Snow -7 1008 86 10000 2.57 340 10:36 08.12.2022
741 Clouds -7 1007 86 10000 4.12 290 09:28 08.12.2022
742 Snow -13 1006 79 8047 2.57 320 06:51 08.12.2022
743 Snow -6 1002 93 4828 5.14 70 22:43 07.12.2022
744 Snow -6 1002 93 4023 4.63 80 22:18 07.12.2022
745 Snow -6 1003 86 2414 5.14 80 21:45 07.12.2022
746 Clouds -7 1002 86 10000 5.14 80 19:49 07.12.2022
747 Clear -12 1003 85 10000 1.54 20 17:51 07.12.2022
748 Mist -12 1002 92 8047 0 0 15:30 07.12.2022
749 Clear -12 1002 85 10000 0 0 13:20 07.12.2022
750 Clouds -10 999 85 10000 0 0 10:49 07.12.2022
751 Clouds -4 1002 85 10000 5.85 289 09:58 07.12.2022
752 Clouds -13 998 78 10000 3.09 20 08:55 07.12.2022
753 Clouds -12 998 85 10000 0 0 07:21 07.12.2022
754 Clear -8 997 79 10000 3.09 280 05:24 07.12.2022
755 Clouds -10 997 93 10000 2.39 330 23:58 06.12.2022
756 Clear -7 994 93 10000 2.06 10 21:49 06.12.2022
757 Clouds -6 993 86 10000 4.63 280 19:22 06.12.2022
758 Mist -4 993 93 8047 0 0 17:19 06.12.2022
759 Mist -3 993 87 2816 0 0 16:29 06.12.2022
760 Fog -4 993 93 402 0 0 15:35 06.12.2022
761 Mist -2 993 93 2816 1.54 80 14:35 06.12.2022
762 Snow -1 993 100 4828 0 0 13:49 06.12.2022
763 Snow -1 993 100 6437 1.54 140 12:41 06.12.2022
764 Snow -1 994 100 4023 3.6 150 11:34 06.12.2022
765 Snow -1 995 93 1609 12.86 120 07:50 06.12.2022
766 Clouds -1 999 80 10000 10.29 100 03:20 06.12.2022
767 Clouds -1 1004 86 10000 8.23 110 23:43 05.12.2022
768 Clouds -2 1006 86 10000 5.66 100 21:40 05.12.2022
769 Clouds -1 1007 80 10000 5.66 120 20:52 05.12.2022
770 Clouds -6 1007 95 10000 4.37 94 19:54 05.12.2022
771 Clouds -1 1006 80 10000 4.63 130 19:35 05.12.2022
772 Clouds -1 1006 75 10000 4.63 170 16:51 05.12.2022
773 Clouds -1 1005 74 10000 7.2 210 15:29 05.12.2022
774 Clouds -1 1004 70 10000 7.72 220 14:49 05.12.2022
775 Clouds -2 1003 82 10000 9.33 220 12:58 05.12.2022
776 Snow -1 1001 70 10000 10.8 220 12:38 05.12.2022
777 Snow -1 999 80 10000 13.89 220 11:42 05.12.2022
778 Snow 2 989 93 4828 14.92 160 08:37 05.12.2022
779 Rain 1 997 86 2414 13.89 100 00:18 05.12.2022
780 Rain 1 1000 86 10000 11.83 90 22:44 04.12.2022
781 Rain 1 1000 86 10000 11.83 90 22:19 04.12.2022
782 Rain 1 1000 86 10000 10.8 90 21:37 04.12.2022
783 Rain 1 1002 81 6437 10.8 100 20:20 04.12.2022
784 Rain 1 1003 80 10000 10.29 90 19:23 04.12.2022
785 Rain 1 1004 80 10000 9.26 90 18:36 04.12.2022
786 Snow 1 1005 80 10000 8.75 90 17:22 04.12.2022
787 Clouds 2 1006 75 10000 8.75 100 16:37 04.12.2022
788 Clouds 2 1006 75 10000 8.75 100 16:18 04.12.2022
789 Clouds 2 1007 75 10000 8.75 110 15:31 04.12.2022
790 Clouds 2 1008 75 10000 10.29 90 14:32 04.12.2022
791 Clear 2 1010 80 10000 9.26 110 12:52 04.12.2022
792 Clear 2 1010 80 10000 9.26 110 12:33 04.12.2022
793 Clear 2 1010 80 10000 8.75 90 11:35 04.12.2022
794 Clouds 1 1011 93 10000 8.75 100 08:50 04.12.2022
795 Fog 1 1012 93 805 6.17 110 02:52 04.12.2022
796 Snow 1 1014 87 2012 6.17 90 23:44 03.12.2022
797 Snow 1 1014 87 2012 6.69 90 22:47 03.12.2022
798 Mist 1 1014 87 2414 6.17 90 21:53 03.12.2022
799 Mist 1 1015 87 2414 5.14 90 20:46 03.12.2022
800 Snow -1 1015 98 420 4.12 81 18:57 03.12.2022
801 Snow 0 1015 87 4828 4.63 90 18:38 03.12.2022
802 Mist 0 1016 93 4023 2.06 110 15:53 03.12.2022
803 Snow 0 1016 93 6437 1.54 100 13:50 03.12.2022
804 Clouds 0 1016 98 1810 1.53 94 12:53 03.12.2022
805 Snow -1 1016 100 6437 2.06 290 12:21 03.12.2022
806 Mist 0 1016 93 9656 2.57 250 09:47 03.12.2022
807 Mist 0 1016 100 2816 3.6 190 06:27 03.12.2022
808 Snow 1 1017 93 402 3.09 150 00:23 03.12.2022
809 Clouds 1 1018 93 10000 4.12 120 22:20 02.12.2022
810 Clouds 0 1018 98 802 4.66 178 20:53 02.12.2022
811 Rain 1 1019 87 10000 4.63 110 18:18 02.12.2022
812 Rain 1 1019 87 10000 6.17 90 15:58 02.12.2022
813 Snow 0 1019 93 10000 6.69 110 14:38 02.12.2022
814 Snow 0 1019 93 10000 6.69 110 14:19 02.12.2022
815 Rain -1 1020 93 4828 7.2 100 12:51 02.12.2022
816 Mist -1 1021 93 4828 7.72 100 11:31 02.12.2022
817 Mist -1 1022 93 3219 6.69 100 08:35 02.12.2022
818 Mist -2 1022 93 2414 7.2 100 07:23 02.12.2022
819 Clouds -6 1026 86 10000 6.17 90 22:54 01.12.2022
820 Clouds -6 1026 86 10000 6.17 90 22:54 01.12.2022
821 Clouds -6 1027 93 10000 5.66 80 21:44 01.12.2022
822 Clouds -6 1027 93 10000 5.66 80 21:26 01.12.2022
823 Clouds -6 1027 93 10000 4.63 80 19:22 01.12.2022
824 Clouds -5 1027 86 10000 4.63 80 17:46 01.12.2022
825 Clouds -6 1027 86 10000 4.12 70 15:39 01.12.2022
826 Clouds -8 1026 92 10000 1.24 36 11:37 01.12.2022
827 Clouds -8 1026 89 10000 2.05 346 09:55 01.12.2022
828 Clear -5 1025 75 10000 2.57 100 09:37 01.12.2022
829 Clear -4 1024 68 10000 3.6 30 08:18 01.12.2022
830 Clouds -9 1012 92 10000 2.76 319 23:59 30.11.2022
831 Snow -4 1007 81 10000 4.63 360 22:35 30.11.2022
832 Snow -4 1007 86 6437 3.6 50 21:19 30.11.2022
833 Snow -5 1008 86 2012 6.69 70 20:25 30.11.2022
834 Snow -5 1009 86 1207 7.2 70 19:36 30.11.2022
835 Snow -6 1012 86 805 6.17 80 18:33 30.11.2022
836 Snow -7 1015 86 805 7.72 80 17:35 30.11.2022
837 Mist -8 1020 86 1609 8.75 90 14:47 30.11.2022
838 Snow -8 1020 86 1207 8.75 90 14:27 30.11.2022
839 Snow -8 1023 74 2414 8.75 100 13:31 30.11.2022
840 Clouds -7 1028 69 10000 6.17 120 10:24 30.11.2022
841 Clouds -6 1030 64 10000 7.2 130 08:38 30.11.2022
842 Clouds -7 1031 86 10000 4.63 100 07:25 30.11.2022
843 Clouds -9 1037 73 10000 5.14 80 23:33 29.11.2022
844 Clouds -9 1037 73 10000 6.17 70 22:46 29.11.2022
845 Clouds -10 1038 79 10000 6.69 80 21:25 29.11.2022
846 Clear -10 1038 73 10000 5.66 70 20:36 29.11.2022
847 Clouds -11 1038 79 10000 6.17 70 18:57 29.11.2022
848 Clouds -17 1038 85 10000 2.68 67 16:59 29.11.2022
849 Clear -11 1039 68 10000 4.63 70 16:22 29.11.2022
850 Clear -12 1040 67 10000 3.09 70 14:49 29.11.2022
851 Clear -12 1040 62 10000 3.6 60 12:46 29.11.2022
852 Clear -12 1040 61 10000 3.6 60 11:32 29.11.2022
853 Clouds -16 1039 81 10000 2.59 66 10:53 29.11.2022
854 Clear -13 1040 61 10000 3.6 50 09:38 29.11.2022
855 Clear -13 1040 66 10000 3.09 50 08:34 29.11.2022
856 Clear -13 1038 53 10000 2.57 50 00:36 29.11.2022
857 Clear -16 1038 60 10000 1.54 100 23:34 28.11.2022
858 Clear -18 1038 60 10000 3.09 10 22:50 28.11.2022
859 Clear -17 1037 60 10000 0 0 21:43 28.11.2022
860 Clear -14 1037 56 10000 0 0 20:37 28.11.2022
861 Clear -13 1036 53 10000 1.54 90 19:38 28.11.2022
862 Clear -14 1036 57 10000 2.06 20 18:29 28.11.2022
863 Clear -19 1036 71 10000 1.54 260 17:50 28.11.2022
864 Clear -18 1037 71 10000 0 0 15:31 28.11.2022
865 Clear -18 1037 71 10000 0 0 14:24 28.11.2022
866 Clear -14 1037 61 10000 4.12 30 13:46 28.11.2022
867 Clear -14 1037 66 10000 3.09 40 12:35 28.11.2022
868 Clear -12 1038 68 10000 4.63 50 09:27 28.11.2022
869 Clear -11 1038 74 10000 3.6 30 06:29 28.11.2022
870 Clear -9 1039 68 10000 4.12 60 04:42 28.11.2022
871 Clouds -9 1039 68 10000 3.6 70 03:23 28.11.2022
872 Clouds -8 1039 67 10000 4.12 80 01:27 28.11.2022
873 Clouds -8 1040 68 10000 2.57 80 22:35 27.11.2022
874 Clouds -9 1041 68 10000 0 0 21:27 27.11.2022
875 Clouds -14 1039 73 10000 2.06 10 19:28 27.11.2022
876 Clear -18 1039 78 10000 0 0 16:45 27.11.2022
877 Clear -17 1039 85 10000 0 0 14:30 27.11.2022
878 Clear -18 1039 78 10000 1.54 300 12:31 27.11.2022
879 Clear -14 1038 72 10000 0 0 10:40 27.11.2022
880 Clear -12 1037 84 10000 3.09 329 07:57 27.11.2022
881 Clear -11 1028 73 10000 5.14 300 23:43 26.11.2022
882 Clear -7 1026 68 10000 8.23 320 21:52 26.11.2022
883 Clear -7 1024 68 10000 7.72 320 20:36 26.11.2022
884 Clouds -6 1023 68 10000 8.75 320 19:21 26.11.2022
885 Snow -6 1020 86 10000 5.14 300 16:49 26.11.2022
886 Clouds -6 1018 79 10000 3.09 330 15:38 26.11.2022
887 Clouds -9 1016 93 10000 8.69 291 12:55 26.11.2022
888 Clear -8 1013 86 10000 2.06 340 11:23 26.11.2022
889 Clear -8 1011 79 10000 2.06 310 09:44 26.11.2022
890 Snow -6 1011 69 10000 4.12 320 08:45 26.11.2022
891 Clouds -11 1003 85 10000 0 0 23:22 25.11.2022
892 Clouds -17 1002 85 10000 0 0 21:41 25.11.2022
893 Clouds -17 1001 85 10000 0 0 20:33 25.11.2022
894 Clouds -19 1000 84 10000 0 0 19:24 25.11.2022
895 Clear -17 998 85 10000 0 0 15:42 25.11.2022
896 Clear -16 996 92 10000 1.54 330 12:20 25.11.2022
897 Clouds -16 996 88 10000 1.62 332 08:56 25.11.2022
898 Clear -11 994 79 10000 4.63 330 08:37 25.11.2022
899 Clouds -7 994 73 10000 5.14 350 06:48 25.11.2022
900 Snow -6 993 86 4828 5.14 60 01:26 25.11.2022
901 Snow -6 993 86 6437 6.69 70 23:41 24.11.2022
902 Snow -6 993 86 3219 6.17 70 22:35 24.11.2022
903 Snow -6 994 93 1609 6.17 70 21:39 24.11.2022
904 Snow -5 994 86 2012 8.23 100 19:48 24.11.2022
905 Snow -4 995 86 1207 5.66 100 17:48 24.11.2022
906 Snow -4 995 86 2414 5.66 110 17:24 24.11.2022
907 Snow -4 996 86 2414 5.66 130 16:40 24.11.2022
908 Snow -3 997 81 4828 6.69 130 14:24 24.11.2022
909 Snow -4 998 81 2816 4.63 90 12:41 24.11.2022
910 Clouds -4 1000 80 10000 5.14 70 11:37 24.11.2022
911 Snow -4 1002 81 10000 3.6 80 08:47 24.11.2022
912 Clouds -5 1004 81 10000 3.09 80 06:22 24.11.2022
913 Clouds -9 1008 86 10000 0 0 00:40 24.11.2022
914 Clouds -12 1009 92 10000 2.06 10 23:32 23.11.2022
915 Clouds -14 1009 85 10000 3.09 20 21:48 23.11.2022
916 Clear -14 1009 85 10000 2.06 290 20:51 23.11.2022
917 Clouds -13 1009 85 10000 1.54 280 19:34 23.11.2022
918 Clouds -10 1009 95 8207 2.3 356 18:55 23.11.2022
919 Clouds -14 1008 85 10000 1.54 330 17:29 23.11.2022
920 Clouds -11 1006 92 10000 0 0 13:42 23.11.2022
921 Clouds -11 1006 92 10000 0 0 13:23 23.11.2022
922 Clouds -7 1005 79 10000 1.54 300 12:23 23.11.2022
923 Clouds -7 1004 86 10000 0 0 11:45 23.11.2022
924 Clouds -7 1004 86 10000 0 0 10:48 23.11.2022
925 Clouds -7 1003 86 10000 0 0 09:57 23.11.2022
926 Clouds -7 1003 86 10000 2.57 320 09:27 23.11.2022
927 Clouds -8 1004 92 10000 2.23 345 08:58 23.11.2022
928 Clouds -5 1002 81 10000 0 0 08:35 23.11.2022
929 Clouds -6 999 86 10000 0 0 05:19 23.11.2022
930 Snow -6 996 86 10000 3.09 320 01:42 23.11.2022
931 Clouds -8 994 93 10000 2.06 10 22:37 22.11.2022
932 Clouds -9 994 86 10000 0 0 21:49 22.11.2022
933 Clouds -9 994 86 10000 0 0 21:23 22.11.2022
934 Mist -8 993 93 4828 0 0 20:43 22.11.2022
935 Clouds -8 993 93 10000 0 0 19:45 22.11.2022
936 Clouds -6 994 95 658 1.75 357 17:54 22.11.2022
937 Snow -7 992 93 10000 0 0 16:38 22.11.2022
938 Snow -4 992 86 10000 0 0 14:31 22.11.2022
939 Snow -4 991 86 9656 2.06 320 12:51 22.11.2022
940 Snow -4 991 86 8047 0 0 09:28 22.11.2022
941 Snow -4 991 86 8047 0 0 09:28 22.11.2022
942 Snow -4 991 86 8047 0 0 09:28 22.11.2022
943 Snow -4 990 86 4828 0 0 07:59 22.11.2022
944 Snow -4 990 93 4023 0 0 06:43 22.11.2022
945 Snow -3 990 93 3219 2.06 340 00:23 22.11.2022
946 Snow -2 991 86 3219 1.54 60 22:52 21.11.2022
947 Snow -2 991 86 3219 1.54 60 22:23 21.11.2022
948 Snow -2 991 86 3219 0 0 21:31 21.11.2022
949 Snow -2 991 86 6437 0 0 19:54 21.11.2022
950 Mist -2 991 86 6437 0 0 19:35 21.11.2022
951 Snow -2 991 86 4828 0 0 18:51 21.11.2022
952 Snow -2 991 93 4828 0 0 17:28 21.11.2022
953 Snow -2 991 93 8047 0 0 16:42 21.11.2022
954 Mist -2 991 93 4828 0 0 15:58 21.11.2022
955 Snow -2 991 93 4828 0 0 15:23 21.11.2022
956 Snow -2 992 93 4023 0 0 13:53 21.11.2022
957 Snow -2 992 93 2816 0 0 12:50 21.11.2022
958 Clouds -1 993 86 10000 0 0 09:35 21.11.2022
959 Snow -1 994 86 4828 0 0 07:52 21.11.2022
960 Clouds -1 996 80 10000 0 0 00:36 21.11.2022
961 Clouds -1 997 80 10000 1.54 10 21:39 20.11.2022
962 Clouds -1 998 80 10000 1.54 290 20:47 20.11.2022
963 Clouds 1 998 69 10000 3.6 20 19:21 20.11.2022
964 Clouds -1 999 86 10000 0 0 17:24 20.11.2022
965 Clouds 1 1000 69 10000 1.54 320 15:44 20.11.2022
966 Clouds 1 1000 69 10000 1.54 320 15:21 20.11.2022
967 Clouds 2 1001 70 10000 4.12 350 14:18 20.11.2022
968 Clouds 1 1001 75 10000 2.57 360 13:32 20.11.2022
969 Clouds 1 1001 75 10000 2.57 360 13:32 20.11.2022
970 Clouds 1 1003 75 10000 2.06 360 11:46 20.11.2022
971 Clouds -3 1003 86 10000 3.28 26 10:58 20.11.2022
972 Clouds -3 1003 86 10000 3.28 26 10:58 20.11.2022
973 Clouds 1 1003 80 10000 0 0 09:44 20.11.2022
974 Clouds 1 1003 80 10000 0 0 09:44 20.11.2022
975 Clouds 0 1005 93 10000 2.96 24 08:55 20.11.2022
976 Clouds 0 1004 86 10000 3.6 340 08:32 20.11.2022
977 Clouds 1 1005 81 10000 2.57 350 07:26 20.11.2022
978 Clouds 1 1008 100 10000 0 0 01:29 20.11.2022
979 Clouds 2 1008 87 10000 1.54 30 00:55 20.11.2022
980 Clouds 1 1009 86 10000 1.54 350 00:36 20.11.2022
981 Clouds 1 1009 86 10000 1.54 350 00:18 20.11.2022
982 Clouds 1 1010 86 10000 3.09 340 23:26 19.11.2022
983 Clouds 1 1010 87 10000 0 0 22:48 19.11.2022
984 Clouds 1 1011 87 10000 0 0 21:57 19.11.2022
985 Clouds 1 1011 87 10000 1.54 310 21:25 19.11.2022
986 Clouds 0 1012 93 10000 0 0 20:41 19.11.2022
987 Clouds 1 1012 86 10000 0 0 19:51 19.11.2022
988 Clouds 0 1013 97 10000 1.41 36 18:54 19.11.2022
989 Clouds -1 1013 93 10000 0 0 17:39 19.11.2022
990 Clouds -1 1013 93 10000 0 0 17:18 19.11.2022
991 Clouds 0 1015 97 10000 2.16 65 14:58 19.11.2022
992 Clouds -1 1015 93 10000 1.54 50 13:34 19.11.2022
993 Clouds 0 1017 99 10000 1.13 34 11:56 19.11.2022
994 Clouds 0 1017 93 10000 0 0 09:51 19.11.2022
995 Fog 0 1017 93 805 0 0 08:19 19.11.2022
996 Snow 1 1018 93 8047 1.54 110 04:45 19.11.2022
997 Mist 1 1018 100 1609 2.06 90 00:50 19.11.2022
998 Fog 1 1019 100 805 2.06 100 23:35 18.11.2022
999 Mist 1 1018 100 1207 2.06 90 22:24 18.11.2022
1000 Snow 1 1019 100 1207 1.54 110 21:36 18.11.2022
1001 Mist 1 1019 100 2414 1.54 110 20:58 18.11.2022
1002 Mist 1 1019 93 2414 2.57 120 20:25 18.11.2022
1003 Mist 1 1019 93 2816 3.09 120 19:37 18.11.2022
1004 Mist 1 1019 100 1609 2.57 100 17:45 18.11.2022
1005 Mist 1 1019 100 1609 2.57 100 17:45 18.11.2022
1006 Mist 1 1020 100 1609 3.09 120 16:32 18.11.2022
1007 Mist 1 1021 100 1609 3.6 160 12:39 18.11.2022
1008 Mist 1 1021 100 4828 3.6 150 10:45 18.11.2022
1009 Rain 1 1020 100 2816 5.14 180 07:52 18.11.2022
1010 Rain 2 1020 93 4023 4.12 140 05:45 18.11.2022
1011 Rain 2 1019 93 2414 6.17 150 02:49 18.11.2022
1012 Rain 2 1021 93 6437 6.17 120 23:48 17.11.2022
1013 Rain 2 1021 93 9656 8.23 120 20:48 17.11.2022
1014 Rain 2 1021 93 9656 8.23 120 20:24 17.11.2022
1015 Mist 2 1022 87 4828 8.23 120 19:31 17.11.2022
1016 Clouds 2 1022 87 10000 7.72 110 18:34 17.11.2022
1017 Snow 1 1023 95 5188 6.64 98 17:32 17.11.2022
1018 Clouds 1 1024 94 10000 6.77 101 16:32 17.11.2022
1019 Clouds 1 1025 94 10000 8.23 103 12:27 17.11.2022
1020 Clouds 1 1025 91 10000 8.37 95 11:19 17.11.2022
1021 Clouds 0 1026 74 10000 9.77 90 07:35 17.11.2022
1022 Clouds -1 1028 80 10000 8.75 90 01:30 17.11.2022
1023 Clouds -1 1029 80 10000 8.23 90 23:33 16.11.2022
1024 Clouds -2 1029 86 10000 9.77 90 22:25 16.11.2022
1025 Clear -2 1029 80 10000 9.26 90 20:33 16.11.2022
1026 Clouds -5 1030 87 10000 5.78 82 18:54 16.11.2022
1027 Clear -3 1029 80 10000 7.72 80 18:32 16.11.2022
1028 Clear -2 1029 86 10000 7.72 90 16:30 16.11.2022
1029 Clouds -3 1031 89 10000 6.19 103 12:56 16.11.2022
1030 Clear -3 1031 80 10000 7.2 90 08:27 16.11.2022
1031 Clear -3 1035 74 10000 8.23 100 01:49 16.11.2022
1032 Clear -5 1036 80 10000 7.2 90 23:50 15.11.2022
1033 Clouds -5 1036 86 10000 6.65 84 21:54 15.11.2022
1034 Clouds -4 1037 80 10000 9.77 100 20:25 15.11.2022
1035 Clouds -6 1037 86 10000 7.2 80 19:18 15.11.2022
1036 Clouds -5 1038 80 10000 5.66 80 17:38 15.11.2022
1037 Clouds -4 1038 74 10000 5.14 80 16:52 15.11.2022
1038 Clouds -4 1038 74 10000 5.14 80 16:18 15.11.2022
1039 Clouds -6 1038 79 10000 4.63 70 14:41 15.11.2022
1040 Clouds -12 1039 99 8065 3.11 63 12:59 15.11.2022
1041 Clouds -5 1038 74 10000 5.14 80 11:22 15.11.2022
1042 Clouds -12 1037 98 8270 2.33 55 09:53 15.11.2022
1043 Clear -14 1031 78 10000 0 0 03:48 15.11.2022
1044 Clear -12 1029 73 10000 0 0 00:28 15.11.2022
1045 Clear -14 1027 78 10000 1.54 350 22:52 14.11.2022
1046 Clear -16 1025 85 10000 2.06 350 20:53 14.11.2022
1047 Clear -16 1025 85 10000 2.06 350 20:30 14.11.2022
1048 Clear -13 1023 72 10000 0 0 18:28 14.11.2022
1049 Clear -12 1018 79 10000 0 0 13:21 14.11.2022
1050 Clear -9 1017 73 10000 2.57 340 11:49 14.11.2022
1051 Clear -9 1017 73 10000 2.57 340 11:28 14.11.2022
1052 Clear -10 1014 73 10000 0 0 08:48 14.11.2022
1053 Clear -10 1013 73 10000 0 0 07:52 14.11.2022
1054 Clear -9 1012 67 10000 0 0 05:46 14.11.2022
1055 Clear -6 1011 63 10000 1.54 0 23:24 13.11.2022
1056 Clear -6 1010 63 10000 3.09 310 21:43 13.11.2022
1057 Clear -10 1011 85 10000 3.4 339 20:54 13.11.2022
1058 Clear -10 1010 86 10000 3.31 339 18:59 13.11.2022
1059 Clear -6 1008 63 10000 3.6 10 17:50 13.11.2022
1060 Clear -11 1009 87 10000 2.84 336 16:56 13.11.2022
1061 Clear -7 1008 68 10000 3.09 350 14:54 13.11.2022
1062 Clear -8 1007 73 10000 4.12 340 13:24 13.11.2022
1063 Clear -4 1007 58 10000 7.72 360 12:34 13.11.2022
1064 Clear -7 1006 68 10000 2.06 280 10:48 13.11.2022
1065 Clear -9 1004 73 10000 1.54 300 06:31 13.11.2022
1066 Clear -4 1002 63 10000 2.06 340 00:34 13.11.2022
1067 Clear -9 1002 87 10000 4.55 347 21:59 12.11.2022
1068 Clear -6 1000 79 10000 1.54 320 21:23 12.11.2022
1069 Clear -7 1000 73 10000 2.06 300 19:52 12.11.2022
1070 Clear -7 1000 73 10000 2.57 210 17:53 12.11.2022
1071 Clear -7 1000 73 10000 0 0 16:21 12.11.2022
1072 Clear -11 1000 85 10000 2.06 290 14:50 12.11.2022
1073 Clear -14 1001 72 10000 1.54 330 11:24 12.11.2022
1074 Clear -12 1002 67 10000 2.06 50 08:28 12.11.2022
1075 Clouds -8 1003 76 10000 4.38 5 01:59 12.11.2022
1076 Clear -13 1004 78 10000 0 0 21:43 11.11.2022
1077 Clear -9 1004 73 10000 3.09 350 20:45 11.11.2022
1078 Clear -9 1003 73 10000 4.63 360 19:30 11.11.2022
1079 Clear -10 1005 73 10000 3.6 360 18:42 11.11.2022
1080 Clear -11 1005 85 10000 3.6 20 17:42 11.11.2022
1081 Clouds -12 1005 85 10000 1.54 10 15:36 11.11.2022
1082 Clear -10 1005 79 10000 2.57 20 14:20 11.11.2022
1083 Clear -11 1005 85 10000 3.09 360 12:46 11.11.2022
1084 Clouds -9 1005 86 10000 3.09 330 09:37 11.11.2022
1085 Clear -6 1005 86 10000 2.57 300 08:27 11.11.2022
1086 Snow 1 1004 86 10000 5.14 200 03:55 11.11.2022
1087 Clouds -2 1006 86 10000 5.14 90 22:55 10.11.2022
1088 Clouds -2 1006 86 10000 4.63 80 21:55 10.11.2022
1089 Clouds -2 1006 86 10000 4.63 80 21:32 10.11.2022
1090 Clouds -3 1007 86 10000 3.6 90 20:49 10.11.2022
1091 Clouds -3 1007 86 10000 3.6 90 20:20 10.11.2022
1092 Clouds -3 1007 86 10000 3.6 90 19:34 10.11.2022
1093 Clouds -4 1007 86 10000 1.54 340 18:19 10.11.2022
1094 Clouds -3 1006 86 10000 0 0 16:26 10.11.2022
1095 Snow -3 1006 93 6437 1.54 20 13:43 10.11.2022
1096 Snow -3 1006 86 2816 1.54 250 11:33 10.11.2022
1097 Mist -1 1004 93 4828 5.66 250 08:43 10.11.2022
1098 Clouds 1 1003 70 10000 3.6 250 01:31 10.11.2022
1099 Snow 0 1003 80 2816 6.69 250 23:34 09.11.2022
1100 Rain 1 1003 75 10000 5.14 240 22:36 09.11.2022
1101 Rain 1 1002 70 10000 4.63 250 20:48 09.11.2022
1102 Rain 1 1002 70 10000 4.63 250 20:29 09.11.2022
1103 Clouds 0 1001 81 10000 1.54 260 19:42 09.11.2022
1104 Clouds 0 1001 80 10000 1.54 260 19:18 09.11.2022
1105 Clouds 1 1001 70 10000 7.2 250 16:19 09.11.2022
1106 Clouds 1 1000 70 10000 5.14 250 14:48 09.11.2022
1107 Clouds 1 1000 70 10000 6.17 240 14:25 09.11.2022
1108 Clouds 1 1000 70 10000 7.2 240 13:19 09.11.2022
1109 Clouds 1 1000 80 10000 6.69 240 11:46 09.11.2022
1110 Clouds 1 999 86 10000 6.17 230 08:44 09.11.2022
1111 Rain 1 998 86 10000 7.72 230 07:46 09.11.2022
1112 Rain 1 998 86 10000 7.72 230 07:46 09.11.2022
1113 Rain 1 998 86 10000 7.72 230 07:46 09.11.2022
1114 Snow 2 998 93 1609 5.14 160 00:56 09.11.2022
1115 Clouds 2 998 87 10000 5.66 200 21:46 08.11.2022
1116 Rain 2 998 81 10000 8.23 210 21:28 08.11.2022
1117 Clouds 2 998 87 10000 8.75 220 20:41 08.11.2022
1118 Snow 2 997 81 9656 10.29 200 19:40 08.11.2022
1119 Clouds 2 998 92 10000 10.18 200 18:57 08.11.2022
1120 Clouds 3 996 81 10000 10.29 190 17:26 08.11.2022
1121 Clouds 3 994 81 10000 9.26 180 14:56 08.11.2022
1122 Clouds 3 994 81 10000 9.77 200 13:44 08.11.2022
1123 Clouds 2 994 87 10000 9.77 200 13:25 08.11.2022
1124 Rain 3 990 93 10000 9.77 180 09:46 08.11.2022
1125 Snow 3 988 100 4828 9.77 190 07:25 08.11.2022
1126 Snow 0 991 93 402 14.4 100 00:34 08.11.2022
1127 Snow -1 997 93 402 12.35 100 22:51 07.11.2022
1128 Snow -1 998 86 402 11.32 100 21:38 07.11.2022
1129 Snow -2 999 93 805 13.38 90 20:44 07.11.2022
1130 Snow -2 1001 93 805 11.83 100 19:33 07.11.2022
1131 Fog -3 1007 93 402 10.8 90 17:39 07.11.2022
1132 Snow -2 1010 81 805 12.35 100 15:36 07.11.2022
1133 Snow -2 1011 75 1731 13.34 96 14:54 07.11.2022
1134 Snow -2 1014 70 5923 9.84 86 12:59 07.11.2022
1135 Clouds -2 1020 69 10000 8.75 80 11:50 07.11.2022
1136 Clear -1 1024 80 10000 7.2 80 09:49 07.11.2022
1137 Clouds -2 1026 75 10000 5.66 80 08:18 07.11.2022
1138 Clouds 0 1028 81 10000 6.17 140 06:27 07.11.2022
1139 Snow 0 1032 86 10000 9.26 180 01:42 07.11.2022
1140 Snow 0 1033 95 264 7.51 180 23:19 06.11.2022
1141 Mist 1 1033 86 9656 10.29 170 21:21 06.11.2022
1142 Mist 1 1033 86 9656 11.32 170 20:36 06.11.2022
1143 Snow 1 1033 86 4828 10.29 170 19:56 06.11.2022
1144 Snow 1 1033 86 3219 11.32 180 18:48 06.11.2022
1145 Snow 1 1033 86 3219 11.32 180 18:20 06.11.2022
1146 Clouds 1 1033 86 10000 11.83 170 17:22 06.11.2022
1147 Snow 0 1033 95 346 9.27 175 16:53 06.11.2022
1148 Clouds 1 1034 86 10000 10.29 170 16:18 06.11.2022
1149 Clouds 0 1034 86 10000 11.32 160 14:45 06.11.2022
1150 Snow -1 1035 93 3219 10.8 160 12:44 06.11.2022
1151 Snow -1 1036 80 2816 10.8 150 10:52 06.11.2022
1152 Clouds -1 1037 70 10000 10.8 150 09:51 06.11.2022
1153 Clouds -1 1037 70 10000 9.26 140 07:39 06.11.2022
1154 Clear -6 1038 79 10000 2.57 70 23:23 05.11.2022
1155 Clear -14 1036 85 10000 0 0 20:40 05.11.2022
1156 Clear -15 1035 85 10000 0 0 18:22 05.11.2022
1157 Clear -15 1035 85 10000 0 0 18:22 05.11.2022
1158 Clear -15 1034 85 10000 0 0 16:26 05.11.2022
1159 Clear -14 1033 78 10000 1.54 270 14:42 05.11.2022
1160 Clouds -13 1032 78 10000 1.54 20 13:32 05.11.2022
1161 Clouds -9 1030 84 10000 3.48 315 10:54 05.11.2022
1162 Clouds -11 1027 91 10000 3.74 317 08:55 05.11.2022
1163 Clear -7 1024 93 10000 3.6 320 07:23 05.11.2022
1164 Clouds -8 1025 90 10000 4.11 307 06:54 05.11.2022
1165 Clear -6 1018 63 10000 4.12 330 23:45 04.11.2022
1166 Clear -6 1018 63 10000 4.12 330 23:18 04.11.2022
1167 -273 0 0 0 0 0 20:34 04.11.2022
1168 Clear -13 1014 78 10000 4.63 300 19:28 04.11.2022
1169 Clear -12 1013 73 10000 4.12 320 17:24 04.11.2022
1170 Clouds -12 1013 88 10000 3.25 23 13:54 04.11.2022
1171 Clear -12 1012 85 10000 2.06 30 12:27 04.11.2022
1172 Clouds -8 1013 74 10000 0 0 10:51 04.11.2022
1173 Clouds -9 1014 85 10000 2.73 10 08:53 04.11.2022
1174 Clouds -6 1013 69 10000 3.6 310 07:46 04.11.2022
1175 Snow -8 1014 79 10000 2.06 320 05:24 04.11.2022
1176 Snow -4 1012 86 6437 5.14 290 23:28 03.11.2022
1177 Snow -7 1011 73 4023 3.6 310 20:52 03.11.2022
1178 Clear -8 1011 73 10000 4.12 290 20:29 03.11.2022
1179 Clouds -7 1011 68 10000 5.66 320 19:40 03.11.2022
1180 Clear -11 1009 92 10000 0 0 17:51 03.11.2022
1181 Clouds -12 1011 85 9006 3.76 317 16:53 03.11.2022
1182 Clouds -10 1010 83 10000 4.14 310 14:53 03.11.2022
1183 Clouds -6 1008 73 10000 4.12 300 13:19 03.11.2022
1184 Clouds -6 1008 73 10000 3.6 310 12:30 03.11.2022
1185 Clear -9 1007 79 10000 3.09 280 09:43 03.11.2022
1186 Clouds -11 1007 79 10000 1.54 320 07:43 03.11.2022
1187 Clouds -9 1004 70 10000 2.95 336 21:30 02.11.2022
1188 Clear -9 1003 62 10000 6.17 70 20:40 02.11.2022
1189 Clouds -9 1003 75 10000 3.76 341 19:59 02.11.2022
1190 Clear -7 1002 50 10000 2.06 0 17:29 02.11.2022
1191 Clear -7 1001 58 10000 6.69 320 16:19 02.11.2022
1192 Snow -7 1000 63 1207 18.01 40 14:53 02.11.2022
1193 Clear -8 1001 67 6437 12.35 30 12:45 02.11.2022
1194 Clear -7 1001 63 3219 15.95 30 11:50 02.11.2022
1195 Clear -7 1003 63 10000 9.77 50 09:22 02.11.2022
1196 Clear -6 1005 59 10000 8.75 50 05:36 02.11.2022
1197 Clouds -6 1010 63 10000 6.69 40 00:28 02.11.2022
1198 Clear -6 1012 68 10000 4.63 70 22:19 01.11.2022
1199 Clouds -7 1013 79 10000 5.14 60 21:41 01.11.2022
1200 Clouds -6 1013 74 10000 6.17 70 20:26 01.11.2022
1201 Clouds -6 1014 79 10000 5.66 70 19:54 01.11.2022
1202 Clouds -6 1014 79 10000 5.66 70 19:35 01.11.2022
1203 Clouds -4 1014 74 10000 6.69 60 17:33 01.11.2022
1204 Clear -4 1015 69 10000 7.2 70 16:22 01.11.2022
1205 Clouds -4 1016 69 10000 6.17 70 14:29 01.11.2022
1206 Snow -4 1017 74 4828 6.69 70 12:29 01.11.2022
1207 Snow -4 1018 74 4828 6.17 70 11:24 01.11.2022
1208 Snow -4 1018 74 4828 6.69 70 10:57 01.11.2022
1209 Clouds -5 1019 74 10000 5.14 70 08:44 01.11.2022
1210 Clear -5 1019 75 10000 5.66 70 07:31 01.11.2022
1211 Clouds -4 1019 69 10000 5.14 70 06:48 01.11.2022
1212 Clouds -10 1020 88 10000 3.96 65 05:58 01.11.2022
1213 Clouds -9 1020 88 10000 3.31 55 03:55 01.11.2022
1214 Clouds -8 1021 92 10000 2.61 31 21:59 31.10.2022
1215 Clouds -8 1020 93 10000 2.97 17 20:53 31.10.2022
1216 Clear -9 1020 92 10000 3 8 19:55 31.10.2022
1217 Clear -12 1019 79 10000 0 0 18:28 31.10.2022
1218 Clear -8 1018 79 10000 0 0 16:43 31.10.2022
1219 Clear -4 1017 74 10000 5.14 290 13:49 31.10.2022
1220 Clouds -6 1017 82 10000 4.31 303 11:54 31.10.2022
1221 Clear -4 1014 80 10000 6.17 290 09:18 31.10.2022
1222 Snow -5 1011 93 10000 4.63 290 05:34 31.10.2022
1223 Snow -2 1010 75 4828 5.66 290 02:30 31.10.2022
1224 Snow -3 1009 81 4828 4.63 290 23:19 30.10.2022
1225 Clouds -9 1008 86 10000 0 0 21:44 30.10.2022
1226 Mist -10 1007 85 8047 0 0 20:37 30.10.2022
1227 Clouds -6 1007 92 6420 5.68 309 18:56 30.10.2022
1228 Clouds -14 1005 92 10000 0 0 16:18 30.10.2022
1229 Clouds -10 1005 85 10000 0 0 14:22 30.10.2022
1230 Clouds -11 1004 92 10000 1.54 20 13:21 30.10.2022
1231 Clouds -7 1003 86 10000 0 0 11:48 30.10.2022
1232 Clouds -5 1002 80 10000 2.57 350 09:40 30.10.2022
1233 Clouds -5 1001 80 10000 3.09 360 08:39 30.10.2022
1234 Clouds -6 998 86 10000 6.17 60 04:30 30.10.2022
1235 Snow -3 996 86 4828 3.09 90 00:28 30.10.2022
1236 Clouds -3 996 81 10000 4.12 80 23:45 29.10.2022
1237 Clouds -4 995 86 10000 4.63 70 21:31 29.10.2022
1238 Mist -5 994 86 8047 3.6 40 18:34 29.10.2022
1239 Snow -4 994 80 4828 3.6 60 17:21 29.10.2022
1240 Clouds -7 994 86 10000 2.06 330 15:38 29.10.2022
1241 Clouds -8 994 79 10000 3.09 360 14:51 29.10.2022
1242 Clear -9 994 79 10000 2.06 360 12:36 29.10.2022
1243 Snow -6 995 87 5418 2.13 28 11:54 29.10.2022
1244 Clear -8 992 79 10000 1.54 20 07:38 29.10.2022
1245 Clear -8 992 79 10000 1.54 20 07:38 29.10.2022
1246 Clear -7 992 79 10000 3.09 350 06:46 29.10.2022
1247 Clouds -10 993 87 10000 2.77 22 05:53 29.10.2022
1248 Clouds -7 994 80 10000 2.06 20 23:43 28.10.2022
1249 Clear -9 994 79 10000 1.54 10 21:29 28.10.2022
1250 Clear -10 995 85 10000 1.54 10 19:43 28.10.2022
1251 Clear -11 995 85 10000 0 0 18:32 28.10.2022
1252 Clear -10 996 79 10000 1.54 360 17:26 28.10.2022
1253 Clouds -10 997 85 10000 1.54 10 14:46 28.10.2022
1254 Clear -11 997 85 10000 0 0 13:23 28.10.2022
1255 Clouds -6 998 80 10000 1.87 314 11:54 28.10.2022
1256 Clear -10 998 79 10000 0 0 11:31 28.10.2022
1257 Clouds -9 998 73 10000 2.06 20 10:41 28.10.2022
1258 Clear -9 998 73 10000 0 0 08:40 28.10.2022
1259 Clouds -9 999 76 10000 2.09 315 05:59 28.10.2022
1260 Clouds -2 996 65 10000 3.09 300 00:47 28.10.2022
1261 Clear -3 995 74 10000 4.12 290 23:45 27.10.2022
1262 Clear -3 995 69 10000 4.12 280 22:31 27.10.2022
1263 Clouds -5 994 75 10000 4.12 310 20:48 27.10.2022
1264 Clear -8 993 68 10000 3.09 360 18:28 27.10.2022
1265 Clear -6 993 68 10000 3.09 310 16:36 27.10.2022
1266 Clouds -5 992 80 10000 3.09 330 11:35 27.10.2022
1267 Clear -5 993 86 10000 2.57 330 07:34 27.10.2022
1268 Clear 0 994 56 10000 6.17 330 00:26 27.10.2022
1269 Clear -1 993 59 10000 6.69 320 23:52 26.10.2022
1270 Clear -1 993 60 10000 6.69 320 22:40 26.10.2022
1271 Clear -1 992 60 10000 6.17 320 21:23 26.10.2022
1272 Clouds -3 991 79 10000 4.59 320 17:59 26.10.2022
1273 Clouds -2 990 76 10000 3.36 309 14:54 26.10.2022
1274 Clear -2 988 65 10000 6.17 350 13:33 26.10.2022
1275 Clouds -1 986 65 10000 10.29 10 12:19 26.10.2022
1276 Clouds -2 985 64 10000 12.86 10 09:19 26.10.2022
1277 Clouds -2 986 75 10000 6.51 4 08:53 26.10.2022
1278 Clouds -2 990 79 10000 7.91 33 00:57 26.10.2022
1279 Clouds -2 989 69 10000 12.86 20 00:36 26.10.2022
1280 Clouds -2 992 74 10000 10.29 40 22:30 25.10.2022
1281 Clear -2 993 74 10000 8.23 30 21:45 25.10.2022
1282 Clouds -1 995 74 10000 9.26 40 20:33 25.10.2022
1283 Clouds -2 998 85 10000 9.86 59 18:56 25.10.2022
1284 Clouds -1 999 80 10000 6.17 50 17:38 25.10.2022
1285 Clouds -2 1007 95 10000 3.47 47 12:55 25.10.2022
1286 Clouds -1 1009 86 10000 3.6 70 11:38 25.10.2022
1287 Clouds -1 1010 86 10000 3.09 70 10:36 25.10.2022
1288 Clouds -2 1012 93 10000 2.57 60 08:38 25.10.2022
1289 Snow -1 1012 86 10000 2.57 70 08:18 25.10.2022
1290 Snow -1 1012 86 10000 2.57 50 07:53 25.10.2022
1291 Clouds -1 1013 93 10000 1.54 70 06:52 25.10.2022
1292 Rain 1 1014 76 10000 4.12 270 03:32 25.10.2022
1293 Clouds 0 1014 86 10000 2.06 70 00:32 25.10.2022
1294 Clouds -1 1014 86 10000 0 0 22:28 24.10.2022
1295 Clouds -2 1013 86 10000 0 0 21:50 24.10.2022
1296 Clouds -2 1013 86 10000 0 0 21:31 24.10.2022
1297 Clear -2 1013 93 10000 2.57 320 20:29 24.10.2022
1298 Clouds 0 1012 86 10000 3.6 320 18:45 24.10.2022
1299 Clouds -1 1011 90 10000 3.97 287 16:58 24.10.2022
1300 Snow 1 1010 86 10000 2.57 30 15:34 24.10.2022
1301 Clear 0 1009 86 10000 1.54 20 14:20 24.10.2022
1302 Clouds 1 1008 86 10000 4.63 280 12:41 24.10.2022
1303 Rain 2 1007 93 10000 7.72 260 09:28 24.10.2022
1304 Clouds 2 1006 87 10000 6.69 220 07:51 24.10.2022
1305 Clouds 4 1006 87 10000 9.77 150 22:50 23.10.2022
1306 Rain 4 1007 87 10000 9.77 150 20:40 23.10.2022
1307 Rain 4 1008 93 10000 7.72 160 19:27 23.10.2022
1308 Rain 1 1009 93 10000 4.12 90 17:30 23.10.2022
1309 Rain 1 1009 93 10000 4.12 90 17:30 23.10.2022
1310 Rain 2 1010 87 10000 2.57 90 16:19 23.10.2022
1311 Clouds 3 1011 82 10000 2.57 190 14:58 23.10.2022
1312 Clouds 3 1010 76 10000 5.66 250 11:56 23.10.2022
1313 Clouds 3 1009 76 10000 7.72 260 10:52 23.10.2022
1314 Rain 4 1007 87 10000 10.29 190 06:36 23.10.2022
1315 Clouds 3 1009 87 10000 0 0 23:26 22.10.2022
1316 Clouds 2 1009 87 10000 0 0 22:30 22.10.2022
1317 Snow 1 1008 100 8047 1.54 350 21:40 22.10.2022
1318 Rain 1 1008 86 10000 2.06 330 20:28 22.10.2022
1319 Clouds 1 1008 86 10000 0 0 19:31 22.10.2022
1320 Clouds 3 1008 87 10000 5.66 220 17:42 22.10.2022
1321 Rain 2 1008 87 10000 1.54 230 16:50 22.10.2022
1322 Clouds 2 1008 87 10000 2.57 220 15:18 22.10.2022
1323 Clouds 3 1008 82 10000 3.6 190 14:31 22.10.2022
1324 Clouds 2 1008 87 10000 2.06 250 11:40 22.10.2022
1325 Clouds 3 1007 87 10000 5.66 210 09:46 22.10.2022
1326 Clouds 3 1007 82 10000 6.69 200 08:37 22.10.2022
1327 Rain 3 1006 87 10000 3.6 250 06:19 22.10.2022
1328 Rain 3 1004 87 10000 3.6 100 00:55 22.10.2022
1329 Clouds 3 1003 76 10000 2.06 290 22:52 21.10.2022
1330 Clouds 3 1002 82 10000 2.57 180 21:33 21.10.2022
1331 Rain 2 1002 87 10000 2.57 120 20:39 21.10.2022
1332 Rain 3 1001 93 10000 3.09 180 18:28 21.10.2022
1333 Clouds 3 999 93 10000 0 0 14:47 21.10.2022
1334 Clouds 4 999 87 10000 3.09 190 13:40 21.10.2022
1335 Snow 2 999 97 10000 1.85 170 11:54 21.10.2022
1336 Clouds 4 998 87 10000 5.14 170 10:24 21.10.2022
1337 Clouds 4 997 87 10000 5.14 180 08:51 21.10.2022
1338 Clouds 4 997 87 10000 5.14 180 08:21 21.10.2022
1339 Rain 4 995 87 6437 7.2 180 04:50 21.10.2022
1340 Rain 4 994 82 10000 4.12 150 23:25 20.10.2022
1341 Rain 4 993 87 10000 3.6 180 21:21 20.10.2022
1342 Clouds 5 992 82 10000 4.63 180 19:44 20.10.2022
1343 Rain 4 992 87 9656 5.14 180 18:50 20.10.2022
1344 Rain 5 992 82 10000 4.63 150 17:44 20.10.2022
1345 Rain 3 991 87 10000 9.26 130 15:24 20.10.2022
1346 Clouds 3 992 87 10000 9.77 90 12:33 20.10.2022
1347 Clouds 3 992 87 10000 8.75 90 11:34 20.10.2022
1348 Clouds 3 992 87 10000 9.77 100 10:52 20.10.2022
1349 Clouds 3 992 87 10000 6.17 80 09:30 20.10.2022
1350 Clouds 2 993 93 10000 7.2 70 07:23 20.10.2022
1351 Clouds 4 995 81 10000 8.23 100 02:23 20.10.2022
1352 Clouds 3 997 87 10000 10.8 100 23:41 19.10.2022
1353 Clouds 2 997 87 10000 6.17 80 22:25 19.10.2022
1354 Clouds 2 998 87 10000 8.23 90 21:31 19.10.2022
1355 Clouds 2 998 81 10000 4.63 80 20:19 19.10.2022
1356 Clouds 3 1000 82 10000 7.2 120 17:52 19.10.2022
1357 Clouds 2 1000 87 10000 5.66 100 16:28 19.10.2022
1358 Rain 2 1002 87 10000 6.69 130 14:34 19.10.2022
1359 Clouds 2 1003 81 10000 4.12 100 12:21 19.10.2022
1360 Clouds 3 1006 81 10000 7.2 150 08:52 19.10.2022
1361 Clouds 2 1005 87 10000 4.63 90 07:24 19.10.2022
1362 Mist 2 1009 93 4828 0 0 02:30 19.10.2022
1363 Clouds 3 1008 76 10000 2.57 50 23:45 18.10.2022
1364 Clouds 2 1009 87 10000 0 0 21:49 18.10.2022
1365 Clouds 2 1009 87 10000 0 0 21:31 18.10.2022
1366 Clouds 1 1008 100 10000 0 0 20:31 18.10.2022
1367 Clouds 1 1008 93 10000 2.06 300 18:59 18.10.2022
1368 Clouds 1 1007 100 10000 0 0 16:57 18.10.2022
1369 Clouds 1 1006 100 10000 1.54 340 15:23 18.10.2022
1370 Clouds 1 1005 100 10000 2.57 320 13:43 18.10.2022
1371 Rain 2 1003 93 9656 0 0 11:47 18.10.2022
1372 Rain 2 1002 93 10000 0 0 10:36 18.10.2022
1373 Rain 1 1001 93 10000 0 0 09:26 18.10.2022
1374 Rain 3 999 93 10000 0 0 06:38 18.10.2022
1375 Rain 3 994 87 10000 2.57 50 23:40 17.10.2022
1376 Rain 2 993 93 10000 2.06 50 21:35 17.10.2022
1377 Rain 2 993 93 10000 1.54 20 20:49 17.10.2022
1378 Rain 2 993 93 10000 1.54 20 20:29 17.10.2022
1379 Rain 2 992 93 10000 2.06 50 19:42 17.10.2022
1380 Rain 2 991 93 10000 2.06 40 17:49 17.10.2022
1381 Rain 2 991 93 10000 3.6 30 15:55 17.10.2022
1382 Rain 2 991 93 10000 2.06 20 15:20 17.10.2022
1383 Rain 2 990 93 10000 2.57 50 12:52 17.10.2022
1384 Rain 2 990 81 10000 3.09 40 09:28 17.10.2022
1385 Snow 1 990 86 10000 4.63 360 02:37 17.10.2022
1386 Snow -1 991 86 6437 4.63 350 22:54 16.10.2022
1387 Snow -1 991 86 6437 4.63 350 22:54 16.10.2022
1388 Snow -1 992 80 4023 5.14 30 21:22 16.10.2022
1389 Snow -1 992 80 4023 5.14 30 21:22 16.10.2022
1390 Snow -1 992 75 10000 4.12 30 19:52 16.10.2022
1391 Snow -1 992 74 10000 4.12 30 19:33 16.10.2022
1392 Clouds -2 992 70 10000 5.66 40 17:46 16.10.2022
1393 Clouds -2 993 69 10000 6.17 40 16:32 16.10.2022
1394 Clouds -3 994 79 10000 3.5 11 15:55 16.10.2022
1395 Clouds -2 996 69 10000 4.12 60 12:34 16.10.2022
1396 Clouds -1 996 56 10000 5.14 60 11:41 16.10.2022
1397 Clouds -1 996 52 10000 9.26 40 10:26 16.10.2022
1398 Clear -1 997 47 10000 9.26 30 07:38 16.10.2022
1399 Clear 0 1002 37 10000 9.77 50 23:43 15.10.2022
1400 Clouds -1 1005 51 10000 4.98 20 21:58 15.10.2022
1401 Clear -1 1004 43 10000 9.77 30 21:20 15.10.2022
1402 Clouds -2 1007 55 10000 4.33 11 19:55 15.10.2022
1403 Clear -2 1008 54 10000 10.8 40 17:26 15.10.2022
1404 Clear -3 1011 54 10000 5.14 10 15:45 15.10.2022
1405 Clear -2 1013 55 10000 4.63 20 13:42 15.10.2022
1406 Clear -2 1015 59 10000 9.26 30 11:51 15.10.2022
1407 Clouds -4 1016 74 10000 3.86 44 09:57 15.10.2022
1408 Clear -1 1017 60 10000 5.66 30 08:20 15.10.2022
1409 Clear 2 1021 56 10000 7.72 70 00:41 15.10.2022
1410 Clear 1 1021 60 10000 5.66 70 23:25 14.10.2022
1411 Clear 1 1021 61 10000 4.63 70 22:22 14.10.2022
1412 Clear -1 1021 65 10000 4.12 60 21:24 14.10.2022
1413 Clear -4 1021 75 10000 3.09 350 19:25 14.10.2022
1414 Clear -3 1020 69 10000 4.12 40 16:23 14.10.2022
1415 Clear -6 1020 79 10000 3.09 10 13:21 14.10.2022
1416 Clear -6 1019 79 10000 2.06 30 11:39 14.10.2022
1417 Clear -3 1019 64 10000 2.25 38 08:59 14.10.2022
1418 Clear -5 1017 78 10000 2.13 38 06:54 14.10.2022
1419 Clear -1 1017 64 10000 2.57 70 06:18 14.10.2022
1420 Clear 1 1016 56 10000 3.09 100 05:42 14.10.2022
1421 Clear 1 1015 55 10000 2.57 90 03:24 14.10.2022
1422 Clear -1 1014 70 10000 3.6 70 23:49 13.10.2022
1423 Clear -3 1014 74 10000 1.54 10 22:21 13.10.2022
1424 Clear -5 1013 80 10000 0 0 21:21 13.10.2022
1425 Clear -7 1012 79 10000 0 0 19:43 13.10.2022
1426 Clear -4 1013 72 10000 2.07 32 18:53 13.10.2022
1427 Clear -7 1011 79 10000 0 0 18:21 13.10.2022
1428 Clear -7 1011 86 10000 1.54 10 16:28 13.10.2022
1429 Clouds -7 1011 86 10000 0 0 15:42 13.10.2022
1430 Clear -6 1011 79 10000 0 0 14:18 13.10.2022
1431 Clouds -5 1011 80 10000 2.06 20 12:45 13.10.2022
1432 Clear -4 1011 80 10000 3.09 340 11:34 13.10.2022
1433 Clouds -3 1010 80 10000 3.6 350 09:21 13.10.2022
1434 Clouds -2 1011 74 10000 3.09 20 07:39 13.10.2022
1435 Clouds -1 1011 80 10000 0 0 06:28 13.10.2022
1436 Clouds 2 1013 69 10000 2.57 330 01:46 13.10.2022
1437 Clouds 1 1013 75 10000 2.57 340 00:45 13.10.2022
1438 Clouds 0 1014 81 10000 3.09 350 22:46 12.10.2022
1439 Clouds -1 1014 86 10000 3.09 350 21:51 12.10.2022
1440 Clouds -1 1014 86 10000 3.09 350 21:51 12.10.2022
1441 Clouds -1 1014 86 10000 3.09 350 21:20 12.10.2022
1442 Clouds -3 1014 86 10000 2.57 360 20:46 12.10.2022
1443 Clouds -3 1014 81 10000 2.57 20 19:24 12.10.2022
1444 Clouds -2 1015 86 10000 1.54 360 18:19 12.10.2022
1445 Clouds -1 1015 81 10000 3.09 340 17:43 12.10.2022
1446 Clouds -3 1016 86 10000 1.54 20 14:51 12.10.2022
1447 Clouds -1 1016 73 10000 2.35 357 13:54 12.10.2022
1448 Clouds -2 1016 86 10000 2.57 110 12:31 12.10.2022
1449 Clouds -2 1017 86 10000 0 0 09:37 12.10.2022
1450 Clouds 1 1017 76 10000 3.09 330 07:42 12.10.2022
1451 Clouds 1 1017 76 10000 2.57 340 06:44 12.10.2022
1452 Rain 2 1017 76 10000 1.54 330 05:33 12.10.2022
1453 Snow 1 1017 80 4828 2.57 280 00:38 12.10.2022
1454 Clouds -2 1017 80 10000 0 0 21:43 11.10.2022
1455 Clouds -4 1017 86 10000 0 0 20:36 11.10.2022
1456 Clouds -4 1017 86 10000 1.54 360 18:28 11.10.2022
1457 Clouds -2 1016 80 10000 2.06 120 16:33 11.10.2022
1458 Snow -1 1016 72 10000 1.95 276 13:59 11.10.2022
1459 Snow -2 1015 74 10000 2.06 330 11:45 11.10.2022
1460 Clouds -2 1015 74 10000 2.06 310 10:28 11.10.2022
1461 Clouds -2 1014 74 10000 1.54 340 09:25 11.10.2022
1462 Clouds -1 1012 69 10000 4.63 300 05:26 11.10.2022
1463 Clouds 1 1011 78 10000 6.65 285 01:55 11.10.2022
1464 Clouds 0 1010 80 10000 1.54 260 00:27 11.10.2022
1465 Clouds -3 1009 80 10000 0 0 21:23 10.10.2022
1466 Clear -4 1008 86 10000 0 0 19:45 10.10.2022
1467 Clear -4 1008 86 10000 1.54 40 18:25 10.10.2022
1468 Clouds -2 1008 75 10000 0 0 16:48 10.10.2022
1469 Clouds -2 1008 74 10000 3.09 70 14:48 10.10.2022
1470 Clouds -1 1008 75 10000 2.57 120 12:38 10.10.2022
1471 Clouds 0 1008 70 10000 0 0 11:18 10.10.2022
1472 Clouds 0 1008 74 10000 0 0 08:33 10.10.2022
1473 Clouds 1 1008 61 10000 3.6 300 05:41 10.10.2022
1474 Clouds 1 1008 71 10000 5.91 290 02:53 10.10.2022
1475 Clouds 1 1007 60 10000 2.57 310 00:29 10.10.2022
1476 Clouds 1 1007 61 10000 2.57 300 22:27 09.10.2022
1477 Clouds -2 1008 76 10000 3.88 291 21:58 09.10.2022
1478 Clouds 0 1007 65 10000 2.06 310 21:19 09.10.2022
1479 Clouds -2 1007 76 10000 2.32 304 19:59 09.10.2022
1480 Clouds -1 1006 69 10000 2.57 300 19:34 09.10.2022
1481 Clouds 0 1006 64 10000 3.6 290 18:39 09.10.2022
1482 Clouds -1 1007 76 10000 3.15 304 16:56 09.10.2022
1483 Clouds 0 1006 64 10000 5.14 300 16:33 09.10.2022
1484 Clouds 0 1006 65 10000 3.6 300 15:37 09.10.2022
1485 Clouds 0 1006 74 10000 4.63 290 14:31 09.10.2022
1486 Clouds -3 1007 91 10000 2.94 302 12:59 09.10.2022
1487 Clouds -1 1006 86 10000 1.54 270 12:22 09.10.2022
1488 Clouds -1 1006 80 10000 2.06 320 10:48 09.10.2022
1489 Clouds 1 1006 64 10000 2.57 310 08:29 09.10.2022
1490 Clear 3 1005 65 10000 8.23 290 03:37 09.10.2022
1491 Clear 2 1006 69 10000 6.69 290 02:49 09.10.2022
1492 Clouds 3 1005 81 10000 5.66 300 00:34 09.10.2022
1493 Rain 1 1005 93 10000 3.6 340 22:53 08.10.2022
1494 Rain 1 1006 86 8047 4.12 300 21:48 08.10.2022
1495 Clouds 1 1006 86 10000 1.54 60 20:26 08.10.2022
1496 Rain 2 1006 87 10000 2.57 60 18:53 08.10.2022
1497 Rain 1 1007 86 10000 3.09 40 16:38 08.10.2022
1498 Clouds 2 1008 76 10000 1.2 91 14:54 08.10.2022
1499 Clouds -1 1008 86 10000 1.54 30 13:25 08.10.2022
1500 Clouds -1 1009 93 10000 0 0 10:39 08.10.2022
1501 Clouds -1 1009 93 10000 0 0 10:21 08.10.2022
1502 Clear 1 1008 86 10000 3.6 310 08:48 08.10.2022
1503 Rain 6 1006 87 6437 6.69 270 03:53 08.10.2022
1504 Rain 7 1008 76 10000 10.29 190 00:43 08.10.2022
1505 Clouds 7 1008 76 10000 9.77 200 23:27 07.10.2022
1506 Rain 7 1008 76 10000 11.83 200 22:50 07.10.2022
1507 Clouds 7 1009 77 10000 9.77 210 21:38 07.10.2022
1508 Clouds 6 1009 71 10000 7.72 230 19:42 07.10.2022
1509 Clouds 6 1008 71 10000 10.8 240 17:48 07.10.2022
1510 Rain 6 1008 62 10000 12.35 240 16:41 07.10.2022
1511 Rain 5 1008 74 10000 10.74 242 15:00 07.10.2022
1512 Rain 4 1007 81 10000 12.86 250 13:26 07.10.2022
1513 Clouds 6 1006 81 10000 11.32 230 11:19 07.10.2022
1514 Clouds 6 1005 81 10000 9.26 240 09:25 07.10.2022
1515 Clouds 7 1005 71 10000 12.86 220 08:19 07.10.2022
1516 Clouds 7 1005 76 10000 10.29 220 02:26 07.10.2022
1517 Clouds 7 1005 76 10000 11.32 230 22:52 06.10.2022
1518 Clouds 6 1004 75 10000 10.8 230 21:50 06.10.2022
1519 Clouds 6 1004 75 10000 10.8 230 21:29 06.10.2022
1520 Clouds 6 1004 75 10000 10.29 230 20:38 06.10.2022
1521 Clouds 6 1002 81 10000 8.75 230 18:46 06.10.2022
1522 Clouds 6 1002 81 10000 8.75 230 18:20 06.10.2022
1523 Clouds 7 1000 76 10000 9.26 240 15:36 06.10.2022
1524 Rain 7 1000 93 4828 12.86 180 12:49 06.10.2022
1525 Clouds 7 1003 76 10000 9.26 160 08:22 06.10.2022
1526 Clouds 6 1009 75 10000 6.69 140 04:32 06.10.2022
1527 Clouds 4 1014 81 10000 5.14 80 00:44 06.10.2022
1528 Clear 0 1017 86 10000 0 0 21:52 05.10.2022
1529 Clear -2 1017 86 10000 0 0 19:31 05.10.2022
1530 Clear -1 1018 86 10000 1.54 290 17:37 05.10.2022
1531 Clear -1 1018 93 10000 4.12 280 16:24 05.10.2022
1532 Clouds 1 1019 80 10000 2.36 304 14:55 05.10.2022
1533 Clear 1 1018 80 10000 2.57 300 14:20 05.10.2022
1534 Clear 1 1018 80 10000 2.57 310 12:43 05.10.2022
1535 Clear 1 1018 86 10000 4.63 290 10:48 05.10.2022
1536 Clear 2 1017 87 10000 4.63 300 08:19 05.10.2022
1537 Clear 4 1017 81 10000 5.66 310 06:24 05.10.2022
1538 Clear 6 1016 81 10000 7.72 300 05:27 05.10.2022
1539 Clouds 8 1014 76 10000 6.69 290 02:29 05.10.2022
1540 Clouds 8 1013 81 10000 5.66 280 00:28 05.10.2022
1541 Clouds 7 1014 98 10000 1.16 350 22:54 04.10.2022
1542 Clouds 6 1012 100 10000 3.09 300 20:44 04.10.2022
1543 Clouds 6 1011 100 10000 3.09 290 19:47 04.10.2022
1544 Rain 7 1011 93 10000 0 0 18:40 04.10.2022
1545 Rain 7 1011 93 10000 0 0 17:51 04.10.2022
1546 Clouds 7 1010 93 10000 2.06 60 16:50 04.10.2022
1547 Rain 7 1009 93 10000 3.09 60 13:59 04.10.2022
1548 Clouds 7 1008 81 10000 5.66 70 09:52 04.10.2022
1549 Rain 6 1007 87 10000 4.12 70 07:48 04.10.2022
1550 Clouds 7 1006 81 10000 4.63 80 04:42 04.10.2022
1551 Clouds 7 1005 66 10000 6.17 80 23:48 03.10.2022
1552 Clouds 7 1005 66 10000 4.63 70 22:19 03.10.2022
1553 Clouds 6 1005 70 10000 5.66 70 21:26 03.10.2022
1554 Clouds 5 1005 75 10000 3.09 50 20:33 03.10.2022
1555 Clouds 5 1005 81 10000 5.66 60 18:47 03.10.2022
1556 Clouds 6 1005 71 10000 4.63 70 17:30 03.10.2022
1557 Rain 5 1005 76 10000 4.63 60 15:51 03.10.2022
1558 Clouds 6 1006 71 10000 3.6 70 14:22 03.10.2022
1559 Clouds 5 1006 66 10000 4.12 50 12:35 03.10.2022
1560 Clouds 4 1007 76 10000 3.49 44 10:53 03.10.2022
1561 Clouds 4 1006 70 10000 3.09 360 09:46 03.10.2022
1562 Clouds 4 1006 71 10000 3.6 360 08:43 03.10.2022
1563 Clear 7 1007 57 10000 3.09 0 03:52 03.10.2022
1564 Clear 3 1009 80 10000 2.78 73 22:56 02.10.2022
1565 Clear 2 1008 69 10000 2.06 20 21:38 02.10.2022
1566 Clouds -1 1007 80 10000 2.06 10 19:47 02.10.2022
1567 Clear 0 1008 65 10000 2.56 50 17:55 02.10.2022
1568 Clear -1 1007 80 10000 2.06 340 16:51 02.10.2022
1569 Clear -1 1007 80 10000 2.06 340 16:30 02.10.2022
1570 Clear 1 1008 67 10000 2.68 38 14:58 02.10.2022
1571 Clear -1 1006 86 10000 2.57 360 13:46 02.10.2022
1572 Clear 1 1006 75 10000 3.6 20 12:39 02.10.2022
1573 Clear 1 1006 76 10000 4.12 350 11:48 02.10.2022
1574 Clear 1 1006 76 10000 4.12 350 11:30 02.10.2022
1575 Clear 1 1006 75 10000 2.57 350 10:19 02.10.2022
1576 Clear 3 1005 70 10000 4.12 20 08:27 02.10.2022
1577 Clear 7 1004 70 10000 2.06 180 05:19 02.10.2022
1578 Clear 8 1005 62 10000 2.52 55 00:57 02.10.2022
1579 Clouds 7 1004 57 10000 2.06 90 00:37 02.10.2022
1580 Clouds 6 1004 57 10000 3.6 80 23:24 01.10.2022
1581 Clear 2 1003 70 10000 3.09 330 21:39 01.10.2022
1582 Clear 1 1004 73 10000 2.49 55 18:54 01.10.2022
1583 Clear 1 1004 75 10000 3.09 350 17:28 01.10.2022
1584 Clear 0 1004 80 10000 2.57 10 14:50 01.10.2022
1585 Clear 2 1004 76 10000 3.09 40 13:44 01.10.2022
1586 Clear 1 1004 80 10000 3.09 20 12:34 01.10.2022
1587 Clear 2 1005 75 10000 2.57 30 11:22 01.10.2022
1588 Clear 2 1005 75 10000 4.12 360 10:47 01.10.2022
1589 Clear 2 1005 76 10000 4.12 360 10:26 01.10.2022
1590 Clear 2 1005 75 10000 4.12 10 09:21 01.10.2022
1591 Clear 2 1006 75 10000 3.6 10 08:26 01.10.2022
1592 Clear 8 1007 53 10000 3.6 90 03:42 01.10.2022
1593 Clear 8 1008 49 10000 3.09 90 02:37 01.10.2022
1594 Clear 6 1009 57 10000 3.09 20 23:21 30.09.2022
1595 Clouds 3 1010 86 10000 2.66 36 21:58 30.09.2022
1596 Clouds 0 1010 93 10000 2.63 30 20:53 30.09.2022
1597 Clear 0 1010 80 10000 1.54 10 20:20 30.09.2022
1598 Clear 0 1010 86 10000 1.54 40 18:28 30.09.2022
1599 Clear 1 1011 84 10000 2.92 10 16:54 30.09.2022
1600 Clear 0 1010 86 10000 2.57 20 14:24 30.09.2022
1601 Clear 1 1009 86 10000 0 0 12:50 30.09.2022
1602 Clouds -1 1011 94 10000 1.98 341 11:56 30.09.2022
1603 Clouds 4 1009 76 10000 2.57 330 09:24 30.09.2022
1604 Clouds 4 1010 85 10000 1.84 331 07:58 30.09.2022
1605 Clouds 9 1005 66 10000 6.17 340 03:35 30.09.2022
1606 Clouds 7 1004 70 10000 5.14 360 01:44 30.09.2022
1607 Clouds 6 1001 81 10000 6.17 360 21:40 29.09.2022
1608 Clouds 6 1001 82 10000 6.17 360 21:19 29.09.2022
1609 Rain 4 1002 95 10000 4.04 355 19:56 29.09.2022
1610 Rain 5 998 82 10000 5.14 340 18:30 29.09.2022
1611 Rain 6 997 82 10000 4.12 360 16:29 29.09.2022
1612 Rain 6 996 87 10000 4.12 360 15:37 29.09.2022
1613 Rain 5 998 93 10000 5.35 360 14:59 29.09.2022
1614 Rain 6 995 82 10000 8.23 30 12:39 29.09.2022
1615 Rain 4 994 87 10000 10.29 30 08:47 29.09.2022
1616 Rain 4 995 87 10000 6.69 20 04:46 29.09.2022
1617 Rain 4 996 87 9656 7.72 40 02:36 29.09.2022
1618 Rain 5 997 81 10000 5.14 50 23:26 28.09.2022
1619 Clouds 5 998 75 10000 6.69 40 21:40 28.09.2022
1620 Clouds 5 998 75 10000 6.69 40 21:22 28.09.2022
1621 Clouds 5 1001 80 10000 5.42 53 19:57 28.09.2022
1622 Clear 5 1000 76 10000 6.69 40 16:52 28.09.2022
1623 Clear 5 1001 81 10000 5.66 40 14:19 28.09.2022
1624 Clouds 6 1002 82 10000 3.6 50 11:49 28.09.2022
1625 Clouds 4 1003 93 10000 3.09 40 09:49 28.09.2022
1626 Clouds 7 1003 82 10000 2.06 40 07:52 28.09.2022
1627 Rain 8 1003 76 10000 4.63 90 05:48 28.09.2022
1628 Rain 8 1003 77 10000 5.66 90 01:47 28.09.2022
1629 Rain 8 1003 77 10000 5.66 90 01:25 28.09.2022
1630 Clouds 6 1003 76 10000 3.6 70 22:49 27.09.2022
1631 Rain 4 1002 87 10000 0 0 21:20 27.09.2022
1632 Clear 2 1002 93 10000 2.57 40 20:34 27.09.2022
1633 Clouds 1 1002 100 10000 1.54 30 19:40 27.09.2022
1634 Rain 4 1002 93 10000 0 0 17:47 27.09.2022
1635 Rain 4 1002 93 10000 0 0 17:29 27.09.2022
1636 Rain 5 1002 93 10000 0 0 15:18 27.09.2022
1637 Rain 6 1002 81 10000 3.6 120 14:21 27.09.2022
1638 Clouds 3 1001 87 10000 1.54 10 12:39 27.09.2022
1639 Clouds 3 1001 87 10000 1.54 10 12:39 27.09.2022
1640 Rain 3 1000 93 10000 2.57 360 10:45 27.09.2022
1641 Rain 7 1000 70 10000 3.6 70 08:36 27.09.2022
1642 Clouds 8 1000 77 10000 1.54 280 05:48 27.09.2022
1643 Clouds 9 1000 66 10000 4.12 90 01:40 27.09.2022
1644 Clouds 9 1000 66 10000 5.14 100 00:28 27.09.2022
1645 Clear 8 1001 71 10000 4.12 80 23:24 26.09.2022
1646 Clouds 6 1001 81 10000 3.6 20 21:44 26.09.2022
1647 Clouds 5 1001 81 10000 4.63 40 20:26 26.09.2022
1648 Clouds 5 1001 82 10000 3.09 20 19:21 26.09.2022
1649 Clouds 6 1002 81 10000 3.6 50 17:27 26.09.2022
1650 Clouds 6 1003 87 10000 3.09 60 15:44 26.09.2022
1651 Rain 5 1004 87 10000 3.09 360 13:25 26.09.2022
1652 Rain 6 1004 87 10000 3.09 350 11:28 26.09.2022
1653 Clouds 7 1005 82 10000 3.6 70 10:36 26.09.2022
1654 Clouds 7 1005 82 10000 3.6 70 10:18 26.09.2022
1655 Clouds 6 1005 87 10000 2.06 40 09:52 26.09.2022
1656 Clouds 6 1005 87 10000 2.06 40 09:22 26.09.2022
1657 Clouds 9 1005 67 10000 3.6 40 05:50 26.09.2022
1658 Clouds 10 1005 76 10000 2.57 140 02:41 26.09.2022
1659 Clear 8 1005 76 10000 6.17 90 23:26 25.09.2022
1660 Clouds 8 1005 71 10000 5.66 80 21:48 25.09.2022
1661 Clouds 8 1005 71 10000 5.66 80 21:25 25.09.2022
1662 Rain 7 1004 81 10000 4.12 60 20:37 25.09.2022
1663 Rain 6 1004 81 10000 3.6 60 19:25 25.09.2022
1664 Clouds 6 1004 82 10000 4.63 40 18:29 25.09.2022
1665 Clouds 6 1004 82 10000 4.63 40 18:29 25.09.2022
1666 Clouds 6 1004 81 10000 3.6 40 17:41 25.09.2022
1667 Clouds 4 1004 87 10000 4.12 10 16:21 25.09.2022
1668 Clouds 2 1005 96 10000 3.61 38 14:55 25.09.2022
1669 Clouds 4 1003 93 10000 1.54 20 14:20 25.09.2022
1670 Clouds 6 1003 82 10000 3.6 70 11:53 25.09.2022
1671 Clouds 4 1003 93 10000 2.57 10 09:48 25.09.2022
1672 Clouds 5 1002 87 10000 3.09 360 07:45 25.09.2022
1673 Rain 8 1001 77 10000 2.57 40 05:29 25.09.2022
1674 Rain 7 999 81 10000 5.14 30 23:37 24.09.2022
1675 Rain 7 999 77 10000 5.14 40 22:34 24.09.2022
1676 Rain 6 998 87 10000 3.6 350 20:36 24.09.2022
1677 Clouds 6 997 87 10000 4.12 40 19:20 24.09.2022
1678 Clouds 6 996 87 10000 2.57 10 16:58 24.09.2022
1679 Clouds 6 996 87 10000 2.57 10 16:23 24.09.2022
1680 Clouds 5 996 87 10000 2.57 360 15:19 24.09.2022
1681 Clouds 5 995 87 10000 2.06 20 13:23 24.09.2022
1682 Clouds 5 995 87 10000 3.09 20 12:40 24.09.2022
1683 Rain 6 994 93 10000 1.54 350 10:18 24.09.2022
1684 Rain 6 994 93 10000 1.54 10 09:22 24.09.2022
1685 Rain 7 993 87 10000 0 0 08:42 24.09.2022
1686 Rain 8 992 87 10000 3.6 80 04:58 24.09.2022
1687 Rain 8 992 87 10000 3.09 110 04:31 24.09.2022
1688 Clouds 8 990 81 10000 3.09 80 23:47 23.09.2022
1689 Clouds 7 990 87 10000 3.09 40 21:44 23.09.2022
1690 Clouds 7 990 87 10000 3.09 40 21:24 23.09.2022
1691 Clouds 5 990 93 10000 2.57 40 20:54 23.09.2022
1692 Clouds 5 990 93 10000 2.06 20 19:44 23.09.2022
1693 Clouds 6 990 97 10000 3.03 49 17:55 23.09.2022
1694 Clouds 6 988 93 10000 3.6 70 13:41 23.09.2022
1695 Clouds 7 988 93 10000 1.54 80 10:25 23.09.2022
1696 Rain 7 987 93 10000 2.06 80 08:45 23.09.2022
1697 Rain 8 987 93 10000 4.12 150 03:37 23.09.2022
1698 Clouds 8 986 93 10000 7.72 110 23:30 22.09.2022
1699 Clouds 8 986 93 10000 7.2 110 22:28 22.09.2022
1700 Rain 7 986 100 9656 6.69 110 21:36 22.09.2022
1701 Rain 7 986 100 4828 6.17 110 20:31 22.09.2022
1702 Clouds 7 986 93 10000 6.69 110 18:59 22.09.2022
1703 Rain 7 987 93 10000 8.75 130 15:58 22.09.2022
1704 Rain 7 988 93 4023 9.26 140 10:55 22.09.2022
1705 Rain 7 988 87 10000 10.8 140 10:19 22.09.2022
1706 Rain 7 990 82 10000 9.77 140 08:22 22.09.2022
1707 Rain 7 991 82 10000 11.83 140 06:18 22.09.2022
1708 Rain 7 995 82 10000 10.8 150 01:27 22.09.2022
1709 Clouds 7 998 77 10000 10.8 140 22:29 21.09.2022
1710 Clouds 7 999 77 10000 11.32 150 21:24 21.09.2022
1711 Rain 7 1001 82 8047 6.69 150 19:22 21.09.2022
1712 Rain 7 1003 82 10000 9.26 140 17:45 21.09.2022
1713 Rain 6 1006 82 10000 5.14 170 15:47 21.09.2022
1714 Clouds 4 1008 95 10000 4.38 171 13:56 21.09.2022
1715 Rain 6 1010 82 10000 5.14 190 11:44 21.09.2022
1716 Rain 6 1010 82 10000 5.14 190 11:21 21.09.2022
1717 Clouds 6 1012 71 10000 3.6 230 09:44 21.09.2022
1718 Clouds 6 1012 76 10000 6.17 230 08:50 21.09.2022
1719 Clouds 7 1014 84 10000 1.85 231 04:57 21.09.2022
1720 Clouds 8 1014 71 10000 6.17 250 02:40 21.09.2022
1721 Clouds 8 1016 76 10000 5.03 272 01:58 21.09.2022
1722 Clouds 8 1015 71 10000 3.6 280 00:20 21.09.2022
1723 Clouds 6 1016 88 10000 1.63 333 21:55 20.09.2022
1724 Clouds 3 1014 93 10000 3.09 290 20:34 20.09.2022
1725 Clouds 3 1014 93 10000 2.57 300 19:18 20.09.2022
1726 Clouds 3 1014 95 10000 2.72 306 15:57 20.09.2022
1727 Clouds 4 1012 93 10000 3.6 290 14:29 20.09.2022
1728 Clouds 3 1011 100 10000 2.06 290 12:41 20.09.2022
1729 Rain 5 1009 87 10000 3.09 320 08:51 20.09.2022
1730 Rain 5 1009 87 10000 3.09 320 08:24 20.09.2022
1731 Clouds 7 1007 76 10000 6.17 260 04:40 20.09.2022
1732 Clouds 7 1007 76 10000 5.66 270 02:37 20.09.2022
1733 Clouds 6 1006 87 10000 3.6 300 22:50 19.09.2022
1734 Clouds 6 1005 87 10000 3.6 300 21:38 19.09.2022
1735 Rain 7 1005 87 10000 7.2 210 20:45 19.09.2022
1736 Rain 7 1005 82 10000 7.2 220 19:27 19.09.2022
1737 Clouds 7 1005 82 10000 6.17 230 17:37 19.09.2022
1738 Clouds 7 1006 82 10000 8.23 220 13:56 19.09.2022
1739 Clouds 7 1006 87 10000 7.2 210 12:48 19.09.2022
1740 Clouds 7 1006 81 10000 7.72 220 10:31 19.09.2022
1741 Clouds 8 1006 81 10000 8.23 210 08:51 19.09.2022
1742 Clouds 8 1005 87 10000 9.26 200 05:42 19.09.2022
1743 Rain 8 1005 91 10000 7.23 223 01:53 19.09.2022
1744 Rain 8 1003 87 10000 11.32 220 23:22 18.09.2022
1745 Rain 8 1002 87 10000 11.83 220 21:32 18.09.2022
1746 Rain 8 1002 87 9656 12.35 220 20:23 18.09.2022
1747 Clouds 8 1001 87 10000 11.83 220 17:53 18.09.2022
1748 Clouds 8 1000 87 10000 13.38 220 17:19 18.09.2022
1749 Clouds 8 999 87 10000 11.32 220 15:34 18.09.2022
1750 Clouds 8 998 87 10000 13.89 230 13:47 18.09.2022
1751 Clouds 8 997 87 10000 14.4 220 12:34 18.09.2022
1752 Clouds 8 995 87 10000 13.89 220 10:45 18.09.2022
1753 Rain 9 988 87 4828 18.01 210 03:40 18.09.2022
1754 Rain 8 986 94 10000 16.54 212 01:24 18.09.2022
1755 Rain 8 985 94 10000 16.19 210 00:21 18.09.2022
1756 Rain 8 983 94 10000 16.91 207 21:39 17.09.2022
1757 Rain 9 978 87 6437 15.43 190 19:42 17.09.2022
1758 Rain 9 977 87 9656 14.92 190 18:57 17.09.2022
1759 Rain 8 975 93 10000 16.33 192 15:58 17.09.2022
1760 Rain 9 973 93 8047 14.4 170 13:56 17.09.2022
1761 Rain 9 973 93 4828 15.95 160 10:57 17.09.2022
1762 Rain 8 976 95 10000 19.05 153 08:55 17.09.2022
1763 Rain 11 980 77 4828 15.43 140 06:24 17.09.2022
1764 Rain 10 988 98 3142 11.95 144 23:59 16.09.2022
1765 Rain 9 988 93 2816 12.86 110 22:52 16.09.2022
1766 Rain 10 991 94 10000 13.83 113 20:59 16.09.2022
1767 Clouds 10 993 87 10000 10.8 120 19:50 16.09.2022
1768 Clouds 11 996 87 10000 7.72 110 16:38 16.09.2022
1769 Clouds 10 997 93 10000 7.72 100 14:58 16.09.2022
1770 Clouds 9 998 93 10000 6.17 80 13:43 16.09.2022
1771 Clouds 8 1000 87 10000 4.12 60 10:50 16.09.2022
1772 Clear 7 999 93 10000 2.06 40 08:19 16.09.2022
1773 Clouds 9 999 87 10000 1.54 30 07:18 16.09.2022
1774 Clouds 11 999 77 10000 2.57 110 06:34 16.09.2022
1775 Rain 11 996 82 8047 2.06 120 02:38 16.09.2022
1776 Clouds 10 993 87 10000 5.14 60 22:43 15.09.2022
1777 Rain 8 991 93 6437 3.09 70 20:48 15.09.2022
1778 Rain 8 991 93 8047 4.63 60 19:48 15.09.2022
1779 Mist 8 991 93 4828 5.66 70 18:29 15.09.2022
1780 Rain 8 991 93 6437 6.17 60 17:31 15.09.2022
1781 Rain 8 991 93 9656 7.2 60 16:37 15.09.2022
1782 Rain 8 993 93 10000 6.17 80 14:20 15.09.2022
1783 Rain 8 994 93 10000 6.17 70 12:20 15.09.2022
1784 Clouds 9 997 93 10000 4.63 80 09:52 15.09.2022
1785 Clouds 10 998 87 10000 5.66 110 07:50 15.09.2022
1786 Clouds 10 1000 93 10000 5.14 130 03:52 15.09.2022
1787 Rain 10 1001 93 9656 3.6 170 23:44 14.09.2022
1788 Clouds 10 1002 82 10000 2.57 90 21:30 14.09.2022
1789 Clouds 9 1002 88 10000 1.54 60 19:34 14.09.2022
1790 Clouds 9 1002 88 10000 0 0 18:32 14.09.2022
1791 Clouds 8 1002 93 10000 0 0 16:44 14.09.2022
1792 Clouds 8 1002 93 10000 0 0 15:34 14.09.2022
1793 Clouds 10 1002 87 10000 1.54 30 13:36 14.09.2022
1794 Clouds 10 1001 87 10000 0 0 10:52 14.09.2022
1795 Clouds 11 1001 87 10000 1.54 100 09:41 14.09.2022
1796 Clouds 11 1000 87 10000 2.06 140 06:52 14.09.2022
1797 Clouds 11 1000 87 10000 2.06 140 06:34 14.09.2022
1798 Clouds 11 1000 87 10000 2.06 140 06:34 14.09.2022
1799 Clouds 11 1000 87 10000 2.06 140 06:34 14.09.2022
1800 Clouds 12 1001 84 10000 4.91 105 03:55 14.09.2022
1801 Clouds 12 1000 82 10000 4.63 100 01:43 14.09.2022
1802 Clouds 12 1000 82 10000 4.63 100 01:21 14.09.2022
1803 Clouds 12 1001 89 10000 6.44 86 23:55 13.09.2022
1804 Rain 12 1000 82 10000 3.6 70 23:37 13.09.2022
1805 Rain 12 1000 82 10000 3.6 70 23:19 13.09.2022
1806 Clouds 11 1000 87 10000 3.6 80 22:44 13.09.2022
1807 Clouds 11 999 87 10000 3.09 60 21:44 13.09.2022
1808 Clouds 11 999 83 10000 3.09 40 19:32 13.09.2022
1809 Clouds 10 999 87 10000 3.09 60 17:33 13.09.2022
1810 Clouds 10 1000 94 10000 4.82 66 15:54 13.09.2022
1811 Clouds 10 1000 95 10000 6.66 74 13:54 13.09.2022
1812 Clouds 11 999 83 10000 4.12 50 12:30 13.09.2022
1813 Clouds 11 999 87 10000 3.6 50 08:33 13.09.2022
1814 Rain 11 999 87 10000 6.17 90 04:32 13.09.2022
1815 Rain 11 999 93 10000 3.6 110 23:32 12.09.2022
1816 Clouds 11 999 87 10000 4.63 90 22:49 12.09.2022
1817 Clouds 10 999 93 10000 4.63 90 21:36 12.09.2022
1818 Clouds 10 999 87 10000 3.6 80 20:25 12.09.2022
1819 Clouds 10 999 87 10000 3.6 120 18:42 12.09.2022
1820 Clouds 10 999 93 10000 4.63 110 16:23 12.09.2022
1821 Clouds 11 999 87 10000 4.63 120 13:41 12.09.2022
1822 Rain 11 998 87 10000 6.17 110 11:22 12.09.2022
1823 Rain 11 998 93 6437 7.72 100 09:35 12.09.2022
1824 Rain 11 998 93 9656 8.75 120 04:46 12.09.2022
1825 Rain 11 998 93 6437 8.75 110 03:25 12.09.2022
1826 Rain 9 999 93 2816 9.77 90 23:22 11.09.2022
1827 Rain 8 1000 94 10000 9.86 77 21:57 11.09.2022
1828 Mist 8 999 87 6437 9.26 80 20:46 11.09.2022
1829 Rain 8 999 81 10000 8.75 70 19:51 11.09.2022
1830 Rain 8 999 81 10000 8.75 70 19:22 11.09.2022
1831 Rain 8 1000 77 10000 7.72 70 18:20 11.09.2022
1832 Clouds 8 1001 76 10000 8.23 70 16:28 11.09.2022
1833 Clouds 8 1002 76 10000 7.72 70 14:18 11.09.2022
1834 Clouds 8 1003 67 10000 7.2 70 12:32 11.09.2022
1835 Clouds 8 1005 72 10000 5.14 80 08:27 11.09.2022
1836 Clouds 9 1005 71 10000 5.66 80 06:33 11.09.2022
1837 Clouds 8 1006 71 10000 5.66 200 00:49 11.09.2022
1838 Clouds 8 1006 76 10000 5.66 230 22:54 10.09.2022
1839 Clouds 7 1006 89 10000 5.38 224 20:55 10.09.2022
1840 Clouds 8 1004 82 10000 4.63 230 19:46 10.09.2022
1841 Clouds 8 1004 82 10000 4.63 230 19:28 10.09.2022
1842 Clouds 7 1004 82 10000 3.6 250 18:22 10.09.2022
1843 Clouds 7 1003 81 10000 5.66 270 15:49 10.09.2022
1844 Clouds 7 1003 81 10000 4.12 280 14:40 10.09.2022
1845 Clouds 7 1002 81 10000 5.66 280 12:52 10.09.2022
1846 Clouds 7 1000 81 10000 5.66 280 10:46 10.09.2022
1847 Clouds 7 1000 81 10000 6.17 280 09:28 10.09.2022
1848 Clouds 8 1000 77 10000 6.69 270 08:27 10.09.2022
1849 Clouds 9 999 81 10000 6.17 280 06:41 10.09.2022
1850 Clouds 11 997 71 10000 5.66 290 00:19 10.09.2022
1851 Clouds 11 998 71 10000 6.69 280 23:31 09.09.2022
1852 Clouds 10 997 76 10000 2.06 350 21:50 09.09.2022
1853 Clouds 9 997 81 10000 3.09 10 20:41 09.09.2022
1854 Clouds 9 997 81 10000 3.09 300 19:24 09.09.2022
1855 Clouds 9 997 81 10000 3.6 350 18:46 09.09.2022
1856 Clouds 9 997 81 10000 1.54 340 16:23 09.09.2022
1857 Clouds 9 998 81 10000 4.63 300 13:48 09.09.2022
1858 Clouds 10 999 85 10000 5.08 359 11:58 09.09.2022
1859 Clouds 11 999 71 10000 4.63 340 09:22 09.09.2022
1860 Clouds 13 1001 55 10000 9.26 360 04:29 09.09.2022
1861 Clouds 13 1002 67 10000 8.1 18 02:53 09.09.2022
1862 Clear 11 1006 62 10000 8.23 30 21:52 08.09.2022
1863 Clouds 10 1007 66 10000 5.66 20 20:51 08.09.2022
1864 Clouds 10 1007 66 10000 5.66 20 20:31 08.09.2022
1865 Clear 9 1008 72 10000 5.14 20 19:44 08.09.2022
1866 Clouds 9 1009 72 10000 6.17 30 17:44 08.09.2022
1867 Clouds 9 1010 71 10000 3.09 40 16:19 08.09.2022
1868 Clouds 9 1011 76 10000 5.66 30 14:37 08.09.2022
1869 Clouds 9 1012 77 10000 4.63 30 13:23 08.09.2022
1870 Clouds 8 1013 82 10000 3.09 30 11:37 08.09.2022
1871 Clear 6 1013 87 10000 2.06 360 10:23 08.09.2022
1872 Clear 11 1013 72 10000 2.06 70 07:49 08.09.2022
1873 Clear 11 1013 71 10000 4.12 120 06:41 08.09.2022
1874 Clouds 11 1012 76 10000 3.09 150 02:36 08.09.2022
1875 Clouds 11 1012 76 10000 3.09 150 02:18 08.09.2022
1876 Clouds 11 1012 76 10000 4.63 150 00:27 08.09.2022
1877 Clouds 10 1011 81 10000 5.14 110 22:36 07.09.2022
1878 Clouds 9 1011 87 10000 3.6 90 21:41 07.09.2022
1879 Clouds 8 1010 87 10000 3.09 80 20:38 07.09.2022
1880 Clouds 7 1009 93 10000 3.09 70 19:30 07.09.2022
1881 Clouds 7 1009 93 10000 2.57 50 17:27 07.09.2022
1882 Clouds 7 1008 87 10000 2.57 50 12:49 07.09.2022
1883 Clouds 7 1008 93 10000 2.57 60 10:46 07.09.2022
1884 Clouds 8 1007 87 10000 2.06 100 08:36 07.09.2022
1885 Rain 9 1006 87 10000 2.57 90 06:51 07.09.2022
1886 Clouds 10 1007 87 10000 3.09 180 01:50 07.09.2022
1887 Rain 10 1007 82 10000 5.66 150 22:44 06.09.2022
1888 Rain 9 1006 88 10000 1.54 100 21:39 06.09.2022
1889 Rain 9 1006 93 6437 0 0 20:21 06.09.2022
1890 Rain 9 1006 88 10000 2.57 80 18:45 06.09.2022
1891 Rain 9 1007 93 10000 2.57 130 17:56 06.09.2022
1892 Rain 9 1007 93 10000 2.06 80 17:20 06.09.2022
1893 Clouds 9 1007 93 10000 2.06 100 16:37 06.09.2022
1894 Clouds 10 1007 88 10000 3.6 160 14:55 06.09.2022
1895 Clouds 10 1007 87 10000 5.66 150 13:45 06.09.2022
1896 Clouds 10 1007 87 10000 5.66 150 13:21 06.09.2022
1897 Clouds 10 1007 87 10000 4.12 150 11:54 06.09.2022
1898 Clouds 10 1007 87 10000 4.12 170 10:41 06.09.2022
1899 Rain 10 1007 87 10000 3.6 170 08:41 06.09.2022
1900 Clouds 10 1007 87 10000 4.63 170 07:37 06.09.2022
1901 Clouds 10 1007 82 10000 4.12 170 02:34 06.09.2022
1902 Rain 9 1007 93 10000 3.09 130 23:22 05.09.2022
1903 Rain 9 1007 93 3219 3.6 170 21:52 05.09.2022
1904 Clouds 9 1007 88 10000 3.6 150 20:32 05.09.2022
1905 Clouds 9 1007 88 10000 3.6 160 19:19 05.09.2022
1906 Clouds 8 1007 93 10000 4.12 180 18:44 05.09.2022
1907 Clouds 8 1007 93 10000 4.12 180 18:21 05.09.2022
1908 Clouds 9 1007 87 10000 3.09 140 16:35 05.09.2022
1909 Rain 9 1008 87 10000 3.6 150 15:46 05.09.2022
1910 Clouds 9 1008 82 10000 2.57 160 13:25 05.09.2022
1911 Clouds 9 1008 82 10000 3.09 150 12:26 05.09.2022
1912 Clouds 9 1009 82 10000 3.6 160 09:44 05.09.2022
1913 Clouds 10 1009 81 10000 3.09 180 06:40 05.09.2022
1914 Clouds 12 1010 79 10000 2.96 156 01:56 05.09.2022
1915 Clouds 10 1008 81 10000 2.57 130 22:59 04.09.2022
1916 Clouds 10 1008 81 10000 2.57 130 22:27 04.09.2022
1917 Clear 7 1007 87 10000 1.54 10 20:44 04.09.2022
1918 Clear 4 1007 93 10000 1.54 10 19:29 04.09.2022
1919 Clouds 7 1007 83 10000 2.36 30 17:55 04.09.2022
1920 Clouds 6 1005 87 10000 1.54 20 16:42 04.09.2022
1921 Clouds 8 1004 87 10000 3.6 270 14:29 04.09.2022
1922 Clouds 8 1004 87 10000 2.06 270 13:28 04.09.2022
1923 Clouds 8 1004 87 10000 2.06 270 13:28 04.09.2022
1924 Clouds 7 1004 92 10000 1.96 295 11:54 04.09.2022
1925 Clouds 8 1003 87 10000 3.6 280 10:28 04.09.2022
1926 Clouds 9 1001 76 10000 5.14 280 07:29 04.09.2022
1927 Clear 9 1001 81 10000 8.23 250 04:44 04.09.2022
1928 Clear 10 1000 81 10000 8.23 260 00:47 04.09.2022
1929 Clouds 9 1000 81 10000 4.12 300 22:21 03.09.2022
1930 Clear 8 1000 77 10000 2.57 280 21:23 03.09.2022
1931 Clear 5 999 87 10000 3.6 310 19:39 03.09.2022
1932 Clear 3 999 93 10000 2.57 320 17:26 03.09.2022
1933 Clear 4 999 93 10000 0 0 16:27 03.09.2022
1934 Clear 6 998 87 10000 0 0 14:45 03.09.2022
1935 Clouds 6 1000 91 10000 2.45 356 13:58 03.09.2022
1936 Clear 9 999 82 10000 1.54 270 12:24 03.09.2022
1937 Clouds 10 998 77 10000 0 0 10:41 03.09.2022
1938 Clouds 11 997 77 10000 5.14 360 08:28 03.09.2022
1939 Clouds 12 999 84 10000 3.48 9 06:58 03.09.2022
1940 Rain 13 996 88 10000 0 0 04:33 03.09.2022
1941 Clouds 12 996 93 10000 3.6 230 00:29 03.09.2022
1942 Clouds 12 997 96 10000 1.4 5 22:57 02.09.2022
1943 Rain 10 996 93 8047 0 0 20:59 02.09.2022
1944 Rain 10 996 93 4828 0 0 20:28 02.09.2022
1945 Clouds 9 995 93 10000 0 0 19:22 02.09.2022
1946 Rain 9 995 93 10000 0 0 18:28 02.09.2022
1947 Clouds 8 996 99 10000 1.39 331 17:53 02.09.2022
1948 Clouds 9 995 93 10000 0 0 16:48 02.09.2022
1949 Clouds 9 995 100 10000 0 0 15:21 02.09.2022
1950 Clouds 9 994 93 10000 0 0 12:39 02.09.2022
1951 Clouds 10 994 93 10000 0 0 10:22 02.09.2022
1952 Clouds 11 993 93 10000 0 0 09:40 02.09.2022
1953 Clouds 12 993 87 10000 2.57 260 07:32 02.09.2022
1954 Clouds 12 993 83 10000 2.57 270 06:38 02.09.2022
1955 Rain 15 993 82 10000 1.68 200 02:55 02.09.2022
1956 Rain 10 991 93 10000 0 0 22:35 01.09.2022
1957 Rain 10 991 93 2012 0 0 21:44 01.09.2022
1958 Rain 10 991 93 10000 0 0 21:25 01.09.2022
1959 Rain 10 991 93 2012 0 0 20:44 01.09.2022
1960 Mist 10 990 93 8047 0 0 18:54 01.09.2022
1961 Mist 10 990 93 9656 2.57 170 17:33 01.09.2022
1962 Clouds 10 990 93 10000 4.12 70 15:59 01.09.2022
1963 Clouds 10 990 93 10000 2.06 80 14:33 01.09.2022
1964 Clouds 10 990 93 10000 2.57 70 12:58 01.09.2022
1965 Clouds 10 990 93 10000 2.57 60 11:53 01.09.2022
1966 Clouds 10 990 93 10000 2.06 70 11:32 01.09.2022
1967 Clouds 10 990 93 10000 2.06 90 10:38 01.09.2022
1968 Clouds 10 990 93 10000 1.54 110 08:30 01.09.2022
1969 Clouds 10 989 93 10000 2.57 170 06:22 01.09.2022
1970 Mist 11 989 93 4828 4.63 130 01:32 01.09.2022
1971 Mist 11 989 93 4828 4.63 130 01:32 01.09.2022
1972 Rain 11 989 93 4828 4.63 130 01:32 01.09.2022
1973 Rain 11 989 93 4828 4.63 130 01:32 01.09.2022
1974 Rain 10 989 93 8047 4.12 120 23:29 31.08.2022
1975 Clouds 9 989 93 10000 3.6 130 21:32 31.08.2022
1976 Clouds 9 989 93 10000 3.09 150 19:50 31.08.2022
1977 Clouds 9 989 93 10000 3.09 160 18:18 31.08.2022
1978 Mist 10 990 93 6437 3.09 120 15:56 31.08.2022
1979 Rain 10 990 93 9656 2.57 140 14:32 31.08.2022
1980 Rain 10 991 93 4828 3.6 150 12:22 31.08.2022
1981 Rain 11 991 93 4023 5.66 130 11:22 31.08.2022
1982 Rain 11 992 93 3219 8.23 110 08:37 31.08.2022
1983 Rain 10 994 93 4023 6.17 110 04:47 31.08.2022
1984 Rain 9 995 93 3219 9.26 150 23:20 30.08.2022
1985 Rain 9 996 93 4023 9.77 140 21:41 30.08.2022
1986 Rain 9 996 93 4023 9.26 140 20:57 30.08.2022
1987 Rain 10 997 87 10000 8.75 140 18:23 30.08.2022
1988 Rain 9 1000 93 10000 5.66 140 15:23 30.08.2022
1989 Rain 9 1001 93 10000 5.14 130 13:24 30.08.2022
1990 Rain 9 1003 87 10000 3.6 130 11:21 30.08.2022
1991 Clouds 9 1003 87 10000 2.06 110 10:49 30.08.2022
1992 Clouds 9 1005 81 10000 3.09 150 07:42 30.08.2022
1993 Clouds 9 1007 81 10000 2.57 190 02:32 30.08.2022
1994 Clouds 7 1008 81 10000 2.57 130 23:20 29.08.2022
1995 Clouds 7 1008 76 10000 1.54 140 22:24 29.08.2022
1996 Clouds 6 1008 82 10000 1.54 110 21:25 29.08.2022
1997 Clear 2 1009 87 10000 2.06 20 19:52 29.08.2022
1998 Clear 1 1009 93 10000 0 0 17:52 29.08.2022
1999 Clear 1 1009 93 10000 0 0 17:24 29.08.2022
2000 Clear 1 1009 86 10000 2.06 40 16:40 29.08.2022
2001 Clear 2 1010 87 10000 0 0 14:45 29.08.2022
2002 Clear 3 1011 82 10000 2.19 314 12:53 29.08.2022
2003 Clear 5 1011 81 10000 5.66 280 11:19 29.08.2022
2004 Clear 6 1011 76 10000 7.2 290 09:48 29.08.2022
2005 Clear 8 1010 67 10000 4.12 300 08:29 29.08.2022
2006 Clouds 11 1011 68 10000 4.82 356 04:57 29.08.2022
2007 Clear 11 1010 62 10000 5.66 230 00:20 29.08.2022
2008 Clear 9 1009 71 10000 1.54 180 22:41 28.08.2022
2009 Clear 9 1009 66 10000 1.54 160 21:44 28.08.2022
2010 Clouds 9 1011 79 10000 3.78 355 20:55 28.08.2022
2011 Clear 7 1009 77 10000 0 0 19:26 28.08.2022
2012 Clear 6 1009 76 10000 2.57 350 18:20 28.08.2022
2013 Clouds 4 1010 92 10000 3.74 358 16:58 28.08.2022
2014 Clear 7 1008 77 10000 6.69 350 16:27 28.08.2022
2015 Clouds 8 1008 77 10000 4.63 340 14:41 28.08.2022
2016 Clouds 10 1007 77 10000 5.66 360 12:32 28.08.2022
2017 Clouds 11 1006 77 10000 3.6 10 10:43 28.08.2022
2018 Clouds 11 1006 77 10000 3.6 10 10:43 28.08.2022
2019 Clouds 11 1006 76 10000 2.57 320 09:49 28.08.2022
2020 Clouds 12 1005 72 10000 4.63 340 08:37 28.08.2022
2021 Clouds 14 1005 73 10000 3.6 340 07:43 28.08.2022
2022 Clouds 13 1004 82 10000 4.12 230 02:48 28.08.2022
2023 Clouds 12 1003 82 10000 2.57 230 00:27 28.08.2022
2024 Clouds 12 1002 77 10000 0 0 22:36 27.08.2022
2025 Clouds 11 1002 88 10000 0 0 21:31 27.08.2022
2026 Clouds 9 1001 93 10000 0 0 19:49 27.08.2022
2027 Rain 8 1000 93 10000 3.09 340 17:43 27.08.2022
2028 Clouds 7 1001 99 10000 1.71 34 15:53 27.08.2022
2029 Clouds 9 1000 93 10000 1.54 30 15:24 27.08.2022
2030 Clouds 9 999 93 10000 1.54 30 12:28 27.08.2022
2031 Clouds 9 999 93 10000 1.54 60 11:31 27.08.2022
2032 Clouds 10 998 93 10000 1.54 170 09:48 27.08.2022
2033 Clouds 10 997 87 10000 2.06 160 07:54 27.08.2022
2034 Mist 10 995 93 3219 3.6 180 02:52 27.08.2022
2035 Rain 11 995 99 10000 1.46 159 23:57 26.08.2022
2036 Rain 10 994 93 3219 3.6 160 22:40 26.08.2022
2037 Rain 10 994 93 2816 3.6 160 21:19 26.08.2022
2038 Mist 9 993 100 8047 4.12 180 19:23 26.08.2022
2039 Rain 10 993 93 4023 4.63 190 16:50 26.08.2022
2040 Rain 10 993 93 4828 3.09 200 15:31 26.08.2022
2041 Rain 10 993 93 4023 3.6 200 14:34 26.08.2022
2042 Rain 10 993 93 6437 5.14 210 12:51 26.08.2022
2043 Rain 10 992 93 4828 4.63 200 11:33 26.08.2022
2044 Rain 10 992 93 6437 5.14 190 10:46 26.08.2022
2045 Rain 10 992 93 2414 6.69 190 07:28 26.08.2022
2046 Rain 11 991 87 4023 7.2 170 02:30 26.08.2022
2047 Rain 10 992 93 4023 8.23 170 23:41 25.08.2022
2048 Rain 11 993 93 4023 9.26 160 21:36 25.08.2022
2049 Rain 11 993 93 3219 9.77 150 20:30 25.08.2022
2050 Rain 11 995 93 3219 9.77 150 18:55 25.08.2022
2051 Rain 11 996 87 4828 9.77 140 17:50 25.08.2022
2052 Rain 11 996 87 4023 8.23 130 17:31 25.08.2022
2053 Rain 11 999 87 10000 9.77 150 15:43 25.08.2022
2054 Rain 11 999 87 10000 9.77 150 15:25 25.08.2022
2055 Rain 12 1001 94 10000 5.66 170 11:55 25.08.2022
2056 Rain 12 1003 94 6437 6.17 120 10:48 25.08.2022
2057 Clouds 12 1004 87 10000 3.6 130 08:54 25.08.2022
2058 Mist 10 1006 93 4828 4.12 130 05:39 25.08.2022
2059 Clouds 9 1008 76 10000 4.63 160 01:42 25.08.2022
2060 Clouds 9 1008 72 10000 3.09 150 23:26 24.08.2022
2061 Clouds 9 1008 76 10000 2.57 160 22:23 24.08.2022
2062 Clouds 8 1009 81 10000 0 0 21:36 24.08.2022
2063 Clouds 7 1009 81 10000 2.06 350 20:52 24.08.2022
2064 Clouds 7 1009 87 10000 2.06 60 19:19 24.08.2022
2065 Clouds 6 1009 82 10000 0 0 16:47 24.08.2022
2066 Clouds 4 1009 87 10000 1.54 360 15:52 24.08.2022
2067 Clouds 4 1008 87 10000 2.57 300 13:40 24.08.2022
2068 Clouds 5 1008 87 10000 3.6 310 11:38 24.08.2022
2069 Clear 7 1008 81 10000 5.14 260 09:39 24.08.2022
2070 Clear 9 1007 78 10000 2.38 252 07:59 24.08.2022
2071 Clear 13 1006 49 10000 3.91 231 02:57 24.08.2022
2072 Clouds 9 1005 81 10000 3.09 240 23:34 23.08.2022
2073 Clouds 8 1005 93 10000 0 0 22:32 23.08.2022
2074 Mist 7 1004 93 3219 0 0 21:34 23.08.2022
2075 Fog 7 1004 93 805 2.06 270 20:30 23.08.2022
2076 Mist 7 1004 93 4828 0 0 18:49 23.08.2022
2077 Mist 7 1004 93 3219 0 0 17:50 23.08.2022
2078 Clouds 6 1004 100 10000 0 0 17:18 23.08.2022
2079 Clouds 7 1005 93 10000 1.54 120 15:39 23.08.2022
2080 Clouds 7 1005 93 10000 0 0 13:36 23.08.2022
2081 Clouds 7 1006 93 10000 0 0 11:33 23.08.2022
2082 Clouds 9 1006 81 10000 2.06 290 10:51 23.08.2022
2083 Clouds 9 1006 81 10000 2.06 290 10:26 23.08.2022
2084 Clear 10 1007 79 10000 1.19 245 08:53 23.08.2022
2085 Clear 12 1006 76 10000 3.09 290 08:21 23.08.2022
2086 Clear 13 1006 71 10000 4.63 270 07:38 23.08.2022
2087 Clear 14 1007 72 10000 4.63 260 06:29 23.08.2022
2088 Clear 15 1007 63 10000 4.12 250 05:38 23.08.2022
2089 Clear 13 1009 71 10000 5.14 240 00:52 23.08.2022
2090 Clear 13 1009 71 10000 5.14 240 00:24 23.08.2022
2091 Clear 12 1010 71 10000 2.57 230 22:52 22.08.2022
2092 Clear 12 1010 76 10000 1.54 180 21:51 22.08.2022
2093 Clear 10 1010 81 10000 0 0 19:49 22.08.2022
2094 Clear 10 1010 82 10000 0 0 19:21 22.08.2022
2095 Clear 8 1011 86 10000 2.65 12 17:55 22.08.2022
2096 Clear 9 1011 81 10000 1.54 50 15:40 22.08.2022
2097 Clear 10 1011 76 10000 1.54 340 14:32 22.08.2022
2098 Clouds 13 1011 68 10000 0 0 11:19 22.08.2022
2099 Clear 17 1011 56 10000 3.6 40 08:22 22.08.2022
2100 Clouds 18 1010 48 10000 3.6 60 04:34 22.08.2022
2101 Clear 18 1011 58 10000 1.15 157 00:53 22.08.2022
2102 Clouds 18 1011 52 10000 2.57 20 00:34 22.08.2022
2103 Clear 16 1011 63 10000 1.18 20 22:54 21.08.2022
2104 Clear 16 1010 55 10000 4.63 350 21:36 21.08.2022
2105 Clear 15 1011 68 10000 2.5 18 20:57 21.08.2022
2106 Clear 12 1010 67 10000 5.14 340 19:28 21.08.2022
2107 Clear 10 1010 71 10000 4.12 340 18:21 21.08.2022
2108 Clear 9 1009 76 10000 4.63 340 16:21 21.08.2022
2109 Clear 10 1009 76 10000 4.63 360 15:43 21.08.2022
2110 Clear 10 1009 76 10000 4.12 350 14:35 21.08.2022
2111 Clear 10 1009 76 10000 5.14 350 13:43 21.08.2022
2112 Clear 11 1009 71 10000 4.12 340 12:37 21.08.2022
2113 Clouds 12 1009 77 10000 3.34 20 09:56 21.08.2022
2114 Clouds 14 1009 70 10000 2.23 29 08:56 21.08.2022
2115 Clear 17 1008 52 10000 6.17 30 08:38 21.08.2022
2116 Clear 18 1007 49 10000 7.72 30 07:28 21.08.2022
2117 Clear 19 1007 43 10000 6.17 60 04:26 21.08.2022
2118 Clouds 18 1008 60 10000 5.61 51 00:53 21.08.2022
2119 Clouds 16 1008 67 10000 5.9 38 22:59 20.08.2022
2120 Clear 16 1007 56 10000 7.72 20 21:45 20.08.2022
2121 Clear 13 1008 67 10000 8.23 20 20:48 20.08.2022
2122 Clear 11 1008 71 10000 6.69 10 19:42 20.08.2022
2123 Clear 11 1008 72 10000 5.14 10 18:43 20.08.2022
2124 Clear 11 1008 72 10000 5.14 10 18:25 20.08.2022
2125 Clear 9 1007 81 10000 4.63 360 17:19 20.08.2022
2126 Clear 10 1008 76 10000 5.14 350 15:51 20.08.2022
2127 Clear 11 1008 72 10000 3.09 360 13:39 20.08.2022
2128 Clouds 10 1009 81 10000 4.66 21 11:53 20.08.2022
2129 Clear 12 1008 67 10000 3.09 20 10:39 20.08.2022
2130 Clear 13 1008 67 10000 3.6 10 09:18 20.08.2022
2131 Clouds 16 1009 52 10000 4.63 40 06:40 20.08.2022
2132 Clouds 16 1009 51 10000 5.14 40 04:40 20.08.2022
2133 Clouds 13 1011 72 10000 5.55 74 00:53 20.08.2022
2134 Clouds 12 1012 63 10000 4.63 60 23:21 19.08.2022
2135 Clouds 11 1012 71 10000 3.6 80 22:36 19.08.2022
2136 Clouds 9 1012 81 10000 4.63 40 20:41 19.08.2022
2137 Clouds 7 1012 98 10000 3.21 56 18:53 19.08.2022
2138 Mist 7 1012 100 8047 0 0 15:55 19.08.2022
2139 Mist 7 1012 100 8047 0 0 15:55 19.08.2022
2140 Haze 9 1012 82 9656 3.6 160 13:41 19.08.2022
2141 Rain 8 1012 87 10000 3.09 80 11:40 19.08.2022
2142 Rain 8 1011 93 10000 1.54 100 10:31 19.08.2022
2143 Clouds 9 1010 87 10000 3.09 140 07:39 19.08.2022
2144 Clouds 9 1009 87 10000 4.12 190 03:19 19.08.2022
2145 Clouds 10 1007 81 10000 4.63 140 00:36 19.08.2022
2146 Clouds 10 1009 91 10000 1.49 149 23:56 18.08.2022
2147 Rain 9 1006 93 10000 3.6 90 22:54 18.08.2022
2148 Rain 9 1006 93 10000 3.6 90 22:22 18.08.2022
2149 Rain 8 1005 93 10000 4.12 90 21:45 18.08.2022
2150 Rain 8 1005 93 10000 3.6 90 20:42 18.08.2022
2151 Rain 9 1004 82 10000 3.09 80 19:32 18.08.2022
2152 Clouds 8 1004 82 10000 0 0 18:34 18.08.2022
2153 Clouds 8 1003 87 10000 0 0 17:32 18.08.2022
2154 Clouds 8 1003 87 10000 1.54 20 15:50 18.08.2022
2155 Clouds 8 1002 87 10000 2.57 340 14:21 18.08.2022
2156 Clouds 8 1002 81 10000 1.54 350 13:42 18.08.2022
2157 Clouds 8 1001 87 10000 1.54 360 12:27 18.08.2022
2158 Clouds 10 1000 77 10000 0 0 10:51 18.08.2022
2159 Clouds 10 1000 76 10000 2.57 340 09:42 18.08.2022
2160 Clouds 12 998 59 10000 2.57 350 07:26 18.08.2022
2161 Clouds 12 998 59 10000 4.12 340 05:33 18.08.2022
2162 Clouds 11 997 58 10000 5.66 350 00:45 18.08.2022
2163 Clouds 9 998 66 10000 5.66 350 22:28 17.08.2022
2164 Clouds 8 999 71 10000 4.12 330 20:21 17.08.2022
2165 Clouds 8 999 71 10000 4.12 330 20:21 17.08.2022
2166 Clouds 8 999 67 10000 6.17 350 19:34 17.08.2022
2167 Clouds 7 999 70 10000 6.69 330 18:32 17.08.2022
2168 Clouds 7 1000 70 10000 4.12 340 16:50 17.08.2022
2169 Clouds 7 1000 70 10000 3.09 320 15:31 17.08.2022
2170 Clouds 7 1001 70 10000 3.6 290 14:29 17.08.2022
2171 Clouds 5 1002 75 10000 2.57 250 12:21 17.08.2022
2172 Clear 5 1003 75 10000 2.57 350 10:25 17.08.2022
2173 Clear 5 1003 75 10000 2.57 350 10:25 17.08.2022
2174 Clear 9 1003 62 10000 7.2 10 08:25 17.08.2022
2175 Clouds 11 1004 51 10000 7.72 10 05:22 17.08.2022
2176 Clear 10 1006 54 10000 6.17 20 00:46 17.08.2022
2177 Clouds 9 1007 65 10000 5.3 20 22:53 16.08.2022
2178 Clouds 7 1008 76 10000 4.92 6 20:59 16.08.2022
2179 Clouds 6 1009 78 10000 3.94 355 19:55 16.08.2022
2180 Clear 4 1008 81 10000 4.12 320 19:22 16.08.2022
2181 Clouds 3 1009 90 10000 3.33 350 17:55 16.08.2022
2182 Clear 3 1009 81 10000 3.6 350 16:46 16.08.2022
2183 Clear 3 1009 81 10000 3.6 360 15:44 16.08.2022
2184 Clouds 2 1009 90 10000 3.77 351 14:54 16.08.2022
2185 Clear 4 1009 81 10000 3.09 340 14:36 16.08.2022
2186 Clear 4 1009 81 10000 0 0 11:40 16.08.2022
2187 Clear 6 1009 76 10000 5.66 360 10:20 16.08.2022
2188 Clouds 9 1009 62 10000 6.17 10 08:49 16.08.2022
2189 Clouds 9 1009 62 10000 6.17 10 08:20 16.08.2022
2190 Clouds 8 1010 80 10000 0.68 260 05:55 16.08.2022
2191 Clouds 7 1011 70 10000 3.6 220 23:37 15.08.2022
2192 Clouds 7 1011 65 10000 1.54 250 22:21 15.08.2022
2193 Clouds 6 1011 70 10000 0 0 21:48 15.08.2022
2194 Clouds 5 1011 76 10000 1.54 330 20:31 15.08.2022
2195 Clouds 3 1011 81 10000 1.54 20 19:18 15.08.2022
2196 Clouds 3 1012 82 10000 2.02 328 17:59 15.08.2022
2197 Clear 4 1011 81 10000 2.57 250 16:24 15.08.2022
2198 Clouds 3 1011 81 10000 2.06 10 15:26 15.08.2022
2199 Clear 4 1011 81 10000 2.57 310 13:27 15.08.2022
2200 Clear 6 1010 71 10000 2.06 0 10:37 15.08.2022
2201 Clouds 6 1010 77 10000 2.97 330 08:55 15.08.2022
2202 Clear 12 1008 55 10000 8.75 360 06:51 15.08.2022
2203 Clear 13 1007 51 10000 7.2 350 04:32 15.08.2022
2204 Clear 10 1006 62 10000 12.35 10 23:49 14.08.2022
2205 Clouds 9 1006 61 10000 6.17 350 22:28 14.08.2022
2206 Clouds 8 1005 71 10000 7.72 350 21:25 14.08.2022
2207 Clouds 8 1005 72 10000 6.17 340 19:46 14.08.2022
2208 Clouds 8 1004 67 10000 9.77 340 18:42 14.08.2022
2209 Clouds 7 1005 71 10000 4.63 340 17:44 14.08.2022
2210 Clouds 7 1004 76 10000 5.14 330 16:32 14.08.2022
2211 Clouds 7 1004 76 10000 6.17 340 15:48 14.08.2022
2212 Clouds 7 1004 77 10000 6.17 330 14:19 14.08.2022
2213 Clouds 7 1004 77 10000 4.63 330 13:49 14.08.2022
2214 Clouds 7 1005 77 10000 4.63 340 12:55 14.08.2022
2215 Clear 6 1005 76 10000 2.06 340 11:31 14.08.2022
2216 Clear 7 1005 71 10000 5.14 350 10:26 14.08.2022
2217 Clouds 8 1004 76 10000 5.66 360 08:45 14.08.2022
2218 Rain 8 1004 76 10000 6.17 10 06:20 14.08.2022
2219 Rain 9 1004 81 10000 6.69 360 02:46 14.08.2022
2220 Clouds 11 1004 76 10000 5.66 350 23:36 13.08.2022
2221 Clouds 10 1004 87 10000 3.6 360 22:28 13.08.2022
2222 Rain 10 1005 99 10000 3.63 16 20:58 13.08.2022
2223 Rain 9 1005 100 10000 2.57 350 20:19 13.08.2022
2224 Rain 10 1005 93 10000 1.54 50 19:20 13.08.2022
2225 Mist 10 1005 93 3219 1.54 70 17:36 13.08.2022
2226 Mist 10 1005 93 4828 0 0 15:23 13.08.2022
2227 Clouds 10 1005 93 10000 0 0 14:24 13.08.2022
2228 Rain 10 1005 93 10000 0 0 13:38 13.08.2022
2229 Rain 10 1006 93 10000 0 0 11:51 13.08.2022
2230 Mist 10 1006 100 4828 2.57 250 09:50 13.08.2022
2231 Mist 11 1006 93 1609 2.06 270 07:51 13.08.2022
2232 Clouds 11 1007 87 10000 3.6 200 02:56 13.08.2022
2233 Clouds 11 1008 87 10000 4.12 220 23:46 12.08.2022
2234 Clouds 9 1008 93 10000 3.09 230 21:40 12.08.2022
2235 Clouds 9 1008 93 10000 3.09 230 20:40 12.08.2022
2236 Clouds 9 1008 93 10000 3.6 220 19:36 12.08.2022
2237 Clouds 9 1009 93 10000 3.6 220 18:37 12.08.2022
2238 Clouds 9 1009 93 10000 2.06 250 16:28 12.08.2022
2239 Clouds 9 1009 93 10000 0 0 15:31 12.08.2022
2240 Clouds 9 1010 93 10000 2.06 300 14:27 12.08.2022
2241 Clouds 10 1010 87 10000 3.09 260 12:51 12.08.2022
2242 Clouds 9 1011 93 10000 2.57 220 09:51 12.08.2022
2243 Clouds 10 1011 87 10000 3.6 160 07:47 12.08.2022
2244 Clouds 10 1012 87 10000 4.12 140 06:31 12.08.2022
2245 Clouds 11 1013 82 10000 3.6 160 02:22 12.08.2022
2246 Clouds 11 1014 82 10000 4.63 180 00:23 12.08.2022
2247 Clouds 11 1014 82 10000 3.09 170 23:34 11.08.2022
2248 Clouds 11 1014 82 10000 3.6 170 22:24 11.08.2022
2249 Clouds 11 1014 83 10000 3.6 190 21:39 11.08.2022
2250 Clouds 10 1014 87 10000 2.06 190 20:32 11.08.2022
2251 Clouds 10 1014 97 10000 2.12 166 19:57 11.08.2022
2252 Clouds 10 1014 87 10000 3.6 190 19:32 11.08.2022
2253 Clouds 10 1014 88 10000 4.63 210 17:48 11.08.2022
2254 Clouds 10 1014 87 10000 3.09 150 16:34 11.08.2022
2255 Clouds 10 1014 87 10000 3.6 190 15:21 11.08.2022
2256 Clouds 11 1015 83 10000 2.57 200 12:44 11.08.2022
2257 Clouds 10 1015 93 10000 3.09 210 10:18 11.08.2022
2258 Clouds 11 1014 82 10000 3.6 170 07:19 11.08.2022
2259 Clouds 11 1015 82 10000 3.6 200 03:46 11.08.2022
2260 Clouds 10 1014 87 10000 4.63 210 00:37 11.08.2022
2261 Rain 9 1014 93 4828 5.66 220 22:32 10.08.2022
2262 Rain 9 1014 93 8047 6.17 210 21:25 10.08.2022
2263 Clouds 9 1014 93 10000 3.04 226 20:55 10.08.2022
2264 Clouds 9 1014 87 10000 4.63 210 19:27 10.08.2022
2265 Clouds 9 1014 87 10000 6.17 210 18:22 10.08.2022
2266 Clouds 9 1014 87 10000 3.6 240 16:36 10.08.2022
2267 Clouds 9 1015 81 10000 4.63 210 13:36 10.08.2022
2268 Clouds 9 1015 82 10000 3.6 240 12:41 10.08.2022
2269 Clouds 9 1015 81 10000 3.6 250 09:25 10.08.2022
2270 Clouds 10 1015 76 10000 4.63 260 08:33 10.08.2022
2271 Clouds 10 1015 81 10000 5.66 250 07:19 10.08.2022
2272 Clear 11 1016 71 10000 6.69 260 03:28 10.08.2022
2273 Clouds 10 1017 71 10000 5.14 310 23:34 09.08.2022
2274 Clouds 10 1017 80 10000 3.46 276 22:56 09.08.2022
2275 Clouds 8 1016 76 10000 7.2 300 21:36 09.08.2022
2276 Clouds 7 1016 76 10000 7.2 300 20:36 09.08.2022
2277 Clouds 7 1016 70 10000 6.69 310 18:45 09.08.2022
2278 Clouds 7 1015 66 10000 5.14 320 17:31 09.08.2022
2279 Clouds 7 1015 65 10000 5.66 290 16:41 09.08.2022
2280 Clouds 6 1016 72 10000 3.04 338 15:58 09.08.2022
2281 Clouds 8 1014 71 10000 1.54 330 13:51 09.08.2022
2282 Clouds 8 1012 86 10000 3.31 308 09:56 09.08.2022
2283 Clouds 12 1009 72 10000 6.69 350 08:51 09.08.2022
2284 Clouds 11 1010 80 10000 2.54 312 07:54 09.08.2022
2285 Clouds 12 1005 76 10000 5.14 300 04:28 09.08.2022
2286 Rain 7 1003 87 9656 6.17 260 23:46 08.08.2022
2287 Rain 7 1003 82 10000 6.69 250 22:56 08.08.2022
2288 Rain 6 1003 82 10000 6.69 260 22:35 08.08.2022
2289 Rain 4 1003 93 10000 5.66 290 21:27 08.08.2022
2290 Rain 4 1002 87 10000 6.69 290 19:51 08.08.2022
2291 Clouds 3 1004 94 8652 7.85 271 18:58 08.08.2022
2292 Rain 3 1002 93 10000 8.75 280 17:34 08.08.2022
2293 Rain 4 1000 87 10000 10.29 280 15:45 08.08.2022
2294 Rain 4 999 87 10000 10.8 280 14:33 08.08.2022
2295 Clouds 6 998 93 10000 7.72 280 12:29 08.08.2022
2296 Clouds 8 997 87 10000 6.69 280 10:19 08.08.2022
2297 Rain 9 998 91 10000 3.72 226 06:54 08.08.2022
2298 Clouds 10 996 81 10000 3.09 250 03:34 08.08.2022
2299 Rain 9 996 87 4828 6.17 110 22:44 07.08.2022
2300 Rain 8 997 93 8047 8.23 110 21:40 07.08.2022
2301 Rain 9 998 82 10000 6.69 130 20:42 07.08.2022
2302 Rain 9 998 82 10000 6.69 130 20:18 07.08.2022
2303 Clouds 9 999 77 10000 7.72 140 19:41 07.08.2022
2304 Rain 9 1000 82 10000 8.23 150 18:40 07.08.2022
2305 Rain 8 1002 87 10000 6.17 160 17:18 07.08.2022
2306 Rain 8 1002 87 10000 7.72 160 16:38 07.08.2022
2307 Rain 9 1004 82 10000 6.17 160 15:25 07.08.2022
2308 Rain 9 1006 87 10000 4.63 200 13:44 07.08.2022
2309 Clouds 9 1007 87 10000 5.14 230 12:18 07.08.2022
2310 Rain 9 1008 93 10000 7.2 200 10:37 07.08.2022
2311 Clouds 9 1009 93 10000 3.6 190 08:26 07.08.2022
2312 Clear 10 1011 66 10000 4.63 210 04:26 07.08.2022
2313 Clear 11 1011 66 10000 7.72 250 01:50 07.08.2022
2314 Clear 9 1011 57 10000 2.57 280 22:28 06.08.2022
2315 Clouds 8 1011 61 10000 2.06 310 21:43 06.08.2022
2316 Clear 6 1010 75 10000 3.09 320 19:42 06.08.2022
2317 Clouds 5 1009 81 10000 3.6 300 18:33 06.08.2022
2318 Clouds 5 1009 81 10000 5.14 280 17:39 06.08.2022
2319 Clouds 6 1009 76 10000 5.66 300 15:21 06.08.2022
2320 Clear 5 1008 75 10000 6.17 310 13:50 06.08.2022
2321 Clear 6 1007 75 10000 7.72 300 12:21 06.08.2022
2322 Clouds 8 1005 67 10000 6.17 310 10:37 06.08.2022
2323 Clouds 9 1004 67 10000 7.2 300 09:21 06.08.2022
2324 Rain 8 1002 87 10000 4.32 348 03:55 06.08.2022
2325 Clouds 12 999 76 10000 5.14 300 00:27 06.08.2022
2326 Clouds 12 998 82 10000 2.57 320 22:34 05.08.2022
2327 Clouds 11 998 87 10000 0 0 20:30 05.08.2022
2328 Clouds 10 998 93 10000 0 0 18:53 05.08.2022
2329 Clouds 10 998 93 10000 0 0 18:35 05.08.2022
2330 Clouds 10 998 93 10000 2.06 20 16:52 05.08.2022
2331 Clouds 10 998 93 10000 2.57 330 15:24 05.08.2022
2332 Clouds 10 998 93 10000 2.06 360 14:34 05.08.2022
2333 Clouds 11 999 87 10000 2.57 70 13:26 05.08.2022
2334 Clouds 11 999 87 10000 1.54 50 12:59 05.08.2022
2335 Rain 11 1000 87 10000 2.06 40 11:20 05.08.2022
2336 Clouds 12 1000 83 10000 3.09 160 08:46 05.08.2022
2337 Mist 12 1000 87 4828 2.57 150 07:34 05.08.2022
2338 Clouds 12 1003 82 10000 4.12 140 02:33 05.08.2022
2339 Clouds 11 1003 82 10000 0 0 22:43 04.08.2022
2340 Clouds 11 1003 82 10000 2.06 270 21:28 04.08.2022
2341 Clouds 11 1003 82 10000 4.12 230 20:57 04.08.2022
2342 Clouds 11 1003 82 10000 4.12 230 20:35 04.08.2022
2343 Rain 11 1004 96 10000 3.29 203 18:58 04.08.2022
2344 Rain 11 1003 100 6437 7.2 230 18:33 04.08.2022
2345 Clouds 14 1004 82 10000 5.66 80 15:51 04.08.2022
2346 Clouds 14 1006 73 10000 5.14 70 13:26 04.08.2022
2347 Clouds 14 1008 82 10000 4.12 70 11:39 04.08.2022
2348 Clouds 14 1008 82 10000 3.09 80 10:21 04.08.2022
2349 Clouds 16 1011 72 10000 3.6 80 07:45 04.08.2022
2350 Clouds 13 1014 88 10000 4.12 130 02:50 04.08.2022
2351 Clouds 12 1016 87 10000 3.09 130 00:43 04.08.2022
2352 Clouds 12 1016 87 10000 2.06 110 23:40 03.08.2022
2353 Mist 10 1017 93 4828 3.6 120 21:31 03.08.2022
2354 Mist 9 1017 100 2816 3.6 130 20:21 03.08.2022
2355 Mist 9 1017 93 2414 2.06 90 19:24 03.08.2022
2356 Mist 9 1018 100 2012 2.06 210 16:50 03.08.2022
2357 Mist 9 1018 100 2414 0 0 16:22 03.08.2022
2358 Clouds 9 1018 93 10000 0 0 13:53 03.08.2022
2359 Clear 10 1018 89 10000 2.86 246 10:57 03.08.2022
2360 Clear 15 1017 63 10000 6.69 270 07:32 03.08.2022
2361 Clear 16 1017 63 10000 8.23 260 04:22 03.08.2022
2362 Clear 17 1017 63 10000 8.23 260 03:24 03.08.2022
2363 Clouds 21 1016 60 10000 7.02 274 00:54 03.08.2022
2364 Clear 19 1015 53 10000 5.66 280 22:49 02.08.2022
2365 Clear 19 1014 56 10000 5.14 290 21:52 02.08.2022
2366 Clear 15 1014 77 10000 2.06 290 20:37 02.08.2022
2367 Clear 12 1013 82 10000 0 0 18:39 02.08.2022
2368 Clouds 12 1012 94 10000 1.54 10 15:36 02.08.2022
2369 Clouds 15 1011 88 10000 0 0 11:32 02.08.2022
2370 Clouds 16 1011 77 10000 1.54 240 09:18 02.08.2022
2371 Clouds 17 1010 77 10000 1.54 210 07:52 02.08.2022
2372 Clouds 17 1010 72 10000 2.57 270 06:43 02.08.2022
2373 Clouds 18 1010 76 10000 3.46 267 04:54 02.08.2022
2374 Clouds 20 1009 50 10000 2.06 0 23:38 01.08.2022
2375 Clouds 19 1008 52 10000 3.09 40 22:24 01.08.2022
2376 Clouds 19 1008 53 10000 3.6 40 20:52 01.08.2022
2377 Clouds 17 1008 59 10000 3.09 10 19:25 01.08.2022
2378 Clouds 14 1008 77 10000 3.09 330 18:31 01.08.2022
2379 Clouds 14 1008 81 10000 1.83 342 16:53 01.08.2022
2380 Clouds 14 1008 73 10000 0 0 15:52 01.08.2022
2381 Clouds 14 1008 72 10000 0 0 15:30 01.08.2022
2382 Clouds 13 1008 77 10000 1.54 250 14:43 01.08.2022
2383 Clouds 11 1010 92 10000 1.17 75 11:59 01.08.2022
2384 Clouds 14 1010 73 10000 3.09 70 09:43 01.08.2022
2385 Clouds 14 1011 72 10000 3.6 100 08:30 01.08.2022
2386 Clouds 15 1012 77 10000 3.96 125 04:56 01.08.2022
2387 Clouds 14 1013 77 10000 4.63 130 03:49 01.08.2022
2388 Clouds 13 1013 88 10000 4.12 130 00:36 01.08.2022
2389 Clouds 14 1013 68 10000 4.12 110 22:40 31.07.2022
2390 Clouds 14 1013 68 10000 3.6 110 21:33 31.07.2022
2391 Clouds 12 1014 83 10000 2.25 75 19:56 31.07.2022
2392 Clear 9 1013 81 10000 1.54 350 18:35 31.07.2022
2393 Clear 7 1013 87 10000 1.54 330 15:45 31.07.2022
2394 Clear 8 1013 81 10000 1.54 20 13:51 31.07.2022
2395 Clear 10 1013 81 10000 0 0 12:28 31.07.2022
2396 Clouds 11 1013 73 10000 1 272 09:55 31.07.2022
2397 Clear 15 1012 58 10000 2.06 260 08:18 31.07.2022
2398 Clear 16 1013 51 10000 4.63 250 03:28 31.07.2022
2399 Clouds 17 1013 51 10000 1.19 250 23:53 30.07.2022
2400 Clouds 14 1013 54 10000 3.6 190 22:19 30.07.2022
2401 Clouds 14 1013 54 10000 3.6 190 22:19 30.07.2022
2402 Clouds 15 1013 48 10000 2.57 360 21:49 30.07.2022
2403 Clouds 13 1013 66 10000 2.3 16 20:58 30.07.2022
2404 Clouds 13 1013 66 10000 2.3 16 20:58 30.07.2022
2405 Clouds 12 1013 71 10000 2.55 22 19:59 30.07.2022
2406 Clouds 11 1014 72 10000 2.93 21 18:57 30.07.2022
2407 Clear 11 1013 63 10000 4.12 350 17:45 30.07.2022
2408 Clouds 10 1014 79 10000 3.59 14 15:54 30.07.2022
2409 Clear 11 1013 63 10000 3.09 350 15:24 30.07.2022
2410 Clear 12 1014 67 10000 0 0 13:20 30.07.2022
2411 Clear 12 1013 67 10000 4.12 340 12:20 30.07.2022
2412 Clear 13 1014 67 10000 3.09 330 10:35 30.07.2022
2413 Clouds 12 1014 75 10000 4.15 6 09:57 30.07.2022
2414 Clouds 15 1015 68 10000 3.6 24 07:55 30.07.2022
2415 Clear 16 1014 52 10000 4.63 50 07:55 30.07.2022
2416 Clear 16 1015 52 10000 6.17 50 04:20 30.07.2022
2417 Clear 17 1016 43 10000 4.63 30 02:28 30.07.2022
2418 Clouds 13 1018 67 10000 3.16 42 22:54 29.07.2022
2419 Clouds 13 1018 55 10000 3.09 40 21:28 29.07.2022
2420 Clouds 12 1018 55 10000 2.57 60 20:50 29.07.2022
2421 Clouds 11 1018 58 10000 3.6 40 18:27 29.07.2022
2422 Clear 10 1019 66 10000 0 0 16:32 29.07.2022
2423 Clear 11 1020 66 10000 5.14 50 13:46 29.07.2022
2424 Clear 13 1020 67 10000 5.66 40 11:33 29.07.2022
2425 Clouds 14 1020 82 10000 0 0 08:51 29.07.2022
2426 Clouds 14 1020 82 10000 0 0 08:20 29.07.2022
2427 Clouds 12 1023 82 10000 4.63 250 02:52 29.07.2022
2428 Clear 12 1024 76 10000 3.6 200 23:20 28.07.2022
2429 Clear 11 1024 76 10000 2.06 170 21:30 28.07.2022
2430 Clear 11 1024 76 10000 0 0 20:45 28.07.2022
2431 Clouds 8 1024 94 10000 1.83 44 19:58 28.07.2022
2432 Clear 9 1024 87 10000 0 0 19:26 28.07.2022
2433 Clear 4 1024 93 10000 1.54 360 17:45 28.07.2022
2434 Clear 4 1024 93 10000 1.54 360 17:19 28.07.2022
2435 Clear 3 1024 100 10000 0 0 16:39 28.07.2022
2436 Clear 5 1024 93 10000 1.54 340 13:47 28.07.2022
2437 Clear 8 1024 93 10000 4.12 280 11:43 28.07.2022
2438 Clouds 12 1023 86 10000 4.92 261 06:59 28.07.2022
2439 Clouds 11 1024 82 10000 5.66 240 05:37 28.07.2022
2440 Clouds 11 1024 82 10000 5.66 240 05:18 28.07.2022
2441 Clouds 9 1023 93 10000 2.57 230 23:19 27.07.2022
2442 Clouds 9 1022 81 10000 0 0 21:29 27.07.2022
2443 Clouds 8 1022 87 10000 0 0 19:46 27.07.2022
2444 Clouds 7 1022 93 10000 0 0 18:49 27.07.2022
2445 Clouds 7 1021 93 10000 1.54 300 16:31 27.07.2022
2446 Clouds 8 1021 87 10000 3.09 250 15:41 27.07.2022
2447 Clouds 9 1021 82 10000 5.14 230 14:41 27.07.2022
2448 Clouds 9 1021 82 10000 4.12 240 13:29 27.07.2022
2449 Clouds 9 1019 81 10000 6.69 240 09:28 27.07.2022
2450 Clouds 9 1018 71 10000 5.66 230 07:40 27.07.2022
2451 Clouds 9 1018 71 10000 5.66 230 07:40 27.07.2022
2452 Clouds 9 1017 71 10000 7.72 260 03:57 27.07.2022
2453 Clouds 7 1013 76 10000 10.8 250 22:49 26.07.2022
2454 Clouds 7 1012 76 10000 9.77 260 21:36 26.07.2022
2455 Clouds 7 1011 81 10000 9.26 270 20:49 26.07.2022
2456 Clouds 6 1010 81 10000 9.77 270 19:20 26.07.2022
2457 Clouds 6 1008 82 10000 10.8 260 18:39 26.07.2022
2458 Clouds 7 1007 82 10000 11.32 270 17:46 26.07.2022
2459 Clouds 7 1005 82 10000 10.8 270 15:43 26.07.2022
2460 Rain 7 1004 82 10000 8.23 270 14:38 26.07.2022
2461 Clouds 7 1000 82 10000 8.23 280 11:47 26.07.2022
2462 Clouds 7 997 87 10000 8.23 290 09:44 26.07.2022
2463 Clouds 8 995 87 10000 10.29 300 08:18 26.07.2022
2464 Mist 12 987 94 8047 5.66 160 01:52 26.07.2022
2465 Clouds 12 986 94 10000 4.63 160 23:44 25.07.2022
2466 Rain 12 986 94 3219 3.6 100 22:39 25.07.2022
2467 Rain 12 986 83 10000 6.69 40 21:43 25.07.2022
2468 Rain 11 987 87 8047 8.23 30 20:43 25.07.2022
2469 Mist 11 987 87 8047 8.23 30 20:23 25.07.2022
2470 Rain 11 988 87 4828 5.66 20 19:24 25.07.2022
2471 Rain 11 991 87 8047 8.75 20 17:37 25.07.2022
2472 Rain 11 991 83 10000 7.2 30 16:40 25.07.2022
2473 Rain 11 997 83 10000 6.17 30 13:22 25.07.2022
2474 Clouds 12 1000 72 10000 3.09 20 10:48 25.07.2022
2475 Clear 13 1002 55 10000 4.12 260 07:32 25.07.2022
2476 Clouds 10 1007 81 10000 2.57 240 00:38 25.07.2022
2477 Clouds 10 1007 81 10000 3.09 230 23:45 24.07.2022
2478 Clouds 10 1007 81 10000 1.54 220 22:44 24.07.2022
2479 Clouds 9 1007 87 10000 0 0 21:41 24.07.2022
2480 Rain 10 1008 90 10000 2.44 103 20:58 24.07.2022
2481 Clouds 9 1008 87 10000 0 0 20:37 24.07.2022
2482 Clouds 8 1008 87 10000 1.54 360 19:20 24.07.2022
2483 Clouds 8 1008 93 10000 0 0 17:56 24.07.2022
2484 Clouds 7 1009 98 10000 3.1 52 15:54 24.07.2022
2485 Clouds 8 1009 93 10000 1.54 330 14:47 24.07.2022
2486 Clouds 8 1009 93 10000 1.54 300 13:47 24.07.2022
2487 Clouds 8 1009 93 10000 0 0 12:28 24.07.2022
2488 Clouds 9 1009 87 10000 1.54 230 11:30 24.07.2022
2489 Clouds 9 1008 87 10000 2.06 210 09:48 24.07.2022
2490 Clouds 10 1008 81 10000 4.63 160 07:57 24.07.2022
2491 Clouds 10 1008 81 10000 4.63 160 07:31 24.07.2022
2492 Mist 9 1008 87 9656 6.69 140 02:57 24.07.2022
2493 Rain 9 1007 82 10000 5.14 130 23:25 23.07.2022
2494 Rain 9 1007 87 10000 5.66 150 20:47 23.07.2022
2495 Rain 8 1006 93 4828 5.14 120 19:29 23.07.2022
2496 Rain 8 1006 87 10000 2.57 100 18:36 23.07.2022
2497 Rain 8 1006 87 10000 4.12 130 17:27 23.07.2022
2498 Rain 8 1006 87 10000 5.66 150 16:24 23.07.2022
2499 Rain 8 1006 87 10000 5.14 140 15:22 23.07.2022
2500 Rain 8 1006 87 10000 4.12 140 14:55 23.07.2022
2501 Rain 8 1006 87 10000 5.66 150 14:23 23.07.2022
2502 Rain 6 1006 97 10000 2.17 105 11:56 23.07.2022
2503 Rain 8 1005 87 10000 5.14 150 10:44 23.07.2022
2504 Rain 8 1005 87 10000 3.6 120 09:44 23.07.2022
2505 Rain 8 1004 87 10000 4.63 130 07:37 23.07.2022
2506 Clouds 9 1003 81 10000 6.17 140 03:38 23.07.2022
2507 Clouds 8 1002 93 10000 6.17 160 00:39 23.07.2022
2508 Rain 8 1000 93 10000 4.63 170 21:38 22.07.2022
2509 Clouds 9 999 87 10000 5.14 180 20:33 22.07.2022
2510 Rain 8 999 98 10000 5.36 192 18:56 22.07.2022
2511 Rain 9 997 87 9656 3.6 220 17:40 22.07.2022
2512 Rain 8 997 93 8047 3.09 80 16:31 22.07.2022
2513 Clouds 8 997 93 10000 2.06 50 13:50 22.07.2022
2514 Rain 9 996 93 10000 3.6 160 10:40 22.07.2022
2515 Clouds 10 995 81 10000 4.63 220 09:25 22.07.2022
2516 Clouds 10 995 81 10000 4.63 240 08:26 22.07.2022
2517 Clouds 10 993 81 10000 6.17 40 04:26 22.07.2022
2518 Rain 8 993 81 10000 6.17 110 23:45 21.07.2022
2519 Clouds 8 992 87 10000 6.17 120 22:20 21.07.2022
2520 Clouds 8 991 87 10000 3.09 110 20:36 21.07.2022
2521 Clouds 8 990 93 10000 2.06 160 18:52 21.07.2022
2522 Clouds 8 990 93 10000 1.54 90 17:29 21.07.2022
2523 Clouds 8 990 87 10000 0 0 16:53 21.07.2022
2524 Clouds 7 989 93 10000 0 0 14:52 21.07.2022
2525 Clouds 7 989 93 10000 0 0 14:22 21.07.2022
2526 Clouds 8 989 87 10000 2.57 300 12:27 21.07.2022
2527 Rain 9 990 87 10000 3.09 320 10:39 21.07.2022
2528 Rain 8 990 92 10000 3.61 347 08:54 21.07.2022
2529 Clouds 9 990 81 10000 4.63 350 08:35 21.07.2022
2530 Rain 9 990 81 10000 6.17 360 07:23 21.07.2022
2531 Rain 9 992 87 6437 5.66 40 03:48 21.07.2022
2532 Rain 8 994 93 6437 7.2 100 23:22 20.07.2022
2533 Mist 8 995 87 8047 7.2 140 22:20 20.07.2022
2534 Rain 9 996 87 9656 7.72 130 20:49 20.07.2022
2535 Rain 9 996 93 8047 8.23 130 19:47 20.07.2022
2536 Mist 9 996 93 8047 8.23 130 19:19 20.07.2022
2537 Rain 9 997 93 8047 7.72 140 18:33 20.07.2022
2538 Rain 8 997 87 8047 5.66 70 17:42 20.07.2022
2539 Clouds 7 999 87 10000 6.17 80 15:43 20.07.2022
2540 Rain 6 999 94 6911 4.17 51 14:54 20.07.2022
2541 Clouds 7 1001 87 10000 4.63 60 13:44 20.07.2022
2542 Rain 6 1002 87 10000 4.12 50 11:32 20.07.2022
2543 Clouds 8 1003 71 10000 2.57 120 07:39 20.07.2022
2544 Clouds 8 1004 66 10000 5.66 230 02:44 20.07.2022
2545 Clouds 7 1003 76 10000 6.17 260 00:44 20.07.2022
2546 Clouds 7 1002 70 10000 7.2 270 22:41 19.07.2022
2547 Clouds 7 1002 70 10000 7.2 270 22:21 19.07.2022
2548 Clouds 7 1002 81 10000 7.84 271 20:54 19.07.2022
2549 Clouds 6 1001 81 10000 8.23 280 20:18 19.07.2022
2550 Clouds 4 1000 87 10000 9.26 280 18:43 19.07.2022
2551 Clouds 5 1000 91 10000 9.68 280 17:56 19.07.2022
2552 Clear 4 998 81 10000 8.75 270 16:25 19.07.2022
2553 Clouds 4 997 93 10000 9.59 283 14:20 19.07.2022
2554 Rain 4 992 87 10000 3.6 320 11:35 19.07.2022
2555 Rain 5 992 82 10000 4.63 260 10:31 19.07.2022
2556 Rain 6 992 87 9656 7.2 260 08:48 19.07.2022
2557 Rain 6 992 87 3219 11.83 210 08:22 19.07.2022
2558 Rain 6 993 82 4828 12.35 220 07:18 19.07.2022
2559 Rain 6 994 87 4828 11.83 210 05:26 19.07.2022
2560 Rain 7 995 76 9656 14.4 200 04:41 19.07.2022
2561 Rain 6 998 76 10000 10.29 200 00:31 19.07.2022
2562 Rain 5 998 87 10000 10.8 220 23:21 18.07.2022
2563 Rain 4 998 93 10000 10.8 220 22:56 18.07.2022
2564 Rain 7 999 83 10000 12.33 226 21:53 18.07.2022
2565 Rain 7 999 76 8047 13.38 230 20:50 18.07.2022
2566 Rain 6 999 75 10000 8.75 250 19:24 18.07.2022
2567 Clouds 6 999 75 10000 8.23 240 17:22 18.07.2022
2568 Clouds 6 1000 66 10000 9.26 250 15:46 18.07.2022
2569 Clouds 4 1000 71 10000 8.23 260 14:24 18.07.2022
2570 Clouds 3 999 75 10000 5.66 290 12:38 18.07.2022
2571 Clouds 4 997 75 10000 8.75 290 11:29 18.07.2022
2572 Clouds 7 992 76 10000 14.4 270 08:51 18.07.2022
2573 Clouds 8 991 86 10000 10.61 273 06:58 18.07.2022
2574 Clouds 12 994 71 10000 5.14 190 00:36 18.07.2022
2575 Clouds 12 995 66 10000 3.6 220 22:37 17.07.2022
2576 Clouds 12 995 58 10000 4.12 230 21:49 17.07.2022
2577 Clouds 12 995 58 10000 4.12 230 21:18 17.07.2022
2578 Clear 12 995 66 10000 3.6 260 20:37 17.07.2022
2579 Clear 11 995 59 10000 2.57 270 19:29 17.07.2022
2580 Clear 7 995 76 10000 0 0 18:30 17.07.2022
2581 Clear 6 996 81 10000 2.57 310 17:38 17.07.2022
2582 Clear 4 996 81 10000 0 0 16:51 17.07.2022
2583 Clear 4 996 81 10000 0 0 16:51 17.07.2022
2584 Clear 4 996 81 10000 0 0 16:26 17.07.2022
2585 Clear 5 996 81 10000 0 0 14:44 17.07.2022
2586 Clear 8 996 71 10000 4.63 280 13:31 17.07.2022
2587 Clear 10 996 62 10000 3.6 280 11:35 17.07.2022
2588 Clear 15 997 48 10000 4.12 290 09:24 17.07.2022
2589 Clear 15 999 55 10000 4.63 260 03:44 17.07.2022
2590 Clear 14 999 58 10000 4.12 230 02:32 17.07.2022
2591 Clear 13 1000 62 10000 3.6 220 23:20 16.07.2022
2592 Clear 13 1001 62 10000 3.6 210 21:32 16.07.2022
2593 Clear 12 1001 63 10000 0 0 19:40 16.07.2022
2594 Clear 9 1002 71 10000 0 0 18:32 16.07.2022
2595 Clear 9 1002 71 10000 0 0 18:32 16.07.2022
2596 Clear 5 1003 90 10000 2.75 28 16:53 16.07.2022
2597 Clear 4 1004 91 10000 3.53 18 13:56 16.07.2022
2598 Clouds 9 1004 80 10000 4 16 10:55 16.07.2022
2599 Clear 14 1003 59 10000 3.6 90 09:33 16.07.2022
2600 Clear 17 1003 46 10000 5.66 340 08:44 16.07.2022
2601 Clear 17 1003 46 10000 5.66 340 08:23 16.07.2022
2602 Clear 17 1003 55 10000 5.14 240 04:21 16.07.2022
2603 Clear 17 1004 51 10000 4.12 220 03:22 16.07.2022
2604 Clear 16 1004 51 10000 5.66 240 23:34 15.07.2022
2605 Clear 16 1005 45 10000 4.12 330 22:41 15.07.2022
2606 Clouds 14 1005 52 10000 4.63 10 21:29 15.07.2022
2607 Clouds 14 1005 54 10000 4.63 10 20:30 15.07.2022
2608 Rain 11 1005 76 10000 3.6 340 18:42 15.07.2022
2609 Rain 12 1005 63 10000 6.69 10 17:44 15.07.2022
2610 Rain 12 1006 67 10000 4.78 10 14:54 15.07.2022
2611 Clouds 14 1006 62 10000 4.12 360 13:18 15.07.2022
2612 Clouds 16 1006 60 10000 5.14 30 11:45 15.07.2022
2613 Clouds 16 1007 63 10000 6.69 30 10:27 15.07.2022
2614 Clouds 14 1007 76 10000 4.63 230 06:30 15.07.2022
2615 Clear 14 1010 72 10000 6.69 240 01:32 15.07.2022
2616 Clear 13 1010 76 10000 3.09 250 00:37 15.07.2022
2617 Clouds 11 1011 86 10000 3.6 260 22:53 14.07.2022
2618 Clouds 12 1011 82 10000 3.6 270 21:54 14.07.2022
2619 Clouds 11 1011 87 10000 3.09 270 21:30 14.07.2022
2620 Clouds 10 1011 93 10000 1.54 260 20:45 14.07.2022
2621 Clouds 10 1011 93 10000 1.54 260 20:26 14.07.2022
2622 Fog 10 1010 93 805 0 0 19:45 14.07.2022
2623 Clouds 7 1010 93 10000 0 0 16:23 14.07.2022
2624 Clouds 10 1010 79 10000 0.81 277 15:54 14.07.2022
2625 Clouds 6 1010 93 10000 2.06 360 14:43 14.07.2022
2626 Mist 8 1010 93 6437 0 0 13:32 14.07.2022
2627 Clear 11 1010 87 10000 1.54 320 12:18 14.07.2022
2628 Clear 11 1009 87 10000 2.57 250 11:25 14.07.2022
2629 Clear 12 1009 82 10000 2.06 240 10:39 14.07.2022
2630 Clear 13 1008 71 10000 4.12 270 08:21 14.07.2022
2631 Clear 14 1008 71 10000 5.66 260 03:29 14.07.2022
2632 Clouds 19 1009 60 10000 4.26 238 00:54 14.07.2022
2633 Clouds 14 1008 72 10000 4.12 230 23:38 13.07.2022
2634 Clouds 15 1008 67 10000 3.6 210 22:26 13.07.2022
2635 Clouds 15 1008 63 10000 0 0 21:30 13.07.2022
2636 Clouds 12 1007 76 10000 2.06 270 20:38 13.07.2022
2637 Clouds 10 1008 89 10000 1.67 331 17:59 13.07.2022
2638 Clouds 11 1007 82 10000 1.54 30 17:20 13.07.2022
2639 Clouds 10 1007 89 10000 2.12 327 15:59 13.07.2022
2640 Clear 12 1007 76 10000 2.57 270 13:50 13.07.2022
2641 Clear 12 1006 76 10000 3.6 290 11:24 13.07.2022
2642 Clear 12 1006 71 10000 5.66 280 10:40 13.07.2022
2643 Clear 13 1006 71 10000 6.17 290 09:28 13.07.2022
2644 Clear 15 1006 63 10000 5.66 280 08:21 13.07.2022
2645 Clear 14 1006 71 10000 7.72 260 04:36 13.07.2022
2646 Clear 13 1008 76 10000 3.09 210 00:47 13.07.2022
2647 Clear 13 1008 76 10000 3.6 190 22:46 12.07.2022
2648 Clear 13 1008 76 10000 3.09 210 21:46 12.07.2022
2649 Clear 15 1008 77 10000 1.91 2 20:53 12.07.2022
2650 Clouds 13 1008 84 10000 2.48 22 19:54 12.07.2022
2651 Clear 11 1008 82 10000 0 0 18:43 12.07.2022
2652 Clear 10 1008 87 10000 2.06 350 16:36 12.07.2022
2653 Clouds 11 1008 87 10000 3.09 350 14:32 12.07.2022
2654 Clouds 11 1008 87 10000 3.09 350 14:32 12.07.2022
2655 Rain 12 1008 87 10000 2.57 350 13:43 12.07.2022
2656 Rain 12 1009 87 10000 2.57 360 11:54 12.07.2022
2657 Clouds 13 1009 77 10000 2.57 320 10:27 12.07.2022
2658 Clouds 14 1010 84 10000 2.08 322 08:58 12.07.2022
2659 Clouds 17 1009 64 10000 2.57 300 07:48 12.07.2022
2660 Clouds 17 1010 63 10000 4.12 300 05:47 12.07.2022
2661 Clouds 17 1010 63 10000 4.12 300 05:29 12.07.2022
2662 Clouds 13 1012 88 10000 2.06 190 01:32 12.07.2022
2663 Clouds 14 1012 88 10000 2.57 150 22:48 11.07.2022
2664 Clouds 13 1012 88 10000 0 0 21:34 11.07.2022
2665 Clouds 14 1012 82 10000 2.57 140 20:33 11.07.2022
2666 Clouds 13 1013 88 10000 1.54 90 19:28 11.07.2022
2667 Clouds 14 1013 82 10000 0 0 18:30 11.07.2022
2668 Clouds 13 1013 82 10000 1.54 360 16:34 11.07.2022
2669 Clouds 14 1013 82 10000 1.54 300 15:33 11.07.2022
2670 Clear 14 1013 82 10000 0 0 13:37 11.07.2022
2671 Clear 15 1014 77 10000 3.09 310 11:33 11.07.2022
2672 Clear 16 1014 67 10000 3.6 290 10:18 11.07.2022
2673 Clear 17 1014 63 10000 4.12 290 09:40 11.07.2022
2674 Clear 18 1014 63 10000 4.12 280 08:33 11.07.2022
2675 Clouds 21 1014 63 10000 5.29 266 02:59 11.07.2022
2676 Clear 16 1014 67 10000 5.66 250 00:20 11.07.2022
2677 Clouds 20 1014 62 10000 2.95 284 22:55 10.07.2022
2678 Clear 18 1014 59 10000 3.6 240 21:39 10.07.2022
2679 Clear 16 1014 63 10000 4.12 270 20:41 10.07.2022
2680 Clear 14 1014 72 10000 2.57 290 19:48 10.07.2022
2681 Clear 13 1014 76 10000 1.54 330 18:43 10.07.2022
2682 Clear 12 1014 76 10000 3.6 290 17:36 10.07.2022
2683 Clear 12 1014 76 10000 3.09 300 16:45 10.07.2022
2684 Clear 12 1013 76 10000 4.12 270 15:25 10.07.2022
2685 Clear 12 1013 76 10000 3.6 290 14:21 10.07.2022
2686 Clear 13 1013 76 10000 5.14 270 12:27 10.07.2022
2687 Clouds 16 1012 63 10000 3.3 282 09:58 10.07.2022
2688 Clear 16 1012 63 10000 5.14 270 08:45 10.07.2022
2689 Clear 17 1012 59 10000 7.72 260 07:30 10.07.2022
2690 Clear 17 1011 59 10000 9.77 260 01:33 10.07.2022
2691 Clear 17 1011 63 10000 5.66 250 22:43 09.07.2022
2692 Clear 17 1011 63 10000 5.66 250 22:24 09.07.2022
2693 Clear 17 1010 67 10000 1.54 290 20:46 09.07.2022
2694 Clear 12 1010 82 10000 0 0 18:38 09.07.2022
2695 Clear 11 1010 82 10000 0 0 17:45 09.07.2022
2696 Clear 9 1010 87 10000 1.54 50 16:44 09.07.2022
2697 Clear 9 1009 87 10000 0 0 15:41 09.07.2022
2698 Clear 10 1009 81 10000 1.54 340 14:36 09.07.2022
2699 Clear 12 1009 76 10000 2.06 270 13:50 09.07.2022
2700 Clear 13 1009 76 10000 2.57 280 12:47 09.07.2022
2701 Clear 14 1008 77 10000 1.54 240 11:31 09.07.2022
2702 Clear 17 1008 63 10000 3.09 280 10:22 09.07.2022
2703 Clear 22 1009 59 10000 3.46 282 07:53 09.07.2022
2704 Clear 17 1008 71 10000 7.2 260 05:24 09.07.2022
2705 Clear 17 1008 71 10000 5.66 260 02:34 09.07.2022
2706 Clouds 19 1009 74 10000 1.94 255 22:59 08.07.2022
2707 Clouds 18 1009 72 10000 1.56 254 21:59 08.07.2022
2708 Clouds 13 1008 88 10000 3.09 230 20:42 08.07.2022
2709 Clouds 13 1008 88 10000 3.09 230 20:23 08.07.2022
2710 Clouds 11 1007 93 10000 2.06 280 18:29 08.07.2022
2711 Clouds 11 1007 93 10000 2.06 280 18:29 08.07.2022
2712 Clouds 9 1007 100 10000 1.54 330 17:21 08.07.2022
2713 Clouds 9 1007 100 10000 1.54 330 17:21 08.07.2022
2714 Fog 9 1007 93 402 0 0 14:54 08.07.2022
2715 Fog 11 1006 93 402 1.54 350 13:45 08.07.2022
2716 Fog 12 1006 94 805 1.54 280 12:28 08.07.2022
2717 Fog 12 1005 94 805 3.09 240 10:37 08.07.2022
2718 Clouds 12 1005 94 10000 3.09 270 08:44 08.07.2022
2719 Clouds 13 1004 94 10000 3.09 260 06:50 08.07.2022
2720 Clouds 15 1004 91 10000 1.89 209 02:53 08.07.2022
2721 Rain 12 1003 94 10000 2.06 210 23:41 07.07.2022
2722 Mist 13 1003 94 3219 2.06 200 22:38 07.07.2022
2723 Clouds 14 1002 94 10000 0 0 20:40 07.07.2022
2724 Rain 13 1002 94 10000 1.54 100 18:37 07.07.2022
2725 Clouds 13 1002 94 10000 2.06 80 17:19 07.07.2022
2726 Clouds 13 1002 94 10000 3.6 70 15:18 07.07.2022
2727 Clouds 13 1002 94 10000 2.57 80 13:25 07.07.2022
2728 Clouds 13 1002 94 10000 2.57 70 12:39 07.07.2022
2729 Clouds 13 1002 94 10000 2.57 70 12:19 07.07.2022
2730 Rain 14 1002 94 10000 3.09 70 11:30 07.07.2022
2731 Rain 14 1002 94 10000 2.57 90 10:43 07.07.2022
2732 Rain 14 1002 94 10000 2.57 90 10:25 07.07.2022
2733 Clouds 17 1002 68 10000 2.57 110 07:40 07.07.2022
2734 Rain 17 1004 63 10000 1.54 190 04:18 07.07.2022
2735 Clouds 16 1006 73 10000 3.78 84 23:37 06.07.2022
2736 Clouds 16 1007 75 10000 4.55 98 23:19 06.07.2022
2737 Clouds 15 1007 75 10000 4.55 98 22:56 06.07.2022
2738 Clouds 15 1007 72 10000 4.12 100 22:38 06.07.2022
2739 Rain 14 1007 82 10000 4.12 70 21:30 06.07.2022
2740 Clouds 13 1008 88 10000 4.12 80 19:38 06.07.2022
2741 Clouds 12 1008 87 10000 4.63 80 18:29 06.07.2022
2742 Clouds 11 1009 87 10000 4.63 70 16:19 06.07.2022
2743 Rain 11 1010 93 10000 3.09 80 14:55 06.07.2022
2744 Clouds 12 1011 82 10000 3.6 90 12:42 06.07.2022
2745 Clouds 12 1011 82 10000 3.6 100 11:49 06.07.2022
2746 Clouds 12 1011 82 10000 3.6 90 10:18 06.07.2022
2747 Clouds 12 1012 76 10000 3.6 120 07:47 06.07.2022
2748 Clouds 12 1012 76 10000 3.6 120 07:23 06.07.2022
2749 Clouds 12 1013 76 10000 4.12 150 05:28 06.07.2022
2750 Clouds 11 1015 87 10000 3.6 230 22:48 05.07.2022
2751 Clouds 11 1015 91 10000 3.3 188 21:53 05.07.2022
2752 Mist 11 1014 87 9656 4.12 210 20:41 05.07.2022
2753 Clouds 11 1015 87 10000 3.6 210 19:43 05.07.2022
2754 Clouds 11 1015 88 10000 3.6 210 19:22 05.07.2022
2755 Rain 11 1014 87 10000 3.6 220 17:48 05.07.2022
2756 Rain 9 1015 100 4023 2.57 100 16:55 05.07.2022
2757 Mist 9 1015 93 2816 3.09 70 15:31 05.07.2022
2758 Mist 9 1015 100 4023 3.6 80 14:31 05.07.2022
2759 Clouds 9 1015 87 10000 2.57 80 12:47 05.07.2022
2760 Clouds 10 1015 81 10000 2.57 70 11:49 05.07.2022
2761 Clouds 10 1015 81 10000 1.54 120 10:40 05.07.2022
2762 Clouds 10 1015 81 10000 0 0 09:23 05.07.2022
2763 Clouds 10 1015 76 10000 2.06 270 07:47 05.07.2022
2764 Clouds 9 1015 87 10000 3.09 240 04:51 05.07.2022
2765 Clouds 9 1015 87 10000 3.09 240 04:24 05.07.2022
2766 Clouds 10 1014 87 10000 4.12 250 00:26 05.07.2022
2767 Rain 10 1014 87 10000 4.12 250 23:31 04.07.2022
2768 Rain 10 1014 93 4828 5.66 250 22:27 04.07.2022
2769 Rain 10 1014 93 10000 6.69 240 21:41 04.07.2022
2770 Clouds 13 1014 97 10000 2.65 221 20:53 04.07.2022
2771 Clouds 11 1013 93 10000 4.63 260 20:33 04.07.2022
2772 Mist 11 1013 100 6437 4.12 270 19:54 04.07.2022
2773 Mist 11 1013 100 6437 4.12 270 19:35 04.07.2022
2774 Clouds 11 1014 98 10000 1.51 209 17:58 04.07.2022
2775 Clouds 11 1014 97 10000 1.44 219 15:58 04.07.2022
2776 Rain 13 1013 94 10000 0 0 15:33 04.07.2022
2777 Clouds 13 1013 94 10000 0 0 13:29 04.07.2022
2778 Clouds 13 1013 94 10000 1.54 360 12:21 04.07.2022
2779 Clouds 15 1014 88 10000 0 0 10:34 04.07.2022
2780 Clouds 15 1014 88 10000 1.54 210 09:52 04.07.2022
2781 Clouds 16 1014 82 10000 2.06 220 07:37 04.07.2022
2782 Clouds 16 1015 82 10000 2.57 190 04:48 04.07.2022
2783 Clear 15 1014 87 10000 2.57 160 00:39 04.07.2022
2784 Clouds 18 1015 78 10000 3.12 166 22:59 03.07.2022
2785 Clouds 17 1015 80 10000 2.91 109 20:58 03.07.2022
2786 Clouds 16 1014 77 10000 4.63 90 20:31 03.07.2022
2787 Clouds 15 1014 78 10000 2.57 90 19:27 03.07.2022
2788 Clouds 14 1014 83 10000 3.09 70 18:43 03.07.2022
2789 Clouds 13 1014 94 10000 1.54 10 17:43 03.07.2022
2790 Clouds 12 1014 94 10000 0 0 15:51 03.07.2022
2791 Clouds 10 1015 98 10000 1.26 54 14:59 03.07.2022
2792 Clouds 12 1014 94 10000 1.54 40 14:18 03.07.2022
2793 Clear 12 1015 94 10000 2.06 60 13:48 03.07.2022
2794 Clear 12 1014 94 10000 2.06 40 12:33 03.07.2022
2795 Clear 13 1014 94 10000 0 0 11:28 03.07.2022
2796 Clouds 14 1014 88 10000 1.54 80 10:38 03.07.2022
2797 Clouds 13 1014 88 10000 1.54 90 09:31 03.07.2022
2798 Clouds 14 1014 82 10000 3.09 150 07:35 03.07.2022
2799 Clouds 14 1014 82 10000 1.54 190 03:46 03.07.2022
2800 Mist 13 1014 100 9656 2.57 160 00:21 03.07.2022
2801 Clouds 13 1014 94 10000 3.09 150 22:33 02.07.2022
2802 Clouds 14 1013 94 10000 3.6 130 20:58 02.07.2022
2803 Clouds 13 1013 100 10000 5.14 130 19:52 02.07.2022
2804 Clouds 13 1013 94 10000 4.63 120 19:20 02.07.2022
2805 Clouds 13 1013 94 10000 4.12 120 17:41 02.07.2022
2806 Rain 12 1013 98 3749 2.52 109 16:53 02.07.2022
2807 Mist 12 1012 100 8047 3.6 130 14:40 02.07.2022
2808 Rain 13 1012 94 6437 4.63 120 12:21 02.07.2022
2809 Mist 13 1011 94 8047 5.66 120 11:26 02.07.2022
2810 Clouds 13 1011 94 10000 5.66 120 10:39 02.07.2022
2811 Clouds 13 1011 94 10000 6.17 120 09:25 02.07.2022
2812 Clouds 13 1010 94 10000 6.69 120 08:20 02.07.2022
2813 Clouds 13 1010 100 10000 5.66 120 07:48 02.07.2022
2814 Smoke 14 1009 88 3219 7.72 120 02:50 02.07.2022
2815 Rain 13 1010 88 10000 6.89 120 23:59 01.07.2022
2816 Smoke 15 1008 77 805 7.72 120 22:58 01.07.2022
2817 Smoke 15 1008 77 805 7.2 120 21:49 01.07.2022
2818 Smoke 15 1008 77 805 7.2 120 21:29 01.07.2022
2819 Smoke 15 1008 77 805 7.72 120 20:43 01.07.2022
2820 Smoke 14 1008 88 402 5.66 110 19:47 01.07.2022
2821 Smoke 15 1007 77 805 5.66 100 17:53 01.07.2022
2822 Haze 15 1007 77 805 6.69 90 16:24 01.07.2022
2823 Clouds 15 1009 78 10000 3.29 73 13:55 01.07.2022
2824 Clouds 16 1008 73 10000 5.76 92 12:55 01.07.2022
2825 Clear 19 1008 63 10000 3.09 60 10:45 01.07.2022
2826 Clear 19 1008 63 10000 3.09 60 10:18 01.07.2022
2827 Clear 17 1011 67 10000 2.06 160 05:27 01.07.2022
2828 Clear 22 1013 43 10000 7.72 100 01:27 01.07.2022
2829 Clouds 19 1014 52 10000 7.2 110 23:26 30.06.2022
2830 Clouds 17 1015 55 10000 7.2 90 22:44 30.06.2022
2831 Clouds 17 1015 55 10000 7.2 90 22:26 30.06.2022
2832 Clouds 16 1015 59 10000 7.2 80 21:48 30.06.2022
2833 Clouds 15 1016 58 10000 6.17 80 20:31 30.06.2022
2834 Clouds 15 1016 67 10000 5.15 84 19:55 30.06.2022
2835 Clouds 14 1016 59 10000 5.66 80 19:32 30.06.2022
2836 Clouds 12 1017 67 10000 4.63 80 18:43 30.06.2022
2837 Clouds 11 1017 71 10000 4.12 90 17:49 30.06.2022
2838 Clouds 10 1017 71 10000 2.88 54 16:55 30.06.2022
2839 Clouds 8 1018 87 10000 2.06 120 15:50 30.06.2022
2840 Clouds 7 1018 93 10000 2.57 20 13:50 30.06.2022
2841 Clouds 7 1018 93 10000 2.57 20 13:18 30.06.2022
2842 Clouds 8 1019 93 10000 3.6 360 12:32 30.06.2022
2843 Clear 11 1019 82 10000 1.54 290 10:19 30.06.2022
2844 Clear 11 1019 82 10000 2.06 230 09:40 30.06.2022
2845 Clear 12 1019 76 10000 2.57 220 08:22 30.06.2022
2846 Clear 12 1019 76 10000 3.09 240 07:40 30.06.2022
2847 Clouds 11 1020 87 10000 4.63 220 03:35 30.06.2022
2848 Clouds 11 1020 82 10000 3.09 230 23:38 29.06.2022
2849 Haze 10 1020 81 9656 3.09 220 22:41 29.06.2022
2850 Clouds 13 1020 74 10000 2.78 232 21:59 29.06.2022
2851 Clouds 9 1020 87 10000 2.57 210 20:35 29.06.2022
2852 Clouds 11 1020 88 10000 1.54 244 19:56 29.06.2022
2853 Clouds 8 1020 98 10000 1.22 288 17:55 29.06.2022
2854 Clouds 8 1020 93 10000 2.06 300 17:32 29.06.2022
2855 Mist 8 1020 100 3219 2.06 320 15:44 29.06.2022
2856 Mist 8 1020 100 1207 2.06 340 13:45 29.06.2022
2857 Clouds 9 1020 93 10000 1.54 270 12:38 29.06.2022
2858 Clouds 11 1019 87 10000 3.6 240 09:50 29.06.2022
2859 Clouds 11 1019 87 10000 3.6 240 09:26 29.06.2022
2860 Clouds 11 1020 87 10000 3.6 230 06:29 29.06.2022
2861 Clouds 12 1020 76 10000 1.54 200 04:42 29.06.2022
2862 Clouds 15 1021 75 10000 3.62 206 00:53 29.06.2022
2863 Clouds 11 1021 82 10000 3.09 150 00:34 29.06.2022
2864 Clouds 10 1021 87 10000 3.6 160 22:52 28.06.2022
2865 Clouds 12 1021 83 10000 3.01 209 21:59 28.06.2022
2866 Clouds 10 1021 81 10000 2.06 160 21:40 28.06.2022
2867 Clouds 10 1021 81 10000 2.06 160 21:22 28.06.2022
2868 Clouds 9 1021 87 10000 0 0 19:54 28.06.2022
2869 Clouds 9 1021 87 10000 0 0 19:30 28.06.2022
2870 Clouds 8 1021 93 10000 0 0 18:40 28.06.2022
2871 Clouds 8 1021 93 10000 1.54 90 17:25 28.06.2022
2872 Clouds 7 1021 98 10000 1.35 186 15:55 28.06.2022
2873 Clouds 7 1021 100 10000 1.54 100 14:52 28.06.2022
2874 Clouds 7 1021 100 10000 1.54 100 14:19 28.06.2022
2875 Clouds 7 1021 100 10000 0 0 13:45 28.06.2022
2876 Clouds 7 1021 93 10000 1.54 200 12:35 28.06.2022
2877 Clouds 8 1020 93 10000 2.57 210 10:40 28.06.2022
2878 Clouds 8 1020 93 10000 3.09 200 08:56 28.06.2022
2879 Clouds 8 1020 93 10000 2.57 220 08:37 28.06.2022
2880 Clouds 8 1020 93 10000 4.12 210 07:20 28.06.2022
2881 Clouds 9 1019 93 10000 3.6 150 03:55 28.06.2022
2882 Mist 8 1019 100 4828 2.57 170 23:53 27.06.2022
2883 Rain 8 1019 93 2816 3.09 170 23:27 27.06.2022
2884 Clouds 8 1018 93 10000 4.12 160 22:25 27.06.2022
2885 Clouds 7 1018 100 10000 3.6 170 21:29 27.06.2022
2886 Clouds 7 1017 100 10000 2.57 190 20:34 27.06.2022
2887 Fog 7 1017 100 805 4.12 210 18:52 27.06.2022
2888 Clouds 8 1016 100 10000 4.12 180 17:44 27.06.2022
2889 Mist 8 1016 100 8047 4.12 160 15:50 27.06.2022
2890 Clouds 9 1015 93 10000 4.63 160 14:25 27.06.2022
2891 Clouds 9 1015 100 10000 4.63 150 12:58 27.06.2022
2892 Rain 9 1015 100 4023 4.63 140 11:40 27.06.2022
2893 Rain 10 1014 93 4828 4.63 130 09:53 27.06.2022
2894 Mist 10 1014 93 4828 4.12 140 08:43 27.06.2022
2895 Rain 11 1014 87 3219 4.12 130 07:52 27.06.2022
2896 Clouds 11 1014 93 10000 5.14 120 06:28 27.06.2022
2897 Rain 11 1014 87 3219 5.66 130 01:26 27.06.2022
2898 Rain 11 1014 93 2012 6.17 120 23:27 26.06.2022
2899 Rain 11 1013 93 2816 6.17 120 21:40 26.06.2022
2900 Rain 11 1013 93 4828 6.17 120 20:33 26.06.2022
2901 Rain 11 1013 100 3219 5.66 120 18:38 26.06.2022
2902 Rain 11 1013 100 3219 5.66 120 18:20 26.06.2022
2903 Rain 11 1013 87 9656 5.14 130 15:37 26.06.2022
2904 Clouds 11 1014 82 10000 4.12 90 14:23 26.06.2022
2905 Clouds 13 1014 63 10000 5.66 110 13:26 26.06.2022
2906 Clouds 13 1014 62 10000 6.17 70 12:37 26.06.2022
2907 Clouds 10 1015 88 10000 2.98 99 10:53 26.06.2022
2908 Clouds 12 1015 76 10000 4.63 80 10:22 26.06.2022
2909 Clear 13 1016 76 10000 3.6 90 08:36 26.06.2022
2910 Clouds 12 1017 82 10000 3.09 90 06:50 26.06.2022
2911 Rain 9 1018 93 2816 4.63 170 00:38 26.06.2022
2912 Rain 9 1018 93 2816 4.63 170 00:19 26.06.2022
2913 Rain 9 1018 93 4828 5.14 160 23:31 25.06.2022
2914 Rain 9 1018 100 2414 6.17 160 22:48 25.06.2022
2915 Rain 9 1018 100 2414 6.17 160 22:25 25.06.2022
2916 Rain 9 1018 100 3219 5.66 140 21:22 25.06.2022
2917 Rain 9 1018 93 2816 4.12 140 20:54 25.06.2022
2918 Rain 9 1018 93 3219 5.14 150 20:25 25.06.2022
2919 Mist 9 1018 100 4828 4.63 130 18:26 25.06.2022
2920 Rain 9 1018 93 8047 4.12 120 17:27 25.06.2022
2921 Rain 9 1018 93 2414 2.57 140 16:29 25.06.2022
2922 Clouds 10 1019 87 10000 2.57 140 14:43 25.06.2022
2923 Clouds 11 1018 82 10000 3.09 100 12:51 25.06.2022
2924 Clouds 11 1019 82 10000 3.6 110 12:32 25.06.2022
2925 Clouds 13 1019 62 10000 4.63 110 09:35 25.06.2022
2926 Clouds 13 1019 65 10000 4.19 93 08:55 25.06.2022
2927 Clouds 14 1019 54 10000 4.12 90 08:20 25.06.2022
2928 Clear 12 1021 66 10000 5.66 80 06:36 25.06.2022
2929 Clouds 9 1025 71 10000 5.14 140 01:31 25.06.2022
2930 Clouds 10 1025 80 10000 4.12 162 23:58 24.06.2022
2931 Clouds 7 1026 81 10000 3.09 130 22:29 24.06.2022
2932 Clouds 7 1026 81 10000 0 0 21:28 24.06.2022
2933 Clouds 6 1026 87 10000 0 0 20:24 24.06.2022
2934 Clouds 6 1026 81 10000 3.09 180 19:39 24.06.2022
2935 Clouds 6 1026 81 10000 2.57 180 19:18 24.06.2022
2936 Clouds 6 1026 81 10000 2.57 160 18:44 24.06.2022
2937 Clouds 6 1026 82 10000 2.57 160 18:24 24.06.2022
2938 Clouds 6 1026 82 10000 4.63 190 16:47 24.06.2022
2939 Clouds 6 1027 87 10000 4.63 200 14:50 24.06.2022
2940 Clouds 6 1027 87 10000 4.63 200 14:23 24.06.2022
2941 Clouds 6 1027 87 10000 4.63 210 13:41 24.06.2022
2942 Clouds 6 1027 87 10000 6.69 210 11:41 24.06.2022
2943 Rain 6 1027 87 6437 7.2 210 10:39 24.06.2022
2944 Clouds 7 1027 81 10000 6.17 200 09:42 24.06.2022
2945 Clouds 7 1027 81 10000 6.17 200 09:42 24.06.2022
2946 Clouds 6 1027 92 10000 4.24 211 08:54 24.06.2022
2947 Clouds 7 1027 81 10000 5.14 200 08:19 24.06.2022
2948 Clouds 7 1028 87 10000 5.66 220 06:44 24.06.2022
2949 Clouds 7 1028 87 10000 5.66 220 06:25 24.06.2022
2950 Clouds 7 1028 87 10000 5.66 210 04:50 24.06.2022
2951 Clouds 7 1028 87 10000 6.17 220 23:43 23.06.2022
2952 Clouds 7 1028 87 10000 4.63 220 22:43 23.06.2022
2953 Clouds 7 1028 93 10000 4.63 220 21:22 23.06.2022
2954 Clouds 7 1027 93 10000 3.6 220 20:37 23.06.2022
2955 Mist 6 1027 100 4828 3.6 190 19:54 23.06.2022
2956 Mist 6 1027 100 3219 4.12 200 18:38 23.06.2022
2957 Mist 6 1027 93 3219 2.57 220 17:34 23.06.2022
2958 Rain 6 1027 87 10000 4.63 220 16:29 23.06.2022
2959 Clouds 5 1027 93 10000 4.63 220 15:26 23.06.2022
2960 Clouds 6 1027 93 10000 5.66 220 14:34 23.06.2022
2961 Clouds 7 1027 87 10000 6.17 230 11:42 23.06.2022
2962 Clouds 7 1026 93 10000 7.72 220 10:41 23.06.2022
2963 Clouds 7 1026 93 10000 6.69 210 09:19 23.06.2022
2964 Clouds 7 1025 93 10000 6.17 210 04:48 23.06.2022
2965 Rain 7 1024 93 4828 6.17 210 00:27 23.06.2022
2966 Rain 7 1024 93 4828 6.17 200 23:52 22.06.2022
2967 Rain 7 1024 93 4828 6.17 200 23:18 22.06.2022
2968 Rain 7 1023 93 2414 6.17 200 21:36 22.06.2022
2969 Clouds 6 1023 93 10000 4.63 200 20:51 22.06.2022
2970 Clouds 6 1023 93 10000 4.63 200 20:18 22.06.2022
2971 Clouds 6 1023 87 10000 6.17 220 19:27 22.06.2022
2972 Mist 6 1022 93 4023 6.69 220 17:33 22.06.2022
2973 Clouds 6 1022 93 10000 7.2 220 16:41 22.06.2022
2974 Clouds 6 1022 100 10000 8.75 220 15:29 22.06.2022
2975 Rain 7 1021 93 8047 8.75 210 14:47 22.06.2022
2976 Rain 7 1021 93 4828 9.77 210 13:47 22.06.2022
2977 Mist 7 1021 93 4828 9.77 210 13:24 22.06.2022
2978 Rain 6 1022 97 1086 6.56 209 11:54 22.06.2022
2979 Mist 7 1021 93 6437 10.29 210 10:58 22.06.2022
2980 Mist 7 1021 93 6437 8.75 200 10:36 22.06.2022
2981 Rain 7 1021 93 4828 7.72 200 09:18 22.06.2022
2982 Clouds 7 1021 96 3745 7.1 211 06:55 22.06.2022
2983 Mist 7 1022 93 3219 6.69 170 01:59 22.06.2022
2984 Rain 7 1022 93 4023 7.2 180 00:56 22.06.2022
2985 Rain 8 1022 87 10000 5.66 170 22:49 21.06.2022
2986 Rain 7 1022 87 10000 4.63 180 20:47 21.06.2022
2987 Rain 7 1022 87 10000 4.63 190 19:20 21.06.2022
2988 Clouds 7 1022 90 10000 4.32 210 17:54 21.06.2022
2989 Clouds 7 1022 81 10000 5.66 230 16:38 21.06.2022
2990 Clouds 8 1021 87 10000 5.66 230 11:57 21.06.2022
2991 Clouds 8 1021 87 10000 3.6 250 10:38 21.06.2022
2992 Clouds 9 1020 81 10000 3.09 230 09:24 21.06.2022
2993 Clouds 9 1019 81 10000 4.63 260 07:44 21.06.2022
2994 Clear 10 1019 75 10000 5.14 250 04:43 21.06.2022
2995 Clear 12 1019 66 10000 4.63 250 00:23 21.06.2022
2996 Clear 12 1018 70 10000 5.66 230 22:21 20.06.2022
2997 Clear 12 1018 70 10000 5.66 230 22:21 20.06.2022
2998 Clear 12 1018 66 10000 4.12 230 21:37 20.06.2022
2999 Clear 11 1018 70 10000 4.12 250 20:29 20.06.2022
3000 Clear 11 1017 71 10000 3.09 270 19:36 20.06.2022
3001 Clear 9 1017 81 10000 4.12 260 18:26 20.06.2022
3002 Clear 7 1016 76 10000 0 0 17:49 20.06.2022
3003 Clear 6 1016 87 10000 0 0 16:36 20.06.2022
3004 Clear 7 1016 93 10000 3.6 270 15:30 20.06.2022
3005 Clear 8 1015 81 10000 2.57 280 12:32 20.06.2022
3006 Clear 9 1014 81 10000 5.14 260 10:22 20.06.2022
3007 Clouds 16 1014 55 10000 4.63 273 08:56 20.06.2022
3008 Clear 12 1013 65 10000 7.72 260 07:52 20.06.2022
3009 Clear 14 1012 57 10000 7.72 260 05:21 20.06.2022
3010 Clear 16 1011 50 10000 8.23 260 01:33 20.06.2022
3011 Clear 16 1011 54 10000 8.75 260 00:19 20.06.2022
3012 Clear 16 1010 50 10000 5.66 230 22:43 19.06.2022
3013 Clear 14 1010 58 10000 4.63 270 21:48 19.06.2022
3014 Clear 14 1010 58 10000 4.63 270 21:29 19.06.2022
3015 Clear 12 1010 58 10000 2.57 230 20:30 19.06.2022
3016 Clouds 12 1009 58 10000 1.54 280 19:47 19.06.2022
3017 Clear 9 1009 71 10000 0 0 18:43 19.06.2022
3018 Clear 7 1009 76 10000 0 0 17:48 19.06.2022
3019 Clear 7 1009 76 10000 0 0 17:22 19.06.2022
3020 Clear 7 1008 70 10000 0 0 16:34 19.06.2022
3021 Clear 7 1008 70 10000 0 0 15:41 19.06.2022
3022 Clouds 12 1009 58 10000 1.74 357 14:56 19.06.2022
3023 Clear 8 1008 66 10000 2.06 310 14:19 19.06.2022
3024 Clouds 13 1008 58 10000 2.26 332 12:56 19.06.2022
3025 Clouds 15 1008 53 10000 2.21 303 10:55 19.06.2022
3026 Clouds 17 1006 36 10000 3.6 280 09:46 19.06.2022
3027 Clouds 19 1006 34 10000 5.66 300 08:47 19.06.2022
3028 Clouds 18 1008 44 10000 2.77 247 07:59 19.06.2022
3029 Clouds 16 1006 55 10000 6.17 270 05:36 19.06.2022
3030 Clear 16 1007 59 10000 6.69 260 01:29 19.06.2022
3031 Clear 16 1006 59 10000 5.66 260 00:24 19.06.2022
3032 Clear 16 1006 59 10000 5.14 240 23:36 18.06.2022
3033 Clear 16 1006 55 10000 4.63 250 22:39 18.06.2022
3034 Clouds 18 1007 58 10000 0.77 126 20:57 18.06.2022
3035 Clear 14 1006 67 10000 2.57 240 20:38 18.06.2022
3036 Clear 13 1006 71 10000 0 0 19:38 18.06.2022
3037 Clouds 11 1006 71 10000 0 0 18:45 18.06.2022
3038 Clear 9 1006 81 10000 0 0 17:35 18.06.2022
3039 Clouds 11 1007 66 10000 1.22 334 16:56 18.06.2022
3040 Clear 9 1006 76 10000 0 0 15:33 18.06.2022
3041 Clear 8 1006 76 10000 2.06 10 14:45 18.06.2022
3042 Clear 9 1006 76 10000 2.06 350 13:23 18.06.2022
3043 Clouds 13 1005 62 10000 1.54 60 11:45 18.06.2022
3044 Clouds 13 1005 68 10000 2.06 120 10:47 18.06.2022
3045 Clouds 14 1005 62 10000 2.06 110 09:27 18.06.2022
3046 Clouds 13 1005 67 10000 2.06 120 08:30 18.06.2022
3047 Clouds 13 1005 67 10000 2.06 120 08:30 18.06.2022
3048 Clouds 16 1005 59 10000 2.57 220 06:49 18.06.2022
3049 Clouds 19 1005 42 10000 3.6 250 03:45 18.06.2022
3050 Clouds 17 1006 45 10000 2.57 200 01:26 18.06.2022
3051 Clouds 17 1006 45 10000 2.57 200 01:26 18.06.2022
3052 Clouds 17 1006 45 10000 2.57 200 01:26 18.06.2022
3053 Clouds 19 1007 35 10000 3.09 40 00:48 18.06.2022
3054 Clouds 18 1007 47 10000 3.24 111 23:58 17.06.2022
3055 Clouds 18 1007 39 10000 3.6 30 23:24 17.06.2022
3056 Clouds 16 1007 48 10000 4.12 30 21:18 17.06.2022
3057 Clouds 16 1007 51 10000 4.63 340 20:24 17.06.2022
3058 Clouds 14 1008 52 10000 4.12 330 18:49 17.06.2022
3059 Clouds 13 1008 54 10000 4.12 340 17:44 17.06.2022
3060 Clouds 13 1008 55 10000 3.09 340 16:43 17.06.2022
3061 Clouds 13 1008 55 10000 3.09 340 16:43 17.06.2022
3062 Clouds 12 1009 59 10000 4.12 340 15:49 17.06.2022
3063 Clouds 12 1009 59 10000 4.12 340 15:22 17.06.2022
3064 Clouds 12 1009 67 10000 3.6 330 14:20 17.06.2022
3065 Clouds 12 1009 67 10000 3.6 330 14:20 17.06.2022
3066 Clouds 12 1010 67 10000 3.09 350 13:46 17.06.2022
3067 Clouds 12 1010 67 10000 3.09 350 13:24 17.06.2022
3068 Clouds 10 1011 78 10000 1.39 319 11:58 17.06.2022
3069 Clouds 13 1011 67 10000 2.57 20 11:36 17.06.2022
3070 Clear 14 1011 63 10000 1.54 350 10:52 17.06.2022
3071 Clear 14 1012 62 10000 2.57 260 08:30 17.06.2022
3072 Clear 13 1012 67 10000 3.09 240 07:48 17.06.2022
3073 Clouds 13 1012 62 10000 3.09 250 06:22 17.06.2022
3074 Clear 10 1015 75 10000 2.57 150 03:19 17.06.2022
3075 Clear 11 1016 66 10000 3.09 190 00:42 17.06.2022
3076 Clear 9 1017 71 10000 2.06 160 22:45 16.06.2022
3077 Clear 9 1017 71 10000 2.06 160 22:26 16.06.2022
3078 Clear 9 1018 66 10000 1.54 70 21:19 16.06.2022
3079 Clouds 7 1019 76 10000 3.09 40 20:50 16.06.2022
3080 Clear 9 1018 67 10000 1.7 88 19:58 16.06.2022
3081 Clouds 6 1019 81 10000 2.57 130 18:44 16.06.2022
3082 Clouds 6 1020 81 10000 2.57 80 17:44 16.06.2022
3083 Clouds 6 1020 81 10000 2.57 80 17:20 16.06.2022
3084 Clouds 6 1020 81 10000 2.06 80 15:44 16.06.2022
3085 Clouds 6 1020 81 10000 2.06 80 15:20 16.06.2022
3086 Clouds 6 1021 81 10000 0 0 13:49 16.06.2022
3087 Clouds 6 1021 81 10000 2.06 200 12:47 16.06.2022
3088 Clouds 6 1021 81 10000 2.06 200 12:20 16.06.2022
3089 Clouds 6 1022 76 10000 3.6 210 11:21 16.06.2022
3090 Clouds 6 1022 76 10000 2.57 190 10:35 16.06.2022
3091 Clouds 6 1022 87 10000 3.6 200 09:39 16.06.2022
3092 Clouds 6 1022 87 10000 3.09 180 08:50 16.06.2022
3093 Clouds 6 1022 87 10000 3.09 200 07:38 16.06.2022
3094 Clouds 7 1023 81 10000 4.12 180 05:48 16.06.2022
3095 Clouds 7 1023 81 10000 4.63 170 03:44 16.06.2022
3096 Clouds 7 1023 81 10000 5.66 180 01:52 16.06.2022
3097 Clouds 7 1023 81 10000 5.66 180 01:52 16.06.2022
3098 Clouds 7 1023 81 10000 5.14 180 01:22 16.06.2022
3099 Rain 8 1024 84 10000 4.63 189 23:58 15.06.2022
3100 Clouds 6 1023 87 10000 5.66 170 22:53 15.06.2022
3101 Clouds 6 1023 87 10000 5.66 170 21:34 15.06.2022
3102 Clouds 6 1023 87 10000 6.69 160 20:58 15.06.2022
3103 Clouds 7 1023 81 10000 5.66 170 20:36 15.06.2022
3104 Clouds 6 1022 87 10000 4.63 170 19:52 15.06.2022
3105 Clouds 6 1022 87 10000 6.17 180 18:37 15.06.2022
3106 Clouds 6 1022 87 10000 6.17 180 17:46 15.06.2022
3107 Clouds 6 1022 93 10000 7.2 180 16:23 15.06.2022
3108 Clouds 6 1022 93 10000 5.26 186 14:57 15.06.2022
3109 Clouds 7 1021 81 10000 7.2 180 13:29 15.06.2022
3110 Clouds 7 1021 81 10000 7.72 170 12:47 15.06.2022
3111 Clouds 7 1021 81 10000 6.17 160 11:25 15.06.2022
3112 Clouds 7 1020 81 10000 4.63 160 10:22 15.06.2022
3113 Rain 6 1020 84 10000 4.87 163 08:59 15.06.2022
3114 Clouds 7 1019 76 10000 5.14 170 07:36 15.06.2022
3115 Clear 8 1019 71 10000 5.66 130 05:36 15.06.2022
3116 Clouds 7 1018 81 10000 5.14 180 02:54 15.06.2022
3117 Clouds 8 1017 81 10000 6.69 170 01:36 15.06.2022
3118 Rain 7 1016 93 10000 7.72 160 00:36 15.06.2022
3119 Clouds 7 1016 87 10000 7.72 160 23:38 14.06.2022
3120 Clouds 7 1015 81 10000 6.69 150 22:47 14.06.2022
3121 Clouds 7 1014 81 10000 7.72 150 21:43 14.06.2022
3122 Clouds 7 1014 81 10000 7.72 150 21:20 14.06.2022
3123 Clouds 7 1014 81 10000 7.2 150 20:40 14.06.2022
3124 Clouds 6 1014 87 10000 6.69 140 19:58 14.06.2022
3125 Rain 4 1013 87 10000 3.6 80 18:40 14.06.2022
3126 Rain 3 1014 87 10000 3.09 80 17:19 14.06.2022
3127 Clouds 3 1014 87 10000 3.6 90 16:42 14.06.2022
3128 Clouds 3 1013 87 10000 3.6 120 15:43 14.06.2022
3129 Clouds 2 1014 92 10000 3.41 158 14:56 14.06.2022
3130 Clouds 3 1013 87 10000 4.12 160 14:18 14.06.2022
3131 Clouds 3 1012 87 10000 5.14 180 13:28 14.06.2022
3132 Clouds 4 1011 87 10000 4.12 200 12:19 14.06.2022
3133 Clouds 4 1010 82 10000 3.09 150 10:55 14.06.2022
3134 Clouds 4 1010 81 10000 3.09 150 10:29 14.06.2022
3135 Clouds 4 1009 81 10000 4.12 170 09:26 14.06.2022
3136 Clouds 4 1008 87 10000 6.17 190 08:40 14.06.2022
3137 Clouds 5 1007 87 10000 6.69 190 06:53 14.06.2022
3138 Clouds 7 1004 70 10000 6.17 250 04:23 14.06.2022
3139 Clouds 7 1002 66 10000 5.66 120 01:38 14.06.2022
3140 Clouds 7 1002 66 10000 5.14 140 00:27 14.06.2022
3141 Clouds 6 1004 86 10000 4.63 159 22:59 13.06.2022
3142 Clouds 7 1002 71 10000 2.06 130 22:23 13.06.2022
3143 Haze 6 1002 76 9656 2.57 170 21:41 13.06.2022
3144 Clouds 3 1004 94 10000 4.11 122 19:59 13.06.2022
3145 Rain 4 1002 87 9656 3.09 360 19:25 13.06.2022
3146 Clouds 4 1004 95 10000 4.54 95 17:57 13.06.2022
3147 Rain 6 1003 71 9656 3.6 160 17:27 13.06.2022
3148 Clouds 6 1003 76 10000 2.57 20 16:31 13.06.2022
3149 Clouds 7 1003 71 10000 0 0 14:52 13.06.2022
3150 Clouds 7 1003 71 10000 0 0 14:32 13.06.2022
3151 Clouds 6 1003 76 10000 0 0 13:39 13.06.2022
3152 Clouds 6 1003 76 10000 1.54 290 12:23 13.06.2022
3153 Clouds 5 1004 86 10000 2.17 97 10:58 13.06.2022
3154 Clouds 7 1003 76 10000 4.63 190 10:26 13.06.2022
3155 Rain 8 1003 76 10000 3.6 210 09:22 13.06.2022
3156 Rain 10 1003 61 10000 3.21 350 06:55 13.06.2022
3157 Clouds 9 1003 49 10000 4.63 210 05:36 13.06.2022
3158 Clouds 9 1004 53 10000 3.6 230 02:47 13.06.2022
3159 Clouds 9 1004 57 10000 4.63 220 01:36 13.06.2022
3160 Clouds 9 1004 43 10000 4.12 80 23:52 12.06.2022
3161 Clouds 9 1004 43 10000 4.63 60 22:50 12.06.2022
3162 Clouds 9 1004 43 10000 4.63 60 22:22 12.06.2022
3163 Clouds 8 1006 54 10000 1.2 23 20:58 12.06.2022
3164 Clouds 8 1004 49 10000 4.63 40 20:27 12.06.2022
3165 Clouds 6 1004 56 10000 2.57 350 19:30 12.06.2022
3166 Clouds 4 1004 65 10000 4.12 340 17:51 12.06.2022
3167 Clouds 4 1004 65 10000 3.6 340 16:24 12.06.2022
3168 Clouds 2 1006 79 10000 2.53 345 14:57 12.06.2022
3169 Clouds 4 1005 65 10000 3.09 340 14:21 12.06.2022
3170 Clouds 3 1005 70 10000 3.09 340 13:51 12.06.2022
3171 Clouds 3 1005 70 10000 4.12 350 12:37 12.06.2022
3172 Clouds 4 1005 65 10000 4.63 360 11:37 12.06.2022
3173 Clear 5 1005 60 10000 6.69 360 10:22 12.06.2022
3174 Clouds 6 1006 64 10000 5.14 5 08:55 12.06.2022
3175 Clouds 8 1005 50 10000 7.72 350 08:36 12.06.2022
3176 Clouds 9 1005 46 10000 8.23 340 07:32 12.06.2022
3177 Clouds 11 1004 40 10000 2.57 0 04:45 12.06.2022
3178 Clouds 11 1005 43 10000 9.26 240 02:53 12.06.2022
3179 Clouds 9 1005 43 10000 3.09 0 01:39 12.06.2022
3180 Clouds 11 1006 44 10000 2.16 357 00:58 12.06.2022
3181 Clouds 10 1005 40 10000 4.12 220 00:20 12.06.2022
3182 Clouds 10 1005 40 10000 4.12 220 00:20 12.06.2022
3183 Clear 9 1005 46 10000 5.14 230 23:44 11.06.2022
3184 Clear 9 1005 40 10000 0 0 22:38 11.06.2022
3185 Clear 8 1006 46 10000 4.12 340 21:52 11.06.2022
3186 Clear 7 1006 49 10000 3.6 20 20:37 11.06.2022
3187 Clear 6 1005 52 10000 2.57 30 19:46 11.06.2022
3188 Clear 6 1005 52 10000 2.57 30 19:46 11.06.2022
3189 Clear 6 1005 52 10000 2.57 30 19:25 11.06.2022
3190 Clear 4 1006 65 10000 3.6 330 18:33 11.06.2022
3191 Clear 3 1006 70 10000 4.12 10 17:51 11.06.2022
3192 Clear 3 1006 70 10000 4.12 10 17:27 11.06.2022
3193 Clouds 2 1007 78 10000 3.3 347 16:55 11.06.2022
3194 Clear 2 1006 75 10000 3.09 340 16:27 11.06.2022
3195 Clear 3 1006 71 10000 3.6 320 15:31 11.06.2022
3196 Clouds 1 1007 83 10000 2.78 339 13:53 11.06.2022
3197 Clear 4 1006 66 10000 4.63 360 12:51 11.06.2022
3198 Clear 7 1005 54 10000 9.77 360 10:48 11.06.2022
3199 Clear 9 1005 50 10000 7.2 360 09:51 11.06.2022
3200 Clear 9 1005 49 10000 7.2 360 09:19 11.06.2022
3201 Clear 12 1005 37 10000 7.2 360 07:41 11.06.2022
3202 Clear 13 1005 35 10000 8.23 350 06:30 11.06.2022
3203 Clear 15 1005 31 10000 8.23 350 04:30 11.06.2022
3204 Clear 16 1006 27 10000 5.14 20 01:53 11.06.2022
3205 Clear 16 1006 27 10000 5.14 20 01:33 11.06.2022
3206 Clear 15 1006 29 10000 7.72 50 23:49 10.06.2022
3207 Clear 14 1006 30 10000 5.66 70 22:32 10.06.2022
3208 Clear 14 1006 31 10000 3.6 60 21:52 10.06.2022
3209 Clear 14 1006 30 10000 3.09 350 20:41 10.06.2022
3210 Clear 14 1006 30 10000 3.09 350 20:22 10.06.2022
3211 Clear 13 1006 38 10000 2.06 20 19:20 10.06.2022
3212 Clear 13 1007 46 10000 4.89 10 18:56 10.06.2022
3213 Clear 12 1006 47 10000 5.14 350 18:18 10.06.2022
3214 Clear 10 1006 53 10000 4.12 20 17:35 10.06.2022
3215 Clear 9 1006 57 10000 4.12 330 16:51 10.06.2022
3216 Clear 10 1007 46 10000 5.14 360 15:45 10.06.2022
3217 Clear 11 1007 48 10000 3.36 346 14:57 10.06.2022
3218 Clear 11 1007 46 10000 4.63 360 13:36 10.06.2022
3219 Clear 12 1008 43 10000 5.14 10 12:24 10.06.2022
3220 Clear 13 1008 39 10000 4.63 10 11:30 10.06.2022
3221 Clear 16 1007 36 10000 3.09 30 10:36 10.06.2022
3222 Clear 18 1007 32 10000 5.14 10 09:37 10.06.2022
3223 Clouds 18 1008 38 10000 4.35 30 07:58 10.06.2022
3224 Clear 18 1008 39 10000 4.12 270 06:50 10.06.2022
3225 Clear 18 1008 39 10000 4.12 270 06:31 10.06.2022
3226 Clear 18 1008 39 10000 4.63 250 05:35 10.06.2022
3227 Clouds 21 1010 41 10000 2.68 206 02:54 10.06.2022
3228 Clear 16 1010 41 10000 3.09 210 01:37 10.06.2022
3229 Clouds 20 1011 39 10000 1.73 103 23:58 09.06.2022
3230 Clear 17 1010 36 10000 3.6 230 22:47 09.06.2022
3231 Clear 17 1010 42 10000 3.09 230 21:46 09.06.2022
3232 Clear 17 1010 42 10000 3.09 230 21:28 09.06.2022
3233 Clear 18 1010 32 10000 3.6 340 20:40 09.06.2022
3234 Clear 17 1010 32 10000 4.12 350 19:51 09.06.2022
3235 Clear 15 1010 39 10000 3.09 340 18:41 09.06.2022
3236 Clear 13 1011 45 10000 5.66 350 17:55 09.06.2022
3237 Clear 13 1011 42 10000 4.12 350 16:37 09.06.2022
3238 Clear 12 1011 47 10000 6.17 350 15:40 09.06.2022
3239 Clear 12 1011 48 10000 5.66 350 14:33 09.06.2022
3240 Clear 12 1011 51 10000 5.66 350 13:44 09.06.2022
3241 Clear 12 1011 50 10000 5.66 350 13:20 09.06.2022
3242 Clear 14 1012 47 10000 5.66 350 11:43 09.06.2022
3243 Clear 17 1011 40 10000 6.69 20 10:36 09.06.2022
3244 Clear 18 1011 37 10000 7.72 40 09:40 09.06.2022
3245 Clear 18 1011 37 10000 7.72 40 09:21 09.06.2022
3246 Clear 16 1012 51 10000 2.06 240 07:29 09.06.2022
3247 Clear 15 1013 47 10000 3.09 230 04:47 09.06.2022
3248 Clear 13 1014 66 10000 2.57 240 00:36 09.06.2022
3249 Clear 12 1014 65 10000 2.57 220 23:24 08.06.2022
3250 Clear 12 1014 61 10000 2.06 210 22:45 08.06.2022
3251 Clear 12 1014 61 10000 2.06 210 22:25 08.06.2022
3252 Clear 12 1014 65 10000 2.06 230 21:45 08.06.2022
3253 Clear 12 1015 65 10000 1.54 190 20:33 08.06.2022
3254 Clear 11 1015 70 10000 1.54 160 19:46 08.06.2022
3255 Clear 11 1015 71 10000 1.54 140 18:49 08.06.2022
3256 Clear 10 1015 76 10000 0 0 17:48 08.06.2022
3257 Clear 7 1015 81 10000 2.06 30 16:18 08.06.2022
3258 Clear 11 1015 71 10000 0 0 14:49 08.06.2022
3259 Clear 13 1016 55 10000 3.27 8 12:55 08.06.2022
3260 Clear 13 1016 55 10000 3.27 8 12:55 08.06.2022
3261 Clear 14 1015 58 10000 3.6 360 11:44 08.06.2022
3262 Clear 14 1015 58 10000 3.6 360 11:19 08.06.2022
3263 Clear 21 1015 41 10000 3.64 29 09:45 08.06.2022
3264 Clear 21 1015 40 10000 2.25 28 09:18 08.06.2022
3265 Clear 17 1015 51 10000 7.72 260 07:30 08.06.2022
3266 Clear 20 1016 40 10000 6.17 260 04:51 08.06.2022
3267 Clear 21 1016 32 10000 4.63 250 02:19 08.06.2022
3268 Clear 19 1016 39 10000 4.63 260 23:41 07.06.2022
3269 Clear 19 1016 39 10000 4.63 260 23:22 07.06.2022
3270 Clear 19 1016 37 10000 4.63 250 22:38 07.06.2022
3271 Clear 19 1016 42 10000 3.09 230 21:45 07.06.2022
3272 Clear 19 1016 42 10000 3.09 230 21:24 07.06.2022
3273 Clear 21 1015 32 10000 0 0 20:43 07.06.2022
3274 Clouds 20 1016 46 10000 1.74 24 19:59 07.06.2022
3275 Clear 16 1015 48 10000 3.09 330 18:51 07.06.2022
3276 Clouds 11 1016 72 10000 2.47 22 17:54 07.06.2022
3277 Clear 13 1015 54 10000 0 0 16:54 07.06.2022
3278 Clear 13 1015 54 10000 0 0 16:32 07.06.2022
3279 Clear 12 1014 54 10000 3.6 350 15:40 07.06.2022
3280 Clear 12 1014 54 10000 3.6 350 15:22 07.06.2022
3281 Clear 12 1014 58 10000 0 0 14:45 07.06.2022
3282 Clear 13 1014 54 10000 1.54 0 13:46 07.06.2022
3283 Clear 13 1014 54 10000 1.54 0 13:27 07.06.2022
3284 Clear 13 1014 54 10000 3.09 360 12:22 07.06.2022
3285 Clouds 15 1014 63 10000 3.7 30 10:57 07.06.2022
3286 Clear 21 1013 41 10000 4.63 20 09:46 07.06.2022
3287 Clear 21 1013 43 10000 3.09 300 08:31 07.06.2022
3288 Clear 20 1012 40 10000 4.63 280 07:21 07.06.2022
3289 Clear 20 1012 40 10000 5.66 260 05:47 07.06.2022
3290 Clear 20 1012 32 10000 5.66 250 02:28 07.06.2022
3291 Clear 20 1012 32 10000 3.6 240 00:20 07.06.2022
3292 Clear 19 1012 34 10000 4.12 240 23:32 06.06.2022
3293 Clear 19 1012 37 10000 3.09 240 22:37 06.06.2022
3294 Clear 17 1012 48 10000 2.57 230 21:36 06.06.2022
3295 Clouds 18 1012 46 10000 3.26 25 19:53 06.06.2022
3296 Clouds 18 1011 42 10000 0 0 19:19 06.06.2022
3297 Clouds 14 1011 51 10000 1.54 340 18:34 06.06.2022
3298 Clouds 14 1010 52 10000 0 0 17:36 06.06.2022
3299 Clouds 13 1010 51 10000 2.57 360 16:33 06.06.2022
3300 Clouds 14 1010 48 10000 5.14 350 15:39 06.06.2022
3301 Clouds 13 1009 51 10000 4.63 350 14:39 06.06.2022
3302 Clouds 12 1009 55 10000 5.14 340 13:27 06.06.2022
3303 Clear 14 1009 47 10000 5.66 340 12:38 06.06.2022
3304 Clear 14 1009 47 10000 5.66 340 12:19 06.06.2022
3305 Clear 14 1009 51 10000 6.17 350 11:42 06.06.2022
3306 Clear 18 1008 42 10000 4.63 360 09:41 06.06.2022
3307 Clear 21 1007 33 10000 5.66 360 08:35 06.06.2022
3308 Clear 22 1007 29 10000 4.63 50 07:37 06.06.2022
3309 Clear 19 1007 32 10000 6.17 270 05:29 06.06.2022
3310 Clear 19 1008 34 10000 6.69 270 03:47 06.06.2022
3311 Clear 17 1008 36 10000 6.69 260 01:29 06.06.2022
3312 Clear 17 1008 36 10000 5.66 250 00:43 06.06.2022
3313 Clear 17 1008 34 10000 5.66 250 23:50 05.06.2022
3314 Clouds 19 1009 41 10000 3.32 14 22:53 05.06.2022
3315 Clear 17 1008 34 10000 4.12 360 21:33 05.06.2022
3316 Clear 16 1008 36 10000 2.57 0 20:23 05.06.2022
3317 Clear 13 1008 42 10000 2.06 30 18:42 05.06.2022
3318 Clear 12 1009 52 10000 4.32 14 17:57 05.06.2022
3319 Clear 11 1008 43 10000 4.12 340 17:36 05.06.2022
3320 Clear 11 1008 43 10000 4.12 340 17:18 05.06.2022
3321 Clear 11 1008 43 10000 5.14 350 16:45 05.06.2022
3322 Clear 9 1008 57 10000 4.63 350 14:46 05.06.2022
3323 Clouds 10 1009 61 10000 4.22 5 13:55 05.06.2022
3324 Clouds 13 1009 53 10000 3.82 18 11:56 05.06.2022
3325 Clear 14 1008 47 10000 5.66 360 10:45 05.06.2022
3326 Clear 14 1008 47 10000 5.66 360 10:23 05.06.2022
3327 Clear 18 1008 36 10000 6.17 30 09:21 05.06.2022
3328 Clear 20 1007 31 10000 6.17 350 08:22 05.06.2022
3329 Clear 19 1008 34 10000 2.57 190 05:24 05.06.2022
3330 Clear 18 1008 34 10000 3.6 200 04:36 05.06.2022
3331 Clear 17 1008 36 10000 4.63 240 02:19 05.06.2022
3332 Clear 15 1009 46 10000 4.12 220 01:23 05.06.2022
3333 Clear 15 1009 46 10000 4.12 220 01:23 05.06.2022
3334 Clear 16 1009 39 10000 4.12 210 22:48 04.06.2022
3335 Clear 15 1010 44 10000 3.09 180 21:24 04.06.2022
3336 Clear 13 1010 50 10000 3.09 290 19:26 04.06.2022
3337 Clear 7 1010 76 10000 4.12 310 16:48 04.06.2022
3338 Clear 7 1010 76 10000 4.12 310 16:20 04.06.2022
3339 Clear 7 1011 76 10000 5.14 310 15:35 04.06.2022
3340 Clouds 10 1011 54 10000 3.11 343 13:59 04.06.2022
3341 Clear 9 1011 61 10000 3.09 310 11:38 04.06.2022
3342 Clear 12 1011 54 10000 3.6 300 10:52 04.06.2022
3343 Clear 13 1011 50 10000 4.63 300 09:47 04.06.2022
3344 Clouds 15 1011 48 10000 3.83 302 08:59 04.06.2022
3345 Clear 14 1011 41 10000 7.72 300 08:37 04.06.2022
3346 Clear 17 1011 36 10000 8.75 290 06:25 04.06.2022
3347 Clear 13 1012 50 10000 9.77 260 03:52 04.06.2022
3348 Clear 13 1013 50 10000 8.23 260 00:22 04.06.2022
3349 Clouds 18 1014 38 10000 3.17 277 22:56 03.06.2022
3350 Clouds 16 1014 44 10000 2.61 274 21:53 03.06.2022
3351 Clear 9 1014 65 10000 3.6 220 20:40 03.06.2022
3352 Clear 8 1014 71 10000 0 0 19:37 03.06.2022
3353 Clouds 9 1014 63 10000 1.35 334 16:58 03.06.2022
3354 Clouds 8 1015 63 10000 1.39 326 15:55 03.06.2022
3355 Clear 3 1015 93 10000 1.54 30 14:25 03.06.2022
3356 Clear 6 1016 81 10000 0 0 12:21 03.06.2022
3357 Clouds 7 1017 81 10000 2.46 255 09:57 03.06.2022
3358 Clear 6 1016 81 10000 2.57 230 09:29 03.06.2022
3359 Clear 6 1017 81 10000 3.6 210 07:47 03.06.2022
3360 Clear 15 1018 47 10000 3.06 246 06:59 03.06.2022
3361 Clear 6 1018 80 10000 4.12 240 06:28 03.06.2022
3362 Haze 5 1020 80 4828 4.63 250 03:39 03.06.2022
3363 Mist 3 1021 86 3219 4.12 240 23:52 02.06.2022
3364 Clouds 3 1021 92 10000 3.09 210 22:23 02.06.2022
3365 Clear 6 1021 85 10000 2.43 237 20:56 02.06.2022
3366 Mist 2 1021 93 4828 0 0 19:57 02.06.2022
3367 Mist 1 1022 100 2012 2.06 290 19:38 02.06.2022
3368 Mist 1 1022 93 4828 3.09 280 18:51 02.06.2022
3369 Fog 1 1023 100 402 2.06 320 16:30 02.06.2022
3370 Fog 1 1023 93 402 2.57 290 15:47 02.06.2022
3371 Mist 2 1023 100 4828 2.57 270 13:31 02.06.2022
3372 Mist 2 1023 100 4828 3.6 260 12:49 02.06.2022
3373 Clouds 2 1023 100 10000 3.6 260 10:45 02.06.2022
3374 Clouds 3 1023 93 10000 5.14 250 09:30 02.06.2022
3375 Clouds 3 1023 92 10000 5.66 260 08:45 02.06.2022
3376 Clouds 4 1023 87 10000 5.14 250 08:23 02.06.2022
3377 Clouds 4 1024 86 10000 5.14 260 06:21 02.06.2022
3378 Clouds 5 1025 86 10000 6.17 250 03:50 02.06.2022
3379 Mist 5 1025 86 8047 6.69 250 01:33 02.06.2022
3380 Clouds 6 1024 80 10000 8.75 250 23:22 01.06.2022
3381 Clear 7 1024 75 10000 8.23 250 22:18 01.06.2022
3382 Clear 10 1023 66 10000 2.06 280 21:24 01.06.2022
3383 Clear 7 1023 75 10000 5.66 260 20:39 01.06.2022
3384 Clear 8 1023 67 10000 5.14 280 19:52 01.06.2022
3385 Clouds 6 1023 76 10000 4.12 270 18:41 01.06.2022
3386 Clouds 6 1023 83 10000 2.62 262 16:58 01.06.2022
3387 Clouds 4 1022 90 10000 8.75 250 15:45 01.06.2022
3388 Clouds 5 1022 93 10000 3.6 280 14:50 01.06.2022
3389 Clouds 6 1021 76 10000 2.57 260 13:26 01.06.2022
3390 Clouds 9 1021 86 10000 1.54 340 11:23 01.06.2022
3391 Clouds 9 1020 72 10000 3.09 300 09:30 01.06.2022
3392 Clouds 6 1020 68 10000 6.69 280 08:19 01.06.2022
3393 Clouds 7 1021 69 10000 5.66 260 07:20 01.06.2022
3394 Rain 17 1020 56 10000 2.43 249 04:53 01.06.2022
3395 Clouds 12 1020 62 10000 3.09 230 23:50 31.05.2022
3396 Clear 13 1020 58 10000 2.06 250 22:43 31.05.2022
3397 Clear 13 1020 58 10000 2.06 250 22:24 31.05.2022
3398 Clear 11 1020 65 10000 1.54 280 21:44 31.05.2022
3399 Clear 9 1020 70 10000 2.06 250 20:44 31.05.2022
3400 Clear 9 1020 70 10000 2.06 250 20:44 31.05.2022
3401 Clear 9 1020 71 10000 0 0 19:46 31.05.2022
3402 Clear 11 1019 66 10000 0 0 18:32 31.05.2022
3403 Clear 9 1020 66 10000 0 0 17:38 31.05.2022
3404 Clouds 8 1020 66 10000 2.57 350 16:21 31.05.2022
3405 Clear 7 1020 76 10000 1.54 350 15:37 31.05.2022
3406 Clouds 6 1020 75 10000 0 0 13:22 31.05.2022
3407 Clear 6 1020 87 10000 2.06 340 12:19 31.05.2022
3408 Clear 9 1020 81 10000 1.54 310 10:34 31.05.2022
3409 Clouds 10 1020 76 10000 1.54 170 08:26 31.05.2022
3410 Clouds 10 1019 75 10000 1.54 150 06:38 31.05.2022
3411 Clouds 10 1019 71 10000 4.63 140 04:34 31.05.2022
3412 Clear 12 1019 54 10000 7.72 130 23:46 30.05.2022
3413 Clear 12 1019 54 10000 7.72 130 23:24 30.05.2022
3414 Clear 16 1018 41 10000 7.2 120 22:42 30.05.2022
3415 Clear 16 1018 39 10000 4.12 70 21:40 30.05.2022
3416 Clear 16 1018 39 10000 4.12 70 21:21 30.05.2022
3417 Clear 12 1018 54 10000 7.2 30 19:45 30.05.2022
3418 Clear 11 1018 58 10000 4.63 20 18:21 30.05.2022
3419 Clear 9 1019 66 10000 4.63 360 17:23 30.05.2022
3420 Clear 8 1019 66 10000 3.6 360 16:30 30.05.2022
3421 Clear 8 1019 66 10000 3.6 350 13:38 30.05.2022
3422 Clear 8 1019 71 10000 2.06 360 11:40 30.05.2022
3423 Clouds 10 1019 69 10000 1.41 356 09:58 30.05.2022
3424 Clear 8 1019 76 10000 3.09 280 08:52 30.05.2022
3425 Clear 5 1019 86 10000 2.57 230 06:27 30.05.2022
3426 Mist 4 1020 86 4828 3.09 220 04:52 30.05.2022
3427 Clouds 4 1020 92 10000 2.57 210 01:23 30.05.2022
3428 Mist 3 1020 92 4828 2.57 200 22:49 29.05.2022
3429 Mist 3 1020 92 4828 2.57 200 22:28 29.05.2022
3430 Clouds 4 1020 86 10000 3.09 230 20:29 29.05.2022
3431 Clear 4 1020 87 10000 1.54 240 19:29 29.05.2022
3432 Clear 2 1019 93 10000 2.06 300 18:34 29.05.2022
3433 Clouds 1 1019 86 10000 0 0 16:40 29.05.2022
3434 Clear 1 1019 93 10000 0 0 15:47 29.05.2022
3435 Clear 6 1019 83 10000 2.17 24 14:55 29.05.2022
3436 Clear 2 1019 93 10000 0 0 13:18 29.05.2022
3437 Clear 4 1018 93 10000 1.54 90 11:20 29.05.2022
3438 Clear 6 1018 81 10000 3.09 130 10:34 29.05.2022
3439 Clear 10 1017 63 10000 1.54 330 08:31 29.05.2022
3440 Clouds 3 1018 87 10000 3.6 240 04:59 29.05.2022
3441 Mist 2 1018 93 9656 4.63 230 04:39 29.05.2022
3442 Clouds 3 1018 86 10000 4.63 240 01:52 29.05.2022
3443 Clouds 2 1018 86 10000 3.6 230 23:48 28.05.2022
3444 Clouds 2 1018 87 10000 3.6 230 23:20 28.05.2022
3445 Clouds 2 1018 87 10000 3.09 240 22:19 28.05.2022
3446 Clouds 1 1018 93 10000 3.6 240 21:19 28.05.2022
3447 Clouds 1 1018 93 10000 1.54 270 19:21 28.05.2022
3448 Clouds 1 1018 93 10000 2.06 260 18:40 28.05.2022
3449 Clouds 2 1018 93 10000 3.09 280 17:33 28.05.2022
3450 Clouds 2 1018 93 10000 2.57 280 16:22 28.05.2022
3451 Clouds 2 1018 93 10000 3.09 290 15:38 28.05.2022
3452 Clouds 3 1018 87 10000 2.06 270 13:42 28.05.2022
3453 Clouds 3 1018 87 10000 3.6 270 12:43 28.05.2022
3454 Clouds 3 1018 87 10000 3.09 260 11:50 28.05.2022
3455 Clouds 3 1018 87 10000 4.63 240 10:43 28.05.2022
3456 Clouds 3 1018 93 10000 5.14 240 09:56 28.05.2022
3457 Clouds 4 1018 87 10000 5.14 240 08:39 28.05.2022
3458 Clouds 4 1019 87 10000 5.66 250 07:23 28.05.2022
3459 Clouds 4 1019 87 10000 6.17 250 05:24 28.05.2022
3460 Clouds 4 1020 87 10000 5.66 260 02:33 28.05.2022
3461 Clouds 4 1020 87 10000 3.09 230 00:18 28.05.2022
3462 Clouds 3 1020 87 10000 3.6 240 22:50 27.05.2022
3463 Clouds 3 1020 87 10000 5.14 230 21:37 27.05.2022
3464 Clouds 3 1019 87 10000 5.66 240 20:48 27.05.2022
3465 Clouds 3 1019 87 10000 6.17 270 20:21 27.05.2022
3466 Clouds 3 1019 87 10000 5.66 260 19:41 27.05.2022
3467 Clouds 3 1019 87 10000 5.66 260 19:21 27.05.2022
3468 Clouds 3 1019 93 10000 4.63 260 17:26 27.05.2022
3469 Clouds 2 1019 93 10000 1.54 290 16:36 27.05.2022
3470 Clouds 2 1019 93 10000 2.06 300 15:20 27.05.2022
3471 Clouds 2 1019 93 10000 3.09 290 13:41 27.05.2022
3472 Clouds 2 1019 93 10000 4.63 290 12:35 27.05.2022
3473 Clouds 2 1019 93 10000 5.14 270 11:33 27.05.2022
3474 Clouds 2 1019 93 10000 5.66 280 10:52 27.05.2022
3475 Clouds 2 1019 93 10000 6.69 270 10:22 27.05.2022
3476 Clouds 3 1018 87 10000 6.69 260 09:31 27.05.2022
3477 Clouds 3 1018 87 10000 6.69 250 07:41 27.05.2022
3478 Clouds 3 1018 87 10000 5.14 250 05:27 27.05.2022
3479 Mist 3 1018 87 10000 4.12 240 01:47 27.05.2022
3480 Clouds 5 1018 77 9361 4.48 242 23:55 26.05.2022
3481 Mist 2 1018 93 6437 3.09 250 22:29 26.05.2022
3482 Mist 2 1017 93 4828 3.6 220 21:33 26.05.2022
3483 Mist 2 1017 93 3219 4.12 250 19:51 26.05.2022
3484 Mist 2 1017 93 2414 3.09 270 19:18 26.05.2022
3485 Mist 2 1016 93 2012 4.12 270 17:36 26.05.2022
3486 Mist 2 1016 93 2012 4.12 270 17:36 26.05.2022
3487 Mist 2 1016 93 2012 4.12 270 16:35 26.05.2022
3488 Mist 2 1016 93 1207 2.57 250 15:41 26.05.2022
3489 Fog 2 1016 93 805 0 0 14:21 26.05.2022
3490 Fog 2 1016 100 402 2.57 270 12:35 26.05.2022
3491 Mist 3 1016 93 1207 4.12 270 11:21 26.05.2022
3492 Fog 3 1015 99 805 3.6 280 09:40 26.05.2022
3493 Clouds 5 1014 86 10000 5.66 250 08:57 26.05.2022
3494 Clear 7 1014 76 10000 6.17 250 07:38 26.05.2022
3495 Clear 8 1014 66 10000 4.63 260 03:35 26.05.2022
3496 Clear 8 1014 71 10000 6.69 230 00:21 26.05.2022
3497 Clear 8 1013 71 10000 6.17 220 23:22 25.05.2022
3498 Clear 7 1013 65 10000 5.66 250 21:47 25.05.2022
3499 Clear 7 1013 65 10000 5.66 250 21:28 25.05.2022
3500 Clouds 9 1013 67 10000 2.36 253 19:59 25.05.2022
3501 Clear 6 1012 75 10000 4.63 250 19:19 25.05.2022
3502 Clear 3 1012 75 10000 2.06 300 17:33 25.05.2022
3503 Clear 3 1012 81 10000 0 0 16:36 25.05.2022
3504 Clouds 7 1012 51 10000 2.36 266 15:53 25.05.2022
3505 Clear 3 1012 87 10000 1.54 290 14:51 25.05.2022
3506 Clear 3 1012 87 10000 1.54 290 14:32 25.05.2022
3507 Clear 3 1011 87 10000 1.54 310 13:35 25.05.2022
3508 Clear 3 1011 81 10000 1.54 300 12:36 25.05.2022
3509 Clear 8 1011 76 10000 2.57 270 10:43 25.05.2022
3510 Clouds 9 1011 51 10000 2.62 262 09:53 25.05.2022
3511 Clouds 12 1011 39 10000 2.9 263 08:22 25.05.2022
3512 Clouds 14 1011 37 10000 3.1 256 06:53 25.05.2022
3513 Clear 11 1011 53 10000 3.6 220 03:20 25.05.2022
3514 Clouds 16 1012 41 10000 3.72 227 23:55 24.05.2022
3515 Clear 12 1012 47 10000 3.09 230 23:23 24.05.2022
3516 Clear 11 1012 50 10000 3.09 210 22:19 24.05.2022
3517 Clear 11 1012 53 10000 2.57 190 21:39 24.05.2022
3518 Clear 11 1012 53 10000 2.57 190 21:20 24.05.2022
3519 Clear 11 1011 46 10000 1.54 330 19:45 24.05.2022
3520 Clear 7 1011 61 10000 2.06 340 18:50 24.05.2022
3521 Clear 6 1012 61 10000 0 0 16:41 24.05.2022
3522 Clear 6 1012 61 10000 0 0 16:19 24.05.2022
3523 Clear 6 1012 65 10000 5.14 320 14:50 24.05.2022
3524 Clear 7 1012 65 10000 2.06 310 13:52 24.05.2022
3525 Clear 9 1012 54 10000 3.29 11 12:49 24.05.2022
3526 Clear 12 1011 51 10000 3.09 260 10:46 24.05.2022
3527 Clear 14 1011 44 10000 4.63 350 09:43 24.05.2022
3528 Clear 16 1011 40 10000 5.14 10 08:49 24.05.2022
3529 Clear 16 1012 44 10000 4.99 30 06:56 24.05.2022
3530 Clear 17 1012 38 10000 3.89 44 03:56 24.05.2022
3531 Clouds 16 1012 42 10000 2.86 42 01:53 24.05.2022
3532 Clear 11 1012 53 10000 3.6 180 01:32 24.05.2022
3533 Clouds 13 1012 47 10000 2.37 30 22:55 23.05.2022
3534 Clouds 13 1012 49 10000 2.17 34 21:55 23.05.2022
3535 Clear 9 1012 61 10000 2.06 210 21:29 23.05.2022
3536 Clear 9 1012 60 10000 0 0 20:29 23.05.2022
3537 Clouds 9 1012 66 10000 0 0 19:32 23.05.2022
3538 Clouds 11 1013 46 10000 1.77 26 18:58 23.05.2022
3539 Clear 7 1013 70 10000 1.54 60 18:30 23.05.2022
3540 Clear 6 1013 75 10000 0 0 17:20 23.05.2022
3541 Clear 4 1013 81 10000 0 0 15:23 23.05.2022
3542 Clear 6 1013 75 10000 1.54 260 13:21 23.05.2022
3543 Clear 11 1014 50 10000 0 0 11:31 23.05.2022
3544 Clear 14 1013 47 10000 1.54 350 09:51 23.05.2022
3545 Clear 14 1013 47 10000 1.54 350 09:30 23.05.2022
3546 Clear 16 1013 39 10000 2.57 300 08:31 23.05.2022
3547 Clear 15 1014 33 10000 5.14 260 06:46 23.05.2022
3548 Clear 11 1014 58 10000 4.12 220 05:39 23.05.2022
3549 Clear 13 1014 43 10000 5.66 250 02:34 23.05.2022
3550 Clear 20 1014 22 10000 4.12 40 01:39 23.05.2022
3551 Clear 21 1014 19 10000 5.66 40 00:23 23.05.2022
3552 Clear 19 1014 21 10000 8.23 40 22:42 22.05.2022
3553 Clouds 16 1015 38 10000 3.68 53 21:55 22.05.2022
3554 Clear 18 1014 20 10000 7.2 20 21:36 22.05.2022
3555 Clear 17 1014 23 10000 7.2 20 20:32 22.05.2022
3556 Clouds 15 1015 34 10000 3.29 25 19:57 22.05.2022
3557 Clear 14 1014 29 10000 7.72 40 18:56 22.05.2022
3558 Clear 14 1014 29 10000 7.72 40 18:25 22.05.2022
3559 Clear 13 1014 29 10000 8.23 30 17:37 22.05.2022
3560 Clear 12 1014 29 10000 7.2 30 16:39 22.05.2022
3561 Clear 13 1015 34 10000 6.17 30 14:53 22.05.2022
3562 Clouds 9 1016 49 10000 3.86 22 13:56 22.05.2022
3563 Clear 11 1015 50 10000 3.6 350 12:52 22.05.2022
3564 Clouds 10 1016 57 10000 3.87 17 11:52 22.05.2022
3565 Clear 12 1015 50 10000 4.63 320 10:24 22.05.2022
3566 Clear 15 1016 47 10000 3.6 360 09:19 22.05.2022
3567 Clear 16 1016 39 10000 3.09 280 07:22 22.05.2022
3568 Clear 13 1017 47 10000 2.57 230 06:27 22.05.2022
3569 Clear 17 1018 34 10000 5.14 50 02:50 22.05.2022
3570 Clear 11 1019 50 10000 6.17 130 00:44 22.05.2022
3571 Clouds 15 1019 46 10000 3.75 90 23:56 21.05.2022
3572 Clear 13 1019 41 10000 4.12 130 23:22 21.05.2022
3573 Clear 11 1019 50 10000 8.23 120 21:55 21.05.2022
3574 Clear 11 1019 50 10000 8.23 120 21:27 21.05.2022
3575 Clear 16 1019 34 10000 7.72 90 20:29 21.05.2022
3576 Clear 16 1019 32 10000 5.14 70 19:43 21.05.2022
3577 Clouds 15 1019 33 10000 5.14 60 18:31 21.05.2022
3578 Clouds 11 1020 53 10000 2.4 137 16:57 21.05.2022
3579 Clouds 14 1019 41 10000 6.17 60 14:38 21.05.2022
3580 Clouds 13 1020 49 10000 4.3 27 13:55 21.05.2022
3581 Clouds 14 1020 42 10000 3.6 70 13:19 21.05.2022
3582 Clouds 12 1021 50 10000 3.6 40 12:38 21.05.2022
3583 Clear 13 1021 47 10000 5.14 40 11:20 21.05.2022
3584 Clouds 12 1022 57 10000 3.21 34 09:57 21.05.2022
3585 Clouds 13 1022 52 10000 2.98 60 08:59 21.05.2022
3586 Clear 18 1022 37 10000 3.6 40 08:37 21.05.2022
3587 Clouds 17 1024 42 10000 4.16 100 05:52 21.05.2022
3588 Clear 18 1025 34 10000 8.23 90 01:41 21.05.2022
3589 Clear 18 1026 37 10000 8.75 90 23:32 20.05.2022
3590 Clear 17 1026 39 10000 6.69 90 22:29 20.05.2022
3591 Clouds 16 1026 49 10000 6.67 98 21:56 20.05.2022
3592 Clear 17 1026 37 10000 6.69 80 21:19 20.05.2022
3593 Clear 16 1027 39 10000 6.69 80 20:45 20.05.2022
3594 Clear 15 1027 39 10000 6.69 70 19:45 20.05.2022
3595 Clear 14 1027 41 10000 5.66 70 18:49 20.05.2022
3596 Clear 13 1027 41 10000 4.63 70 17:48 20.05.2022
3597 Clear 13 1027 45 10000 5.14 60 16:23 20.05.2022
3598 Clouds 6 1027 73 10000 3.16 42 15:53 20.05.2022
3599 Clear 9 1028 57 10000 3.6 20 14:32 20.05.2022
3600 Clouds 9 1028 56 10000 2.8 39 13:59 20.05.2022
3601 Clear 8 1028 66 10000 1.54 10 11:51 20.05.2022
3602 Clear 9 1028 71 10000 1.54 310 10:34 20.05.2022
3603 Clear 10 1029 66 10000 0 0 09:23 20.05.2022
3604 Clear 7 1029 70 10000 1.54 210 07:43 20.05.2022
3605 Clear 7 1029 70 10000 0 0 06:40 20.05.2022
3606 Clear 4 1030 86 10000 2.57 200 05:39 20.05.2022
3607 Mist 2 1031 92 9656 3.09 170 01:29 20.05.2022
3608 Mist 0 1030 100 9656 2.57 200 23:31 19.05.2022
3609 Mist -1 1030 100 9656 3.09 160 22:35 19.05.2022
3610 Mist -1 1030 100 3219 2.06 0 21:50 19.05.2022
3611 Mist -1 1030 100 3219 3.09 160 21:23 19.05.2022
3612 Mist -1 1030 100 2414 3.09 160 20:43 19.05.2022
3613 Clouds -1 1030 93 10000 2.06 180 19:54 19.05.2022
3614 Clouds 4 1029 78 10000 1.38 215 18:59 19.05.2022
3615 Clouds -3 1029 100 10000 2.06 350 17:36 19.05.2022
3616 Fog -2 1028 93 402 2.06 340 15:43 19.05.2022
3617 Fog -2 1028 100 805 0 0 14:39 19.05.2022
3618 Mist -2 1028 100 1207 0 0 14:19 19.05.2022
3619 Fog -1 1027 100 805 1.54 310 11:53 19.05.2022
3620 Fog -1 1026 100 402 0 0 10:30 19.05.2022
3621 Fog 0 1025 93 805 3.6 240 08:33 19.05.2022
3622 Clouds 5 1024 79 10000 3.69 262 06:57 19.05.2022
3623 Mist 1 1023 86 8047 3.6 240 03:26 19.05.2022
3624 Clouds 3 1023 81 10000 4.55 253 00:56 19.05.2022
3625 Clouds 0 1022 86 10000 3.6 230 23:21 18.05.2022
3626 Clouds 0 1022 86 10000 3.93 254 22:41 18.05.2022
3627 Mist -1 1021 93 8047 3.09 230 21:42 18.05.2022
3628 Mist -1 1021 93 8047 3.09 230 21:20 18.05.2022
3629 Mist -1 1021 93 3219 3.09 230 20:19 18.05.2022
3630 Clouds -1 1020 86 10000 4.12 240 18:47 18.05.2022
3631 Clouds -1 1020 92 10000 4.12 240 17:42 18.05.2022
3632 Clouds -1 1020 92 10000 4.12 240 17:23 18.05.2022
3633 Clear -2 1020 80 10000 1.54 350 16:52 18.05.2022
3634 Clear -2 1020 85 10000 1.54 350 15:43 18.05.2022
3635 Clear -2 1020 86 10000 1.54 350 15:20 18.05.2022
3636 Clouds -3 1021 79 10000 1.86 275 13:59 18.05.2022
3637 Clouds -2 1021 76 10000 1.91 266 12:53 18.05.2022
3638 Clear 1 1020 75 10000 2.06 300 11:48 18.05.2022
3639 Clear 1 1020 75 10000 2.06 300 11:29 18.05.2022
3640 Clear 1 1019 70 10000 2.57 280 10:36 18.05.2022
3641 Clouds 5 1020 61 10000 1.92 249 07:59 18.05.2022
3642 Clouds 6 1019 57 10000 2.38 238 06:54 18.05.2022
3643 Clear 2 1019 79 10000 4.12 220 03:34 18.05.2022
3644 Clear 2 1019 74 10000 3.6 190 00:42 18.05.2022
3645 Clear 2 1019 68 10000 3.6 210 23:21 17.05.2022
3646 Clear 1 1019 64 10000 2.57 160 21:21 17.05.2022
3647 Clear 1 1019 55 10000 2.06 170 20:38 17.05.2022
3648 Clear 0 1019 59 10000 0 0 19:30 17.05.2022
3649 Clear -2 1018 69 10000 0 0 18:46 17.05.2022
3650 Clear -4 1019 74 10000 1.54 350 17:34 17.05.2022
3651 Clouds -5 1019 83 10000 1.54 25 16:55 17.05.2022
3652 Clear -2 1018 70 10000 1.54 90 15:49 17.05.2022
3653 Clouds -5 1019 78 10000 2.21 7 14:55 17.05.2022
3654 Clear -2 1018 60 10000 2.57 320 14:28 17.05.2022
3655 Clear -1 1018 64 10000 1.54 0 12:37 17.05.2022
3656 Clear 2 1018 69 10000 2.57 70 10:39 17.05.2022
3657 Clear 4 1018 65 10000 1.54 50 08:51 17.05.2022
3658 Clear 3 1018 74 10000 2.06 130 07:46 17.05.2022
3659 Clear 4 1018 69 10000 2.06 0 06:21 17.05.2022
3660 Clear 4 1018 56 10000 4.63 230 01:23 17.05.2022
3661 Clouds 4 1019 56 10000 6.17 360 23:43 16.05.2022
3662 Clear 3 1019 60 10000 6.17 10 22:33 16.05.2022
3663 Clouds 3 1019 60 10000 8.23 10 21:18 16.05.2022
3664 Clouds 2 1019 69 10000 7.2 360 20:37 16.05.2022
3665 Clouds 2 1019 69 10000 3.6 10 18:46 16.05.2022
3666 Clear 1 1019 75 10000 3.09 310 17:18 16.05.2022
3667 Clear 1 1019 75 10000 3.09 310 17:18 16.05.2022
3668 Clear 2 1019 75 10000 3.09 10 15:29 16.05.2022
3669 Clear 2 1019 76 10000 5.14 360 13:45 16.05.2022
3670 Clear 3 1019 71 10000 4.12 340 12:37 16.05.2022
3671 Clear 3 1019 71 10000 4.63 340 10:36 16.05.2022
3672 Clear 8 1017 57 10000 5.14 350 07:48 16.05.2022
3673 Clear 8 1017 53 10000 3.09 360 05:46 16.05.2022
3674 Clouds 4 1016 75 10000 2.06 140 00:49 16.05.2022
3675 Clouds 3 1015 75 10000 4.12 70 22:44 15.05.2022
3676 Clouds 3 1016 84 7793 2.48 345 21:59 15.05.2022
3677 Clouds 2 1014 80 10000 4.12 50 21:36 15.05.2022
3678 Clouds 1 1014 93 10000 4.63 50 20:43 15.05.2022
3679 Rain 1 1013 93 9656 4.63 50 18:39 15.05.2022
3680 Snow 0 1013 97 38 3.8 74 16:54 15.05.2022
3681 Snow 1 1011 93 4023 5.14 80 14:34 15.05.2022
3682 Snow 0 1011 100 3219 5.14 90 13:46 15.05.2022
3683 Snow 0 1013 100 1207 4.63 110 11:59 15.05.2022
3684 Snow 0 1013 100 1207 4.63 120 10:49 15.05.2022
3685 Snow 0 1015 93 805 5.66 120 09:51 15.05.2022
3686 Clouds 1 1017 86 10000 6.17 120 07:23 15.05.2022
3687 Clouds 1 1018 86 10000 5.66 120 06:55 15.05.2022
3688 Clouds 2 1024 69 10000 4.12 140 02:55 15.05.2022
3689 Clouds 2 1025 69 10000 5.66 140 00:26 15.05.2022
3690 Clear 2 1026 69 10000 4.12 150 23:37 14.05.2022
3691 Clear 1 1027 75 10000 2.57 140 21:51 14.05.2022
3692 Clear 1 1027 75 10000 2.57 140 21:26 14.05.2022
3693 Clear 0 1028 74 10000 2.06 140 20:27 14.05.2022
3694 Clear 0 1028 74 10000 0 0 19:20 14.05.2022
3695 Clouds -2 1028 80 10000 1.49 214 18:58 14.05.2022
3696 Clear -3 1028 80 10000 0 0 17:47 14.05.2022
3697 Clouds -1 1029 69 10000 1.39 277 15:58 14.05.2022
3698 Clear -3 1029 80 10000 0 0 14:39 14.05.2022
3699 Clear -3 1029 80 10000 0 0 14:18 14.05.2022
3700 Clear -2 1029 86 10000 3.09 300 11:46 14.05.2022
3701 Clear 0 1029 80 10000 3.6 280 10:44 14.05.2022
3702 Clear 0 1029 80 10000 3.6 280 10:18 14.05.2022
3703 Clear 2 1029 64 10000 3.6 290 09:25 14.05.2022
3704 Clear 4 1028 52 10000 3.09 280 07:34 14.05.2022
3705 Clear 4 1028 48 10000 3.09 320 04:43 14.05.2022
3706 Clear 3 1027 48 10000 4.12 330 00:43 14.05.2022
3707 Clear 2 1027 48 10000 2.57 360 23:28 13.05.2022
3708 Clear 2 1027 58 10000 3.65 308 22:55 13.05.2022
3709 Clear 1 1027 51 10000 3.09 0 22:21 13.05.2022
3710 Clear 0 1027 64 10000 2.57 325 20:59 13.05.2022
3711 Clear -1 1026 59 10000 3.09 330 20:38 13.05.2022
3712 Clear -1 1026 59 10000 3.09 330 20:20 13.05.2022
3713 Clear -2 1026 64 10000 3.6 40 19:18 13.05.2022
3714 Clear -3 1025 69 10000 0 0 17:47 13.05.2022
3715 Clear -3 1025 69 10000 0 0 17:23 13.05.2022
3716 Clear -4 1024 74 10000 3.6 330 15:47 13.05.2022
3717 Clear -3 1023 68 10000 4.12 280 14:39 13.05.2022
3718 Clear -3 1024 76 10000 4.75 307 12:54 13.05.2022
3719 Clear -3 1023 75 10000 5.01 309 11:56 13.05.2022
3720 Clear -1 1020 69 10000 10.29 310 10:19 13.05.2022
3721 Clouds -1 1020 74 10000 4.63 320 09:29 13.05.2022
3722 Clear 2 1018 69 10000 9.26 310 07:52 13.05.2022
3723 Clear 2 1018 69 10000 9.26 310 07:26 13.05.2022
3724 Clouds 2 1017 75 10000 9.26 310 05:31 13.05.2022
3725 Clouds 3 1014 75 10000 11.32 310 01:21 13.05.2022
3726 Clouds 3 1013 81 10000 9.77 320 23:24 12.05.2022
3727 Clouds 3 1013 81 10000 9.77 320 22:34 12.05.2022
3728 Clouds 1 1012 86 10000 6.69 270 21:26 12.05.2022
3729 Snow -1 1012 100 4828 5.14 270 19:51 12.05.2022
3730 Snow -1 1012 100 1609 6.17 260 18:29 12.05.2022
3731 Mist -1 1012 100 3219 5.66 260 16:45 12.05.2022
3732 Clouds 0 1013 93 10000 5.66 260 15:22 12.05.2022
3733 Clouds 0 1014 93 10000 2.06 250 13:52 12.05.2022
3734 Clouds 1 1015 86 10000 0 0 12:29 12.05.2022
3735 Clouds 1 1015 86 10000 5.14 260 10:34 12.05.2022
3736 Clouds 2 1015 87 10000 3.25 262 08:56 12.05.2022
3737 Clouds 2 1015 87 10000 5.14 260 08:35 12.05.2022
3738 Clouds 2 1015 87 10000 8.23 270 07:25 12.05.2022
3739 Clear 3 1014 87 10000 7.2 250 04:45 12.05.2022
3740 Clouds 5 1014 81 10000 7.72 300 01:37 12.05.2022
3741 Rain 3 1013 87 10000 7.72 280 23:36 11.05.2022
3742 Clouds 1 1012 93 10000 7.2 270 22:21 11.05.2022
3743 Mist 0 1012 93 4828 5.14 250 21:26 11.05.2022
3744 Mist 0 1012 93 4828 5.14 250 21:26 11.05.2022
3745 Mist 0 1012 93 2012 4.12 260 20:20 11.05.2022
3746 Mist 0 1013 93 4023 0 0 17:43 11.05.2022
3747 Snow 0 1014 100 10000 0 0 16:39 11.05.2022
3748 Mist 0 1015 100 4828 0 0 14:48 11.05.2022
3749 Snow 0 1015 100 4828 0 0 14:25 11.05.2022
3750 Mist 0 1016 93 4828 1.54 140 13:25 11.05.2022
3751 Mist -1 1017 100 4828 2.06 230 11:48 11.05.2022
3752 Mist 0 1018 93 4023 4.12 230 09:30 11.05.2022
3753 Mist 0 1018 93 6437 3.6 240 06:59 11.05.2022
3754 Snow -1 1019 100 1207 5.14 210 02:27 11.05.2022
3755 Snow -1 1022 93 2414 4.63 90 22:58 10.05.2022
3756 Snow -1 1022 93 2414 4.63 90 22:30 10.05.2022
3757 Mist -2 1023 100 6437 3.6 100 21:41 10.05.2022
3758 Mist -2 1023 93 8047 3.09 140 20:47 10.05.2022
3759 Snow -3 1024 93 2816 2.57 150 18:58 10.05.2022
3760 Clouds -3 1024 93 10000 1.54 340 17:42 10.05.2022
3761 Clouds -3 1024 93 10000 0 0 16:38 10.05.2022
3762 Clear -4 1024 86 10000 2.06 280 13:37 10.05.2022
3763 Clouds -7 1024 93 10000 2.08 355 11:54 10.05.2022
3764 Clear -2 1023 80 10000 3.09 270 11:34 10.05.2022
3765 Clouds -6 1024 91 10000 1.98 331 10:57 10.05.2022
3766 Clear -1 1023 80 10000 4.63 290 09:52 10.05.2022
3767 Clouds 0 1023 74 10000 8.23 300 08:22 10.05.2022
3768 Clear 1 1022 75 10000 7.2 280 06:21 10.05.2022
3769 Clouds 1 1021 75 10000 10.8 290 02:23 10.05.2022
3770 Clouds 1 1020 74 10000 5.55 301 23:55 09.05.2022
3771 Clouds -2 1019 74 10000 7.2 300 22:41 09.05.2022
3772 Clouds -2 1018 74 10000 7.2 310 21:42 09.05.2022
3773 Clouds -2 1017 74 10000 5.14 310 20:21 09.05.2022
3774 Clouds -2 1015 86 10000 7.72 300 18:29 09.05.2022
3775 Clouds -2 1014 86 10000 8.75 300 17:27 09.05.2022
3776 Clouds -2 1013 86 10000 4.12 290 16:21 09.05.2022
3777 Clouds -2 1013 86 10000 5.14 290 15:47 09.05.2022
3778 Clouds -2 1011 86 10000 6.17 290 14:41 09.05.2022
3779 Clouds -2 1011 93 10000 8.75 290 13:59 09.05.2022
3780 Clouds -2 1011 93 10000 8.75 290 13:32 09.05.2022
3781 Clouds -1 1008 93 10000 8.75 300 11:53 09.05.2022
3782 Clouds -1 1007 93 10000 8.23 300 10:50 09.05.2022
3783 Clouds 0 1007 86 10000 7.72 290 10:26 09.05.2022
3784 Mist 0 1004 93 4828 10.29 280 07:57 09.05.2022
3785 Clouds 1 1002 91 10000 8.91 282 05:59 09.05.2022
3786 Snow 0 1001 93 4023 9.77 220 01:59 09.05.2022
3787 Snow 0 1001 93 4828 8.75 210 23:29 08.05.2022
3788 Snow 0 1002 93 6437 10.8 210 22:32 08.05.2022
3789 Snow 0 1002 93 2414 8.75 200 21:24 08.05.2022
3790 Snow 1 1003 93 1609 8.75 180 20:25 08.05.2022
3791 Snow 1 1005 93 4023 8.75 180 19:33 08.05.2022
3792 Snow 0 1006 100 1207 8.23 180 18:40 08.05.2022
3793 Snow 0 1008 93 2012 7.72 180 17:40 08.05.2022
3794 Snow 0 1009 93 2012 7.72 190 16:22 08.05.2022
3795 Snow 0 1011 93 2414 6.69 190 15:22 08.05.2022
3796 Snow 0 1012 93 1609 8.23 210 13:44 08.05.2022
3797 Snow 0 1013 93 6437 6.69 210 11:50 08.05.2022
3798 Snow 0 1013 93 2012 6.69 210 10:26 08.05.2022
3799 Snow 0 1013 93 2816 6.17 210 09:53 08.05.2022
3800 Snow 0 1013 96 203 4.47 215 07:57 08.05.2022
3801 Mist 0 1013 93 4828 5.66 200 06:18 08.05.2022
3802 Snow 0 1014 93 1609 7.72 210 03:22 08.05.2022
3803 Snow 0 1014 93 4828 7.72 220 01:19 08.05.2022
3804 Snow 0 1013 94 1262 6.71 226 23:57 07.05.2022
3805 Snow 0 1013 93 4828 8.23 210 23:32 07.05.2022
3806 Snow 0 1013 93 2816 7.72 210 22:42 07.05.2022
3807 Snow 0 1013 93 2012 6.69 210 21:56 07.05.2022
3808 Snow 0 1013 93 2012 6.69 210 21:21 07.05.2022
3809 Clouds 0 1013 86 10000 9.26 210 20:25 07.05.2022
3810 Clouds 0 1013 86 10000 7.2 200 18:49 07.05.2022
3811 Clouds -1 1013 86 10000 5.14 210 16:34 07.05.2022
3812 Clouds -3 1013 89 1632 5.61 241 14:53 07.05.2022
3813 Clouds -3 1014 86 10000 4.63 290 11:23 07.05.2022
3814 Clouds -3 1013 80 10000 5.66 260 09:44 07.05.2022
3815 Clear -3 1012 80 10000 6.69 270 08:30 07.05.2022
3816 Clear -3 1012 80 10000 8.75 260 07:20 07.05.2022
3817 Clear -2 1012 74 10000 10.29 260 06:42 07.05.2022
3818 Clouds 2 1011 78 10000 7.66 263 03:57 07.05.2022
3819 Clouds -1 1010 86 10000 3.6 220 23:51 06.05.2022
3820 Clouds -2 1010 92 10000 0 0 22:40 06.05.2022
3821 Mist -2 1010 92 3219 1.54 150 21:53 06.05.2022
3822 Mist -2 1010 92 3219 1.54 150 21:29 06.05.2022
3823 Mist -2 1009 93 1207 1.54 240 19:47 06.05.2022
3824 Mist -2 1009 93 1207 1.54 240 19:24 06.05.2022
3825 Clouds -3 1009 86 10000 1.54 300 18:30 06.05.2022
3826 Clear -4 1008 86 10000 2.06 300 17:34 06.05.2022
3827 Clouds -4 1008 86 10000 0 0 15:51 06.05.2022
3828 Clouds -4 1008 86 10000 0 0 15:28 06.05.2022
3829 Clear -2 1007 93 10000 0 0 13:49 06.05.2022
3830 Clear -1 1007 86 10000 1.54 100 12:50 06.05.2022
3831 Clouds -4 1008 91 10000 1.09 61 11:58 06.05.2022
3832 Clear 0 1007 80 10000 0 0 10:41 06.05.2022
3833 Clear 1 1006 80 10000 0 0 09:47 06.05.2022
3834 Clear 1 1006 80 10000 0 0 09:18 06.05.2022
3835 Clear 1 1006 80 10000 2.57 230 07:49 06.05.2022
3836 Clear 2 1006 69 10000 3.6 240 06:26 06.05.2022
3837 Clouds 4 1006 75 10000 3.63 223 02:58 06.05.2022
3838 Clouds 4 1006 75 10000 3.54 223 01:58 06.05.2022
3839 Clear 1 1005 80 10000 2.57 230 22:50 05.05.2022
3840 Clear 1 1005 80 10000 0 0 21:49 05.05.2022
3841 Clear -1 1005 85 10000 2.06 210 20:36 05.05.2022
3842 Clouds 0 1005 82 10000 1.53 35 18:54 05.05.2022
3843 Clear -3 1004 93 10000 1.54 360 16:42 05.05.2022
3844 Clear -2 1003 86 10000 0 0 15:30 05.05.2022
3845 Clear -1 1003 86 10000 0 0 13:30 05.05.2022
3846 Clear -1 1003 86 10000 0 0 12:56 05.05.2022
3847 Clear 0 1002 86 10000 0 0 11:22 05.05.2022
3848 Clear 3 1002 71 10000 0 0 09:40 05.05.2022
3849 Clear 3 1001 70 10000 1.54 220 08:34 05.05.2022
3850 Clear 2 1001 75 10000 3.09 210 06:24 05.05.2022
3851 Clear 1 1001 75 10000 3.6 220 02:25 05.05.2022
3852 Clear 0 1001 79 10000 3.6 230 01:40 05.05.2022
3853 Clouds -1 1001 85 10000 4.12 240 00:43 05.05.2022
3854 Snow 0 1001 80 10000 3.09 260 22:57 04.05.2022
3855 Clouds 1 1001 75 10000 2.06 290 21:59 04.05.2022
3856 Clouds -1 1001 86 10000 1.54 250 21:34 04.05.2022
3857 Snow -3 1001 93 1207 1.54 250 20:52 04.05.2022
3858 Snow -3 1001 93 2816 0 0 20:18 04.05.2022
3859 Snow -2 1001 80 1609 0 0 19:35 04.05.2022
3860 Snow -3 1000 80 1207 0 0 18:42 04.05.2022
3861 Clouds -3 1000 74 10000 0 0 18:18 04.05.2022
3862 Clear -4 1000 75 10000 0 0 16:36 04.05.2022
3863 Clear -4 1000 75 10000 1.54 350 15:32 04.05.2022
3864 Clear -4 1000 75 10000 1.54 20 14:38 04.05.2022
3865 Clear -4 1000 75 10000 1.54 20 14:19 04.05.2022
3866 Clear -4 1000 80 10000 0 0 12:36 04.05.2022
3867 Clear -3 999 74 10000 0 0 11:28 04.05.2022
3868 Clouds -4 1000 79 10000 2.41 17 09:57 04.05.2022
3869 Clear 0 999 60 10000 1.54 90 09:20 04.05.2022
3870 Clear 0 998 55 10000 2.57 160 07:33 04.05.2022
3871 Clear -1 998 55 10000 3.6 190 04:34 04.05.2022
3872 Clear -1 998 55 10000 4.12 220 02:33 04.05.2022
3873 Clear -2 999 45 10000 2.4 351 22:59 03.05.2022
3874 Clear -3 997 50 10000 0 0 21:50 03.05.2022
3875 Clear -3 997 50 10000 0 0 21:23 03.05.2022
3876 Clear -4 997 50 10000 2.06 350 20:39 03.05.2022
3877 Clear -4 997 51 10000 2.06 340 19:21 03.05.2022
3878 Clear -7 997 68 10000 0 0 18:42 03.05.2022
3879 Clear -8 997 68 10000 0 0 17:21 03.05.2022
3880 Clear -8 997 73 10000 2.06 360 15:51 03.05.2022
3881 Clear -7 997 69 10000 3.09 350 14:23 03.05.2022
3882 Clear -6 997 63 10000 4.63 320 12:35 03.05.2022
3883 Clear -6 997 63 10000 4.12 20 11:35 03.05.2022
3884 Clear -4 997 55 10000 3.6 360 10:26 03.05.2022
3885 Clear -3 997 59 10000 4.12 350 08:19 03.05.2022
3886 Clear 0 996 51 10000 9.26 360 06:45 03.05.2022
3887 Clear 2 996 44 10000 8.75 350 01:59 03.05.2022
3888 Clear 2 995 49 10000 7.72 20 23:19 02.05.2022
3889 Clear 1 995 52 10000 6.17 10 22:28 02.05.2022
3890 Clear 1 995 45 10000 5.66 340 21:37 02.05.2022
3891 Clear -1 995 52 10000 6.69 360 19:26 02.05.2022
3892 Clear -2 995 59 10000 6.69 350 18:26 02.05.2022
3893 Clear -3 994 63 10000 7.72 360 17:39 02.05.2022
3894 Clear -2 995 60 10000 7.72 350 16:42 02.05.2022
3895 Clouds -4 997 75 10000 4.75 4 15:41 02.05.2022
3896 Clouds -1 995 64 10000 6.69 360 14:45 02.05.2022
3897 Clouds -1 995 64 10000 5.14 360 13:42 02.05.2022
3898 Clouds 2 995 55 10000 8.75 360 11:41 02.05.2022
3899 Clouds 3 995 60 10000 8.75 350 09:42 02.05.2022
3900 Clouds 3 995 60 10000 10.8 10 08:20 02.05.2022
3901 Clear 1 998 60 10000 5.71 7 06:53 02.05.2022
3902 Clear 6 999 57 10000 10.29 350 00:46 02.05.2022
3903 Clear 6 999 57 10000 10.29 350 00:21 02.05.2022
3904 Clouds 3 1001 72 10000 5.78 15 22:54 01.05.2022
3905 Clear 4 1000 65 10000 10.29 340 21:42 01.05.2022
3906 Clear 4 1000 65 10000 8.75 360 20:36 01.05.2022
3907 Clear 3 1001 70 10000 8.75 340 19:22 01.05.2022
3908 Clear 3 1001 66 10000 9.26 350 18:52 01.05.2022
3909 Clear 3 1001 70 10000 7.72 360 17:49 01.05.2022
3910 Clear 3 1002 70 10000 10.29 340 16:37 01.05.2022
3911 Clear 4 1002 66 10000 8.75 20 15:51 01.05.2022
3912 Clouds 5 1002 61 10000 11.32 20 14:45 01.05.2022
3913 Clear 5 1003 61 10000 10.29 10 12:40 01.05.2022
3914 Clear 6 1004 62 10000 6.69 20 10:22 01.05.2022
3915 Clear 7 1004 58 10000 4.63 350 08:50 01.05.2022
3916 Clear 9 1004 54 10000 6.69 20 06:50 01.05.2022
3917 Clouds 10 1007 56 10000 4.36 40 01:56 01.05.2022
3918 Clear 9 1006 43 10000 2.57 70 22:51 30.04.2022
3919 Clouds 8 1006 50 10000 4.12 50 21:33 30.04.2022
3920 Clouds 7 1006 54 10000 5.14 40 20:19 30.04.2022
3921 Clouds 6 1006 53 10000 3.6 60 19:25 30.04.2022
3922 Clouds 5 1006 61 10000 5.66 70 17:31 30.04.2022
3923 Clouds 4 1009 74 10000 4.12 41 15:53 30.04.2022
3924 Clouds 6 1006 57 10000 5.14 60 15:18 30.04.2022
3925 Clouds 2 1008 79 10000 3.82 48 13:59 30.04.2022
3926 Clouds 3 1009 75 10000 5.06 45 11:58 30.04.2022
3927 Clouds 6 1007 57 10000 4.63 50 11:31 30.04.2022
3928 Clouds 6 1007 57 10000 4.63 50 10:23 30.04.2022
3929 Clear 6 1008 62 10000 5.14 70 07:47 30.04.2022
3930 Clear 6 1008 61 10000 7.72 90 04:25 30.04.2022
3931 Clouds 5 1011 76 10000 6.99 99 23:57 29.04.2022
3932 Clouds 5 1011 77 10000 8.04 100 22:56 29.04.2022
3933 Clouds 4 1011 77 10000 8.48 101 21:56 29.04.2022
3934 Clear 4 1010 70 10000 7.2 90 21:26 29.04.2022
3935 Clouds 4 1010 70 10000 6.69 70 20:24 29.04.2022
3936 Clouds 4 1011 70 10000 6.17 70 19:28 29.04.2022
3937 Clouds 4 1011 71 10000 5.14 70 17:35 29.04.2022
3938 Clouds 5 1011 71 10000 4.63 70 16:42 29.04.2022
3939 Clouds 3 1012 81 10000 3.09 50 14:37 29.04.2022
3940 Clouds 4 1012 75 10000 4.63 50 13:42 29.04.2022
3941 Clouds 3 1012 81 10000 2.06 360 12:38 29.04.2022
3942 Clouds 2 1012 93 10000 2.06 30 10:44 29.04.2022
3943 Mist 2 1012 93 9656 2.57 80 07:57 29.04.2022
3944 Rain 2 1012 93 9656 2.57 80 07:26 29.04.2022
3945 Clouds 4 1011 75 10000 5.14 100 06:32 29.04.2022
3946 Rain 3 1011 87 10000 7.72 90 02:23 29.04.2022
3947 Clouds 3 1013 84 92 5.12 77 23:58 28.04.2022
3948 Clouds 3 1011 75 10000 7.72 100 23:26 28.04.2022
3949 Clouds 4 1011 75 10000 7.72 70 22:33 28.04.2022
3950 Clouds 4 1011 75 10000 5.14 70 21:43 28.04.2022
3951 Clouds 2 1011 93 10000 4.63 70 20:48 28.04.2022
3952 Snow 2 1012 90 54 4.68 72 19:55 28.04.2022
3953 Clouds 2 1011 87 10000 5.14 70 19:24 28.04.2022
3954 Rain 2 1012 87 10000 5.66 70 18:52 28.04.2022
3955 Snow 1 1012 92 3280 5.55 66 17:54 28.04.2022
3956 Clouds 3 1012 76 10000 7.2 70 16:52 28.04.2022
3957 Clouds 3 1012 75 10000 7.2 70 16:20 28.04.2022
3958 Clouds 2 1012 80 10000 5.66 60 15:49 28.04.2022
3959 Clouds 2 1012 80 10000 5.66 60 15:49 28.04.2022
3960 Snow 2 1013 87 211 3.32 31 14:58 28.04.2022
3961 Clouds 2 1013 80 10000 4.12 70 13:37 28.04.2022
3962 Rain 2 1014 76 10000 6.17 40 12:30 28.04.2022
3963 Snow 1 1014 75 4828 3.6 40 11:37 28.04.2022
3964 Clouds 1 1014 75 10000 4.63 50 10:26 28.04.2022
3965 Clear 2 1014 70 10000 5.66 40 09:50 28.04.2022
3966 Clouds 3 1015 70 10000 4.12 40 07:42 28.04.2022
3967 Clouds 4 1015 66 10000 4.63 40 06:51 28.04.2022
3968 Clouds 2 1016 77 10000 0.52 72 05:53 28.04.2022
3969 Clouds 2 1016 80 10000 2.57 220 04:43 28.04.2022
3970 Clouds 2 1017 75 10000 2.57 230 02:41 28.04.2022
3971 Clear 2 1018 69 10000 3.6 140 23:32 27.04.2022
3972 Clear 1 1019 74 10000 4.12 100 22:20 27.04.2022
3973 Clear 0 1019 85 10000 0 0 21:43 27.04.2022
3974 Clear -1 1019 86 10000 0 0 20:45 27.04.2022
3975 Clear 0 1020 81 10000 1.53 70 19:57 27.04.2022
3976 Mist -3 1019 93 6437 0 0 19:36 27.04.2022
3977 Clear -3 1019 93 10000 0 0 18:41 27.04.2022
3978 Clear -3 1019 93 10000 0 0 18:20 27.04.2022
3979 Clear -3 1020 93 10000 0 0 16:18 27.04.2022
3980 Clear -3 1021 93 10000 0 0 13:21 27.04.2022
3981 Clear -3 1022 93 10000 0 0 11:26 27.04.2022
3982 Clear -1 1022 86 10000 0 0 10:50 27.04.2022
3983 Clear 0 1022 86 10000 2.06 260 08:28 27.04.2022
3984 Clear 1 1022 80 10000 3.6 250 06:42 27.04.2022
3985 Clear 2 1023 80 10000 2.57 240 02:35 27.04.2022
3986 Clear 2 1023 80 10000 3.09 240 01:24 27.04.2022
3987 Clear 1 1023 79 10000 3.09 210 00:34 27.04.2022
3988 Clear 0 1023 85 10000 2.06 220 23:24 26.04.2022
3989 Clear 0 1023 85 10000 0 0 22:51 26.04.2022
3990 Clear 0 1023 85 10000 0 0 22:31 26.04.2022
3991 Clear -2 1022 92 10000 0 0 21:25 26.04.2022
3992 Clear -2 1022 92 10000 0 0 20:39 26.04.2022
3993 Clear -2 1022 86 10000 0 0 19:45 26.04.2022
3994 Clear -2 1022 86 10000 0 0 19:26 26.04.2022
3995 Clear -4 1022 100 10000 2.06 270 18:39 26.04.2022
3996 Clear -4 1022 93 10000 2.57 280 17:42 26.04.2022
3997 Clear -3 1022 95 10000 1.57 321 15:59 26.04.2022
3998 Clouds -2 1022 95 10000 1.26 301 13:55 26.04.2022
3999 Clear -2 1022 100 10000 1.54 320 13:28 26.04.2022
4000 Clear -1 1021 93 10000 2.57 320 11:29 26.04.2022
4001 Clear -1 1021 93 10000 3.09 300 10:30 26.04.2022
4002 Clouds 1 1020 80 10000 4.12 260 08:38 26.04.2022
4003 Clouds 1 1020 80 10000 4.12 240 05:29 26.04.2022
4004 Clouds 1 1020 80 10000 3.09 240 04:23 26.04.2022
4005 Clouds 1 1020 75 10000 1.54 160 00:52 26.04.2022
4006 Clouds -1 1020 86 10000 1.54 130 23:51 25.04.2022
4007 Clouds -1 1019 93 10000 0 0 22:18 25.04.2022
4008 Clouds -1 1019 93 10000 2.06 100 21:33 25.04.2022
4009 Mist -1 1019 93 4828 2.06 120 19:58 25.04.2022
4010 Clouds -1 1019 93 10000 3.09 140 18:52 25.04.2022
4011 Clouds -1 1018 93 10000 2.57 140 17:40 25.04.2022
4012 Clouds -1 1018 93 10000 2.57 140 17:40 25.04.2022
4013 Clouds -1 1018 93 10000 2.06 120 16:50 25.04.2022
4014 Mist -1 1018 93 4828 1.54 150 15:23 25.04.2022
4015 Mist -1 1018 93 2414 2.06 190 14:34 25.04.2022
4016 Clouds -1 1018 100 10000 2.06 160 13:21 25.04.2022
4017 Fog 0 1017 93 805 1.54 150 10:44 25.04.2022
4018 Clouds 0 1016 93 10000 2.06 160 09:42 25.04.2022
4019 Clouds 1 1016 92 4495 1.32 143 07:56 25.04.2022
4020 Clouds 1 1015 89 7312 1.51 144 05:55 25.04.2022
4021 Clouds 4 1012 87 10000 2.57 60 01:30 25.04.2022
4022 Clouds 4 1012 86 3354 2.13 83 23:57 24.04.2022
4023 Clouds 3 1011 93 10000 2.57 40 23:28 24.04.2022
4024 Rain 2 1010 93 10000 3.09 110 22:39 24.04.2022
4025 Clouds 3 1011 89 474 1.92 64 21:56 24.04.2022
4026 Rain 2 1010 93 10000 2.06 110 21:22 24.04.2022
4027 Rain 2 1010 93 10000 2.06 110 21:22 24.04.2022
4028 Clouds 3 1009 87 10000 1.54 70 20:46 24.04.2022
4029 Clouds 3 1009 87 10000 1.54 70 20:21 24.04.2022
4030 Clouds 2 1008 93 10000 0 0 18:44 24.04.2022
4031 Snow 1 1009 92 106 1.64 48 17:54 24.04.2022
4032 Rain 2 1008 93 10000 0 0 17:21 24.04.2022
4033 Snow 1 1009 92 122 1.94 40 16:55 24.04.2022
4034 Rain 3 1008 87 10000 2.57 80 16:29 24.04.2022
4035 Rain 3 1008 87 10000 3.09 70 15:43 24.04.2022
4036 Rain 2 1008 80 10000 0 0 14:36 24.04.2022
4037 Rain 2 1008 80 10000 0 0 13:27 24.04.2022
4038 Rain 2 1008 80 10000 0 0 13:27 24.04.2022
4039 Clouds 1 1009 90 10000 0.64 118 12:56 24.04.2022
4040 Clouds 3 1007 75 10000 0 0 11:50 24.04.2022
4041 Clouds 3 1007 75 10000 3.6 320 10:48 24.04.2022
4042 Clouds 4 1007 70 10000 4.12 350 09:47 24.04.2022
4043 Clouds 5 1007 66 10000 3.6 350 08:18 24.04.2022
4044 Clouds 6 1006 57 10000 0 0 05:45 24.04.2022
4045 Clouds 6 1006 61 10000 3.6 320 02:48 24.04.2022
4046 Clouds 6 1006 56 10000 3.6 340 00:45 24.04.2022
4047 Clouds 4 1006 65 10000 4.12 330 23:52 23.04.2022
4048 Clouds 4 1006 65 10000 4.12 330 23:25 23.04.2022
4049 Clouds 4 1006 70 10000 2.57 330 22:39 23.04.2022
4050 Clouds 4 1006 65 10000 0 0 21:41 23.04.2022
4051 Clouds 4 1006 65 10000 0 0 21:22 23.04.2022
4052 Clouds 2 1007 76 10000 1.41 48 19:56 23.04.2022
4053 Clouds 1 1005 75 10000 0 0 19:20 23.04.2022
4054 Clouds 1 1006 81 10000 1.52 33 18:54 23.04.2022
4055 Clouds 1 1005 75 10000 0 0 18:32 23.04.2022
4056 Clouds 2 1004 70 10000 3.6 350 17:46 23.04.2022
4057 Clouds 2 1004 70 10000 3.09 360 16:45 23.04.2022
4058 Clouds 1 1004 75 10000 3.09 360 15:51 23.04.2022
4059 Clouds 1 1004 75 10000 0 0 13:31 23.04.2022
4060 Clouds 2 1003 75 10000 0 0 11:29 23.04.2022
4061 Clear 3 1003 66 10000 0 0 09:41 23.04.2022
4062 Clear 3 1002 70 10000 2.06 350 08:18 23.04.2022
4063 Clouds 4 1002 69 10000 1.12 91 03:57 23.04.2022
4064 Clear 5 1001 53 10000 3.6 110 02:36 23.04.2022
4065 Clear 6 1000 45 10000 3.6 60 23:34 22.04.2022
4066 Clear 5 1000 46 10000 5.14 30 22:43 22.04.2022
4067 Clear 4 1001 54 10000 1.9 51 21:56 22.04.2022
4068 Clear 4 1001 54 10000 1.9 51 21:56 22.04.2022
4069 Clear 4 1001 54 10000 1.9 51 21:56 22.04.2022
4070 Clear 4 1001 54 10000 1.9 51 21:56 22.04.2022
4071 Clear 3 1000 56 10000 6.69 340 21:38 22.04.2022
4072 Clear 2 999 60 10000 5.14 340 20:30 22.04.2022
4073 Clear 1 999 60 10000 6.69 350 19:25 22.04.2022
4074 Clear -2 1001 76 10000 2.8 30 18:56 22.04.2022
4075 Clear 1 999 55 10000 5.66 350 18:24 22.04.2022
4076 Clear -1 999 64 10000 5.14 330 16:54 22.04.2022
4077 Clear -3 1001 80 10000 3.27 20 15:58 22.04.2022
4078 Clear -1 999 69 10000 5.14 330 15:24 22.04.2022
4079 Clear 1 1000 60 10000 4.12 30 14:38 22.04.2022
4080 Clear 2 1000 55 10000 6.17 30 13:41 22.04.2022
4081 Clear 2 1000 55 10000 5.14 30 12:36 22.04.2022
4082 Clear 1 1000 69 10000 3.6 30 11:23 22.04.2022
4083 Clear -3 1002 71 10000 2.92 30 10:56 22.04.2022
4084 Clear 2 1000 64 10000 5.66 40 10:32 22.04.2022
4085 Clear -2 1002 71 10000 3.08 26 09:54 22.04.2022
4086 Clear -2 1002 73 10000 3.14 25 08:56 22.04.2022
4087 Clear 3 1000 65 10000 4.12 30 08:36 22.04.2022
4088 Clear 5 1001 52 10000 5.14 20 06:38 22.04.2022
4089 Clear 6 1004 54 10000 2.78 55 00:56 22.04.2022
4090 Clear 4 1003 52 10000 4.12 40 23:31 21.04.2022
4091 Clear 4 1004 52 10000 4.12 50 22:43 21.04.2022
4092 Clear 3 1004 56 10000 3.6 40 21:36 21.04.2022
4093 Clear 1 1004 60 10000 4.12 330 20:30 21.04.2022
4094 Clear -1 1005 64 10000 4.12 360 18:49 21.04.2022
4095 Clear -1 1005 65 10000 4.12 360 18:26 21.04.2022
4096 Clear -1 1005 60 10000 4.12 10 17:19 21.04.2022
4097 Clear -2 1006 65 10000 2.57 360 15:24 21.04.2022
4098 Clear -2 1007 69 10000 2.57 360 14:52 21.04.2022
4099 Clear -2 1007 69 10000 2.57 360 14:18 21.04.2022
4100 Clear -3 1007 74 10000 2.06 20 13:21 21.04.2022
4101 Clear -2 1007 70 10000 2.06 360 12:22 21.04.2022
4102 Clear -1 1008 74 10000 0 0 09:33 21.04.2022
4103 Clear 1 1008 61 10000 3.09 90 08:38 21.04.2022
4104 Clear 2 1009 55 10000 2.57 80 06:36 21.04.2022
4105 Clear 2 1009 64 10000 2.57 110 03:39 21.04.2022
4106 Clear 2 1009 64 10000 2.57 110 03:20 21.04.2022
4107 Clear 2 1010 69 10000 3.6 140 02:44 21.04.2022
4108 Clear 3 1010 48 10000 2.57 70 00:34 21.04.2022
4109 Clear 2 1010 51 10000 2.06 110 23:25 20.04.2022
4110 Clear 2 1011 62 10000 1.76 82 22:59 20.04.2022
4111 Clear 2 1011 62 10000 1.76 82 22:59 20.04.2022
4112 Clear 3 1010 48 10000 2.06 80 22:34 20.04.2022
4113 Clear 1 1010 64 10000 0 0 21:43 20.04.2022
4114 Clear -2 1010 74 10000 0 0 20:44 20.04.2022
4115 Clear -2 1010 74 10000 0 0 20:44 20.04.2022
4116 Clear -2 1010 74 10000 0 0 20:44 20.04.2022
4117 Clear -2 1010 74 10000 0 0 20:21 20.04.2022
4118 Clear -3 1009 74 10000 0 0 19:44 20.04.2022
4119 Clear -5 1009 80 10000 0 0 18:46 20.04.2022
4120 Clear -5 1009 80 10000 0 0 17:49 20.04.2022
4121 Clear -4 1009 74 10000 1.54 30 16:39 20.04.2022
4122 Clear -4 1009 74 10000 0 0 15:26 20.04.2022
4123 Clear -3 1009 80 10000 0 0 12:22 20.04.2022
4124 Clear -2 1009 69 10000 0 0 11:42 20.04.2022
4125 Clear -1 1009 65 10000 2.06 10 10:43 20.04.2022
4126 Clear -1 1008 69 10000 2.57 360 09:28 20.04.2022
4127 Clear 1 1008 75 10000 1.54 10 08:29 20.04.2022
4128 Clear 2 1008 69 10000 1.54 290 07:53 20.04.2022
4129 Clear 2 1008 64 10000 2.57 290 06:18 20.04.2022
4130 Clear 4 1007 38 10000 2.06 120 01:37 20.04.2022
4131 Clear 3 1007 52 10000 2.57 350 00:21 20.04.2022
4132 Clear 3 1007 49 10000 1.61 347 22:59 19.04.2022
4133 Clear 3 1007 49 10000 1.61 347 22:59 19.04.2022
4134 Clear 2 1006 51 10000 4.63 360 22:23 19.04.2022
4135 Clear 2 1007 51 10000 1.74 4 21:53 19.04.2022
4136 Clear 1 1006 53 10000 2.13 14 20:59 19.04.2022
4137 Clear 0 1006 55 10000 4.63 340 20:37 19.04.2022
4138 Clear -1 1005 55 10000 6.17 350 19:32 19.04.2022
4139 Clear -3 1005 63 10000 5.66 350 18:30 19.04.2022
4140 Clear -2 1005 59 10000 4.12 340 16:50 19.04.2022
4141 Clear -2 1005 60 10000 4.12 340 16:25 19.04.2022
4142 Clear -7 1006 84 10000 2.8 22 15:59 19.04.2022
4143 Clear -2 1005 64 10000 4.63 340 14:46 19.04.2022
4144 Clear -6 1006 86 10000 2.9 24 12:53 19.04.2022
4145 Clear -1 1005 69 10000 4.63 40 12:34 19.04.2022
4146 Clear 0 1005 64 10000 4.63 40 11:35 19.04.2022
4147 Clear 1 1005 69 10000 4.12 50 09:51 19.04.2022
4148 Clear 2 1005 69 10000 5.14 50 07:49 19.04.2022
4149 Clouds 3 1007 65 10000 5.14 70 04:26 19.04.2022
4150 Clouds 2 1008 75 10000 7.2 90 02:39 19.04.2022
4151 Clouds 2 1009 69 10000 6.69 90 00:23 19.04.2022
4152 Clouds 1 1010 78 10000 6.82 88 22:54 18.04.2022
4153 Clouds 1 1010 69 10000 6.69 80 21:28 18.04.2022
4154 Clouds 1 1011 69 10000 8.75 70 20:40 18.04.2022
4155 Clouds 1 1011 69 10000 8.75 70 20:22 18.04.2022
4156 Clouds 1 1011 65 10000 8.23 80 19:40 18.04.2022
4157 Clouds 1 1011 61 10000 8.23 70 18:49 18.04.2022
4158 Clouds 0 1012 64 10000 6.69 70 17:49 18.04.2022
4159 Clouds 0 1012 64 10000 6.69 70 17:49 18.04.2022
4160 Clouds 0 1012 64 10000 6.69 70 17:49 18.04.2022
4161 Clouds 0 1012 65 10000 6.69 70 17:20 18.04.2022
4162 Clouds 0 1012 65 10000 6.69 70 16:40 18.04.2022
4163 Clouds 0 1013 60 10000 5.66 70 15:41 18.04.2022
4164 Clouds 1 1013 61 10000 7.72 70 14:27 18.04.2022
4165 Clouds 1 1013 64 10000 8.23 70 13:25 18.04.2022
4166 Clouds 1 1013 69 10000 7.72 80 12:27 18.04.2022
4167 Clouds 0 1014 76 10000 6.32 72 10:59 18.04.2022
4168 Clouds 1 1014 69 10000 6.69 70 10:18 18.04.2022
4169 Clouds 0 1014 74 10000 6.17 80 09:30 18.04.2022
4170 Clouds 1 1014 75 10000 6.69 80 07:29 18.04.2022
4171 Clouds 0 1016 83 2719 6.59 92 03:57 18.04.2022
4172 Snow -1 1016 86 10000 8.23 100 23:41 17.04.2022
4173 Snow -1 1016 86 4828 8.75 100 22:39 17.04.2022
4174 Snow -2 1016 93 1609 8.75 100 21:39 17.04.2022
4175 Snow -2 1016 93 1207 8.75 100 21:19 17.04.2022
4176 Snow -2 1016 93 3219 8.23 100 20:25 17.04.2022
4177 Snow -1 1016 80 10000 7.72 100 19:21 17.04.2022
4178 Snow -1 1016 80 6437 7.2 80 17:38 17.04.2022
4179 Clouds 0 1017 69 10000 8.75 80 15:37 17.04.2022
4180 Snow 0 1017 77 8498 7.64 81 14:53 17.04.2022
4181 Clouds 0 1017 74 10000 8.23 90 13:44 17.04.2022
4182 Clouds 0 1018 78 10000 8.02 91 12:56 17.04.2022
4183 Clouds 0 1017 74 10000 7.72 80 11:24 17.04.2022
4184 Clouds 0 1017 74 10000 7.2 90 10:38 17.04.2022
4185 Clouds 0 1017 74 10000 7.2 90 10:19 17.04.2022
4186 Clouds 0 1017 74 10000 7.72 90 09:23 17.04.2022
4187 Clouds 1 1016 69 10000 7.72 90 08:41 17.04.2022
4188 Clouds 1 1016 69 10000 7.72 90 06:52 17.04.2022
4189 Clear 1 1016 75 10000 8.23 90 03:20 17.04.2022
4190 Clouds 1 1015 69 10000 9.26 90 00:53 17.04.2022
4191 Clouds 0 1015 74 10000 9.77 90 23:48 16.04.2022
4192 Clouds 0 1014 80 10000 7.72 80 21:55 16.04.2022
4193 Clouds -1 1014 86 10000 8.75 80 21:23 16.04.2022
4194 Snow -1 1013 86 10000 9.26 80 19:33 16.04.2022
4195 Clouds -1 1014 87 10000 8.06 87 18:54 16.04.2022
4196 Clouds -1 1012 80 10000 8.23 70 17:38 16.04.2022
4197 Clouds 0 1012 74 10000 8.75 80 16:31 16.04.2022
4198 Clouds 0 1011 74 10000 8.75 80 15:26 16.04.2022
4199 Clouds 0 1011 80 10000 8.75 70 14:47 16.04.2022
4200 Clouds 0 1011 82 7317 7.42 80 13:55 16.04.2022
4201 Clouds 1 1011 75 10000 8.75 70 13:25 16.04.2022
4202 Clouds 1 1011 84 1142 8.15 83 11:58 16.04.2022
4203 Clouds 1 1009 75 10000 8.75 90 10:37 16.04.2022
4204 Clouds 1 1008 80 10000 8.23 80 09:39 16.04.2022
4205 Clouds 1 1008 80 10000 9.26 80 08:54 16.04.2022
4206 Clouds 1 1007 75 10000 10.8 90 07:31 16.04.2022
4207 Snow 1 1007 80 10000 9.77 80 06:22 16.04.2022
4208 Clouds 1 1007 80 10000 10.14 97 01:53 16.04.2022
4209 Clouds 1 1006 80 10000 9.77 80 00:19 16.04.2022
4210 Snow 1 1005 75 4828 10.29 80 22:52 15.04.2022
4211 Snow 1 1005 75 4828 10.29 80 22:31 15.04.2022
4212 Snow 2 1005 69 10000 9.77 80 21:35 15.04.2022
4213 Clouds 2 1005 76 10000 11.42 92 20:55 15.04.2022
4214 Clouds 2 1004 69 10000 11.83 100 19:52 15.04.2022
4215 Clouds 2 1004 69 10000 11.83 100 19:33 15.04.2022
4216 Clouds 2 1003 69 10000 10.29 80 18:45 15.04.2022
4217 Clouds 2 1003 69 10000 10.29 80 18:23 15.04.2022
4218 Clouds 3 1004 65 10000 9.26 80 17:29 15.04.2022
4219 Clouds 3 1003 65 10000 11.32 70 16:26 15.04.2022
4220 Clouds 3 1005 73 10000 11.95 91 15:54 15.04.2022
4221 Clouds 3 1004 65 10000 11.83 80 14:22 15.04.2022
4222 Clouds 4 1004 60 10000 12.35 70 13:23 15.04.2022
4223 Clear 4 1004 61 10000 10.29 70 12:40 15.04.2022
4224 Clouds 3 1006 74 10000 10.79 82 11:54 15.04.2022
4225 Clouds 4 1006 61 10000 8.23 70 10:49 15.04.2022
4226 Clouds 4 1006 60 10000 8.23 70 10:21 15.04.2022
4227 Clouds 4 1007 60 10000 8.23 70 09:24 15.04.2022
4228 Clouds 3 1008 74 10000 8.72 79 08:57 15.04.2022
4229 Clouds 3 1010 81 10000 8.12 90 06:55 15.04.2022
4230 Clouds 3 1011 77 10000 8.22 87 05:56 15.04.2022
4231 Clouds 3 1015 75 10000 7.2 70 01:33 15.04.2022
4232 Clouds 3 1017 75 10000 4.63 60 23:30 14.04.2022
4233 Rain 3 1017 75 10000 3.6 70 22:46 14.04.2022
4234 Rain 3 1017 75 10000 3.6 70 22:27 14.04.2022
4235 Rain 3 1017 75 10000 3.6 70 22:27 14.04.2022
4236 Rain 3 1017 75 10000 3.6 70 21:54 14.04.2022
4237 Rain 1 1019 86 10000 5.66 80 20:35 14.04.2022
4238 Rain 1 1019 93 10000 4.63 80 19:22 14.04.2022
4239 Snow 1 1020 94 92 4.61 77 17:58 14.04.2022
4240 Mist 1 1020 93 9656 4.12 80 17:27 14.04.2022
4241 Rain 1 1020 93 9656 5.66 80 16:33 14.04.2022
4242 Clouds 1 1021 93 10000 5.66 80 14:23 14.04.2022
4243 Rain 1 1021 100 8047 5.14 110 13:31 14.04.2022
4244 Mist 1 1021 100 6437 5.14 100 12:42 14.04.2022
4245 Mist 1 1021 100 6437 5.14 100 12:22 14.04.2022
4246 Rain 1 1021 93 9656 5.66 110 11:21 14.04.2022
4247 Rain 1 1021 86 10000 5.14 100 10:36 14.04.2022
4248 Snow 1 1021 91 38 5.27 92 09:54 14.04.2022
4249 Rain 2 1021 76 10000 6.69 80 08:39 14.04.2022
4250 Clouds 2 1021 75 10000 5.14 80 06:50 14.04.2022
4251 Clouds 2 1022 69 10000 6.17 110 02:45 14.04.2022
4252 Clouds 3 1023 60 10000 5.66 90 22:52 13.04.2022
4253 Clear 3 1023 60 10000 5.14 80 21:44 13.04.2022
4254 Clear 2 1022 60 10000 5.66 70 20:53 13.04.2022
4255 Clear 2 1022 60 10000 5.66 70 20:22 13.04.2022
4256 Clear 1 1023 64 10000 3.09 60 19:23 13.04.2022
4257 Clouds -9 1023 88 10000 2.96 44 17:55 13.04.2022
4258 Clouds -9 1024 88 10000 2.48 46 17:23 13.04.2022
4259 Clear 1 1023 64 10000 4.12 80 16:33 13.04.2022
4260 Clear 2 1023 60 10000 5.14 70 15:32 13.04.2022
4261 Clear 3 1024 56 10000 5.14 80 14:50 13.04.2022
4262 Clear 3 1024 56 10000 5.14 80 14:18 13.04.2022
4263 Clear 3 1024 60 10000 4.12 70 13:19 13.04.2022
4264 Clouds 3 1024 65 10000 4.63 60 12:20 13.04.2022
4265 Clouds 4 1024 60 10000 4.63 70 10:47 13.04.2022
4266 Clouds -3 1025 91 10000 2.79 49 08:58 13.04.2022
4267 Clouds 2 1025 75 10000 5.14 30 08:33 13.04.2022
4268 Clouds 3 1025 70 10000 4.12 40 06:51 13.04.2022
4269 Clouds 3 1025 70 10000 4.12 40 06:25 13.04.2022
4270 Clouds 3 1025 75 103 1.87 39 04:55 13.04.2022
4271 Clouds 2 1027 75 10000 4.63 30 00:20 13.04.2022
4272 Clouds 2 1027 69 10000 3.6 50 23:21 12.04.2022
4273 Rain 2 1027 74 228 2.19 53 21:57 12.04.2022
4274 Clouds 1 1027 75 10000 1.54 120 20:51 12.04.2022
4275 Clouds 1 1027 75 10000 1.54 120 20:33 12.04.2022
4276 Clouds 0 1027 74 10000 2.06 30 19:48 12.04.2022
4277 Clouds 0 1027 74 10000 2.06 30 19:29 12.04.2022
4278 Clouds -3 1027 89 10000 2.1 58 17:59 12.04.2022
4279 Clouds -4 1027 88 10000 2.16 53 16:58 12.04.2022
4280 Clouds 1 1027 69 10000 3.6 50 16:19 12.04.2022
4281 Clouds 1 1027 69 10000 2.57 40 15:26 12.04.2022
4282 Clouds 1 1027 69 10000 0 0 14:21 12.04.2022
4283 Clouds 0 1027 74 10000 3.09 20 13:28 12.04.2022
4284 Clouds 0 1028 74 10000 2.06 20 12:44 12.04.2022
4285 Clouds 0 1028 74 10000 2.57 40 11:42 12.04.2022
4286 Clouds 1 1028 69 10000 3.09 40 10:30 12.04.2022
4287 Clouds -5 1028 87 10000 2.62 56 08:54 12.04.2022
4288 Clouds -5 1028 87 10000 2.62 56 08:54 12.04.2022
4289 Clouds 0 1028 69 10000 4.63 90 07:51 12.04.2022
4290 Clear 1 1029 69 10000 3.09 80 05:49 12.04.2022
4291 Clear 1 1029 69 10000 4.63 80 04:46 12.04.2022
4292 Clear -1 1032 69 10000 7.72 80 23:49 11.04.2022
4293 Clear -1 1032 69 10000 8.23 70 22:44 11.04.2022
4294 Clear -1 1033 69 10000 7.2 70 21:37 11.04.2022
4295 Clouds -2 1032 78 10000 3.19 66 20:54 11.04.2022
4296 Clear -2 1033 69 10000 6.69 70 20:28 11.04.2022
4297 Clear -2 1034 69 10000 7.2 70 19:36 11.04.2022
4298 Clear -2 1034 69 10000 7.2 70 19:18 11.04.2022
4299 Clear -2 1034 69 10000 7.72 70 18:40 11.04.2022
4300 Clouds -8 1033 89 10000 3.03 47 17:56 11.04.2022
4301 Clouds -8 1034 91 10000 2.98 48 16:54 11.04.2022
4302 Clear -2 1036 69 10000 7.2 70 15:24 11.04.2022
4303 Clear -3 1037 75 10000 4.12 70 13:51 11.04.2022
4304 Clear -3 1038 75 10000 4.63 60 12:43 11.04.2022
4305 Clear -3 1038 75 10000 4.63 60 12:22 11.04.2022
4306 Clouds -10 1038 91 10000 2.8 55 10:56 11.04.2022
4307 Clouds -10 1038 92 10000 2.76 53 09:58 11.04.2022
4308 Clear -3 1039 80 10000 3.6 70 08:24 11.04.2022
4309 Clear -1 1040 86 10000 2.57 100 05:26 11.04.2022
4310 Clouds 0 1041 80 10000 0 0 00:49 11.04.2022
4311 Clouds -1 1040 86 10000 1.54 360 22:33 10.04.2022
4312 Clouds -1 1040 85 10000 0.57 228 21:54 10.04.2022
4313 Clouds -1 1039 86 10000 2.06 260 21:26 10.04.2022
4314 Clouds -2 1039 93 10000 2.06 310 20:21 10.04.2022
4315 Clouds -2 1039 93 10000 6.17 220 19:37 10.04.2022
4316 Clouds -2 1038 86 10000 3.09 280 18:50 10.04.2022
4317 Clouds -2 1038 86 10000 3.09 280 18:27 10.04.2022
4318 Clouds -2 1038 86 10000 3.09 230 17:46 10.04.2022
4319 Clouds -7 1038 100 114 1.16 261 16:59 10.04.2022
4320 Clouds -2 1037 93 10000 4.12 210 15:41 10.04.2022
4321 Clouds -2 1037 93 10000 5.14 220 14:42 10.04.2022
4322 Clouds -2 1037 93 10000 5.14 220 14:42 10.04.2022
4323 Clouds -2 1037 93 10000 6.17 210 13:44 10.04.2022
4324 Clouds -1 1036 86 10000 6.17 220 12:32 10.04.2022
4325 Clouds -1 1035 86 10000 7.2 220 11:44 10.04.2022
4326 Clouds -1 1035 86 10000 7.2 220 11:18 10.04.2022
4327 Clouds -1 1035 86 10000 7.72 220 10:34 10.04.2022
4328 Mist -1 1034 86 9656 7.72 220 09:41 10.04.2022
4329 Mist -1 1034 93 6437 6.69 220 08:28 10.04.2022
4330 Clouds -1 1033 93 2706 5.53 223 07:57 10.04.2022
4331 Snow 0 1032 94 1781 5.72 222 06:59 10.04.2022
4332 Snow -1 1031 93 3219 3.6 240 03:40 10.04.2022
4333 Snow -1 1030 93 2012 0 0 02:19 10.04.2022
4334 Snow -2 1029 90 95 0.16 208 23:53 09.04.2022
4335 Mist -4 1028 86 1609 4.63 110 22:56 09.04.2022
4336 Mist -4 1028 86 1609 4.63 110 22:33 09.04.2022
4337 Mist -4 1028 86 1609 4.12 120 21:19 09.04.2022
4338 Snow -5 1028 93 1609 3.6 100 20:30 09.04.2022
4339 Snow -5 1028 93 1609 4.12 120 19:57 09.04.2022
4340 Snow -5 1028 93 1609 4.12 120 19:39 09.04.2022
4341 Snow -6 1027 93 4828 3.09 140 18:23 09.04.2022
4342 Clouds -5 1027 93 10000 3.09 170 17:49 09.04.2022
4343 Snow -7 1027 92 93 1.85 124 16:56 09.04.2022
4344 Clouds -6 1027 100 10000 3.09 180 16:38 09.04.2022
4345 Clouds -5 1026 93 10000 3.09 180 15:49 09.04.2022
4346 Clouds -5 1026 93 10000 3.09 180 15:49 09.04.2022
4347 Clouds -5 1026 93 10000 3.09 180 15:49 09.04.2022
4348 Clouds -5 1026 93 10000 4.12 170 15:25 09.04.2022
4349 Clouds -6 1026 93 10000 4.63 170 14:25 09.04.2022
4350 Clouds -6 1026 93 10000 5.66 170 13:26 09.04.2022
4351 Snow -6 1025 86 8047 6.17 160 12:54 09.04.2022
4352 Snow -6 1025 86 3219 3.6 140 11:45 09.04.2022
4353 Mist -6 1025 86 2414 5.14 170 10:51 09.04.2022
4354 Snow -8 1025 86 1609 3.6 100 10:18 09.04.2022
4355 Snow -9 1025 86 1609 3.09 70 09:22 09.04.2022
4356 Snow -10 1025 85 2012 2.06 80 08:18 09.04.2022
4357 Snow -9 1024 86 4828 4.63 180 04:37 09.04.2022
4358 Snow -11 1024 85 3219 5.14 210 00:34 09.04.2022
4359 Snow -12 1024 85 1609 6.69 210 23:23 08.04.2022
4360 Snow -13 1023 78 3219 4.12 240 21:49 08.04.2022
4361 Snow -14 1022 78 9656 5.14 230 20:43 08.04.2022
4362 Snow -14 1021 78 3219 5.14 230 19:47 08.04.2022
4363 Snow -16 1021 85 3219 0 0 18:46 08.04.2022
4364 Snow -16 1021 85 3219 0 0 18:20 08.04.2022
4365 Snow -17 1020 85 3219 2.57 360 17:28 08.04.2022
4366 Snow -17 1020 85 9656 3.09 350 16:55 08.04.2022
4367 Snow -17 1020 78 10000 3.6 350 16:27 08.04.2022
4368 Mist -17 1019 85 4828 3.09 350 15:36 08.04.2022
4369 Snow -17 1019 78 3219 4.12 80 14:52 08.04.2022
4370 Snow -17 1019 78 3219 4.12 80 14:19 08.04.2022
4371 Snow -18 1019 85 3219 2.57 60 13:31 08.04.2022
4372 Snow -18 1019 78 1609 5.14 80 12:49 08.04.2022
4373 Snow -19 1019 78 2012 2.57 60 11:35 08.04.2022
4374 Snow -19 1019 71 2816 2.57 90 09:59 08.04.2022
4375 Haze -19 1019 71 9656 2.57 110 09:19 08.04.2022
4376 Clouds -19 1018 71 10000 2.57 340 07:44 08.04.2022
4377 Clouds -19 1018 71 10000 3.09 320 06:45 08.04.2022
4378 Clear -19 1016 55 10000 6.69 300 02:55 08.04.2022
4379 Clear -20 1016 59 10000 7.72 300 00:30 08.04.2022
4380 Clear -21 1016 65 10000 7.2 290 23:47 07.04.2022
4381 Clouds -18 1017 59 10000 4.16 296 22:55 07.04.2022
4382 Clear -21 1015 59 10000 6.17 290 22:36 07.04.2022
4383 Clear -21 1015 59 10000 6.17 290 22:18 07.04.2022
4384 Clear -22 1015 64 10000 5.66 290 21:30 07.04.2022
4385 Clear -23 1015 64 10000 5.14 270 20:46 07.04.2022
4386 Clear -23 1015 64 10000 5.14 270 20:20 07.04.2022
4387 Clear -23 1014 64 10000 4.63 300 17:43 07.04.2022
4388 Clear -23 1014 64 10000 4.63 300 17:22 07.04.2022
4389 Clear -24 1014 70 10000 6.69 300 16:34 07.04.2022
4390 Clear -24 1013 70 10000 4.63 280 15:52 07.04.2022
4391 Clouds -23 1014 78 9859 2.27 312 13:59 07.04.2022
4392 Clear -23 1013 70 10000 5.14 290 13:24 07.04.2022
4393 Clouds -23 1014 79 10000 2.04 330 11:54 07.04.2022
4394 Clouds -23 1013 79 10000 2.08 332 10:55 07.04.2022
4395 Clear -21 1012 71 10000 6.69 290 09:28 07.04.2022
4396 Clouds -18 1011 65 10000 5.66 280 07:38 07.04.2022
4397 Clouds -15 1010 66 10000 5.14 280 05:32 07.04.2022
4398 Mist -14 1009 72 9656 2.06 330 02:37 07.04.2022
4399 Clouds -15 1009 72 10000 3.09 330 00:44 07.04.2022
4400 Clouds -15 1009 72 10000 3.09 350 23:36 06.04.2022
4401 Clouds -16 1009 72 10000 4.12 340 22:45 06.04.2022
4402 Clouds -16 1009 72 10000 4.12 340 22:20 06.04.2022
4403 Clouds -18 1009 78 10000 4.12 330 20:50 06.04.2022
4404 Clouds -18 1009 78 10000 4.12 330 20:26 06.04.2022
4405 Snow -18 1008 78 6437 1.54 350 19:48 06.04.2022
4406 Clouds -18 1008 78 10000 0 0 18:48 06.04.2022
4407 Clouds -17 1008 78 10000 3.6 30 17:38 06.04.2022
4408 Clouds -17 1008 78 10000 3.6 30 17:20 06.04.2022
4409 Clouds -18 1008 71 10000 3.6 350 16:34 06.04.2022
4410 Clouds -18 1008 78 10000 3.6 340 15:45 06.04.2022
4411 Clear -23 1010 93 10000 2.53 359 13:53 06.04.2022
4412 Clouds -18 1007 78 10000 1.54 290 12:37 06.04.2022
4413 Clouds -17 1007 71 10000 0 0 11:44 06.04.2022
4414 Clouds -16 1006 72 10000 2.57 0 10:37 06.04.2022
4415 Clouds -16 1006 72 10000 2.57 0 10:18 06.04.2022
4416 Clear -16 1006 66 10000 5.14 350 09:25 06.04.2022
4417 Clear -15 1005 72 10000 4.63 340 08:25 06.04.2022
4418 Clouds -12 1004 67 10000 2.57 70 06:45 06.04.2022
4419 Clear -11 1003 52 10000 0 0 01:44 06.04.2022
4420 Clear -12 1002 56 10000 0 0 23:50 05.04.2022
4421 Clear -17 1004 78 10000 2.62 360 21:59 05.04.2022
4422 Clear -13 1001 56 10000 6.69 10 21:18 05.04.2022
4423 Clouds -15 1000 61 10000 12.35 360 20:24 05.04.2022
4424 Clouds -21 1003 89 10000 3.1 0 18:53 05.04.2022
4425 Clear -14 1001 61 10000 2.06 0 17:30 05.04.2022
4426 Clear -14 1000 61 10000 5.14 340 16:44 05.04.2022
4427 Clear -14 1000 66 10000 7.2 360 15:52 05.04.2022
4428 Clear -14 1000 66 10000 7.2 360 15:31 05.04.2022
4429 Clouds -17 1001 73 10000 3.73 1 13:59 05.04.2022
4430 Clear -14 999 66 10000 5.14 320 12:41 05.04.2022
4431 Clear -14 999 72 10000 5.66 350 11:43 05.04.2022
4432 Clear -14 999 72 10000 5.66 350 11:25 05.04.2022
4433 Clear -12 998 52 10000 3.6 310 09:41 05.04.2022
4434 Clear -11 998 44 10000 2.06 340 08:51 05.04.2022
4435 Clear -9 997 48 10000 5.14 10 05:28 05.04.2022
4436 Clear -8 995 49 10000 5.14 350 23:51 04.04.2022
4437 Clear -8 995 45 10000 6.17 30 22:41 04.04.2022
4438 Clear -11 994 52 10000 10.29 20 21:52 04.04.2022
4439 Clear -11 994 52 10000 10.29 20 21:21 04.04.2022
4440 Clear -11 994 52 10000 8.75 10 20:48 04.04.2022
4441 Clear -11 993 52 10000 9.26 30 19:39 04.04.2022
4442 Clouds -18 994 82 10000 3.81 9 18:59 04.04.2022
4443 Clouds -18 994 83 10000 3.99 12 17:54 04.04.2022
4444 Clear -11 992 52 10000 6.69 30 16:36 04.04.2022
4445 Clear -11 992 52 10000 6.17 20 15:34 04.04.2022
4446 Clouds -18 993 84 10000 3.68 15 14:58 04.04.2022
4447 Clear -13 992 61 10000 6.17 350 14:40 04.04.2022
4448 Clear -12 992 56 10000 6.17 10 13:22 04.04.2022
4449 Clear -12 992 56 10000 4.63 360 11:49 04.04.2022
4450 Clear -12 992 56 10000 4.63 360 11:28 04.04.2022
4451 Clear -9 991 48 10000 5.66 30 08:29 04.04.2022
4452 Clear -7 990 50 10000 5.14 50 03:52 04.04.2022
4453 Clear -8 990 49 10000 5.14 10 00:26 04.04.2022
4454 Clear -9 990 48 10000 1.54 0 22:36 03.04.2022
4455 Clear -11 990 52 10000 1.54 320 21:44 03.04.2022
4456 Clouds -12 990 56 10000 2.16 28 20:53 03.04.2022
4457 Clear -14 990 61 10000 3.6 360 19:45 03.04.2022
4458 Clear -13 990 56 10000 1.54 320 18:31 03.04.2022
4459 Clear -13 991 56 10000 3.6 310 17:47 03.04.2022
4460 Clouds -17 991 83 10000 2.68 22 16:57 03.04.2022
4461 Clear -12 991 52 10000 3.6 10 16:39 03.04.2022
4462 Clear -12 992 56 10000 3.09 310 14:39 03.04.2022
4463 Clear -9 992 45 10000 3.6 30 13:51 03.04.2022
4464 Clear -10 992 48 10000 3.6 10 12:41 03.04.2022
4465 Clear -17 994 80 10000 3.04 25 10:58 03.04.2022
4466 Clear -10 993 57 10000 3.6 80 09:38 03.04.2022
4467 Clear -9 993 53 10000 5.14 70 08:33 03.04.2022
4468 Clear -6 995 50 10000 5.14 60 04:42 03.04.2022
4469 Clear -8 997 60 10000 1.49 58 01:54 03.04.2022
4470 Clear -7 996 46 10000 5.66 50 23:21 02.04.2022
4471 Clear -7 997 42 10000 3.6 40 22:18 02.04.2022
4472 Clear -8 997 41 10000 1.54 0 21:46 02.04.2022
4473 Clear -8 997 42 10000 1.54 0 21:18 02.04.2022
4474 Clear -11 998 52 10000 2.61 33 19:54 02.04.2022
4475 Clear -11 997 57 10000 5.66 40 18:23 02.04.2022
4476 Clear -16 998 73 10000 2.65 32 17:53 02.04.2022
4477 Clear -10 998 52 10000 3.6 30 16:29 02.04.2022
4478 Clear -9 998 48 10000 3.6 40 15:22 02.04.2022
4479 Clear -8 999 49 10000 3.6 30 14:51 02.04.2022
4480 Clear -9 998 57 10000 3.6 40 13:51 02.04.2022
4481 Clear -9 998 57 10000 3.6 40 13:19 02.04.2022
4482 Clear -8 998 49 10000 7.72 60 11:39 02.04.2022
4483 Clear -8 998 57 10000 0 0 09:31 02.04.2022
4484 Clear -12 999 84 10000 2.7 40 06:56 02.04.2022
4485 Clear -3 999 60 10000 2.43 42 03:55 02.04.2022
4486 Clear -4 999 63 10000 3.6 90 00:25 02.04.2022
4487 Clear -3 1000 63 10000 1.54 160 23:45 01.04.2022
4488 Clouds -4 1001 71 10000 1.92 49 21:55 01.04.2022
4489 Clouds -8 1001 86 10000 2.04 48 20:54 01.04.2022
4490 Clear -4 1001 63 10000 4.63 80 20:31 01.04.2022
4491 Clouds -5 1001 74 10000 4.12 110 19:39 01.04.2022
4492 Clouds -12 1002 86 10000 2.36 38 18:54 01.04.2022
4493 Clouds -4 1001 74 10000 3.6 150 18:23 01.04.2022
4494 Clear -2 1002 74 10000 3.09 40 17:35 01.04.2022
4495 Clouds -1 1002 69 10000 2.06 30 15:44 01.04.2022
4496 Clouds -2 1002 86 10000 3.09 100 14:39 01.04.2022
4497 Clouds -1 1003 80 10000 3.09 90 13:36 01.04.2022
4498 Clouds -1 1003 80 10000 6.17 40 12:33 01.04.2022
4499 Clouds 0 1003 74 10000 3.09 20 11:45 01.04.2022
4500 Clouds -1 1003 80 10000 3.6 10 10:34 01.04.2022
4501 Clouds -1 1003 74 10000 3.6 30 09:30 01.04.2022
4502 Clouds -1 1004 74 10000 4.12 50 07:19 01.04.2022
4503 Clouds -1 1005 80 10000 3.59 61 04:56 01.04.2022
4504 Clouds -2 1004 74 10000 7.2 80 04:37 01.04.2022
4505 Snow -3 1004 80 10000 8.23 90 02:19 01.04.2022
4506 Snow -4 1004 80 1609 10.8 100 00:46 01.04.2022
4507 Clouds -3 1003 63 10000 8.75 90 22:20 31.03.2022
4508 Clouds -3 1003 54 10000 7.72 90 21:37 31.03.2022
4509 Clouds -3 1002 54 10000 7.72 70 20:43 31.03.2022
4510 Clouds -3 1002 54 10000 7.72 70 20:25 31.03.2022
4511 Clouds -4 1003 62 10000 7.3 75 18:57 31.03.2022
4512 Clear -6 1003 61 10000 5.72 72 17:55 31.03.2022
4513 Clear -2 1002 50 10000 6.69 60 16:45 31.03.2022
4514 Clear -1 1002 51 10000 8.23 70 15:50 31.03.2022
4515 Clear -1 1002 52 10000 8.23 70 15:21 31.03.2022
4516 Clear -1 1003 55 10000 7.2 70 14:44 31.03.2022
4517 Clear -1 1003 59 10000 7.2 50 13:27 31.03.2022
4518 Clear -1 1003 64 10000 8.75 50 11:29 31.03.2022
4519 Clear -1 1004 69 10000 7.2 50 10:19 31.03.2022
4520 Clear 1 1003 69 10000 9.26 60 08:52 31.03.2022
4521 Clear 2 1004 65 10000 8.23 60 07:25 31.03.2022
4522 Clear 1 1005 75 10000 7.72 80 01:27 31.03.2022
4523 Clear 0 1005 74 10000 9.26 80 23:23 30.03.2022
4524 Clouds -1 1004 74 10000 8.23 80 21:50 30.03.2022
4525 Clouds -1 1004 74 10000 8.23 80 21:27 30.03.2022
4526 Clouds -1 1004 69 10000 8.75 80 20:22 30.03.2022
4527 Clouds 0 1003 69 10000 9.26 70 19:38 30.03.2022
4528 Clouds -1 1003 69 10000 8.75 70 18:40 30.03.2022
4529 Clouds -1 1003 69 10000 9.26 70 17:49 30.03.2022
4530 Snow -4 1004 95 341 5.44 64 16:58 30.03.2022
4531 Clouds -1 1003 74 10000 8.75 70 16:38 30.03.2022
4532 Snow -1 1003 80 4828 8.23 70 15:38 30.03.2022
4533 Mist -3 1003 80 4828 5.66 40 13:57 30.03.2022
4534 Snow -4 1003 86 4023 5.66 40 13:18 30.03.2022
4535 Clouds -4 1003 80 10000 3.6 40 11:40 30.03.2022
4536 Clouds -4 1003 74 10000 2.57 340 10:37 30.03.2022
4537 Clouds -4 1003 74 10000 3.6 360 09:27 30.03.2022
4538 Clouds -5 1003 74 10000 5.14 40 07:41 30.03.2022
4539 Clouds -4 1003 69 10000 5.14 40 05:41 30.03.2022
4540 Clouds -7 1004 80 10000 2.72 30 04:54 30.03.2022
4541 Clear -6 1003 79 10000 2.57 160 00:42 30.03.2022
4542 Clouds -7 1003 73 10000 3.6 340 22:35 29.03.2022
4543 Clouds -8 1003 73 10000 0 0 21:46 29.03.2022
4544 Clouds -11 1004 83 10000 2.24 24 20:54 29.03.2022
4545 Clouds -9 1003 73 10000 0 0 20:24 29.03.2022
4546 Clouds -10 1003 83 10000 2.49 21 18:57 29.03.2022
4547 Clear -9 1003 73 10000 4.63 350 18:36 29.03.2022
4548 Clear -9 1003 73 10000 4.63 330 17:37 29.03.2022
4549 Clouds -14 1003 88 10000 2.63 15 16:58 29.03.2022
4550 Clouds -14 1003 88 10000 2.76 18 15:58 29.03.2022
4551 Clouds -15 1003 88 10000 2.74 13 14:53 29.03.2022
4552 Clear -8 1002 73 10000 4.12 340 14:22 29.03.2022
4553 Clouds -14 1003 86 10000 3.05 15 12:55 29.03.2022
4554 Clear -8 1003 73 10000 3.09 350 11:45 29.03.2022
4555 Clouds -14 1003 86 10000 3.17 4 10:58 29.03.2022
4556 Clear -8 1002 73 10000 4.12 340 09:49 29.03.2022
4557 Clear -6 1002 68 10000 2.57 340 08:20 29.03.2022
4558 Clear -4 1002 74 10000 6.17 40 05:35 29.03.2022
4559 Clear -2 1003 69 10000 8.23 10 00:50 29.03.2022
4560 Clear -2 1003 69 10000 5.66 10 23:24 28.03.2022
4561 Clouds -7 1003 83 10000 3.43 355 22:54 28.03.2022
4562 Clouds -3 1003 68 10000 5.66 10 22:26 28.03.2022
4563 Clouds -9 1004 87 10000 3.77 358 20:59 28.03.2022
4564 Clear -5 1003 74 10000 5.66 350 20:23 28.03.2022
4565 Clear -4 1003 68 10000 7.72 20 19:46 28.03.2022
4566 Clear -4 1003 68 10000 7.72 20 19:27 28.03.2022
4567 Clear -6 1003 79 10000 7.2 10 18:40 28.03.2022
4568 Clear -5 1003 74 10000 5.14 10 17:39 28.03.2022
4569 Clear -5 1003 74 10000 6.17 10 16:33 28.03.2022
4570 Clear -4 1003 68 10000 7.2 30 14:48 28.03.2022
4571 Clear -4 1003 68 10000 7.2 30 14:21 28.03.2022
4572 Clear -5 1004 74 10000 4.63 20 12:41 28.03.2022
4573 Clear -5 1004 68 10000 5.14 20 11:32 28.03.2022
4574 Clear -6 1004 68 10000 5.14 350 09:43 28.03.2022
4575 Clear -6 1004 68 10000 5.14 350 09:19 28.03.2022
4576 Clear -3 1005 64 10000 5.14 40 08:22 28.03.2022
4577 Clear -3 1005 68 10000 0 0 07:35 28.03.2022
4578 Clear -1 1005 64 10000 0 0 04:18 28.03.2022
4579 Clouds -4 1007 68 10000 2.06 10 23:32 27.03.2022
4580 Clouds -5 1007 68 10000 0 0 22:24 27.03.2022
4581 Clear -7 1007 78 10000 0 0 21:42 27.03.2022
4582 Clouds -5 1008 68 10000 2.89 22 20:57 27.03.2022
4583 Clouds -7 1007 79 10000 2.06 10 19:49 27.03.2022
4584 Clouds -7 1007 79 10000 2.06 10 19:24 27.03.2022
4585 Clouds -6 1007 79 10000 0 0 18:28 27.03.2022
4586 Clouds -6 1007 68 10000 0 0 17:39 27.03.2022
4587 Clouds -6 1008 73 10000 2.57 10 16:31 27.03.2022
4588 Clouds -6 1008 68 10000 2.06 360 15:25 27.03.2022
4589 Clouds -11 1009 87 10000 2.73 23 13:56 27.03.2022
4590 Clouds -4 1008 58 10000 3.09 360 12:31 27.03.2022
4591 Clouds -5 1009 63 10000 2.57 20 11:20 27.03.2022
4592 Clouds -10 1010 87 10000 2.93 21 08:53 27.03.2022
4593 Clouds -4 1010 74 10000 3.09 320 05:54 27.03.2022
4594 Clouds -5 1012 74 10000 2.06 310 00:48 27.03.2022
4595 Clear -7 1012 73 10000 0 0 23:42 26.03.2022
4596 Clear -11 1012 85 10000 0 0 22:36 26.03.2022
4597 Clear -12 1013 85 10000 0 0 21:34 26.03.2022
4598 Clouds -9 1013 78 10000 0.91 48 20:57 26.03.2022
4599 Clouds -13 1012 78 10000 1.54 0 19:21 26.03.2022
4600 Clouds -16 1013 87 10000 1.72 19 17:54 26.03.2022
4601 Clear -16 1012 85 10000 2.06 320 17:33 26.03.2022
4602 Clear -14 1012 85 10000 0 0 16:27 26.03.2022
4603 Fog -12 1012 92 402 1.54 350 14:57 26.03.2022
4604 Fog -12 1012 92 402 1.54 350 13:53 26.03.2022
4605 Mist -13 1012 85 2816 0 0 12:51 26.03.2022
4606 Clouds -13 1012 85 10000 0 0 11:41 26.03.2022
4607 Clear -13 1011 92 10000 2.06 320 10:22 26.03.2022
4608 Clear -10 1010 85 10000 0 0 08:34 26.03.2022
4609 Clouds -8 1010 84 10000 1.35 303 05:54 26.03.2022
4610 Clear -6 1008 86 10000 3.6 250 04:23 26.03.2022
4611 Clear -5 1006 74 10000 3.6 90 00:22 26.03.2022
4612 Clear -6 1005 73 10000 3.09 90 21:41 25.03.2022
4613 Clouds -8 1005 79 10000 0 0 20:46 25.03.2022
4614 Clouds -11 1004 85 10000 0 0 19:36 25.03.2022
4615 Clouds -10 1005 79 10000 0 0 18:47 25.03.2022
4616 Clouds -11 1005 85 10000 0 0 17:47 25.03.2022
4617 Clouds -11 1005 85 10000 0 0 17:26 25.03.2022
4618 Clouds -9 1005 79 10000 0 0 16:18 25.03.2022
4619 Clouds -7 1005 73 10000 4.63 340 14:23 25.03.2022
4620 Clouds -8 1006 73 10000 2.06 300 12:48 25.03.2022
4621 Clouds -9 1008 76 10000 2.79 358 09:57 25.03.2022
4622 Clear -9 1007 73 10000 4.12 360 09:27 25.03.2022
4623 Clouds -10 1009 75 10000 2.76 11 07:53 25.03.2022
4624 Clear -8 1008 67 10000 2.57 30 07:27 25.03.2022
4625 Clear -5 1008 63 10000 3.09 40 05:35 25.03.2022
4626 Clouds -7 1008 63 10000 6.69 80 00:42 25.03.2022
4627 Clouds -8 1008 57 10000 5.66 70 22:39 24.03.2022
4628 Clouds -9 1008 57 10000 4.12 60 21:42 24.03.2022
4629 Clouds -13 1007 66 10000 3.09 30 19:51 24.03.2022
4630 Clouds -13 1007 66 10000 3.09 30 19:33 24.03.2022
4631 Clouds -13 1007 66 10000 2.57 20 17:46 24.03.2022
4632 Clouds -17 1008 75 10000 2.07 41 16:54 24.03.2022
4633 Clear -13 1007 66 10000 3.6 360 15:21 24.03.2022
4634 Clear -12 1007 61 10000 3.6 350 14:43 24.03.2022
4635 Clear -12 1007 62 10000 3.6 350 14:18 24.03.2022
4636 Clear -12 1007 67 10000 3.09 360 12:47 24.03.2022
4637 Clear -11 1007 62 10000 5.14 50 11:33 24.03.2022
4638 Clear -9 1007 54 10000 6.17 50 09:51 24.03.2022
4639 Clear -9 1007 58 10000 6.17 50 08:40 24.03.2022
4640 Clear -8 1007 53 10000 5.14 50 06:48 24.03.2022
4641 Clear -5 1006 42 10000 7.72 60 02:18 24.03.2022
4642 Clear -6 1008 42 10000 8.23 360 23:18 23.03.2022
4643 Clear -8 1008 49 10000 7.2 40 21:27 23.03.2022
4644 Clear -10 1010 53 10000 3.42 26 20:59 23.03.2022
4645 Clear -12 1009 48 10000 4.63 30 19:45 23.03.2022
4646 Clear -8 1008 35 10000 4.63 50 18:36 23.03.2022
4647 Clear -7 1008 32 10000 9.26 30 17:36 23.03.2022
4648 Clear -8 1008 35 10000 8.75 20 16:21 23.03.2022
4649 Clear -11 1009 44 10000 2.06 260 14:51 23.03.2022
4650 Clear -11 1009 44 10000 2.06 260 14:24 23.03.2022
4651 Clear -12 1009 48 10000 4.12 300 12:45 23.03.2022
4652 Clear -13 1010 56 10000 2.57 10 09:42 23.03.2022
4653 Clear -10 1010 62 10000 2.57 300 06:41 23.03.2022
4654 Clear -8 1011 53 10000 0 0 04:41 23.03.2022
4655 Clear -9 1013 53 10000 2.06 110 00:29 23.03.2022
4656 Clear -13 1014 66 10000 0 0 22:46 22.03.2022
4657 Clear -14 1014 61 10000 0 0 21:30 22.03.2022
4658 Clear -16 1015 66 10000 0 0 20:40 22.03.2022
4659 Clear -16 1015 66 10000 0 0 19:41 22.03.2022
4660 Clear -16 1015 66 10000 0 0 19:18 22.03.2022
4661 Clear -18 1015 71 10000 0 0 18:31 22.03.2022
4662 Clear -19 1016 71 10000 1.54 60 17:29 22.03.2022
4663 Clear -19 1016 71 10000 0 0 16:21 22.03.2022
4664 Clear -18 1017 71 10000 0 0 15:22 22.03.2022
4665 Clear -19 1018 78 10000 0 0 14:46 22.03.2022
4666 Clear -19 1018 78 10000 0 0 14:27 22.03.2022
4667 Clear -18 1019 78 10000 0 0 13:27 22.03.2022
4668 Clear -18 1020 78 10000 0 0 11:52 22.03.2022
4669 Clear -17 1021 91 10000 1.54 290 10:40 22.03.2022
4670 Clouds -16 1021 85 10000 0 0 08:29 22.03.2022
4671 Clear -10 1022 73 10000 0 0 05:25 22.03.2022
4672 Clear -8 1023 67 10000 0 0 03:47 22.03.2022
4673 Clear -11 1024 67 10000 2.57 320 00:22 22.03.2022
4674 Clouds -12 1024 78 10000 0 0 22:29 21.03.2022
4675 Clouds -18 1024 70 10000 0.69 28 20:57 21.03.2022
4676 Clear -17 1024 78 10000 0 0 20:38 21.03.2022
4677 Clear -20 1024 75 10000 1.28 39 19:58 21.03.2022
4678 Clear -19 1024 84 10000 1.54 360 19:33 21.03.2022
4679 Clear -21 1024 84 10000 0 0 18:22 21.03.2022
4680 Clear -20 1024 84 10000 0 0 17:19 21.03.2022
4681 Clear -20 1024 84 10000 0 0 16:44 21.03.2022
4682 Clear -23 1024 79 10000 1.8 15 15:55 21.03.2022
4683 Clear -19 1024 71 10000 0 0 15:19 21.03.2022
4684 Clear -18 1024 78 10000 0 0 14:25 21.03.2022
4685 Clear -18 1024 85 10000 1.54 10 12:40 21.03.2022
4686 Clear -18 1025 78 10000 0 0 11:52 21.03.2022
4687 Clear -17 1024 71 10000 0 0 10:40 21.03.2022
4688 Clear -20 1024 80 10000 2.32 19 08:55 21.03.2022
4689 Clear -18 1024 78 10000 1.97 4 06:54 21.03.2022
4690 Clear -11 1023 67 10000 1.54 160 02:53 21.03.2022
4691 Clear -9 1023 57 10000 0 0 00:35 21.03.2022
4692 Clear -15 1023 72 10000 0 0 22:54 20.03.2022
4693 Clear -16 1023 67 10000 0.72 272 21:56 20.03.2022
4694 Clear -17 1022 66 10000 0 0 21:29 20.03.2022
4695 Clear -19 1022 71 10000 2.06 280 20:43 20.03.2022
4696 Clear -19 1022 73 10000 1.59 34 19:59 20.03.2022
4697 Clear -21 1021 77 10000 1.54 340 19:34 20.03.2022
4698 Clear -21 1021 77 10000 1.54 10 18:34 20.03.2022
4699 Clear -21 1020 77 10000 1.54 360 17:35 20.03.2022
4700 Clear -24 1021 91 10000 1.79 8 16:57 20.03.2022
4701 Clear -21 1020 77 10000 0 0 15:42 20.03.2022
4702 Clear -20 1020 71 10000 1.54 350 14:35 20.03.2022
4703 Clear -18 1020 71 10000 0 0 12:42 20.03.2022
4704 Clear -19 1019 71 10000 3.09 30 11:32 20.03.2022
4705 Clear -17 1019 71 10000 0 0 09:30 20.03.2022
4706 Clear -16 1018 78 10000 0 0 07:47 20.03.2022
4707 Clear -12 1018 61 10000 2.06 90 05:48 20.03.2022
4708 Clear -16 1019 85 10000 2.19 324 01:56 20.03.2022
4709 Clear -12 1018 56 10000 5.14 360 00:47 20.03.2022
4710 Clear -12 1018 52 10000 6.69 330 23:19 19.03.2022
4711 Clouds -14 1019 56 10000 8.75 360 21:32 19.03.2022
4712 Clear -21 1019 88 10000 2.71 328 20:58 19.03.2022
4713 Clouds -25 1019 92 10000 3.13 329 18:59 19.03.2022
4714 Clear -17 1019 66 10000 0 0 18:24 19.03.2022
4715 Clear -17 1018 60 10000 9.26 340 17:40 19.03.2022
4716 Clear -17 1018 60 10000 7.2 350 16:24 19.03.2022
4717 Clear -17 1019 60 10000 4.12 280 15:19 19.03.2022
4718 Clear -17 1019 60 10000 4.63 300 13:35 19.03.2022
4719 Clear -17 1019 60 10000 5.14 320 12:41 19.03.2022
4720 Clear -26 1020 93 10000 3.01 329 11:54 19.03.2022
4721 Clear -17 1018 66 10000 7.72 350 11:25 19.03.2022
4722 Clear -27 1019 99 10000 3.14 328 08:23 19.03.2022
4723 Clear -21 1018 91 10000 2.82 318 03:53 19.03.2022
4724 Clear -14 1016 66 10000 11.83 360 02:30 19.03.2022
4725 Clear -15 1016 61 10000 12.86 360 23:46 18.03.2022
4726 Clear -16 1016 60 10000 11.32 350 22:29 18.03.2022
4727 Clouds -21 1017 86 10000 3.09 330 21:55 18.03.2022
4728 Clouds -24 1017 90 10000 3.16 338 19:57 18.03.2022
4729 Clear -17 1014 55 10000 11.83 350 19:22 18.03.2022
4730 Clear -17 1014 55 10000 5.66 20 18:27 18.03.2022
4731 Clouds -17 1013 60 10000 4.63 10 16:52 18.03.2022
4732 Clouds -17 1012 55 10000 10.29 360 15:43 18.03.2022
4733 Clouds -17 1012 60 10000 1.54 140 14:25 18.03.2022
4734 Clouds -17 1012 60 10000 4.63 350 12:39 18.03.2022
4735 Clouds -17 1011 55 10000 4.12 320 11:28 18.03.2022
4736 Clear -17 1009 66 10000 2.57 0 09:41 18.03.2022
4737 Clear -17 1008 60 10000 5.14 340 08:45 18.03.2022
4738 Clear -15 1007 61 10000 3.09 140 06:42 18.03.2022
4739 Clear -12 1006 52 10000 9.26 360 04:38 18.03.2022
4740 Clear -18 1007 82 10000 3.78 358 00:54 18.03.2022
4741 Clear -13 1005 61 10000 6.69 340 23:52 17.03.2022
4742 Clear -13 1005 61 10000 6.69 340 23:52 17.03.2022
4743 Clear -13 1005 61 10000 6.69 340 23:52 17.03.2022
4744 Clear -13 1004 61 10000 3.6 350 22:43 17.03.2022
4745 Clear -13 1004 61 10000 3.6 350 22:18 17.03.2022
4746 Clear -13 1004 61 10000 3.6 360 21:27 17.03.2022
4747 Clear -15 1004 61 10000 4.12 350 20:52 17.03.2022
4748 Clear -15 1004 61 10000 4.12 350 20:18 17.03.2022
4749 Clear -16 1004 67 10000 0 0 19:37 17.03.2022
4750 Clear -17 1003 66 10000 3.6 360 18:51 17.03.2022
4751 Clear -17 1003 66 10000 3.6 300 17:27 17.03.2022
4752 Clear -22 1005 92 10000 2.97 358 15:57 17.03.2022
4753 Clear -18 1003 71 10000 0 0 15:36 17.03.2022
4754 Clear -21 1005 91 10000 3.3 357 14:55 17.03.2022
4755 Clear -13 1004 61 10000 0 0 13:22 17.03.2022
4756 Clear -14 1004 61 10000 4.63 340 12:38 17.03.2022
4757 Clear -16 1004 66 10000 1.54 350 11:30 17.03.2022
4758 Clear -13 1004 52 10000 0 0 10:34 17.03.2022
4759 Clear -15 1004 61 10000 2.57 320 08:42 17.03.2022
4760 Clear -20 1006 91 10000 3.56 353 07:57 17.03.2022
4761 Clear -11 1005 57 10000 3.09 350 05:48 17.03.2022
4762 Clear -9 1005 48 10000 7.2 360 03:45 17.03.2022
4763 Clear -12 1006 56 10000 4.63 330 00:21 17.03.2022
4764 Clear -13 1007 61 10000 2.06 100 22:52 16.03.2022
4765 Clear -13 1007 61 10000 2.06 100 22:33 16.03.2022
4766 Clear -15 1007 61 10000 3.09 310 21:52 16.03.2022
4767 Clear -16 1007 60 10000 1.54 0 20:32 16.03.2022
4768 Clear -18 1007 65 10000 1.54 0 19:22 16.03.2022
4769 Clear -19 1007 65 10000 3.09 230 18:40 16.03.2022
4770 Clear -18 1008 65 10000 2.06 290 17:44 16.03.2022
4771 Clear -18 1008 65 10000 2.06 290 17:26 16.03.2022
4772 Clear -24 1009 94 10000 2.9 0 15:56 16.03.2022
4773 Clear -19 1009 71 10000 1.54 120 14:35 16.03.2022
4774 Clear -18 1009 65 10000 2.57 20 13:34 16.03.2022
4775 Clouds -23 1010 93 10000 3.07 358 11:59 16.03.2022
4776 Clear -17 1009 66 10000 0 0 11:22 16.03.2022
4777 Clear -16 1009 60 10000 3.09 350 10:28 16.03.2022
4778 Clouds -23 1010 92 10000 3.31 359 09:55 16.03.2022
4779 Clear -14 1009 56 10000 6.17 350 06:47 16.03.2022
4780 Clear -14 1009 61 10000 5.66 360 02:29 16.03.2022
4781 Clouds -20 1011 87 10000 3.5 337 22:54 15.03.2022
4782 Clear -14 1009 61 10000 2.57 50 22:33 15.03.2022
4783 Clear -14 1009 61 10000 2.57 50 22:33 15.03.2022
4784 Clear -16 1009 66 10000 7.72 360 20:42 15.03.2022
4785 Clear -16 1010 66 10000 4.12 300 19:34 15.03.2022
4786 Clear -16 1010 60 10000 8.75 330 17:41 15.03.2022
4787 Clear -17 1011 66 10000 4.12 320 16:34 15.03.2022
4788 Clear -16 1011 66 10000 5.14 330 15:26 15.03.2022
4789 Clouds -16 1012 60 10000 6.17 350 14:47 15.03.2022
4790 Clear -24 1012 91 10000 4.53 357 13:55 15.03.2022
4791 Clouds -18 1012 60 10000 3.09 320 13:20 15.03.2022
4792 Clouds -17 1011 60 10000 8.23 10 11:32 15.03.2022
4793 Clear -18 1012 60 10000 0 0 10:21 15.03.2022
4794 Clear -17 1011 60 10000 10.8 20 08:50 15.03.2022
4795 Clear -23 1011 90 10000 3.98 348 07:53 15.03.2022
4796 Clear -16 1011 60 10000 3.98 348 07:35 15.03.2022
4797 Clear -14 1010 56 10000 10.8 360 05:45 15.03.2022
4798 Clear -7 1009 49 10000 1.54 120 00:25 15.03.2022
4799 Clear -9 1009 53 10000 3.6 110 23:26 14.03.2022
4800 Clear -8 1009 49 10000 2.57 100 22:37 14.03.2022
4801 Clear -7 1009 32 10000 2.06 0 21:49 14.03.2022
4802 Clear -16 1009 79 10000 3.44 2 20:55 14.03.2022
4803 Clear -13 1008 52 10000 1.54 0 20:23 14.03.2022
4804 Clear -13 1008 56 10000 0 0 19:22 14.03.2022
4805 Clear -19 1009 84 10000 2.72 13 17:55 14.03.2022
4806 Clear -16 1008 72 10000 2.57 30 17:25 14.03.2022
4807 Clear -13 1009 61 10000 0 0 16:27 14.03.2022
4808 Clear -9 1009 45 10000 3.09 20 14:42 14.03.2022
4809 Clear -15 1010 72 10000 2.93 9 12:55 14.03.2022
4810 Clear -15 1011 71 10000 3.47 15 10:57 14.03.2022
4811 Clear -15 1011 69 10000 3.7 15 09:56 14.03.2022
4812 Clear -6 1011 30 10000 4.63 360 09:23 14.03.2022
4813 Clear -15 1012 68 10000 3.85 17 08:57 14.03.2022
4814 Clear -5 1012 28 10000 7.72 50 08:20 14.03.2022
4815 Clear -3 1013 28 10000 8.75 20 05:51 14.03.2022
4816 Clear -10 1013 69 10000 3.99 11 02:57 14.03.2022
4817 Clear -4 1015 33 10000 7.72 350 01:33 14.03.2022
4818 Clear -6 1016 42 10000 5.14 340 23:29 13.03.2022
4819 Clear -7 1017 38 10000 6.17 40 21:41 13.03.2022
4820 Clear -7 1017 38 10000 6.17 40 21:19 13.03.2022
4821 Clear -6 1016 25 10000 6.69 70 20:46 13.03.2022
4822 Clear -6 1016 25 10000 6.69 70 20:21 13.03.2022
4823 Clear -7 1016 30 10000 5.66 60 19:41 13.03.2022
4824 Clear -7 1016 30 10000 5.66 60 19:20 13.03.2022
4825 Clear -7 1017 32 10000 6.17 50 18:41 13.03.2022
4826 Clear -8 1017 38 10000 6.69 10 17:52 13.03.2022
4827 Clear -8 1017 38 10000 6.69 10 17:33 13.03.2022
4828 Clear -6 1018 25 10000 3.09 50 16:44 13.03.2022
4829 Clear -6 1018 25 10000 3.09 50 16:20 13.03.2022
4830 Snow -5 1017 25 10000 12.86 50 15:34 13.03.2022
4831 Clear -5 1018 23 10000 8.23 20 13:53 13.03.2022
4832 Clear -5 1018 23 10000 8.23 20 13:27 13.03.2022
4833 Clear -5 1018 23 10000 8.75 10 12:20 13.03.2022
4834 Clear -7 1018 32 10000 4.63 350 11:36 13.03.2022
4835 Clear -7 1018 38 10000 5.14 350 10:48 13.03.2022
4836 Clear -7 1018 38 10000 5.14 350 10:25 13.03.2022
4837 Clear -7 1017 38 10000 6.69 40 09:41 13.03.2022
4838 Clear -7 1017 38 10000 2.06 0 08:48 13.03.2022
4839 Clear -13 1017 60 10000 4.49 35 07:57 13.03.2022
4840 Clear -13 1017 66 10000 4.43 27 05:59 13.03.2022
4841 Clear -3 1017 33 10000 4.63 360 03:33 13.03.2022
4842 Clear -4 1017 42 10000 11.32 360 00:48 13.03.2022
4843 Clear -4 1017 31 10000 10.8 20 22:47 12.03.2022
4844 Clear -10 1015 61 10000 4.24 41 20:59 12.03.2022
4845 Clear -12 1015 64 10000 4.08 39 19:57 12.03.2022
4846 Clear -5 1016 33 10000 7.2 20 19:39 12.03.2022
4847 Clear -6 1015 38 10000 8.75 330 18:31 12.03.2022
4848 Clear -5 1015 36 10000 3.6 350 17:43 12.03.2022
4849 Clear -3 1014 31 10000 3.6 10 16:25 12.03.2022
4850 Clear -4 1014 36 10000 6.17 360 15:24 12.03.2022
4851 Clear -13 1013 73 10000 4.22 25 14:52 12.03.2022
4852 Clear -13 1013 73 10000 4.15 28 13:53 12.03.2022
4853 Clear -13 1013 73 10000 4.15 28 13:53 12.03.2022
4854 Clear -4 1012 42 10000 8.75 40 12:25 12.03.2022
4855 Clear -4 1012 39 10000 3.6 90 11:51 12.03.2022
4856 Clear -4 1012 39 10000 3.6 90 11:19 12.03.2022
4857 Clear -12 1012 71 10000 3.95 24 09:58 12.03.2022
4858 Clear -5 1011 50 10000 7.2 360 09:38 12.03.2022
4859 Clear -4 1010 46 10000 6.69 30 07:51 12.03.2022
4860 Clear -2 1010 34 10000 11.32 20 05:20 12.03.2022
4861 Clear -1 1011 31 10000 8.23 320 00:24 12.03.2022
4862 Clear -3 1011 46 10000 4.63 320 23:28 11.03.2022
4863 Clear -2 1011 31 10000 5.66 360 21:47 11.03.2022
4864 Clear -9 1011 64 10000 4.86 16 20:57 11.03.2022
4865 Clear -3 1010 31 10000 7.2 340 20:37 11.03.2022
4866 Clear -5 1010 39 10000 5.14 280 19:53 11.03.2022
4867 Clear -5 1010 39 10000 5.14 280 19:27 11.03.2022
4868 Clear -5 1011 39 10000 4.63 350 17:37 11.03.2022
4869 Clear -5 1011 39 10000 4.63 350 17:18 11.03.2022
4870 Clear -12 1010 63 10000 4.51 25 15:57 11.03.2022
4871 Clear -4 1011 46 10000 10.29 50 14:22 11.03.2022
4872 Clear -4 1011 50 10000 9.26 40 13:21 11.03.2022
4873 Clear -5 1011 54 10000 8.23 40 12:22 11.03.2022
4874 Clear -6 1011 64 10000 7.04 51 11:56 11.03.2022
4875 Clear -4 1011 50 10000 5.14 40 10:18 11.03.2022
4876 Clear -6 1011 66 10000 8.56 54 08:57 11.03.2022
4877 Clear -5 1011 54 10000 7.72 50 08:24 11.03.2022
4878 Clear -4 1010 50 10000 12.35 40 07:46 11.03.2022
4879 Clear -4 1009 54 10000 10.29 40 05:49 11.03.2022
4880 Clear -4 1008 59 4828 13.38 50 04:22 11.03.2022
4881 Clear -4 1011 59 10000 14.4 50 23:49 10.03.2022
4882 Clear -5 1011 64 10000 12.86 50 22:31 10.03.2022
4883 Clear -7 1011 68 10000 14.4 40 21:50 10.03.2022
4884 Clear -7 1011 68 10000 14.4 40 21:23 10.03.2022
4885 Clear -7 1011 69 10000 15.95 40 19:51 10.03.2022
4886 Clear -8 1012 82 10000 13.06 57 18:56 10.03.2022
4887 Clear -7 1011 69 8047 15.43 40 17:36 10.03.2022
4888 Snow -6 1012 63 4828 13.89 50 16:37 10.03.2022
4889 Snow -6 1013 63 6437 13.89 50 15:26 10.03.2022
4890 Snow -6 1014 63 9656 11.32 50 13:30 10.03.2022
4891 Clear -7 1014 69 4828 10.8 50 12:34 10.03.2022
4892 Clear -7 1016 68 10000 8.75 50 11:22 10.03.2022
4893 Clear -7 1016 68 10000 11.32 30 09:27 10.03.2022
4894 Clear -6 1017 73 10000 9.26 20 07:43 10.03.2022
4895 Clear -6 1017 68 10000 15.43 20 04:47 10.03.2022
4896 Clear -3 1018 64 10000 17.49 30 01:50 10.03.2022
4897 Clear -3 1021 63 10000 10.29 20 23:28 09.03.2022
4898 Clear -8 1022 86 10000 4.9 20 21:54 09.03.2022
4899 Clear -4 1021 63 10000 5.66 20 21:34 09.03.2022
4900 Clear -10 1022 88 10000 5.16 16 19:55 09.03.2022
4901 Clear -6 1022 68 10000 5.66 20 18:34 09.03.2022
4902 Clear -5 1023 68 10000 12.35 20 17:27 09.03.2022
4903 Clear -6 1024 73 10000 7.72 30 16:31 09.03.2022
4904 Clear -6 1024 79 10000 11.32 40 15:31 09.03.2022
4905 Clouds -10 1025 90 10000 3.97 17 13:54 09.03.2022
4906 Clear -4 1025 68 10000 5.14 30 12:48 09.03.2022
4907 Clear -10 1026 90 10000 3.58 21 11:54 09.03.2022
4908 Clear -4 1025 68 10000 7.72 20 11:35 09.03.2022
4909 Clear -6 1026 68 10000 5.14 360 10:38 09.03.2022
4910 Clear -10 1026 85 10000 3.66 20 08:59 09.03.2022
4911 Clear -9 1026 86 10000 0 0 08:23 09.03.2022
4912 Clouds -3 1027 81 10000 0.96 352 02:59 09.03.2022
4913 Clouds -1 1027 74 10000 0 0 00:46 09.03.2022
4914 Clear -4 1027 80 10000 2.57 40 22:48 08.03.2022
4915 Clear -4 1027 80 10000 2.57 40 22:29 08.03.2022
4916 Clouds -3 1027 80 10000 2.57 60 21:23 08.03.2022
4917 Clouds -3 1027 80 10000 3.09 70 20:44 08.03.2022
4918 Clouds -4 1026 86 10000 4.63 80 19:42 08.03.2022
4919 Clouds -3 1026 80 10000 5.14 90 18:44 08.03.2022
4920 Clouds -3 1026 86 10000 6.17 80 17:37 08.03.2022
4921 Clouds -3 1027 86 10000 6.17 80 16:26 08.03.2022
4922 Clouds -3 1027 86 10000 7.2 70 14:20 08.03.2022
4923 Clouds -4 1027 80 10000 6.17 70 12:44 08.03.2022
4924 Clouds -3 1027 75 10000 5.66 80 11:45 08.03.2022
4925 Clouds -4 1027 80 10000 6.17 80 10:50 08.03.2022
4926 Clouds -4 1027 80 10000 6.17 80 10:19 08.03.2022
4927 Clouds -2 1027 65 10000 6.69 80 07:33 08.03.2022
4928 Clear -3 1027 63 10000 7.2 80 05:43 08.03.2022
4929 Clouds -5 1030 75 10000 3.42 67 23:58 07.03.2022
4930 Clear -1 1032 43 10000 7.72 70 22:23 07.03.2022
4931 Clear -2 1033 46 10000 5.66 80 21:34 07.03.2022
4932 Clear -2 1033 46 10000 4.12 70 20:49 07.03.2022
4933 Clear -2 1033 46 10000 4.12 70 20:20 07.03.2022
4934 Clear -6 1033 63 10000 4.12 20 19:34 07.03.2022
4935 Clear -3 1033 51 10000 6.17 70 18:46 07.03.2022
4936 Clear -3 1035 54 10000 6.17 70 17:52 07.03.2022
4937 Clouds -4 1034 72 10000 3.46 45 16:56 07.03.2022
4938 Clouds -5 1035 78 10000 3.31 44 15:59 07.03.2022
4939 Clear -4 1037 63 10000 5.66 80 13:52 07.03.2022
4940 Clear -4 1037 68 10000 7.2 70 12:33 07.03.2022
4941 Clear -6 1037 73 10000 6.69 70 10:39 07.03.2022
4942 Clear -7 1037 73 10000 4.12 70 09:24 07.03.2022
4943 Clouds -7 1038 93 10000 6.69 80 04:51 07.03.2022
4944 Clouds -6 1037 86 10000 5.14 70 00:23 07.03.2022
4945 Clouds -7 1036 86 10000 5.14 70 23:35 06.03.2022
4946 Clouds -8 1036 74 10000 5.14 70 22:52 06.03.2022
4947 Clouds -8 1036 74 10000 5.14 70 22:19 06.03.2022
4948 Clear -12 1035 79 10000 5.14 80 20:50 06.03.2022
4949 Clear -12 1035 79 10000 5.14 80 20:23 06.03.2022
4950 Clear -12 1034 79 10000 3.6 80 19:21 06.03.2022
4951 Clear -12 1034 73 10000 4.12 70 18:25 06.03.2022
4952 Clear -17 1033 78 10000 3.6 70 17:21 06.03.2022
4953 Clear -19 1032 78 10000 0 0 16:42 06.03.2022
4954 Clouds -19 1032 87 10000 2.23 46 15:54 06.03.2022
4955 Clear -19 1031 84 10000 0 0 14:49 06.03.2022
4956 Clear -19 1031 84 10000 0 0 14:31 06.03.2022
4957 Clear -18 1030 78 10000 0 0 13:29 06.03.2022
4958 Clear -18 1029 85 10000 1.54 20 12:35 06.03.2022
4959 Clouds -19 1029 87 10000 1.94 14 10:59 06.03.2022
4960 Clear -17 1027 85 10000 0 0 10:22 06.03.2022
4961 Clear -16 1025 85 10000 0 0 08:29 06.03.2022
4962 Clear -16 1025 85 10000 0 0 08:29 06.03.2022
4963 Clear -15 1024 78 10000 0 0 07:35 06.03.2022
4964 Clear -13 1022 78 10000 2.06 310 05:40 06.03.2022
4965 Clear -9 1018 79 10000 3.09 250 00:51 06.03.2022
4966 Clear -9 1018 79 10000 3.09 250 00:30 06.03.2022
4967 Clear -9 1017 79 10000 0 0 23:21 05.03.2022
4968 Clear -9 1016 79 10000 2.06 340 22:53 05.03.2022
4969 Clouds -9 1016 79 10000 4.12 280 21:56 05.03.2022
4970 Clouds -9 1016 79 10000 4.12 280 21:23 05.03.2022
4971 Clouds -9 1014 86 10000 4.63 260 19:44 05.03.2022
4972 Clouds -12 1014 97 2508 1.23 22 18:54 05.03.2022
4973 Snow -8 1012 86 9656 4.12 260 18:27 05.03.2022
4974 Snow -7 1010 86 9656 5.66 250 16:34 05.03.2022
4975 Snow -8 1009 93 10000 5.14 240 15:31 05.03.2022
4976 Snow -7 1009 86 10000 6.17 240 14:47 05.03.2022
4977 Snow -7 1008 93 6437 7.2 240 14:29 05.03.2022
4978 Snow -6 1007 86 4023 5.66 240 13:22 05.03.2022
4979 Snow -5 1004 86 3219 8.23 230 11:48 05.03.2022
4980 Snow -5 1003 93 2816 10.8 230 11:19 05.03.2022
4981 Snow -4 1002 86 4023 9.77 230 10:18 05.03.2022
4982 Snow -3 998 93 3219 9.26 240 08:59 05.03.2022
4983 Snow -1 995 93 2414 3.6 200 07:38 05.03.2022
4984 Clouds 0 992 86 10000 1.54 180 05:43 05.03.2022
4985 Clouds 0 989 86 10000 2.57 80 03:18 05.03.2022
4986 Snow 0 987 86 8047 8.75 80 23:37 04.03.2022
4987 Snow 0 987 86 1207 9.77 80 22:42 04.03.2022
4988 Snow 0 987 86 3219 10.29 80 21:49 04.03.2022
4989 Snow -1 987 93 805 8.75 60 20:56 04.03.2022
4990 Snow -1 988 86 402 9.26 60 20:27 04.03.2022
4991 Snow -1 988 86 402 9.26 60 19:36 04.03.2022
4992 Snow -1 989 86 4023 9.77 50 18:45 04.03.2022
4993 Snow -1 991 86 2816 9.77 40 17:39 04.03.2022
4994 Snow -1 992 86 2816 9.77 40 16:54 04.03.2022
4995 Snow -1 994 86 2012 8.23 60 15:29 04.03.2022
4996 Clouds -1 996 80 10000 8.23 50 14:33 04.03.2022
4997 Clear -2 997 80 10000 7.2 40 13:26 04.03.2022
4998 Clouds -2 999 86 10000 5.66 40 11:46 04.03.2022
4999 Clouds -2 1000 86 10000 4.63 60 10:52 04.03.2022
5000 Snow -3 1002 93 351 3.84 52 09:58 04.03.2022
5001 Clouds -3 1001 93 10000 4.12 80 08:39 04.03.2022
5002 Clouds -3 1002 93 10000 5.14 90 07:36 04.03.2022
5003 Clouds -2 1001 86 10000 4.12 80 04:31 04.03.2022
5004 Snow -2 1002 80 1609 3.6 60 00:38 04.03.2022
5005 Snow -3 1002 80 4828 4.63 40 22:28 03.03.2022
5006 Snow -3 1002 75 9656 3.09 50 21:44 03.03.2022
5007 Clouds -4 1002 80 10000 2.57 40 21:26 03.03.2022
5008 Clouds -6 1002 73 10000 3.6 50 19:55 03.03.2022
5009 Clouds -6 1003 82 5931 2.5 32 18:55 03.03.2022
5010 Clear -8 1002 79 10000 4.12 40 18:24 03.03.2022
5011 Clear -7 1002 74 10000 4.12 40 17:31 03.03.2022
5012 Clear -6 1002 79 10000 3.6 50 16:25 03.03.2022
5013 Clouds -5 1002 74 10000 4.63 60 15:24 03.03.2022
5014 Clouds -4 1003 74 10000 4.12 60 14:43 03.03.2022
5015 Clouds -4 1003 74 10000 4.12 60 14:20 03.03.2022
5016 Clouds -4 1003 74 10000 4.12 60 14:20 03.03.2022
5017 Clouds -4 1003 74 10000 4.12 60 14:20 03.03.2022
5018 Clouds -4 1003 74 10000 4.12 50 12:23 03.03.2022
5019 Clouds -4 1003 74 10000 5.14 50 10:48 03.03.2022
5020 Clouds -5 1003 74 10000 4.12 40 09:45 03.03.2022
5021 Clouds -6 1004 79 10000 5.14 40 08:19 03.03.2022
5022 Clouds -6 1004 79 10000 2.57 40 06:37 03.03.2022
5023 Clouds -7 1005 79 10000 4.12 360 03:21 03.03.2022
5024 Clouds -8 1007 79 10000 5.66 20 23:41 02.03.2022
5025 Clouds -8 1008 79 10000 3.6 70 22:53 02.03.2022
5026 Clouds -8 1008 79 10000 3.09 80 21:36 02.03.2022
5027 Clouds -14 1009 97 4635 2.47 27 20:57 02.03.2022
5028 Clouds -9 1008 86 10000 3.09 80 20:25 02.03.2022
5029 Clouds -8 1008 79 10000 2.57 90 19:37 02.03.2022
5030 Clouds -8 1008 79 10000 3.09 70 18:57 02.03.2022
5031 Clouds -8 1008 79 10000 2.57 80 18:26 02.03.2022
5032 Clouds -11 1008 85 10000 2.06 20 17:37 02.03.2022
5033 Clouds -12 1008 85 10000 0 0 16:52 02.03.2022
5034 Clear -14 1008 85 10000 0 0 15:20 02.03.2022
5035 Clouds -10 1009 85 10000 3.6 80 13:35 02.03.2022
5036 Clouds -9 1009 79 10000 3.6 60 12:45 02.03.2022
5037 Clouds -9 1009 79 10000 3.6 60 12:24 02.03.2022
5038 Clear -14 1009 78 10000 0 0 11:26 02.03.2022
5039 Clear -13 1009 78 10000 0 0 10:31 02.03.2022
5040 Clear -13 1009 78 10000 1.54 20 09:35 02.03.2022
5041 Clouds -12 1009 73 10000 0 0 08:34 02.03.2022
5042 Clear -11 1009 79 10000 0 0 07:23 02.03.2022
5043 Clear -9 1010 73 10000 0 0 04:46 02.03.2022
5044 Clouds -8 1011 67 10000 0 0 00:40 02.03.2022
5045 Clouds -8 1011 67 10000 0 0 00:40 02.03.2022
5046 Clear -10 1011 79 10000 1.54 150 23:24 01.03.2022
5047 Clear -11 1011 85 10000 0 0 22:37 01.03.2022
5048 Clear -12 1011 79 10000 1.54 260 21:44 01.03.2022
5049 Clear -14 1011 78 10000 0 0 20:40 01.03.2022
5050 Clear -14 1011 78 10000 0 0 20:19 01.03.2022
5051 Clouds -13 1012 83 6347 1.82 44 18:53 01.03.2022
5052 Clear -13 1011 78 10000 0 0 18:24 01.03.2022
5053 Clear -13 1011 78 10000 0 0 17:42 01.03.2022
5054 Clear -12 1011 79 10000 0 0 16:37 01.03.2022
5055 Clear -12 1011 73 10000 0 0 15:48 01.03.2022
5056 Clouds -12 1011 84 6537 2.02 42 14:54 01.03.2022
5057 Clear -13 1011 78 10000 0 0 14:31 01.03.2022
5058 Clear -11 1011 79 10000 1.54 10 13:26 01.03.2022
5059 Clear -12 1011 92 10000 0 0 12:37 01.03.2022
5060 Clear -11 1011 85 10000 1.54 40 11:38 01.03.2022
5061 Clouds -14 1011 100 6551 2.38 38 09:53 01.03.2022
5062 Clear -9 1010 80 10000 0 0 08:30 01.03.2022
5063 Clear -8 1010 86 10000 0 0 07:19 01.03.2022
5064 Clear -2 1009 74 10000 3.09 80 03:27 01.03.2022
5065 Clouds -2 1009 74 10000 3.6 90 00:49 01.03.2022
5066 Clouds -2 1009 74 10000 5.66 90 23:47 28.02.2022
5067 Clouds -2 1008 80 10000 5.66 90 22:43 28.02.2022
5068 Clouds -2 1008 80 10000 5.14 80 21:48 28.02.2022
5069 Clouds -9 1009 96 10000 2.15 53 20:55 28.02.2022
5070 Clouds -2 1008 80 10000 4.63 80 19:51 28.02.2022
5071 Clouds -8 1008 94 10000 2.72 62 18:57 28.02.2022
5072 Clouds -7 1008 93 10000 2.93 65 17:57 28.02.2022
5073 Clouds -2 1007 86 10000 4.63 80 17:23 28.02.2022
5074 Clouds -2 1007 86 10000 5.14 80 16:32 28.02.2022
5075 Clouds -2 1007 86 10000 6.17 80 15:19 28.02.2022
5076 Clouds -1 1007 80 10000 5.66 80 14:29 28.02.2022
5077 Clouds -1 1006 80 10000 4.12 80 13:24 28.02.2022
5078 Clouds -1 1006 80 10000 5.66 80 12:31 28.02.2022
5079 Clouds -2 1006 86 10000 5.14 80 11:21 28.02.2022
5080 Clouds -1 1006 80 10000 6.17 80 10:24 28.02.2022
5081 Snow -2 1007 90 353 2.25 88 09:59 28.02.2022
5082 Clouds -2 1005 86 10000 6.69 90 09:27 28.02.2022
5083 Clouds -2 1005 93 10000 5.66 80 08:26 28.02.2022
5084 Clouds -1 1005 86 10000 6.17 90 06:53 28.02.2022
5085 Clouds -1 1003 93 10000 5.14 100 04:31 28.02.2022
5086 Clouds -1 1003 93 10000 4.12 110 02:41 28.02.2022
5087 Clouds -1 1002 93 10000 3.6 130 23:19 27.02.2022
5088 Clouds -1 1001 93 10000 4.12 130 22:33 27.02.2022
5089 Clouds -1 1001 93 10000 4.63 130 21:47 27.02.2022
5090 Clouds -1 1000 93 10000 5.14 130 20:54 27.02.2022
5091 Clouds -1 1000 93 10000 5.14 130 20:27 27.02.2022
5092 Clouds -1 1001 97 3644 4.61 114 19:56 27.02.2022
5093 Mist -1 999 93 4828 5.14 130 19:26 27.02.2022
5094 Clouds -1 999 93 10000 5.66 130 18:39 27.02.2022
5095 Clouds -1 999 93 10000 6.17 120 17:53 27.02.2022
5096 Snow -1 998 93 10000 7.2 120 16:36 27.02.2022
5097 Snow -1 999 97 207 4.93 107 15:55 27.02.2022
5098 Clouds -1 999 97 1572 4.75 94 12:53 27.02.2022
5099 Clouds -1 997 93 10000 6.17 120 12:29 27.02.2022
5100 Clouds -1 996 93 10000 8.23 110 10:50 27.02.2022
5101 Clouds -1 998 97 1324 5.21 102 09:58 27.02.2022
5102 Clouds -1 996 93 10000 6.69 100 09:29 27.02.2022
5103 Clouds -1 995 93 10000 6.69 100 09:00 27.02.2022
5104 Mist -1 995 93 4828 7.2 110 06:43 27.02.2022
5105 Snow 0 994 86 2414 9.26 110 05:36 27.02.2022
5106 Clouds 1 994 80 10000 8.75 80 00:52 27.02.2022
5107 Clouds 0 995 89 10000 8.35 91 22:56 26.02.2022
5108 Clouds -1 994 86 10000 7.72 80 21:39 26.02.2022
5109 Clouds -1 993 86 10000 7.72 90 20:48 26.02.2022
5110 Clouds -1 993 86 10000 7.72 90 20:19 26.02.2022
5111 Clouds -1 992 86 10000 7.2 90 19:41 26.02.2022
5112 Clouds -1 992 86 10000 7.2 90 19:19 26.02.2022
5113 Clouds 1 991 76 10000 9.26 100 17:45 26.02.2022
5114 Clouds 0 991 80 10000 9.26 100 16:51 26.02.2022
5115 Clouds 1 992 87 10000 10.5 112 15:57 26.02.2022
5116 Clouds 1 990 80 10000 8.23 80 15:23 26.02.2022
5117 Clouds 1 991 87 10000 11.3 122 14:54 26.02.2022
5118 Clouds 2 989 76 10000 12.35 110 14:33 26.02.2022
5119 Clouds 2 989 76 10000 11.83 110 13:19 26.02.2022
5120 Clouds 1 988 80 10000 11.32 90 12:29 26.02.2022
5121 Clouds 2 987 70 10000 14.92 90 11:28 26.02.2022
5122 Clouds 1 986 75 10000 12.35 90 10:49 26.02.2022
5123 Clouds 2 986 79 10000 14.63 95 08:55 26.02.2022
5124 Clouds 3 985 66 10000 9.26 60 07:37 26.02.2022
5125 Clouds 3 987 70 10000 9.26 90 01:27 26.02.2022
5126 Clouds 3 989 76 10000 9.41 76 22:57 25.02.2022
5127 Clear 4 987 61 10000 9.26 50 21:46 25.02.2022
5128 Clear 4 987 61 10000 9.26 50 21:26 25.02.2022
5129 Clear 4 988 65 10000 10.29 40 20:33 25.02.2022
5130 Clear 3 990 70 10000 7.2 40 19:21 25.02.2022
5131 Clear 2 993 75 10000 7.72 30 17:30 25.02.2022
5132 Clear 2 994 75 10000 5.66 40 16:35 25.02.2022
5133 Clear 3 995 71 10000 6.69 60 15:48 25.02.2022
5134 Clear 3 995 71 10000 6.69 60 15:22 25.02.2022
5135 Clear 3 996 71 10000 8.23 70 14:42 25.02.2022
5136 Clouds 2 997 87 10000 6.78 77 13:58 25.02.2022
5137 Clear 2 997 80 10000 7.72 70 13:20 25.02.2022
5138 Clouds 2 998 80 10000 6.17 80 11:28 25.02.2022
5139 Clouds 2 998 80 10000 6.69 70 10:48 25.02.2022
5140 Clouds 2 998 80 10000 6.69 70 10:22 25.02.2022
5141 Clouds 2 997 80 10000 7.2 70 09:31 25.02.2022
5142 Clouds 2 997 81 10000 6.69 80 07:44 25.02.2022
5143 Clouds 2 997 80 10000 7.72 90 06:19 25.02.2022
5144 Clouds 2 996 81 10000 7.72 80 05:36 25.02.2022
5145 Rain 2 996 80 10000 9.26 90 00:30 25.02.2022
5146 Rain 2 996 80 10000 7.72 90 22:20 24.02.2022
5147 Rain 2 996 80 10000 7.72 90 21:42 24.02.2022
5148 Rain 2 996 80 10000 8.75 90 21:20 24.02.2022
5149 Clouds 1 996 80 10000 7.2 80 20:30 24.02.2022
5150 Clouds 1 996 80 10000 8.23 80 19:19 24.02.2022
5151 Clouds 1 996 80 10000 7.72 80 18:20 24.02.2022
5152 Clouds 1 997 86 10000 7.72 80 17:46 24.02.2022
5153 Clouds 1 998 88 10000 9.64 98 16:57 24.02.2022
5154 Rain 1 997 86 10000 8.23 80 16:25 24.02.2022
5155 Clouds 2 997 80 10000 8.23 80 15:31 24.02.2022
5156 Rain 1 998 86 10000 8.23 80 14:43 24.02.2022
5157 Rain 1 998 86 10000 9.26 90 13:45 24.02.2022
5158 Rain 1 998 86 10000 9.26 90 13:27 24.02.2022
5159 Rain 1 998 86 10000 8.75 90 10:48 24.02.2022
5160 Rain 1 998 86 10000 9.77 90 09:42 24.02.2022
5161 Rain 1 999 86 9656 9.77 90 08:43 24.02.2022
5162 Rain 1 999 86 3219 9.26 80 06:27 24.02.2022
5163 Rain 1 999 86 4023 9.26 80 05:36 24.02.2022
5164 Clouds 1 1003 75 10000 9.77 70 00:30 24.02.2022
5165 Clouds 1 1004 83 10000 8.59 81 21:56 23.02.2022
5166 Clouds 0 1005 80 10000 7.72 70 20:43 23.02.2022
5167 Clouds 0 1005 80 10000 7.72 70 20:20 23.02.2022
5168 Clouds 0 1006 80 10000 8.23 70 19:23 23.02.2022
5169 Clouds -1 1007 86 10000 8.23 70 17:56 23.02.2022
5170 Clouds -1 1008 86 10000 6.69 80 16:18 23.02.2022
5171 Clouds -1 1011 93 10000 4.12 80 13:45 23.02.2022
5172 Clouds -1 1011 93 10000 3.09 90 12:31 23.02.2022
5173 Snow -1 1011 97 410 1.69 104 10:56 23.02.2022
5174 Clouds -1 1012 93 10000 4.12 120 09:38 23.02.2022
5175 Snow -1 1011 98 140 1.85 129 08:54 23.02.2022
5176 Clouds -1 1011 93 10000 4.12 130 07:47 23.02.2022
5177 Mist -2 1008 93 2414 6.17 130 02:31 23.02.2022
5178 Snow -1 1008 93 1207 5.14 150 23:50 22.02.2022
5179 Snow -1 1008 93 6437 5.66 140 23:31 22.02.2022
5180 Snow -1 1007 93 1207 4.63 120 22:28 22.02.2022
5181 Mist -1 1007 93 4023 4.12 130 21:44 22.02.2022
5182 Snow -2 1007 93 10000 4.63 130 21:20 22.02.2022
5183 Snow -1 1006 93 4828 3.09 120 20:41 22.02.2022
5184 Mist -1 1006 93 4828 3.09 130 20:22 22.02.2022
5185 Mist -1 1006 93 2816 4.12 170 19:34 22.02.2022
5186 Mist -1 1005 93 8047 4.12 160 18:35 22.02.2022
5187 Clouds -1 1004 93 10000 5.14 170 17:34 22.02.2022
5188 Snow -1 1005 98 1119 3.5 155 16:56 22.02.2022
5189 Clouds -1 1003 93 10000 5.66 160 16:21 22.02.2022
5190 Clouds -1 1003 93 10000 6.69 160 15:30 22.02.2022
5191 Clouds -1 1002 93 10000 5.14 160 14:28 22.02.2022
5192 Mist -1 1002 93 4828 4.63 150 11:39 22.02.2022
5193 Clouds -1 1002 93 10000 5.66 160 09:45 22.02.2022
5194 Clouds 0 1002 93 10000 6.69 140 07:38 22.02.2022
5195 Clouds 0 1002 93 10000 6.69 140 07:19 22.02.2022
5196 Rain 1 1004 86 9656 9.77 150 02:51 22.02.2022
5197 Clouds 1 1005 86 10000 9.77 160 23:42 21.02.2022
5198 Mist 1 1005 86 8047 11.32 160 22:37 21.02.2022
5199 Snow 1 1005 86 4828 11.32 150 21:21 21.02.2022
5200 Snow 0 1006 98 10000 9.78 161 18:56 21.02.2022
5201 Rain 1 1005 87 10000 10.29 150 18:37 21.02.2022
5202 Rain 1 1005 87 4828 10.8 150 16:30 21.02.2022
5203 Snow 1 1004 86 1609 13.89 140 14:23 21.02.2022
5204 Snow 0 1004 93 1207 11.83 140 13:40 21.02.2022
5205 Snow -2 1004 100 1207 11.83 120 12:46 21.02.2022
5206 Snow -3 1004 93 805 14.4 100 12:21 21.02.2022
5207 Snow -3 1004 93 805 14.4 100 12:21 21.02.2022
5208 Snow -6 1007 93 805 14.4 90 10:31 21.02.2022
5209 Snow -7 1010 93 1207 11.32 90 07:51 21.02.2022
5210 Snow -10 1017 79 1207 8.23 80 00:36 21.02.2022
5211 Snow -11 1019 62 10000 7.2 80 22:32 20.02.2022
5212 Clouds -11 1019 57 10000 6.17 70 21:44 20.02.2022
5213 Clouds -11 1019 57 10000 6.17 70 21:25 20.02.2022
5214 Clouds -11 1019 57 10000 7.2 60 20:43 20.02.2022
5215 Clouds -12 1021 56 10000 4.12 70 19:51 20.02.2022
5216 Clouds -13 1020 70 10000 3.05 57 18:57 20.02.2022
5217 Clouds -13 1021 61 10000 3.6 60 18:37 20.02.2022
5218 Clouds -14 1021 74 10000 3.21 51 17:56 20.02.2022
5219 Clouds -13 1021 61 10000 5.14 40 17:24 20.02.2022
5220 Clear -16 1022 66 10000 4.63 40 15:28 20.02.2022
5221 Clouds -20 1023 76 10000 2.92 38 13:59 20.02.2022
5222 Clear -17 1023 67 10000 4.63 50 12:47 20.02.2022
5223 Clouds -22 1024 79 10000 3.3 34 11:56 20.02.2022
5224 Clear -21 1023 77 10000 2.06 20 10:21 20.02.2022
5225 Clear -22 1023 84 10000 2.06 50 09:46 20.02.2022
5226 Clear -18 1022 78 10000 3.09 30 06:30 20.02.2022
5227 Clouds -16 1021 78 10000 3.09 60 00:33 20.02.2022
5228 Clouds -16 1021 78 10000 3.09 50 23:39 19.02.2022
5229 Clear -21 1021 65 10000 0 0 22:24 19.02.2022
5230 Clear -23 1020 70 10000 0 0 21:50 19.02.2022
5231 Clear -25 1019 77 10000 2.06 360 20:41 19.02.2022
5232 Clear -25 1019 77 10000 0 0 19:35 19.02.2022
5233 Clear -25 1019 77 10000 2.06 10 18:41 19.02.2022
5234 Clouds -26 1020 78 10000 1.74 32 17:58 19.02.2022
5235 Clear -25 1018 77 10000 0 0 17:23 19.02.2022
5236 Clouds -25 1019 76 10000 1.59 20 15:59 19.02.2022
5237 Clouds -25 1018 77 10000 1.34 15 14:55 19.02.2022
5238 Clouds -25 1018 75 10000 1.36 13 13:58 19.02.2022
5239 Clear -23 1015 70 10000 1.54 150 11:53 19.02.2022
5240 Clear -23 1015 70 10000 1.54 150 11:24 19.02.2022
5241 Clouds -23 1015 75 10000 2.14 8 08:59 19.02.2022
5242 Clear -19 1012 71 10000 0 0 06:48 19.02.2022
5243 Clear -12 1010 44 10000 1.54 290 00:42 19.02.2022
5244 Clear -14 1009 47 10000 2.57 330 22:33 18.02.2022
5245 Clear -17 1008 55 10000 2.06 0 21:26 18.02.2022
5246 Clear -17 1008 55 10000 1.54 160 20:24 18.02.2022
5247 Clear -16 1008 55 10000 4.63 360 19:50 18.02.2022
5248 Clear -15 1007 51 10000 5.66 30 18:37 18.02.2022
5249 Clear -15 1007 51 10000 5.66 30 18:18 18.02.2022
5250 Clear -16 1007 55 10000 4.63 20 17:18 18.02.2022
5251 Clear -13 1007 47 10000 1.54 190 14:30 18.02.2022
5252 Clear -13 1006 47 10000 3.09 350 13:46 18.02.2022
5253 Clear -13 1006 52 10000 5.14 10 12:50 18.02.2022
5254 Clouds -20 1008 84 10000 3.61 12 11:57 18.02.2022
5255 Clear -13 1006 52 10000 3.09 210 10:42 18.02.2022
5256 Clouds -10 1006 41 10000 9.26 20 08:47 18.02.2022
5257 Clouds -10 1006 41 10000 10.29 30 06:35 18.02.2022
5258 Clouds -12 1006 48 10000 11.32 50 05:34 18.02.2022
5259 Clouds -11 1013 52 10000 9.77 40 22:20 17.02.2022
5260 Clouds -11 1013 52 10000 12.35 40 21:38 17.02.2022
5261 Clouds -11 1014 52 10000 12.86 40 20:43 17.02.2022
5262 Clouds -15 1014 78 10000 4.31 28 19:56 17.02.2022
5263 Clouds -11 1015 48 10000 13.89 30 19:26 17.02.2022
5264 Clear -13 1016 57 10000 11.32 40 18:29 17.02.2022
5265 Clear -12 1016 53 10000 12.86 40 17:42 17.02.2022
5266 Clouds -16 1016 78 10000 4.11 33 15:58 17.02.2022
5267 Clear -11 1018 44 10000 9.26 40 14:30 17.02.2022
5268 Clear -11 1018 44 10000 9.26 40 14:30 17.02.2022
5269 Clear -12 1019 48 10000 7.72 40 13:47 17.02.2022
5270 Clear -12 1020 48 10000 7.2 50 11:52 17.02.2022
5271 Clear -12 1020 52 10000 10.8 40 10:20 17.02.2022
5272 Clouds -20 1021 86 10000 4.16 24 07:56 17.02.2022
5273 Clear -10 1018 48 9656 11.32 20 23:50 16.02.2022
5274 Clear -10 1017 48 9656 12.86 20 22:36 16.02.2022
5275 Clouds -22 1018 84 10000 4.53 10 20:24 16.02.2022
5276 Clear -12 1016 56 9656 11.83 30 19:23 16.02.2022
5277 Clouds -22 1017 83 10000 4.16 12 18:34 16.02.2022
5278 Haze -12 1016 56 8047 12.35 20 17:24 16.02.2022
5279 Haze -12 1016 61 3219 13.89 30 15:23 16.02.2022
5280 Clear -13 1018 47 10000 11.83 360 13:47 16.02.2022
5281 Clear -13 1019 47 10000 7.2 20 12:27 16.02.2022
5282 Clear -13 1020 47 10000 8.23 30 11:46 16.02.2022
5283 Clear -13 1021 47 10000 7.72 40 10:35 16.02.2022
5284 Clear -14 1021 47 10000 9.26 20 09:39 16.02.2022
5285 Clear -15 1024 51 10000 3.6 30 06:44 16.02.2022
5286 Clear -18 1026 60 10000 0 0 02:48 16.02.2022
5287 Clear -19 1026 55 10000 0 0 22:34 15.02.2022
5288 Clear -20 1026 59 10000 1.54 180 21:51 15.02.2022
5289 Clear -20 1026 59 10000 1.54 180 21:31 15.02.2022
5290 Clouds -26 1026 89 10000 2.8 23 20:58 15.02.2022
5291 Clear -19 1025 55 10000 1.54 40 20:27 15.02.2022
5292 Clear -19 1024 55 10000 0 0 19:46 15.02.2022
5293 Clear -17 1023 51 10000 1.54 40 18:27 15.02.2022
5294 Clouds -25 1025 90 10000 2.61 25 17:55 15.02.2022
5295 Clear -16 1023 55 10000 2.57 60 17:37 15.02.2022
5296 Clear -15 1021 51 10000 5.14 350 15:44 15.02.2022
5297 Clear -15 1021 51 10000 7.2 360 14:31 15.02.2022
5298 Clear -16 1020 55 10000 7.2 350 13:25 15.02.2022
5299 Clouds -23 1022 87 10000 3.22 22 11:41 15.02.2022
5300 Clouds -25 1021 89 10000 3.23 24 10:30 15.02.2022
5301 Clear -16 1019 55 10000 8.23 340 08:48 15.02.2022
5302 Clear -16 1020 55 10000 7.2 10 06:47 15.02.2022
5303 Clear -17 1023 60 10000 3.09 330 00:26 15.02.2022
5304 Clouds -24 1025 87 10000 4.55 17 21:58 14.02.2022
5305 Clouds -25 1026 89 10000 3.99 23 20:55 14.02.2022
5306 Clear -21 1027 65 10000 3.6 350 19:52 14.02.2022
5307 Clear -21 1027 65 10000 3.6 350 19:30 14.02.2022
5308 Clear -22 1028 64 10000 4.12 340 18:24 14.02.2022
5309 Clear -22 1028 64 10000 4.12 340 18:24 14.02.2022
5310 Clear -25 1029 70 10000 1.54 340 17:31 14.02.2022
5311 Clear -26 1030 70 10000 0 0 16:49 14.02.2022
5312 Clear -24 1030 64 10000 2.06 20 15:42 14.02.2022
5313 Clear -25 1032 70 10000 3.6 10 13:36 14.02.2022
5314 Clear -26 1033 75 10000 2.55 30 12:59 14.02.2022
5315 Clear -27 1033 76 10000 0 0 12:32 14.02.2022
5316 Clear -25 1033 70 10000 0 0 11:39 14.02.2022
5317 Clear -24 1032 64 10000 2.57 10 10:22 14.02.2022
5318 Clouds -23 1034 70 10000 2.06 200 08:26 14.02.2022
5319 Clouds -23 1034 70 10000 1.54 150 07:26 14.02.2022
5320 Clear -23 1031 64 10000 3.09 10 23:19 13.02.2022
5321 Clear -24 1031 70 10000 0 0 22:41 13.02.2022
5322 Clear -24 1031 70 10000 0 0 22:22 13.02.2022
5323 Clear -26 1030 76 10000 0 0 21:24 13.02.2022
5324 Clear -26 1029 70 10000 0 0 20:28 13.02.2022
5325 Clear -25 1029 64 10000 0 0 19:23 13.02.2022
5326 Clear -27 1028 70 10000 0 0 18:41 13.02.2022
5327 Clear -26 1028 70 10000 0 0 17:41 13.02.2022
5328 Clear -28 1029 75 10000 2.33 17 15:53 13.02.2022
5329 Clear -26 1026 70 10000 0 0 14:52 13.02.2022
5330 Clear -25 1026 70 10000 0 0 13:42 13.02.2022
5331 Clear -24 1025 64 10000 0 0 12:49 13.02.2022
5332 Clear -24 1024 64 10000 0 0 10:50 13.02.2022
5333 Clear -24 1024 64 10000 0 0 10:27 13.02.2022
5334 Clear -25 1025 73 10000 2.75 14 08:59 13.02.2022
5335 Clear -21 1021 65 10000 0 0 05:27 13.02.2022
5336 Clear -18 1019 50 10000 1.54 320 00:34 13.02.2022
5337 Clouds -23 1020 85 10000 2.37 8 22:59 12.02.2022
5338 Clouds -17 1018 46 10000 0 0 22:33 12.02.2022
5339 Clouds -18 1018 60 10000 2.06 320 21:19 12.02.2022
5340 Clouds -17 1017 55 10000 0 0 20:25 12.02.2022
5341 Clouds -18 1016 60 10000 3.09 330 19:18 12.02.2022
5342 Clouds -17 1016 55 10000 4.63 340 18:41 12.02.2022
5343 Clouds -17 1016 55 10000 4.63 340 18:23 12.02.2022
5344 Clouds -26 1018 87 10000 2.69 19 16:55 12.02.2022
5345 Clouds -17 1015 55 10000 2.06 350 16:25 12.02.2022
5346 Clouds -17 1015 55 10000 4.63 30 15:32 12.02.2022
5347 Clouds -17 1015 55 10000 4.12 50 14:30 12.02.2022
5348 Clouds -25 1017 86 10000 2.84 10 12:55 12.02.2022
5349 Clouds -17 1015 55 10000 2.06 260 10:35 12.02.2022
5350 Clouds -17 1015 55 10000 5.14 340 09:38 12.02.2022
5351 Clouds -18 1016 55 10000 8.23 20 08:48 12.02.2022
5352 Clouds -18 1016 50 10000 3.6 360 07:50 12.02.2022
5353 Clear -18 1016 60 10000 7.2 20 05:33 12.02.2022
5354 Clear -17 1018 55 10000 9.26 20 02:20 12.02.2022
5355 Clear -18 1019 60 10000 4.63 360 01:44 12.02.2022
5356 Clear -19 1021 55 10000 6.69 350 22:27 11.02.2022
5357 Clear -21 1021 59 10000 4.12 340 21:45 11.02.2022
5358 Clear -20 1022 54 10000 5.66 10 20:38 11.02.2022
5359 Clear -20 1022 54 10000 5.14 10 19:33 11.02.2022
5360 Clear -27 1023 85 10000 3.19 28 18:58 11.02.2022
5361 Clear -21 1023 54 10000 0 0 17:41 11.02.2022
5362 Clear -21 1023 54 10000 0 0 17:22 11.02.2022
5363 Clear -27 1024 84 10000 3.79 18 15:55 11.02.2022
5364 Clear -23 1026 59 10000 2.57 20 14:38 11.02.2022
5365 Clear -23 1026 59 10000 2.57 20 14:20 11.02.2022
5366 Clear -23 1027 59 10000 4.12 350 13:50 11.02.2022
5367 Clear -23 1027 59 10000 4.12 350 13:31 11.02.2022
5368 Clear -26 1029 64 10000 0 0 11:27 11.02.2022
5369 Clear -26 1030 65 10000 0 0 09:39 11.02.2022
5370 Clear -28 1030 76 10000 3.23 18 08:39 11.02.2022
5371 Clear -28 1031 77 10000 2.87 21 08:21 11.02.2022
5372 Clear -27 1031 69 10000 0 0 06:33 11.02.2022
5373 Clouds -22 1031 71 10000 1.54 40 02:25 11.02.2022
5374 Clear -22 1031 71 10000 3.6 60 00:46 11.02.2022
5375 Clouds -27 1029 76 10000 0 0 22:45 10.02.2022
5376 Clouds -27 1029 76 10000 0 0 21:44 10.02.2022
5377 Clouds -29 1028 76 10000 2.06 20 20:54 10.02.2022
5378 Clear -30 1027 76 10000 0 0 20:29 10.02.2022
5379 Clear -28 1026 69 10000 0 0 19:24 10.02.2022
5380 Clear -29 1025 76 10000 0 0 18:43 10.02.2022
5381 Clouds -28 1023 76 10000 0 0 17:26 10.02.2022
5382 Clouds -27 1023 69 10000 1.54 20 16:47 10.02.2022
5383 Clouds -29 1021 76 10000 1.54 10 15:45 10.02.2022
5384 Clouds -29 1021 76 10000 1.54 10 15:25 10.02.2022
5385 Clouds -30 1020 76 10000 2.06 20 14:46 10.02.2022
5386 Clouds -30 1020 76 10000 2.06 20 14:23 10.02.2022
5387 Clouds -30 1019 76 10000 1.54 10 13:21 10.02.2022
5388 Clear -30 1017 76 10000 1.54 360 12:23 10.02.2022
5389 Clear -31 1015 76 10000 0 0 11:33 10.02.2022
5390 Clear -31 1014 76 10000 0 0 10:35 10.02.2022
5391 Clear -29 1012 76 10000 0 0 09:49 10.02.2022
5392 Clouds -31 1014 78 6404 2.3 355 08:53 10.02.2022
5393 Clear -27 1008 69 10000 3.09 30 06:42 10.02.2022
5394 Clouds -24 1006 70 10000 2.57 40 03:55 10.02.2022
5395 Clouds -24 1004 70 10000 3.09 30 01:43 10.02.2022
5396 Clear -23 1004 70 10000 3.6 50 00:42 10.02.2022
5397 Clear -23 1004 70 10000 3.6 50 00:24 10.02.2022
5398 Clouds -25 1006 79 2463 2.03 63 22:58 09.02.2022
5399 Clouds -23 1002 70 10000 4.12 70 22:33 09.02.2022
5400 Clouds -23 1002 70 10000 3.09 60 21:49 09.02.2022
5401 Clouds -23 1002 77 9656 4.63 70 21:28 09.02.2022
5402 Clouds -23 1001 70 10000 4.63 80 20:45 09.02.2022
5403 Clouds -23 1001 70 10000 4.63 80 20:23 09.02.2022
5404 Snow -23 1001 77 8047 5.14 80 19:44 09.02.2022
5405 Clouds -23 1000 77 9656 3.6 80 18:58 09.02.2022
5406 Snow -22 1000 77 4828 1.54 70 17:32 09.02.2022
5407 Snow -21 999 77 4828 2.57 100 16:26 09.02.2022
5408 Haze -21 999 84 9656 3.09 80 15:32 09.02.2022
5409 Snow -20 999 77 3219 2.57 90 13:57 09.02.2022
5410 Clouds -19 998 71 10000 2.06 40 12:25 09.02.2022
5411 Snow -18 998 71 6437 3.09 360 10:37 09.02.2022
5412 Snow -18 998 71 4828 3.6 20 09:57 09.02.2022
5413 Snow -18 998 78 3219 4.12 40 09:23 09.02.2022
5414 Snow -18 997 71 4828 4.63 40 08:51 09.02.2022
5415 Snow -18 997 71 4023 6.17 50 07:28 09.02.2022
5416 Snow -18 997 71 3219 7.72 50 05:30 09.02.2022
5417 Snow -19 996 78 1609 10.29 40 03:50 09.02.2022
5418 Snow -17 997 66 2012 8.75 30 00:21 09.02.2022
5419 Clouds -17 997 55 10000 9.77 20 23:29 08.02.2022
5420 Clouds -17 997 55 10000 8.23 360 22:43 08.02.2022
5421 Clouds -17 997 55 10000 8.23 360 22:20 08.02.2022
5422 Clouds -17 996 55 10000 9.26 10 21:38 08.02.2022
5423 Clouds -17 996 55 10000 9.26 10 21:19 08.02.2022
5424 Clouds -17 996 55 10000 9.77 20 20:41 08.02.2022
5425 Clouds -17 996 46 10000 10.8 20 19:41 08.02.2022
5426 Clouds -17 997 46 10000 11.32 20 18:34 08.02.2022
5427 Clouds -18 997 50 10000 9.77 10 17:36 08.02.2022
5428 Clouds -27 1000 86 10000 4.42 355 15:55 08.02.2022
5429 Clouds -19 999 46 10000 11.32 10 15:29 08.02.2022
5430 Clouds -28 1002 86 10000 4.73 355 13:59 08.02.2022
5431 Clear -21 1001 49 10000 12.35 40 12:40 08.02.2022
5432 Clear -22 1002 54 10000 12.35 30 11:20 08.02.2022
5433 Clear -29 1004 81 10000 5.71 355 09:59 08.02.2022
5434 Clear -29 1004 85 10000 5.92 356 08:56 08.02.2022
5435 Clear -23 1005 54 10000 8.75 20 07:37 08.02.2022
5436 Clear -22 1005 49 10000 8.75 20 04:40 08.02.2022
5437 Clear -22 1005 49 10000 8.75 20 04:22 08.02.2022
5438 Clear -22 1006 54 10000 6.17 20 03:36 08.02.2022
5439 Clear -22 1006 54 10000 6.17 20 03:18 08.02.2022
5440 Clear -28 1006 88 10000 5.33 4 02:59 08.02.2022
5441 Clear -22 1006 54 10000 7.72 30 02:37 08.02.2022
5442 Clear -22 1006 54 10000 7.72 30 02:19 08.02.2022
5443 Clear -28 1007 88 10000 5.11 7 01:55 08.02.2022
5444 Clear -21 1007 49 10000 10.29 30 01:37 08.02.2022
5445 Clear -21 1007 49 10000 10.29 30 01:19 08.02.2022
5446 Clear -20 1007 45 10000 9.77 30 00:44 08.02.2022
5447 Clouds -22 1007 54 10000 10.29 40 23:45 07.02.2022
5448 Clouds -22 1007 54 10000 10.29 40 23:18 07.02.2022
5449 Clouds -28 1008 90 10000 4.2 12 22:59 07.02.2022
5450 Clouds -21 1007 49 10000 9.26 30 22:19 07.02.2022
5451 Clear -21 1006 49 10000 11.32 30 21:51 07.02.2022
5452 Clear -21 1006 49 10000 11.32 30 21:28 07.02.2022
5453 Clouds -30 1007 93 10000 3.87 11 20:56 07.02.2022
5454 Clear -22 1006 49 10000 7.2 20 20:38 07.02.2022
5455 Clear -22 1006 49 10000 7.72 30 19:47 07.02.2022
5456 Clear -22 1006 49 10000 7.72 30 19:20 07.02.2022
5457 Clear -22 1006 49 10000 10.29 40 17:39 07.02.2022
5458 Clear -23 1006 49 10000 10.29 40 16:52 07.02.2022
5459 Clear -23 1006 54 10000 5.14 20 15:49 07.02.2022
5460 Clear -24 1006 53 10000 5.66 20 14:41 07.02.2022
5461 Clear -27 1007 63 10000 0 0 13:27 07.02.2022
5462 Clear -27 1006 63 10000 1.54 230 12:38 07.02.2022
5463 Clouds -33 1008 93 10000 2.89 358 11:55 07.02.2022
5464 Clear -26 1007 64 10000 1.54 30 11:26 07.02.2022
5465 Clear -26 1007 64 10000 3.09 340 10:45 07.02.2022
5466 Clear -26 1007 64 10000 3.09 340 10:26 07.02.2022
5467 Clear -25 1007 58 10000 3.09 10 09:52 07.02.2022
5468 Clear -25 1007 58 10000 3.09 10 09:18 07.02.2022
5469 Clear -23 1007 54 10000 4.12 340 08:20 07.02.2022
5470 Clear -23 1007 59 10000 7.2 350 06:35 07.02.2022
5471 Clear -23 1007 64 10000 5.66 360 05:47 07.02.2022
5472 Clear -26 1009 92 10000 3.75 356 02:56 07.02.2022
5473 Clear -18 1009 60 10000 4.12 330 00:33 07.02.2022
5474 Clear -17 1010 55 10000 2.06 270 23:41 06.02.2022
5475 Clear -17 1010 55 10000 6.17 310 22:47 06.02.2022
5476 Clear -18 1010 60 10000 5.14 330 21:51 06.02.2022
5477 Clear -18 1010 60 10000 5.14 330 21:26 06.02.2022
5478 Clear -18 1010 55 10000 2.57 350 20:52 06.02.2022
5479 Clear -18 1010 55 10000 2.57 350 20:24 06.02.2022
5480 Clear -18 1011 50 10000 3.6 40 19:30 06.02.2022
5481 Clear -18 1010 50 10000 6.17 330 18:35 06.02.2022
5482 Clear -24 1011 85 10000 4.19 355 17:54 06.02.2022
5483 Clear -24 1010 84 10000 4.43 353 16:53 06.02.2022
5484 Clear -17 1009 51 10000 7.72 350 16:32 06.02.2022
5485 Clear -17 1009 51 10000 10.29 340 15:47 06.02.2022
5486 Clear -17 1009 51 10000 10.29 340 15:26 06.02.2022
5487 Clear -17 1009 46 10000 8.75 350 14:27 06.02.2022
5488 Clear -17 1009 46 10000 8.75 360 13:24 06.02.2022
5489 Clear -17 1009 46 10000 7.72 10 12:45 06.02.2022
5490 Clear -18 1009 46 10000 4.63 360 11:19 06.02.2022
5491 Clear -27 1010 91 10000 3.21 351 09:56 06.02.2022
5492 Clear -21 1008 65 10000 1.54 0 08:47 06.02.2022
5493 Clear -20 1008 59 10000 2.57 100 07:36 06.02.2022
5494 Clear -18 1007 60 10000 1.54 0 05:29 06.02.2022
5495 Clear -18 1006 65 10000 2.57 360 02:26 06.02.2022
5496 Clear -18 1006 65 10000 0 0 01:21 06.02.2022
5497 Clear -18 1007 60 10000 1.54 310 00:24 06.02.2022
5498 Clear -21 1006 65 10000 2.06 30 22:19 05.02.2022
5499 Clear -18 1005 60 10000 1.54 360 20:52 05.02.2022
5500 Clear -18 1005 60 10000 1.54 360 20:24 05.02.2022
5501 Clear -17 1005 51 10000 5.66 330 19:45 05.02.2022
5502 Clear -17 1006 46 10000 4.12 300 18:49 05.02.2022
5503 Clear -17 1005 46 10000 5.66 330 17:37 05.02.2022
5504 Clear -19 1005 50 10000 2.06 240 16:37 05.02.2022
5505 Clear -17 1005 46 10000 5.14 330 15:33 05.02.2022
5506 Clear -17 1005 46 10000 5.14 340 14:40 05.02.2022
5507 Clear -16 1005 47 10000 7.2 20 12:46 05.02.2022
5508 Clear -14 1004 33 10000 3.6 360 11:47 05.02.2022
5509 Clear -18 1004 50 10000 0 0 10:46 05.02.2022
5510 Clear -17 1003 55 10000 3.09 350 09:51 05.02.2022
5511 Clear -17 1003 55 10000 3.09 350 09:25 05.02.2022
5512 Clear -19 1003 65 10000 0 0 07:36 05.02.2022
5513 Clouds -20 1004 72 10000 3.48 21 06:56 05.02.2022
5514 Clouds -14 1002 56 10000 3.09 50 03:22 05.02.2022
5515 Clear -14 1001 52 10000 4.63 50 01:19 05.02.2022
5516 Clear -14 1001 52 10000 6.17 60 00:39 05.02.2022
5517 Clear -14 1001 56 10000 4.63 40 23:38 04.02.2022
5518 Clear -14 1001 56 10000 4.63 40 23:20 04.02.2022
5519 Clear -14 1001 56 10000 5.14 60 21:36 04.02.2022
5520 Clear -14 1001 56 10000 5.14 60 21:18 04.02.2022
5521 Clear -14 1000 56 10000 6.17 60 20:46 04.02.2022
5522 Clear -14 1000 56 10000 5.14 50 19:30 04.02.2022
5523 Clouds -14 1001 63 10000 6.87 60 16:56 04.02.2022
5524 Clear -14 1000 56 10000 8.75 50 15:34 04.02.2022
5525 Clear -14 1000 52 10000 7.2 50 14:51 04.02.2022
5526 Clear -13 1000 47 10000 9.26 60 12:43 04.02.2022
5527 Clear -14 1000 51 10000 8.75 50 11:46 04.02.2022
5528 Clear -14 1000 51 10000 8.75 50 11:18 04.02.2022
5529 Clear -14 1000 51 10000 12.86 50 10:30 04.02.2022
5530 Clear -14 1000 56 10000 11.83 50 08:33 04.02.2022
5531 Clear -14 1000 51 10000 13.38 50 04:53 04.02.2022
5532 Clear -14 1001 52 10000 13.38 50 02:38 04.02.2022
5533 Clear -15 1003 62 8047 14.92 50 00:18 04.02.2022
5534 Clouds -17 1007 74 10000 15.13 59 22:55 03.02.2022
5535 Clear -14 1004 52 4828 14.92 50 22:22 03.02.2022
5536 Clear -15 1005 57 9656 15.43 50 21:41 03.02.2022
5537 Clear -15 1005 56 10000 14.92 50 20:22 03.02.2022
5538 Clear -15 1006 57 10000 14.92 40 19:49 03.02.2022
5539 Clear -15 1006 57 10000 14.92 40 19:20 03.02.2022
5540 Clear -14 1007 57 10000 13.38 40 18:24 03.02.2022
5541 Clear -13 1008 53 10000 13.89 50 17:26 03.02.2022
5542 Clear -14 1009 57 4023 13.89 50 15:38 03.02.2022
5543 Clear -13 1009 53 6437 16.98 50 14:18 03.02.2022
5544 Clear -13 1010 61 2816 16.46 60 12:32 03.02.2022
5545 Clouds -13 1014 69 10000 13.71 59 08:59 03.02.2022
5546 Clear -13 1013 62 4828 14.92 50 08:18 03.02.2022
5547 Clouds -13 1017 73 10000 11.04 59 00:59 03.02.2022
5548 Clear -13 1016 62 9656 14.4 50 00:22 03.02.2022
5549 Clear -12 1017 57 9656 15.95 60 22:40 02.02.2022
5550 Clouds -13 1017 72 10000 9.76 55 21:51 02.02.2022
5551 Clouds -13 1018 76 10000 9.35 61 21:29 02.02.2022
5552 Clear -12 1017 56 10000 12.86 50 20:27 02.02.2022
5553 Clear -12 1016 61 6437 13.89 50 19:48 02.02.2022
5554 Clear -11 1016 58 10000 12.35 50 18:59 02.02.2022
5555 Clear -11 1016 58 10000 12.35 50 18:25 02.02.2022
5556 Clear -11 1016 58 9656 16.46 60 17:21 02.02.2022
5557 Clear -12 1016 68 10000 7.56 52 16:58 02.02.2022
5558 Clear -10 1017 58 6437 15.95 50 15:29 02.02.2022
5559 Clear -9 1016 53 9656 14.4 60 12:31 02.02.2022
5560 Clear -9 1016 58 10000 14.92 50 11:49 02.02.2022
5561 Clear -9 1016 58 10000 14.92 50 11:30 02.02.2022
5562 Clear -8 1015 53 9656 13.89 50 08:48 02.02.2022
5563 Clear -10 1017 45 10000 8.11 51 04:57 02.02.2022
5564 Clear -7 1017 53 10000 11.83 60 22:34 01.02.2022
5565 Clear -9 1018 42 10000 9.84 50 20:55 01.02.2022
5566 Clear -6 1018 53 10000 11.83 50 19:29 01.02.2022
5567 Clear -4 1020 39 10000 6.17 40 17:34 01.02.2022
5568 Clear -6 1021 45 10000 7.2 40 16:31 01.02.2022
5569 Clear -7 1022 49 10000 7.72 40 13:27 01.02.2022
5570 Clear -8 1023 53 10000 9.77 40 12:21 01.02.2022
5571 Clouds -14 1024 59 10000 4.18 46 08:52 01.02.2022
5572 Clouds -14 1024 59 10000 4.18 46 08:52 01.02.2022
5573 Clear -7 1026 45 10000 7.2 60 02:21 01.02.2022
5574 Clear -9 1027 45 10000 5.14 50 23:38 31.01.2022
5575 Clear -9 1027 45 10000 5.66 60 22:42 31.01.2022
5576 Clear -11 1027 48 10000 5.14 60 21:35 31.01.2022
5577 Clear -12 1026 52 10000 4.12 50 20:35 31.01.2022
5578 Clear -20 1027 82 10000 3.08 51 19:58 31.01.2022
5579 Clear -12 1027 48 10000 4.12 70 18:32 31.01.2022
5580 Clear -12 1027 48 10000 4.12 70 18:32 31.01.2022
5581 Clear -19 1026 82 10000 2.99 52 17:57 31.01.2022
5582 Clear -19 1027 65 10000 1.54 0 17:24 31.01.2022
5583 Clear -23 1027 70 10000 0 0 16:23 31.01.2022
5584 Clear -20 1026 74 10000 3.22 44 14:53 31.01.2022
5585 Clear -22 1027 71 10000 0 0 13:31 31.01.2022
5586 Clear -18 1027 65 10000 0 0 12:38 31.01.2022
5587 Clear -14 1026 66 10000 0 0 11:26 31.01.2022
5588 Clear -22 1027 71 10000 0 0 10:48 31.01.2022
5589 Clear -20 1027 71 10000 0 0 09:37 31.01.2022
5590 Clear -18 1027 81 10000 2.87 36 08:56 31.01.2022
5591 Clear -20 1027 71 10000 2.06 50 08:20 31.01.2022
5592 Clear -18 1027 65 10000 0 0 07:43 31.01.2022
5593 Clear -22 1026 77 10000 0 0 05:33 31.01.2022
5594 Clear -22 1027 71 10000 0 0 00:36 31.01.2022
5595 Clear -23 1027 70 10000 0 0 22:33 30.01.2022
5596 Clear -23 1027 70 10000 2.06 20 21:46 30.01.2022
5597 Clear -23 1027 70 10000 2.06 20 21:26 30.01.2022
5598 Clear -22 1027 77 10000 2.09 34 20:54 30.01.2022
5599 Clear -25 1027 77 10000 0 0 20:31 30.01.2022
5600 Clear -23 1027 77 10000 1.65 40 19:56 30.01.2022
5601 Clear -24 1026 77 10000 0 0 18:52 30.01.2022
5602 Clear -24 1026 77 10000 0 0 18:26 30.01.2022
5603 Clear -25 1026 77 10000 0 0 17:31 30.01.2022
5604 Clear -25 1026 77 10000 0 0 17:31 30.01.2022
5605 Clear -24 1026 70 10000 0 0 16:44 30.01.2022
5606 Clear -24 1026 71 10000 0 0 16:23 30.01.2022
5607 Clear -22 1026 79 10000 1.99 27 15:55 30.01.2022
5608 Clear -25 1026 77 10000 0 0 15:37 30.01.2022
5609 Clear -25 1026 77 10000 0 0 15:19 30.01.2022
5610 Clear -23 1026 70 10000 0 0 14:44 30.01.2022
5611 Clear -24 1026 70 10000 1.54 20 12:46 30.01.2022
5612 Clear -23 1026 70 10000 0 0 11:49 30.01.2022
5613 Clear -23 1025 70 10000 0 0 10:26 30.01.2022
5614 Clear -23 1025 70 10000 0 0 09:26 30.01.2022
5615 Clear -22 1024 65 10000 1.54 360 08:32 30.01.2022
5616 Clear -20 1022 85 10000 1.61 29 02:55 30.01.2022
5617 Clear -16 1022 56 10000 1.4 22 01:54 30.01.2022
5618 Clear -23 1021 63 10000 0 0 23:49 29.01.2022
5619 Clear -18 1021 57 10000 2.32 10 22:58 29.01.2022
5620 Clear -23 1020 59 10000 0 0 21:35 29.01.2022
5621 Clear -20 1021 75 10000 2.99 15 21:00 29.01.2022
5622 Clear -25 1020 70 10000 2.57 20 20:21 29.01.2022
5623 Clear -24 1020 64 10000 0 0 19:33 29.01.2022
5624 Clear -23 1020 59 10000 0 0 18:51 29.01.2022
5625 Clear -22 1020 75 10000 2.33 10 17:56 29.01.2022
5626 Clear -24 1019 64 10000 1.54 330 17:19 29.01.2022
5627 Clear -22 1020 59 10000 0 0 15:42 29.01.2022
5628 Clear -20 1021 62 10000 3.38 11 13:58 29.01.2022
5629 Clear -26 1020 70 10000 1.54 340 13:36 29.01.2022
5630 Clear -26 1020 70 10000 1.54 340 13:18 29.01.2022
5631 Clear -24 1021 64 10000 1.54 0 11:40 29.01.2022
5632 Clear -24 1022 70 10000 1.54 0 10:34 29.01.2022
5633 Clear -25 1022 70 10000 0 0 08:36 29.01.2022
5634 Clear -23 1024 59 10000 2.06 20 03:25 29.01.2022
5635 Clear -24 1025 64 10000 0 0 00:32 29.01.2022
5636 Clear -23 1025 64 10000 0 0 23:32 28.01.2022
5637 Clear -23 1025 64 10000 0 0 23:32 28.01.2022
5638 Clear -24 1026 64 10000 0 0 22:47 28.01.2022
5639 Clear -24 1026 64 10000 0 0 22:19 28.01.2022
5640 Clear -24 1026 64 10000 1.54 40 20:41 28.01.2022
5641 Clear -23 1026 81 10000 2.98 357 19:58 28.01.2022
5642 Clear -28 1026 76 10000 0 0 19:18 28.01.2022
5643 Clear -28 1026 69 10000 2.06 0 18:35 28.01.2022
5644 Clear -28 1026 76 10000 0 0 16:37 28.01.2022
5645 Clear -22 1026 80 10000 3.07 6 14:58 28.01.2022
5646 Clear -27 1027 69 10000 0 0 13:21 28.01.2022
5647 Clear -26 1027 76 10000 0 0 11:50 28.01.2022
5648 Clear -26 1027 76 10000 0 0 10:27 28.01.2022
5649 Clear -23 1027 64 10000 2.06 10 09:47 28.01.2022
5650 Clear -24 1027 70 10000 0 0 07:42 28.01.2022
5651 Clear -23 1027 70 10000 2.06 200 06:30 28.01.2022
5652 Clear -23 1027 70 10000 0 0 03:51 28.01.2022
5653 Clear -22 1028 71 10000 0 0 02:28 28.01.2022
5654 Clear -23 1029 70 10000 0 0 01:38 28.01.2022
5655 Clear -21 1029 65 10000 0 0 00:46 28.01.2022
5656 Clear -24 1030 70 10000 1.54 0 22:39 27.01.2022
5657 Clear -21 1030 60 10000 2.06 340 21:40 27.01.2022
5658 Clear -24 1030 71 10000 2.41 0 20:59 27.01.2022
5659 Clear -24 1031 64 10000 0 0 19:45 27.01.2022
5660 Clear -24 1031 64 10000 2.06 300 18:20 27.01.2022
5661 Clear -25 1032 84 10000 2.26 17 16:59 27.01.2022
5662 Clear -29 1033 69 10000 0 0 14:23 27.01.2022
5663 Clear -31 1035 76 10000 0 0 12:49 27.01.2022
5664 Clear -31 1035 76 10000 0 0 12:49 27.01.2022
5665 Clear -31 1035 76 10000 0 0 12:18 27.01.2022
5666 Clear -29 1034 76 10000 0 0 09:48 27.01.2022
5667 Clear -29 1034 76 10000 2.06 50 08:40 27.01.2022
5668 Clear -29 1034 83 10000 0 0 07:53 27.01.2022
5669 Clear -27 1035 76 10000 0 0 03:34 27.01.2022
5670 Clear -26 1035 76 10000 0 0 00:24 27.01.2022
5671 Clear -27 1035 76 10000 0 0 22:28 26.01.2022
5672 Clear -28 1034 76 10000 0 0 21:44 26.01.2022
5673 Clear -28 1034 69 10000 0 0 20:52 26.01.2022
5674 Clear -28 1034 69 10000 0 0 20:32 26.01.2022
5675 Clear -29 1033 76 10000 0 0 19:49 26.01.2022
5676 Clear -28 1033 76 10000 0 0 18:48 26.01.2022
5677 Clear -28 1033 76 10000 0 0 18:24 26.01.2022
5678 Clear -28 1033 69 10000 1.54 360 17:33 26.01.2022
5679 Clear -27 1034 81 10000 2.38 18 16:56 26.01.2022
5680 Clear -27 1032 76 10000 0 0 16:23 26.01.2022
5681 Clear -28 1033 79 10000 2.55 20 14:54 26.01.2022
5682 Clear -27 1029 70 10000 0 0 12:22 26.01.2022
5683 Clear -27 1028 76 10000 0 0 10:52 26.01.2022
5684 Clouds -28 1029 80 10000 2.7 12 09:55 26.01.2022
5685 Clear -26 1027 76 10000 0 0 09:36 26.01.2022
5686 Clear -25 1025 77 10000 0 0 06:43 26.01.2022
5687 Mist -19 1020 78 4828 0 0 00:26 26.01.2022
5688 Clouds -21 1019 92 10000 2.06 290 23:43 25.01.2022
5689 Clouds -29 1022 100 4453 1.98 23 22:49 25.01.2022
5690 Clouds -30 1021 100 3424 1.71 14 22:19 25.01.2022
5691 Clouds -29 1021 100 2950 1.39 3 21:27 25.01.2022
5692 Clouds -29 1021 100 2950 1.39 3 20:45 25.01.2022
5693 Clouds -29 1020 100 2875 1.22 345 19:57 25.01.2022
5694 Clouds -29 1020 100 2875 1.22 345 19:32 25.01.2022
5695 Clouds -28 1018 100 3796 1.2 292 17:56 25.01.2022
5696 Clouds -28 1018 100 3796 1.2 292 17:37 25.01.2022
5697 Clouds -28 1016 100 4318 1.73 275 16:35 25.01.2022
5698 Clouds -27 1015 100 5030 2.2 271 15:39 25.01.2022
5699 Clouds -25 1014 100 5258 2.99 263 15:20 25.01.2022
5700 Clouds -25 1014 100 5258 2.99 263 14:56 25.01.2022
5701 Clouds -16 1008 85 10000 5.66 260 12:22 25.01.2022
5702 Haze -14 1004 78 9656 9.26 270 09:39 25.01.2022
5703 Clouds -14 1002 78 10000 8.75 270 08:21 25.01.2022
5704 Snow -12 1000 72 10000 7.2 290 07:27 25.01.2022
5705 Mist -12 997 85 2414 13.38 300 05:26 25.01.2022
5706 Snow -7 988 79 1609 11.32 350 00:57 25.01.2022
5707 Mist -7 986 86 4023 10.8 350 23:36 24.01.2022
5708 Snow -6 986 79 1609 9.77 350 23:18 24.01.2022
5709 Snow -6 985 86 2012 9.77 350 22:42 24.01.2022
5710 Snow -6 985 93 1207 8.75 350 22:23 24.01.2022
5711 Snow -6 985 93 2414 8.23 350 21:42 24.01.2022
5712 Snow -6 985 93 2414 8.23 350 21:24 24.01.2022
5713 Snow -6 984 93 2414 5.14 360 20:27 24.01.2022
5714 Snow -5 984 86 3219 7.2 350 19:38 24.01.2022
5715 Snow -5 984 86 4023 7.2 340 18:50 24.01.2022
5716 Snow -4 984 86 2414 6.17 350 17:39 24.01.2022
5717 Snow -4 984 86 2414 6.17 350 17:21 24.01.2022
5718 Snow -4 985 86 6437 6.17 350 16:31 24.01.2022
5719 Snow -4 985 86 6437 6.17 350 15:35 24.01.2022
5720 Snow -4 986 86 6437 4.63 350 13:59 24.01.2022
5721 Snow -4 988 80 2012 6.69 350 12:34 24.01.2022
5722 Snow -5 989 86 2012 6.17 350 11:41 24.01.2022
5723 Snow -7 991 86 2012 5.14 350 10:19 24.01.2022
5724 Snow -8 992 79 4828 8.75 340 09:45 24.01.2022
5725 Snow -8 995 68 4828 6.69 20 08:18 24.01.2022
5726 Clear -12 1003 62 10000 4.12 10 02:26 24.01.2022
5727 Clear -16 1005 78 10000 0 0 01:26 24.01.2022
5728 Clear -16 1005 78 10000 0 0 01:26 24.01.2022
5729 Clear -17 1005 85 10000 0 0 00:31 24.01.2022
5730 Clear -17 1006 85 10000 0 0 23:40 23.01.2022
5731 Clear -17 1006 85 10000 0 0 22:20 23.01.2022
5732 Clear -17 1006 85 10000 0 0 21:40 23.01.2022
5733 Clear -17 1006 85 10000 0 0 21:20 23.01.2022
5734 Clear -15 1007 73 10000 2.57 50 20:23 23.01.2022
5735 Clouds -19 1008 86 10000 2.67 48 18:56 23.01.2022
5736 Clouds -13 1006 78 10000 3.6 50 18:24 23.01.2022
5737 Clouds -12 1006 72 10000 5.14 80 17:19 23.01.2022
5738 Clouds -22 1008 99 10000 2.67 61 15:59 23.01.2022
5739 Clouds -13 1006 78 10000 5.14 70 14:52 23.01.2022
5740 Clouds -13 1006 78 10000 5.14 70 14:19 23.01.2022
5741 Clouds -15 1005 85 10000 5.14 70 12:46 23.01.2022
5742 Clouds -15 1005 85 10000 5.14 70 12:21 23.01.2022
5743 Clouds -17 1005 78 10000 0 0 11:27 23.01.2022
5744 Clouds -25 1007 82 6387 2.63 57 10:58 23.01.2022
5745 Clear -19 1004 78 10000 1.54 30 10:25 23.01.2022
5746 Clear -18 1003 85 10000 2.57 40 09:33 23.01.2022
5747 Clear -16 1002 78 10000 3.09 70 08:50 23.01.2022
5748 Clouds -25 1002 100 2899 2.32 54 04:41 23.01.2022
5749 Clouds -14 997 85 10000 0 0 01:40 23.01.2022
5750 Clouds -23 999 100 6210 1.04 94 00:56 23.01.2022
5751 Clouds -14 996 85 10000 2.57 170 00:22 23.01.2022
5752 Clouds -13 995 78 10000 3.09 200 23:18 22.01.2022
5753 Clouds -13 994 78 10000 2.57 210 22:33 22.01.2022
5754 Clouds -11 990 85 10000 5.14 200 20:47 22.01.2022
5755 Clouds -10 990 85 10000 6.17 200 19:46 22.01.2022
5756 Mist -7 988 93 3219 6.17 190 18:43 22.01.2022
5757 Snow -6 989 94 115 4.54 97 17:56 22.01.2022
5758 Mist -6 986 93 3219 5.66 120 17:35 22.01.2022
5759 Mist -6 986 93 3219 5.14 120 16:55 22.01.2022
5760 Snow -6 985 86 4828 6.69 100 15:49 22.01.2022
5761 Snow -7 987 91 167 5.61 88 14:57 22.01.2022
5762 Clouds -6 985 86 10000 8.23 90 13:36 22.01.2022
5763 Clouds -7 985 93 10000 6.17 80 12:47 22.01.2022
5764 Clouds -7 985 86 10000 6.17 80 12:24 22.01.2022
5765 Snow -7 986 86 487 4.78 83 10:55 22.01.2022
5766 Snow -6 984 86 10000 8.23 90 10:28 22.01.2022
5767 Snow -6 984 86 6437 7.2 100 09:46 22.01.2022
5768 Mist -6 983 86 4828 8.23 110 08:51 22.01.2022
5769 Snow -6 983 93 4023 7.2 100 07:28 22.01.2022
5770 Snow -3 983 74 10000 7.72 80 04:52 22.01.2022
5771 Snow -4 983 86 4828 5.66 70 01:32 22.01.2022
5772 Mist -5 984 86 8047 6.69 80 23:30 21.01.2022
5773 Mist -6 985 86 6437 6.69 80 22:19 21.01.2022
5774 Snow -6 985 86 3219 8.23 60 19:56 21.01.2022
5775 Snow -6 986 86 4828 7.72 60 18:23 21.01.2022
5776 Snow -6 986 86 2012 7.72 60 17:18 21.01.2022
5777 Snow -7 988 86 4828 7.2 60 15:27 21.01.2022
5778 Snow -8 990 86 4023 8.23 50 13:18 21.01.2022
5779 Snow -9 992 79 2012 6.69 50 12:28 21.01.2022
5780 Snow -10 992 79 4023 7.72 50 11:27 21.01.2022
5781 Snow -12 995 85 3219 9.26 40 09:46 21.01.2022
5782 Snow -13 997 72 8047 9.26 30 08:22 21.01.2022
5783 Clouds -16 1001 72 10000 7.2 30 04:37 21.01.2022
5784 Clouds -16 1006 72 10000 7.72 40 23:27 20.01.2022
5785 Snow -16 1007 72 10000 6.17 40 21:50 20.01.2022
5786 Snow -16 1007 72 10000 6.17 40 21:32 20.01.2022
5787 Snow -16 1007 78 4828 1.54 50 20:31 20.01.2022
5788 Clouds -16 1007 72 10000 4.12 50 19:19 20.01.2022
5789 Snow -14 1007 66 8047 5.14 70 18:23 20.01.2022
5790 Clouds -21 1009 98 337 2.3 24 16:53 20.01.2022
5791 Snow -16 1007 78 8047 5.14 30 15:40 20.01.2022
5792 Snow -16 1008 78 2816 6.69 20 14:40 20.01.2022
5793 Snow -16 1008 78 2816 2.57 320 13:33 20.01.2022
5794 Clouds -18 1008 60 10000 0 0 12:32 20.01.2022
5795 Clouds -22 1009 64 10000 3.6 260 11:50 20.01.2022
5796 Clouds -22 1009 64 10000 1.54 260 10:39 20.01.2022
5797 Clouds -21 1009 59 10000 2.06 250 09:36 20.01.2022
5798 Clear -24 1010 64 10000 4.12 340 07:50 20.01.2022
5799 Clear -21 1013 59 10000 0 0 00:44 20.01.2022
5800 Clear -27 1015 89 10000 3.6 1 22:59 19.01.2022
5801 Clear -21 1014 54 10000 0 0 22:21 19.01.2022
5802 Clear -24 1015 64 10000 0 0 21:23 19.01.2022
5803 Clear -24 1015 64 10000 1.54 0 20:46 19.01.2022
5804 Clear -22 1016 59 10000 6.17 320 19:42 19.01.2022
5805 Clear -21 1016 60 10000 1.54 20 18:18 19.01.2022
5806 Clear -21 1016 60 10000 5.66 340 17:44 19.01.2022
5807 Clear -23 1017 59 10000 2.06 310 16:46 19.01.2022
5808 Clear -24 1018 70 10000 1.54 320 14:42 19.01.2022
5809 Clear -26 1019 76 10000 2.57 270 12:42 19.01.2022
5810 Clear -24 1019 70 10000 0 0 11:39 19.01.2022
5811 Clear -23 1019 64 10000 1.54 100 10:20 19.01.2022
5812 Clear -23 1019 65 10000 5.66 350 09:34 19.01.2022
5813 Clear -27 1019 69 10000 0 0 06:45 19.01.2022
5814 Clear -26 1020 70 10000 1.54 10 02:38 19.01.2022
5815 Clear -29 1022 69 10000 0 0 23:19 18.01.2022
5816 Clear -29 1022 76 10000 1.54 30 22:19 18.01.2022
5817 Clear -30 1022 80 10000 2.93 17 20:58 18.01.2022
5818 Clear -29 1022 80 10000 2.48 23 19:54 18.01.2022
5819 Clear -29 1021 76 10000 0 0 19:36 18.01.2022
5820 Clear -28 1021 69 10000 0 0 18:51 18.01.2022
5821 Clear -31 1022 76 10000 2.94 15 17:58 18.01.2022
5822 Clear -28 1022 64 10000 3.6 30 16:50 18.01.2022
5823 Clear -27 1022 69 10000 0 0 15:47 18.01.2022
5824 Clear -27 1022 69 10000 0 0 15:21 18.01.2022
5825 Clear -25 1022 64 10000 1.54 20 12:47 18.01.2022
5826 Clear -26 1022 76 10000 3.6 360 10:47 18.01.2022
5827 Clear -29 1023 80 10000 2.99 17 08:59 18.01.2022
5828 Clear -24 1022 65 10000 2.06 350 07:51 18.01.2022
5829 Clear -24 1022 70 10000 2.57 30 02:34 18.01.2022
5830 Clear -24 1021 70 10000 2.57 30 23:39 17.01.2022
5831 Clear -24 1021 70 10000 1.54 10 22:26 17.01.2022
5832 Clear -23 1021 70 10000 1.54 360 21:34 17.01.2022
5833 Clear -23 1020 71 10000 0 0 20:24 17.01.2022
5834 Clouds -21 1020 71 10000 5.14 340 18:30 17.01.2022
5835 Clouds -19 1019 65 10000 7.72 350 17:44 17.01.2022
5836 Clouds -18 1020 65 10000 6.17 350 16:40 17.01.2022
5837 Clouds -19 1019 65 10000 7.2 350 15:22 17.01.2022
5838 Clouds -24 1020 91 10000 3.42 15 14:56 17.01.2022
5839 Clouds -18 1020 71 10000 6.69 350 13:26 17.01.2022
5840 Clouds -24 1021 91 10000 3.34 15 12:55 17.01.2022
5841 Clouds -16 1019 72 10000 5.66 350 11:49 17.01.2022
5842 Clouds -15 1019 72 10000 5.66 350 10:21 17.01.2022
5843 Clouds -15 1019 72 10000 3.09 360 09:34 17.01.2022
5844 Snow -13 1019 72 10000 0 0 07:24 17.01.2022
5845 Snow -13 1019 72 10000 0 0 06:56 17.01.2022
5846 Clouds -17 1020 97 5842 1.75 24 00:55 17.01.2022
5847 Clouds -14 1019 78 10000 1.54 20 22:29 16.01.2022
5848 Clouds -14 1018 78 10000 0 0 20:36 16.01.2022
5849 Clouds -14 1017 78 10000 0 0 18:52 16.01.2022
5850 Clouds -14 1017 78 10000 0 0 17:59 16.01.2022
5851 Clouds -14 1017 78 10000 0 0 17:21 16.01.2022
5852 Clouds -13 1017 78 10000 0 0 16:33 16.01.2022
5853 Snow -13 1016 78 10000 0 0 14:31 16.01.2022
5854 Clouds -13 1016 78 10000 1.54 30 13:49 16.01.2022
5855 Clouds -15 1016 85 10000 0 0 12:48 16.01.2022
5856 Clouds -16 1015 85 10000 0 0 11:42 16.01.2022
5857 Clouds -16 1015 85 10000 0 0 10:55 16.01.2022
5858 Clouds -15 1015 85 10000 0 0 10:19 16.01.2022
5859 Clouds -13 1014 78 10000 3.09 330 09:51 16.01.2022
5860 Clouds -13 1014 78 10000 3.09 330 09:22 16.01.2022
5861 Clouds -13 1014 78 10000 3.09 330 09:22 16.01.2022
5862 Snow -13 1013 78 10000 0 0 07:33 16.01.2022
5863 Snow -11 1010 79 9656 1.54 350 02:36 16.01.2022
5864 Snow -10 1009 85 1609 0 0 23:49 15.01.2022
5865 Snow -11 1008 85 10000 2.57 360 21:46 15.01.2022
5866 Snow -11 1008 85 10000 2.57 360 21:19 15.01.2022
5867 Clouds -11 1008 85 10000 1.54 360 20:40 15.01.2022
5868 Snow -11 1007 85 4828 0 0 19:29 15.01.2022
5869 Snow -11 1007 85 6437 2.06 310 18:44 15.01.2022
5870 Clouds -11 1007 85 10000 1.54 260 17:25 15.01.2022
5871 Clouds -9 1006 67 10000 2.06 240 15:50 15.01.2022
5872 Clouds -15 1008 89 10000 2.64 21 13:55 15.01.2022
5873 Clouds -11 1005 73 10000 1.54 340 11:46 15.01.2022
5874 Clouds -11 1004 73 10000 5.14 340 10:36 15.01.2022
5875 Clouds -12 1003 72 10000 1.54 240 07:48 15.01.2022
5876 Clouds -9 1001 57 10000 4.12 20 23:50 14.01.2022
5877 Clouds -9 1001 57 10000 6.69 340 21:52 14.01.2022
5878 Clouds -9 1000 53 10000 5.14 10 20:37 14.01.2022
5879 Clouds -16 1003 83 10000 3.33 18 19:58 14.01.2022
5880 Clear -10 1000 62 10000 5.66 350 18:49 14.01.2022
5881 Clouds -18 1002 87 10000 2.69 18 17:57 14.01.2022
5882 Clear -9 1000 67 10000 6.69 360 16:48 14.01.2022
5883 Clouds -8 999 62 10000 7.72 340 15:37 14.01.2022
5884 Clouds -8 999 62 10000 7.2 350 14:38 14.01.2022
5885 Clear -8 999 62 10000 7.72 350 13:35 14.01.2022
5886 Clear -7 999 63 10000 8.75 20 12:24 14.01.2022
5887 Clear -8 999 67 10000 6.69 350 10:50 14.01.2022
5888 Clouds -14 1000 88 10000 3.74 12 08:54 14.01.2022
5889 Clear -8 999 67 10000 9.77 10 08:20 14.01.2022
5890 Clouds -16 1001 90 10000 4.3 6 03:55 14.01.2022
5891 Clouds -17 1003 90 10000 3.61 18 00:59 14.01.2022
5892 Clouds -12 1003 72 10000 5.14 340 22:46 13.01.2022
5893 Clouds -12 1002 67 10000 5.66 360 21:31 13.01.2022
5894 Clouds -19 1005 92 10000 4.31 15 20:56 13.01.2022
5895 Clouds -14 1003 72 10000 4.63 360 19:40 13.01.2022
5896 Clouds -14 1003 72 10000 4.63 360 19:21 13.01.2022
5897 Snow -14 1003 72 6437 5.66 20 17:48 13.01.2022
5898 Snow -14 1003 66 9656 4.63 10 16:20 13.01.2022
5899 Clouds -16 1004 72 10000 7.2 40 15:37 13.01.2022
5900 Clouds -16 1004 72 10000 3.6 360 13:48 13.01.2022
5901 Clouds -15 1004 61 10000 4.63 30 12:37 13.01.2022
5902 Clouds -16 1004 60 10000 5.66 10 10:23 13.01.2022
5903 Clouds -22 1006 90 10000 3.68 15 08:57 13.01.2022
5904 Clouds -18 1004 65 10000 3.09 360 08:26 13.01.2022
5905 Clear -17 1004 60 10000 5.66 10 07:22 13.01.2022
5906 Clouds -25 1007 91 10000 3.55 17 05:59 13.01.2022
5907 Clear -20 1004 65 10000 3.09 30 05:19 13.01.2022
5908 Clear -26 1007 93 10000 3.59 9 01:53 13.01.2022
5909 Clear -17 1005 55 10000 0 0 00:49 13.01.2022
5910 Clear -18 1006 60 10000 6.69 350 23:46 12.01.2022
5911 Clear -26 1008 91 10000 3.65 11 22:59 12.01.2022
5912 Clear -26 1007 92 10000 3.76 11 21:57 12.01.2022
5913 Clear -26 1007 92 10000 3.76 11 21:57 12.01.2022
5914 Clear -20 1006 71 10000 0 0 21:22 12.01.2022
5915 Clear -26 1007 92 10000 3.5 10 20:56 12.01.2022
5916 Clear -19 1005 65 10000 1.54 60 19:41 12.01.2022
5917 Clear -17 1005 60 10000 2.06 280 18:30 12.01.2022
5918 Clear -17 1005 60 10000 2.06 280 18:30 12.01.2022
5919 Clear -17 1004 66 10000 6.17 360 17:20 12.01.2022
5920 Clear -16 1004 60 10000 8.23 360 16:28 12.01.2022
5921 Clear -17 1004 66 10000 8.75 360 14:48 12.01.2022
5922 Clear -25 1006 92 10000 3.32 11 12:59 12.01.2022
5923 Clouds -25 1006 93 10000 3.3 15 12:59 12.01.2022
5924 Clear -16 1003 66 10000 7.72 360 10:48 12.01.2022
5925 Clear -14 1002 61 10000 6.17 360 08:38 12.01.2022
5926 Clouds -14 1001 61 10000 6.17 10 07:49 12.01.2022
5927 Clouds -14 1001 61 10000 6.17 10 07:31 12.01.2022
5928 Clouds -9 998 53 10000 6.69 40 23:40 11.01.2022
5929 Clouds -8 997 41 10000 5.14 20 22:49 11.01.2022
5930 Clouds -8 997 41 10000 5.14 20 22:22 11.01.2022
5931 Clouds -14 999 77 10000 3.12 14 20:54 11.01.2022
5932 Clear -8 996 45 10000 11.32 40 19:50 11.01.2022
5933 Clear -9 996 48 10000 10.8 50 18:31 11.01.2022
5934 Clouds -9 996 53 10000 7.2 20 17:24 11.01.2022
5935 Clouds -13 996 61 10000 2.89 12 16:37 11.01.2022
5936 Clouds -12 996 61 10000 6.69 30 15:39 11.01.2022
5937 Clouds -17 996 66 10000 2.06 20 14:42 11.01.2022
5938 Clouds -18 998 82 10000 3.31 17 13:55 11.01.2022
5939 Clear -17 996 66 10000 5.14 320 13:35 11.01.2022
5940 Clear -21 997 71 10000 4.12 330 12:43 11.01.2022
5941 Clear -22 997 71 10000 0 0 11:43 11.01.2022
5942 Clear -21 997 65 10000 4.63 310 09:29 11.01.2022
5943 Clear -20 998 59 10000 0 0 07:18 11.01.2022
5944 Clear -19 1000 60 10000 2.06 10 00:32 11.01.2022
5945 Clear -18 1000 55 10000 3.09 40 23:43 10.01.2022
5946 Clear -18 1000 55 10000 3.09 40 23:22 10.01.2022
5947 Clear -18 1000 55 10000 4.63 50 22:19 10.01.2022
5948 Clouds -20 1001 67 10000 2.94 13 21:54 10.01.2022
5949 Clear -19 1000 55 10000 5.14 40 21:20 10.01.2022
5950 Clouds -22 1001 82 10000 3.33 16 20:57 10.01.2022
5951 Clear -18 1000 50 10000 5.14 40 20:28 10.01.2022
5952 Clear -18 1000 55 10000 6.17 40 19:44 10.01.2022
5953 Clear -18 1000 55 10000 6.17 40 19:21 10.01.2022
5954 Clear -18 1000 55 10000 6.17 40 18:48 10.01.2022
5955 Clouds -17 1000 55 10000 6.69 40 17:41 10.01.2022
5956 Clouds -17 1001 51 10000 6.17 50 16:42 10.01.2022
5957 Clear -17 1001 51 10000 8.23 40 15:49 10.01.2022
5958 Clear -17 1002 51 10000 10.29 30 14:30 10.01.2022
5959 Clear -22 1004 74 10000 3.46 18 11:58 10.01.2022
5960 Clear -14 1002 43 10000 10.29 40 11:25 10.01.2022
5961 Clear -15 1004 47 10000 7.72 40 09:50 10.01.2022
5962 Clear -14 1004 43 10000 11.32 60 07:31 10.01.2022
5963 Clear -15 1004 51 10000 8.23 70 05:49 10.01.2022
5964 Clear -15 1003 51 10000 14.92 50 01:31 10.01.2022
5965 Clear -15 1005 51 10000 13.38 50 00:25 10.01.2022
5966 Clear -16 1004 55 4023 15.95 40 23:40 09.01.2022
5967 Clear -16 1005 60 10000 19.03 30 22:38 09.01.2022
5968 Haze -16 1005 60 2816 17.49 30 21:46 09.01.2022
5969 Clear -16 1006 60 10000 14.4 30 21:24 09.01.2022
5970 Clear -16 1006 60 10000 17.49 30 20:52 09.01.2022
5971 Clear -16 1006 60 10000 17.49 30 20:34 09.01.2022
5972 Clear -16 1006 60 1207 21.09 20 19:45 09.01.2022
5973 Clear -16 1008 56 9656 13.89 40 19:23 09.01.2022
5974 Clear -16 1009 55 4828 15.43 30 18:56 09.01.2022
5975 Clear -16 1009 55 4828 15.43 30 18:35 09.01.2022
5976 Clear -16 1009 55 4828 15.43 40 17:45 09.01.2022
5977 Clear -16 1010 60 1609 19.03 30 17:21 09.01.2022
5978 Clear -16 1013 56 10000 7.94 23 15:59 09.01.2022
5979 Clear -15 1012 47 10000 13.89 50 15:36 09.01.2022
5980 Clear -16 1014 51 10000 10.8 40 14:41 09.01.2022
5981 Clear -15 1014 51 10000 14.92 40 13:51 09.01.2022
5982 Clear -15 1014 51 10000 14.92 40 13:25 09.01.2022
5983 Clear -20 1017 73 10000 5.38 11 11:56 09.01.2022
5984 Clear -16 1017 55 10000 10.29 40 11:19 09.01.2022
5985 Clear -15 1017 47 10000 10.8 50 09:51 09.01.2022
5986 Clear -20 1018 74 10000 5.49 16 08:54 09.01.2022
5987 Clear -20 1019 75 10000 5.02 18 05:54 09.01.2022
5988 Clear -14 1021 43 10000 5.14 60 01:25 09.01.2022
5989 Clear -14 1021 43 10000 12.35 40 00:37 09.01.2022
5990 Clear -15 1021 51 10000 11.32 30 23:27 08.01.2022
5991 Clear -15 1022 47 10000 9.26 20 22:35 08.01.2022
5992 Clear -16 1021 51 10000 8.23 20 21:26 08.01.2022
5993 Clear -16 1021 55 10000 9.26 30 20:43 08.01.2022
5994 Clear -16 1021 55 10000 9.26 30 20:21 08.01.2022
5995 Clear -16 1022 51 10000 0 0 18:45 08.01.2022
5996 Clear -16 1021 51 10000 9.77 40 17:23 08.01.2022
5997 Clear -23 1021 84 10000 3.44 30 15:58 08.01.2022
5998 Clear -14 1021 43 10000 7.2 40 14:50 08.01.2022
5999 Clear -12 1021 37 10000 8.23 60 13:41 08.01.2022
6000 Clear -14 1021 51 10000 8.75 40 11:30 08.01.2022
6001 Clear -13 1021 47 10000 6.69 50 10:31 08.01.2022
6002 Clear -19 1020 80 10000 3.29 27 09:54 08.01.2022
6003 Clear -11 1021 37 10000 8.23 50 09:30 08.01.2022
6004 Clear -8 1019 41 10000 11.32 40 04:25 08.01.2022
6005 Clear -15 1018 80 10000 3.38 25 00:58 08.01.2022
6006 Clear -15 1019 82 10000 2.98 28 22:54 07.01.2022
6007 Clear -8 1019 57 10000 7.2 10 21:34 07.01.2022
6008 Clear -7 1019 49 10000 5.14 30 20:23 07.01.2022
6009 Clear -7 1020 49 10000 6.17 50 19:26 07.01.2022
6010 Clear -6 1020 42 10000 2.57 0 18:45 07.01.2022
6011 Clear -13 1018 83 10000 3.26 24 17:58 07.01.2022
6012 Clear -6 1020 45 10000 5.14 60 17:22 07.01.2022
6013 Clear -15 1019 85 10000 2.39 22 14:55 07.01.2022
6014 Clear -14 1020 72 10000 0 0 13:52 07.01.2022
6015 Clear -14 1020 72 10000 0 0 12:50 07.01.2022
6016 Clear -17 1021 78 10000 0 0 10:18 07.01.2022
6017 Clouds -16 1021 85 10000 1.97 14 02:59 07.01.2022
6018 Clear -18 1022 71 10000 0 0 02:22 07.01.2022
6019 Clear -18 1023 71 10000 2.06 10 01:48 07.01.2022
6020 Clear -18 1023 71 10000 2.06 10 01:25 07.01.2022
6021 Clear -18 1023 71 10000 0 0 00:29 07.01.2022
6022 Clear -16 1023 79 10000 1.79 25 21:57 06.01.2022
6023 Clear -19 1023 78 10000 0 0 20:43 06.01.2022
6024 Clear -16 1023 77 10000 1.99 18 19:58 06.01.2022
6025 Clear -19 1023 78 10000 1.54 10 19:36 06.01.2022
6026 Clear -19 1023 78 10000 0 0 17:51 06.01.2022
6027 Clear -19 1023 78 10000 0 0 17:21 06.01.2022
6028 Clear -19 1023 71 10000 0 0 16:31 06.01.2022
6029 Clear -19 1023 71 10000 0 0 15:43 06.01.2022
6030 Clear -19 1023 71 10000 0 0 15:20 06.01.2022
6031 Clear -18 1024 71 10000 0 0 14:19 06.01.2022
6032 Clear -18 1024 71 10000 0 0 13:30 06.01.2022
6033 Clear -17 1024 71 10000 0 0 12:20 06.01.2022
6034 Clear -18 1025 71 10000 0 0 11:29 06.01.2022
6035 Clear -17 1025 71 10000 2.06 20 09:50 06.01.2022
6036 Clear -17 1026 71 10000 1.54 20 06:37 06.01.2022
6037 Clouds -10 1028 57 10000 1.54 350 00:27 06.01.2022
6038 Clear -12 1029 56 10000 0 0 23:22 05.01.2022
6039 Clear -14 1030 66 10000 0 0 22:42 05.01.2022
6040 Clear -14 1030 66 10000 0 0 22:18 05.01.2022
6041 Clear -13 1030 61 10000 0 0 21:25 05.01.2022
6042 Clear -12 1030 56 10000 2.57 10 20:30 05.01.2022
6043 Clear -12 1031 61 10000 0 0 19:29 05.01.2022
6044 Clear -8 1031 41 10000 0 0 18:21 05.01.2022
6045 Clouds -15 1031 67 10000 2.41 16 16:56 05.01.2022
6046 Clear -5 1031 36 10000 4.63 50 16:18 05.01.2022
6047 Clouds -14 1032 67 10000 2.81 23 14:56 05.01.2022
6048 Clear -9 1033 45 10000 3.6 30 13:34 05.01.2022
6049 Clear -8 1033 35 10000 5.66 50 12:20 05.01.2022
6050 Clear -8 1034 35 10000 6.17 20 08:35 05.01.2022
6051 Clear -8 1034 32 10000 1.54 0 06:46 05.01.2022
6052 Clear -9 1035 38 10000 7.72 40 01:46 05.01.2022
6053 Clear -11 1036 44 10000 5.66 360 23:43 04.01.2022
6054 Clear -11 1036 44 10000 5.66 360 23:21 04.01.2022
6055 Clear -10 1036 37 10000 4.63 320 21:41 04.01.2022
6056 Clear -10 1035 37 10000 8.75 50 20:42 04.01.2022
6057 Clear -10 1035 37 10000 11.32 50 18:39 04.01.2022
6058 Clear -10 1036 37 10000 10.29 50 17:30 04.01.2022
6059 Clear -11 1037 37 10000 3.9 16 16:33 04.01.2022
6060 Clear -12 1038 40 10000 3.6 350 15:20 04.01.2022
6061 Clear -11 1039 31 10000 2.06 0 14:37 04.01.2022
6062 Clear -17 1037 65 10000 4.24 19 13:56 04.01.2022
6063 Clear -13 1039 40 10000 4.63 50 12:22 04.01.2022
6064 Clear -14 1040 43 10000 4.63 50 10:23 04.01.2022
6065 Clear -19 1039 62 10000 2.84 22 08:57 04.01.2022
6066 Clear -19 1041 50 10000 1.54 340 06:28 04.01.2022
6067 Clear -23 1042 64 10000 0 0 00:43 04.01.2022
6068 Clear -20 1040 64 10000 2.03 34 23:56 03.01.2022
6069 Clear -21 1042 71 10000 2.57 100 22:22 03.01.2022
6070 Clear -22 1042 64 10000 3.09 110 21:40 03.01.2022
6071 Clear -26 1042 76 10000 1.54 310 20:41 03.01.2022
6072 Clear -26 1042 76 10000 0 0 19:38 03.01.2022
6073 Clear -26 1042 76 10000 0 0 18:31 03.01.2022
6074 Clear -26 1043 84 10000 1.54 130 17:23 03.01.2022
6075 Clear -22 1041 75 10000 1.84 27 16:53 03.01.2022
6076 Clear -27 1044 69 10000 0 0 14:32 03.01.2022
6077 Clear -25 1043 75 10000 1.28 338 12:53 03.01.2022
6078 Clear -27 1044 76 10000 0 0 12:22 03.01.2022
6079 Clear -24 1044 70 10000 0 0 11:22 03.01.2022
6080 Clear -27 1045 76 10000 1.54 360 09:29 03.01.2022
6081 Clear -26 1044 89 10000 1.52 13 07:55 03.01.2022
6082 Clear -25 1045 77 10000 0 0 04:23 03.01.2022
6083 Clear -24 1046 64 10000 0 0 23:32 02.01.2022
6084 Clouds -25 1044 95 10000 1.01 360 22:56 02.01.2022
6085 Clear -26 1045 76 10000 0 0 22:20 02.01.2022
6086 Clear -24 1045 70 10000 0 0 20:52 02.01.2022
6087 Clear -24 1045 70 10000 0 0 20:30 02.01.2022
6088 Clear -25 1044 70 10000 2.57 30 19:32 02.01.2022
6089 Clouds -25 1044 96 10000 0.7 19 18:56 02.01.2022
6090 Clear -26 1045 76 10000 0 0 18:23 02.01.2022
6091 Clear -26 1045 70 10000 0 0 17:42 02.01.2022
6092 Clear -26 1045 70 10000 0 0 17:21 02.01.2022
6093 Clear -24 1044 70 10000 1.54 350 16:28 02.01.2022
6094 Clear -24 1044 70 10000 0 0 15:18 02.01.2022
6095 Clear -25 1044 77 10000 2.57 40 13:38 02.01.2022
6096 Clear -25 1044 77 10000 1.54 270 12:32 02.01.2022
6097 Clouds -24 1043 77 10000 1.44 89 11:55 02.01.2022
6098 Clear -24 1042 70 10000 1.54 260 10:55 02.01.2022
6099 Clouds -25 1043 79 10000 1.25 357 09:58 02.01.2022
6100 Clear -23 1041 70 10000 1.54 350 07:35 02.01.2022
6101 Clear -27 1039 80 10000 2.51 22 02:56 02.01.2022
6102 Clear -19 1036 66 10000 1.54 90 23:50 01.01.2022
6103 Clear -19 1036 66 10000 1.54 90 23:27 01.01.2022
6104 Clear -19 1035 66 10000 5.14 360 22:25 01.01.2022
6105 Clear -23 1035 80 10000 3.31 356 21:54 01.01.2022
6106 Clear -23 1034 70 10000 0 0 21:36 01.01.2022
6107 Clear -21 1033 65 10000 1.54 30 20:27 01.01.2022
6108 Clear -19 1033 65 10000 4.63 340 19:36 01.01.2022
6109 Clear -18 1031 60 10000 6.69 340 18:52 01.01.2022
6110 Clear -18 1031 65 10000 6.69 10 17:41 01.01.2022
6111 Clear -16 1030 55 10000 2.06 0 16:35 01.01.2022
6112 Clear -18 1029 60 10000 3.09 260 15:42 01.01.2022
6113 Clear -17 1029 55 10000 4.63 290 14:39 01.01.2022
6114 Clear -18 1027 55 10000 5.14 320 13:42 01.01.2022
6115 Clear -21 1026 60 10000 0 0 12:25 01.01.2022
6116 Clear -19 1025 56 10000 6.69 330 11:26 01.01.2022
6117 Clear -25 1026 79 10000 2.94 341 10:58 01.01.2022
6118 Clear -19 1023 56 10000 5.66 340 09:48 01.01.2022
6119 Clear -22 1023 65 10000 1.54 0 08:39 01.01.2022
6120 Clear -28 1023 78 10000 2.74 345 07:57 01.01.2022
6121 Clear -22 1022 65 10000 1.54 0 07:38 01.01.2022
6122 Clear -21 1021 60 10000 4.12 350 06:44 01.01.2022
6123 Clear -22 1020 60 10000 0 0 04:40 01.01.2022
6124 Clear -22 1019 64 10000 2.06 290 03:52 01.01.2022
6125 Clear -21 1018 65 10000 6.17 330 00:23 01.01.2022
6126 Clear -20 1016 59 10000 2.06 340 22:30 31.12.2021
6127 Clear -19 1016 60 10000 4.12 320 21:47 31.12.2021
6128 Haze -19 1014 60 9656 12.86 30 19:48 31.12.2021
6129 Haze -19 1014 60 9656 12.86 30 19:28 31.12.2021
6130 Clear -21 1013 65 10000 9.77 30 18:18 31.12.2021
6131 Clear -20 1013 59 10000 0 0 17:28 31.12.2021
6132 Clear -20 1012 54 10000 7.2 10 16:52 31.12.2021
6133 Clear -20 1012 54 10000 7.2 10 16:18 31.12.2021
6134 Clear -19 1013 55 10000 10.8 360 15:50 31.12.2021
6135 Clear -19 1013 55 10000 10.8 360 15:27 31.12.2021
6136 Clear -18 1013 50 10000 12.35 40 14:41 31.12.2021
6137 Clear -27 1013 92 10000 3.71 17 13:55 31.12.2021
6138 Clouds -27 1013 94 10000 3.5 20 12:54 31.12.2021
6139 Clear -18 1012 55 10000 7.2 10 12:26 31.12.2021
6140 Clear -18 1011 60 10000 9.26 10 11:42 31.12.2021
6141 Clouds -26 1012 92 10000 3.7 17 10:56 31.12.2021
6142 Clear -17 1012 51 10000 3.09 360 10:28 31.12.2021
6143 Clear -20 1012 59 10000 0 0 09:35 31.12.2021
6144 Clear -21 1013 65 10000 3.09 10 08:54 31.12.2021
6145 Clear -21 1013 65 10000 3.09 10 08:23 31.12.2021
6146 Clear -22 1014 71 10000 2.06 350 06:24 31.12.2021
6147 Clear -21 1020 65 10000 0 0 23:19 30.12.2021
6148 Clear -21 1020 65 10000 0 0 22:32 30.12.2021
6149 Clear -20 1020 59 10000 3.09 360 21:40 30.12.2021
6150 Clear -20 1020 59 10000 3.09 360 21:20 30.12.2021
6151 Clear -22 1021 71 10000 0 0 20:43 30.12.2021
6152 Clear -22 1021 71 10000 0 0 20:23 30.12.2021
6153 Clear -24 1022 77 10000 0 0 19:36 30.12.2021
6154 Clear -24 1023 77 10000 0 0 18:29 30.12.2021
6155 Clear -24 1023 77 10000 0 0 17:38 30.12.2021
6156 Clear -24 1023 71 10000 0 0 15:55 30.12.2021
6157 Clear -24 1023 71 10000 0 0 15:36 30.12.2021
6158 Clear -24 1023 71 10000 0 0 14:37 30.12.2021
6159 Clear -23 1024 70 10000 0 0 13:32 30.12.2021
6160 Clouds -28 1025 82 10000 2.17 26 11:59 30.12.2021
6161 Clear -23 1023 71 10000 2.57 40 10:44 30.12.2021
6162 Clouds -27 1024 82 10000 1.39 21 09:54 30.12.2021
6163 Clear -22 1021 77 10000 1.54 60 07:42 30.12.2021
6164 Clear -22 1021 71 10000 2.06 120 06:38 30.12.2021
6165 Clouds -30 1022 97 10000 1.75 2 03:41 30.12.2021
6166 Clouds -20 1020 71 10000 11.32 280 02:38 30.12.2021
6167 Clouds -20 1020 71 10000 8.23 300 23:41 29.12.2021
6168 Clouds -20 1020 77 10000 7.2 300 22:59 29.12.2021
6169 Clouds -20 1020 77 10000 7.2 300 22:18 29.12.2021
6170 Clouds -19 1018 78 10000 9.77 290 21:27 29.12.2021
6171 Clouds -18 1018 71 10000 9.26 290 20:34 29.12.2021
6172 Clouds -18 1017 78 10000 7.72 300 19:44 29.12.2021
6173 Clouds -18 1016 78 10000 6.69 290 18:47 29.12.2021
6174 Clouds -22 1015 98 10000 4.98 279 17:54 29.12.2021
6175 Haze -17 1015 78 8047 6.69 300 17:27 29.12.2021
6176 Clouds -17 1013 78 10000 14.92 270 16:24 29.12.2021
6177 Haze -17 1012 85 9656 12.86 270 15:45 29.12.2021
6178 Clouds -16 1010 78 4023 14.92 280 14:19 29.12.2021
6179 Clouds -11 1005 73 10000 13.38 270 12:37 29.12.2021
6180 Snow -11 1004 79 8047 13.38 260 11:35 29.12.2021
6181 Snow -9 1001 80 10000 8.75 270 09:58 29.12.2021
6182 Snow -10 997 85 402 16.98 250 07:52 29.12.2021
6183 Snow -7 992 86 402 22.64 240 06:39 29.12.2021
6184 Fog -6 991 86 402 21.61 230 06:18 29.12.2021
6185 Snow -3 991 68 6437 22.12 240 05:36 29.12.2021
6186 Rain 1 989 86 8047 11.83 220 02:46 29.12.2021
6187 Rain 1 990 87 3219 9.26 110 00:23 29.12.2021
6188 Rain 0 992 93 3219 11.32 110 23:34 28.12.2021
6189 Snow 0 993 93 3219 12.86 110 22:42 28.12.2021
6190 Snow -1 994 93 3219 11.83 100 22:24 28.12.2021
6191 Snow -2 995 93 1609 13.38 90 21:37 28.12.2021
6192 Snow -3 1000 93 1207 11.32 80 20:40 28.12.2021
6193 Snow -4 1002 93 1207 11.83 80 19:25 28.12.2021
6194 Snow -4 1004 93 805 10.8 80 18:39 28.12.2021
6195 Snow -4 1005 93 2012 9.77 80 17:59 28.12.2021
6196 Snow -4 1008 86 10000 5.66 70 16:34 28.12.2021
6197 Snow -4 1008 86 10000 5.66 70 16:34 28.12.2021
6198 Clouds -4 1009 86 10000 5.14 70 15:50 28.12.2021
6199 Clouds -4 1009 86 10000 6.17 70 15:21 28.12.2021
6200 Clouds -5 1010 86 10000 6.69 70 14:48 28.12.2021
6201 Clouds -5 1011 86 10000 5.66 70 14:21 28.12.2021
6202 Clouds -6 1011 93 10000 4.63 70 13:42 28.12.2021
6203 Snow -6 1011 93 10000 4.63 70 13:24 28.12.2021
6204 Snow -6 1012 93 10000 3.6 80 12:49 28.12.2021
6205 Clouds -6 1011 93 10000 4.12 80 11:46 28.12.2021
6206 Snow -6 1008 86 10000 6.17 70 08:35 28.12.2021
6207 Snow -6 1008 86 3219 6.69 80 06:58 28.12.2021
6208 Snow -7 1013 68 3219 5.14 80 00:34 28.12.2021
6209 Snow -7 1014 54 10000 3.6 70 23:24 27.12.2021
6210 Clouds -9 1016 63 10000 5.14 40 21:42 27.12.2021
6211 Clouds -9 1016 63 10000 5.14 40 21:24 27.12.2021
6212 Clouds -11 1016 67 10000 5.14 60 20:24 27.12.2021
6213 Clouds -12 1018 68 10000 5.14 100 19:42 27.12.2021
6214 Clouds -13 1018 72 10000 4.63 70 18:52 27.12.2021
6215 Clear -12 1018 67 10000 2.57 70 17:49 27.12.2021
6216 Clouds -17 1017 85 10000 3.13 55 16:57 27.12.2021
6217 Clouds -18 1018 88 10000 3.32 47 15:53 27.12.2021
6218 Clouds -11 1018 79 10000 0 0 14:34 27.12.2021
6219 Clouds -11 1017 79 10000 0 0 13:40 27.12.2021
6220 Clouds -11 1016 85 10000 0 0 12:47 27.12.2021
6221 Clouds -10 1014 62 10000 2.57 290 10:32 27.12.2021
6222 Clouds -18 1014 88 10000 2.43 356 09:57 27.12.2021
6223 Clouds -18 1012 88 10000 3.02 13 08:39 27.12.2021
6224 Clouds -21 1012 93 10000 3.16 347 07:32 27.12.2021
6225 Clouds -4 997 74 10000 9.26 290 02:24 27.12.2021
6226 Clouds -8 995 94 10000 3 278 23:58 26.12.2021
6227 Clouds -8 995 94 10000 3 278 23:58 26.12.2021
6228 Clouds -5 994 86 10000 6.69 250 23:40 26.12.2021
6229 Clouds -3 993 86 10000 6.69 240 22:36 26.12.2021
6230 Snow -2 992 93 10000 5.66 240 21:29 26.12.2021
6231 Rain 1 992 93 4023 5.14 230 19:49 26.12.2021
6232 Rain 1 992 93 8047 4.63 220 18:25 26.12.2021
6233 Rain 1 993 93 3219 5.14 210 17:30 26.12.2021
6234 Rain 1 993 93 2816 6.17 210 14:32 26.12.2021
6235 Mist 1 993 93 2012 6.69 210 13:43 26.12.2021
6236 Mist 1 993 93 3219 7.2 210 13:20 26.12.2021
6237 Mist 1 993 93 4023 5.66 180 12:33 26.12.2021
6238 Rain 0 997 93 4828 8.23 100 10:48 26.12.2021
6239 Mist 0 998 93 4023 5.14 80 09:29 26.12.2021
6240 Mist 0 999 93 4828 5.66 100 08:44 26.12.2021
6241 Mist 0 1002 93 1207 5.14 110 07:59 26.12.2021
6242 Fog 0 1006 93 805 2.06 200 01:36 26.12.2021
6243 Snow 0 1005 93 1207 2.06 180 23:58 25.12.2021
6244 Snow 0 1005 93 1207 2.06 180 23:28 25.12.2021
6245 Snow 0 1005 93 2012 2.06 140 22:29 25.12.2021
6246 Snow 0 1005 93 3219 1.54 130 21:25 25.12.2021
6247 Snow -1 1004 93 3219 5.66 80 19:28 25.12.2021
6248 Snow -1 1005 93 3219 6.17 80 18:57 25.12.2021
6249 Snow -1 1004 93 3219 7.72 80 18:25 25.12.2021
6250 Mist -1 1005 93 4828 8.23 80 16:46 25.12.2021
6251 Mist -1 1006 86 4023 7.2 80 15:26 25.12.2021
6252 Mist -2 1007 86 3219 6.17 80 13:47 25.12.2021
6253 Mist -3 1007 93 6437 6.69 70 12:19 25.12.2021
6254 Mist -3 1008 93 4828 7.2 70 10:36 25.12.2021
6255 Mist -3 1008 86 4023 8.23 80 09:48 25.12.2021
6256 Mist -4 1009 81 6437 8.23 80 07:21 25.12.2021
6257 Snow -8 1015 79 1207 9.77 80 01:34 25.12.2021
6258 Snow -10 1016 85 805 10.29 80 00:18 25.12.2021
6259 Snow -12 1021 85 1609 7.72 80 21:51 24.12.2021
6260 Clouds -13 1024 66 10000 8.23 90 19:27 24.12.2021
6261 Clouds -13 1024 61 10000 7.72 80 18:41 24.12.2021
6262 Clouds -14 1027 72 10000 6.69 80 16:44 24.12.2021
6263 Clouds -14 1028 72 10000 7.2 90 15:50 24.12.2021
6264 Clouds -14 1028 73 10000 7.2 90 15:20 24.12.2021
6265 Clouds -15 1029 78 10000 7.72 80 14:34 24.12.2021
6266 Clouds -14 1029 86 10000 3.89 80 13:54 24.12.2021
6267 Clouds -15 1030 78 10000 6.69 70 13:32 24.12.2021
6268 Clouds -15 1030 73 10000 7.2 80 12:40 24.12.2021
6269 Clouds -16 1031 73 10000 5.14 70 11:43 24.12.2021
6270 Clouds -16 1031 73 10000 5.14 70 11:24 24.12.2021
6271 Clouds -16 1030 73 10000 5.66 90 10:35 24.12.2021
6272 Clouds -19 1030 86 10000 2.36 79 08:58 24.12.2021
6273 Clouds -20 1031 85 10000 2.38 68 07:58 24.12.2021
6274 Clear -19 1030 72 10000 0 0 07:31 24.12.2021
6275 Clear -22 1027 84 10000 0 0 00:47 24.12.2021
6276 Clear -22 1026 77 10000 0 0 23:50 23.12.2021
6277 Clear -24 1025 82 10000 2.2 1 22:53 23.12.2021
6278 Clear -23 1024 77 10000 0 0 22:24 23.12.2021
6279 Clear -23 1023 77 10000 0 0 21:47 23.12.2021
6280 Clear -21 1021 77 10000 0 0 20:31 23.12.2021
6281 Clear -21 1021 77 10000 0 0 20:31 23.12.2021
6282 Clear -19 1021 72 10000 3.09 330 19:30 23.12.2021
6283 Clear -21 1020 84 10000 0 0 18:27 23.12.2021
6284 Clear -20 1018 77 10000 0 0 17:46 23.12.2021
6285 Clear -18 1017 78 10000 0 0 16:27 23.12.2021
6286 Clouds -22 1018 85 10000 2.32 6 15:54 23.12.2021
6287 Clear -20 1016 77 10000 0 0 15:30 23.12.2021
6288 Clear -18 1015 72 10000 2.57 100 14:42 23.12.2021
6289 Clear -18 1014 85 10000 0 0 13:49 23.12.2021
6290 Clouds -19 1014 86 10000 2.41 13 11:59 23.12.2021
6291 Clouds -13 1009 72 10000 4.12 290 10:36 23.12.2021
6292 Clear -14 1007 78 10000 4.12 290 09:34 23.12.2021
6293 Clear -12 1006 85 10000 2.57 310 08:41 23.12.2021
6294 Clouds -11 1003 85 10000 4.12 270 06:20 23.12.2021
6295 Snow -8 1000 86 2012 4.63 70 03:22 23.12.2021
6296 Snow -9 1004 80 805 11.83 60 22:54 22.12.2021
6297 Snow -10 1004 79 1207 11.32 70 22:22 22.12.2021
6298 Snow -11 1006 85 1609 10.29 70 21:48 22.12.2021
6299 Snow -11 1006 85 1609 10.29 70 21:25 22.12.2021
6300 Snow -9 1009 57 6437 9.26 80 20:41 22.12.2021
6301 Snow -13 1010 85 10000 4.36 68 19:57 22.12.2021
6302 Snow -11 1012 67 1855 3.97 55 18:57 22.12.2021
6303 Snow -11 1017 58 10000 4.12 50 17:39 22.12.2021
6304 Snow -12 1019 67 10000 4.12 50 16:34 22.12.2021
6305 Clouds -12 1021 61 10000 4.12 60 15:24 22.12.2021
6306 Clouds -13 1023 70 10000 3.02 53 12:59 22.12.2021
6307 Clouds -12 1024 57 10000 3.09 80 12:19 22.12.2021
6308 Clouds -13 1027 67 10000 2.47 54 09:53 22.12.2021
6309 Clear -12 1027 57 10000 7.2 40 09:31 22.12.2021
6310 Clear -12 1027 61 10000 3.09 60 07:22 22.12.2021
6311 Clear -13 1028 72 10000 5.66 90 05:40 22.12.2021
6312 Clear -13 1028 72 10000 5.66 90 05:21 22.12.2021
6313 Clear -12 1028 61 10000 2.57 300 04:43 22.12.2021
6314 Clear -12 1028 61 10000 2.57 300 04:19 22.12.2021
6315 Clear -12 1028 61 10000 3.09 260 03:32 22.12.2021
6316 Clouds -18 1029 100 7103 1.59 326 23:58 21.12.2021
6317 Clouds -9 1028 79 10000 4.12 290 22:49 21.12.2021
6318 Clouds -9 1028 79 10000 4.12 290 22:27 21.12.2021
6319 Clouds -18 1029 100 1987 1.55 302 21:43 21.12.2021
6320 Clouds -18 1029 100 1290 1.67 299 20:53 21.12.2021
6321 Clouds -18 1028 100 1749 1.53 271 20:20 21.12.2021
6322 Clouds -18 1028 100 1749 1.53 271 19:41 21.12.2021
6323 Clouds -19 1028 100 525 0.53 306 18:38 21.12.2021
6324 Clouds -21 1028 100 7636 1.18 332 18:00 21.12.2021
6325 Clouds -21 1028 100 7636 1.18 332 17:40 21.12.2021
6326 Clouds -21 1028 99 10000 1.85 312 15:47 21.12.2021
6327 Clouds -22 1028 99 10000 2.33 311 15:19 21.12.2021
6328 Clouds -22 1028 100 10000 2.27 301 13:47 21.12.2021
6329 Clouds -21 1027 100 10000 2.39 290 13:29 21.12.2021
6330 Clouds -12 1026 79 10000 0 0 10:55 21.12.2021
6331 Clear -22 1026 95 10000 1.76 281 09:59 21.12.2021
6332 Clear -12 1024 72 10000 5.14 260 09:18 21.12.2021
6333 Clear -21 1023 91 10000 1.65 302 07:54 21.12.2021
6334 Clear -11 1022 79 10000 3.6 270 07:25 21.12.2021
6335 Clouds -18 1020 95 10000 3.08 293 04:56 21.12.2021
6336 Clouds -8 1016 79 10000 7.72 290 02:39 21.12.2021
6337 Clouds -13 1015 89 10000 3.53 270 23:58 20.12.2021
6338 Clouds -6 1013 79 10000 6.17 290 23:24 20.12.2021
6339 Clouds -4 1013 86 10000 5.14 280 22:28 20.12.2021
6340 Clouds -2 1012 74 10000 1.54 250 21:43 20.12.2021
6341 Clouds -2 1012 74 10000 1.54 250 21:23 20.12.2021
6342 Clouds -2 1012 80 10000 3.09 310 20:42 20.12.2021
6343 Snow -2 1011 86 10000 5.14 270 19:48 20.12.2021
6344 Snow -2 1011 86 10000 5.14 270 19:29 20.12.2021
6345 Snow -2 1011 93 6437 7.72 290 18:49 20.12.2021
6346 Snow -1 1010 93 10000 5.66 280 17:52 20.12.2021
6347 Snow 0 1010 93 10000 5.66 260 16:56 20.12.2021
6348 Rain 1 1009 86 10000 7.72 220 16:36 20.12.2021
6349 Mist 1 1009 86 9656 7.2 210 15:47 20.12.2021
6350 Rain 1 1008 86 10000 7.72 210 14:41 20.12.2021
6351 Snow 1 1007 86 8047 8.75 220 12:51 20.12.2021
6352 Clouds 1 1006 86 10000 11.32 220 11:18 20.12.2021
6353 Clouds 1 1004 86 10000 10.8 210 09:47 20.12.2021
6354 Clouds 1 1004 86 10000 11.32 210 08:57 20.12.2021
6355 Clouds 1 1003 86 10000 11.83 220 08:38 20.12.2021
6356 Clouds 1 1002 93 10000 11.32 220 07:49 20.12.2021
6357 Mist 1 1001 93 9656 11.32 210 06:47 20.12.2021
6358 Rain 2 1000 87 10000 11.83 190 03:41 20.12.2021
6359 Rain 1 1003 100 3219 10.29 170 23:51 19.12.2021
6360 Snow 1 1004 100 4828 8.75 170 22:45 19.12.2021
6361 Mist 1 1005 100 4023 7.72 170 21:49 19.12.2021
6362 Mist 1 1005 100 4023 7.72 170 21:26 19.12.2021
6363 Rain 1 1004 100 6437 8.23 190 20:30 19.12.2021
6364 Rain 1 1004 100 8047 8.75 200 19:46 19.12.2021
6365 Rain 1 1004 100 6437 8.23 190 18:57 19.12.2021
6366 Mist 1 1005 100 2414 7.2 200 18:24 19.12.2021
6367 Mist 1 1004 100 4828 8.23 200 17:46 19.12.2021
6368 Mist 1 1004 100 4023 9.26 200 16:55 19.12.2021
6369 Mist 1 1004 100 4023 9.26 200 16:24 19.12.2021
6370 Snow 1 1004 93 2816 7.72 190 15:26 19.12.2021
6371 Rain 1 1004 93 8047 6.17 160 14:50 19.12.2021
6372 Snow 1 1004 87 4828 6.17 150 13:46 19.12.2021
6373 Mist 1 1005 87 2414 6.69 140 13:21 19.12.2021
6374 Snow -1 1005 93 2012 6.69 110 12:33 19.12.2021
6375 Snow -1 1005 93 2012 6.69 110 12:33 19.12.2021
6376 Snow -1 1006 93 1609 7.72 100 11:40 19.12.2021
6377 Snow -2 1006 93 1207 9.77 90 10:53 19.12.2021
6378 Snow -2 1006 93 2012 8.75 90 10:23 19.12.2021
6379 Mist -2 1006 93 2012 8.75 90 10:23 19.12.2021
6380 Snow -4 1007 86 2012 10.29 90 09:26 19.12.2021
6381 Snow -6 1009 86 1609 10.8 80 07:47 19.12.2021
6382 Snow -8 1013 93 4023 5.66 80 04:44 19.12.2021
6383 Mist -9 1014 86 9656 2.57 150 00:55 19.12.2021
6384 Fog -8 1014 93 805 2.57 210 23:52 18.12.2021
6385 Clouds -8 1013 93 10000 2.57 220 22:31 18.12.2021
6386 Clouds -7 1012 86 10000 4.63 230 21:54 18.12.2021
6387 Clouds -7 1012 86 10000 4.63 230 21:34 18.12.2021
6388 Clouds -6 1010 93 10000 0 0 20:44 18.12.2021
6389 Clouds -16 1011 100 2349 0.25 246 19:51 18.12.2021
6390 Clouds -16 1011 100 6245 1.07 304 19:19 18.12.2021
6391 Mist -5 1009 93 8047 1.54 210 18:19 18.12.2021
6392 Mist -5 1007 93 8047 0 0 17:47 18.12.2021
6393 Clouds -5 1006 93 10000 3.09 250 16:25 18.12.2021
6394 Mist -5 1005 93 2414 4.12 250 15:26 18.12.2021
6395 Mist -4 1004 86 9656 4.63 250 14:32 18.12.2021
6396 Mist -3 1002 93 8047 0 0 13:18 18.12.2021
6397 Fog -3 1001 100 805 0 0 11:21 18.12.2021
6398 Clouds -3 998 93 10000 2.57 140 09:37 18.12.2021
6399 Clouds -3 997 93 10000 0 0 08:43 18.12.2021
6400 Clouds -3 997 93 10000 0 0 08:19 18.12.2021
6401 Snow -1 992 93 1207 4.63 150 02:20 18.12.2021
6402 Snow -3 993 93 1207 8.75 90 00:27 18.12.2021
6403 Snow -3 994 93 1207 10.29 90 23:37 17.12.2021
6404 Snow -3 996 86 2012 8.75 80 21:56 17.12.2021
6405 Snow -3 998 86 2414 6.17 80 20:51 17.12.2021
6406 Mist -3 998 86 3219 6.69 90 20:31 17.12.2021
6407 Snow -4 1000 93 2012 4.63 110 19:18 17.12.2021
6408 Clouds -4 1001 86 10000 4.63 120 18:38 17.12.2021
6409 Mist -5 1001 93 8047 3.09 90 17:26 17.12.2021
6410 Mist -5 1002 86 4828 1.54 80 16:44 17.12.2021
6411 Mist -5 1002 93 4023 0 0 16:21 17.12.2021
6412 Snow -6 1002 93 10000 3.09 220 15:20 17.12.2021
6413 Mist -5 1002 93 8047 5.14 210 14:38 17.12.2021
6414 Mist -4 1001 100 2816 4.63 220 12:46 17.12.2021
6415 Snow -2 1000 86 4828 5.66 180 11:27 17.12.2021
6416 Mist -2 999 86 8047 5.66 200 09:59 17.12.2021
6417 Snow -6 1001 96 96 2.77 205 08:58 17.12.2021
6418 Snow -2 998 93 10000 6.17 200 08:29 17.12.2021
6419 Snow -6 997 93 1609 7.2 80 05:41 17.12.2021
6420 Snow -7 997 86 2414 8.75 80 02:53 17.12.2021
6421 Snow -8 997 86 402 11.83 90 23:23 16.12.2021
6422 Snow -8 997 80 2012 11.32 80 22:24 16.12.2021
6423 Snow -8 997 80 2012 11.32 80 22:24 16.12.2021
6424 Snow -8 997 80 2012 11.32 80 22:24 16.12.2021
6425 Snow -9 998 86 1609 10.29 90 21:50 16.12.2021
6426 Snow -9 998 86 1609 10.29 90 21:25 16.12.2021
6427 Snow -9 997 86 1609 9.77 80 20:28 16.12.2021
6428 Snow -9 997 86 1609 9.77 80 19:42 16.12.2021
6429 Snow -9 998 80 1609 8.75 80 18:38 16.12.2021
6430 Snow -9 998 80 1609 8.23 80 17:55 16.12.2021
6431 Snow -9 998 80 1609 8.23 80 17:28 16.12.2021
6432 Snow -10 998 85 3219 8.75 70 16:21 16.12.2021
6433 Snow -11 998 85 2414 8.75 80 14:50 16.12.2021
6434 Snow -11 998 85 3219 9.26 80 12:57 16.12.2021
6435 Snow -12 998 85 1207 10.29 90 11:20 16.12.2021
6436 Snow -12 998 85 1207 12.35 90 10:48 16.12.2021
6437 Snow -12 998 85 1207 12.35 90 10:20 16.12.2021
6438 Snow -13 999 85 1207 13.89 90 07:31 16.12.2021
6439 Snow -12 999 85 805 14.4 90 06:19 16.12.2021
6440 Snow -12 1003 85 402 14.92 100 00:54 16.12.2021
6441 Snow -12 1004 85 805 14.4 100 23:22 15.12.2021
6442 Snow -12 1005 79 1207 15.95 90 22:41 15.12.2021
6443 Snow -12 1005 73 1609 18.01 90 21:52 15.12.2021
6444 Snow -12 1005 72 2414 14.92 90 21:26 15.12.2021
6445 Snow -13 1006 78 3219 15.95 90 20:18 15.12.2021
6446 Snow -13 1007 72 4828 14.92 90 19:45 15.12.2021
6447 Clouds -13 1008 72 6437 13.38 100 18:37 15.12.2021
6448 Haze -13 1009 66 6437 13.89 90 17:51 15.12.2021
6449 Haze -13 1009 66 6437 13.89 90 17:51 15.12.2021
6450 Haze -13 1009 66 6437 13.89 90 17:32 15.12.2021
6451 Clouds -14 1010 61 10000 10.29 90 16:27 15.12.2021
6452 Clouds -15 1011 66 10000 9.77 80 15:46 15.12.2021
6453 Clouds -15 1011 66 10000 9.77 80 15:27 15.12.2021
6454 Snow -15 1012 72 8047 8.23 80 14:18 15.12.2021
6455 Snow -15 1015 61 10000 10.29 90 12:32 15.12.2021
6456 Clouds -15 1015 56 10000 9.26 90 10:25 15.12.2021
6457 Clouds -15 1016 63 10000 4.46 74 08:55 15.12.2021
6458 Clouds -18 1018 74 10000 3.4 77 06:54 15.12.2021
6459 Clear -20 1020 60 10000 3.6 40 01:20 15.12.2021
6460 Clear -26 1020 70 10000 0 0 23:42 14.12.2021
6461 Clear -26 1020 70 10000 0 0 22:48 14.12.2021
6462 Clear -26 1020 70 10000 0 0 22:18 14.12.2021
6463 Clear -25 1020 70 10000 0 0 20:28 14.12.2021
6464 Clear -27 1020 69 10000 2.06 20 19:40 14.12.2021
6465 Clouds -25 1021 77 10000 1.93 36 18:53 14.12.2021
6466 Clear -23 1020 60 10000 0 0 18:22 14.12.2021
6467 Clear -27 1020 69 10000 1.54 20 17:28 14.12.2021
6468 Clear -27 1020 76 10000 0 0 16:38 14.12.2021
6469 Clear -27 1019 69 10000 0 0 15:26 14.12.2021
6470 Clear -27 1018 69 10000 2.57 20 13:31 14.12.2021
6471 Clear -27 1018 69 10000 2.57 20 13:31 14.12.2021
6472 Clouds -25 1018 75 10000 2.08 31 11:58 14.12.2021
6473 Clear -25 1017 70 10000 2.06 10 11:23 14.12.2021
6474 Clouds -27 1017 76 10000 2.63 16 09:57 14.12.2021
6475 Clear -23 1017 65 10000 0 0 09:35 14.12.2021
6476 Clear -23 1016 65 10000 2.57 10 08:25 14.12.2021
6477 Clear -23 1017 64 10000 3.09 360 07:43 14.12.2021
6478 Clear -19 1017 51 10000 5.14 30 02:27 14.12.2021
6479 Clouds -26 1019 90 10000 2.62 32 22:55 13.12.2021
6480 Clear -21 1020 54 10000 3.6 50 21:52 13.12.2021
6481 Clear -21 1020 54 10000 3.6 50 21:18 13.12.2021
6482 Clear -22 1021 59 10000 4.12 50 20:38 13.12.2021
6483 Clear -22 1021 59 10000 3.6 30 19:52 13.12.2021
6484 Clouds -26 1022 90 10000 3.31 44 17:56 13.12.2021
6485 Clear -22 1025 59 10000 4.12 80 17:26 13.12.2021
6486 Clear -22 1026 59 10000 5.14 40 15:51 13.12.2021
6487 Clear -22 1026 59 10000 5.14 40 15:25 13.12.2021
6488 Clear -22 1028 49 10000 5.14 60 13:39 13.12.2021
6489 Clear -24 1030 53 10000 2.57 20 12:46 13.12.2021
6490 Clear -24 1030 53 10000 2.57 20 12:46 13.12.2021
6491 Clouds -29 1030 91 10000 1.72 59 11:56 13.12.2021
6492 Clear -27 1030 63 10000 0 0 11:35 13.12.2021
6493 Clear -27 1031 64 10000 1.54 40 10:44 13.12.2021
6494 Clear -27 1032 64 10000 0 0 09:29 13.12.2021
6495 Clear -27 1032 69 10000 2.06 350 07:48 13.12.2021
6496 Clear -25 1033 65 10000 1.54 0 05:35 13.12.2021
6497 Clear -27 1033 69 10000 2.57 350 03:26 13.12.2021
6498 Clear -23 1034 59 10000 5.66 350 22:23 12.12.2021
6499 Clear -22 1034 59 10000 6.69 350 21:40 12.12.2021
6500 Clear -28 1033 75 10000 2.63 347 19:57 12.12.2021
6501 Clear -23 1033 59 10000 4.63 310 18:36 12.12.2021
6502 Clear -23 1033 59 10000 4.63 310 18:36 12.12.2021
6503 Clear -22 1032 59 10000 4.12 340 17:31 12.12.2021
6504 Clear -31 1032 95 10000 2.53 334 16:27 12.12.2021
6505 Clear -22 1031 59 10000 1.54 0 15:45 12.12.2021
6506 Clear -22 1031 59 10000 1.54 0 15:25 12.12.2021
6507 Clear -23 1030 64 10000 0 0 14:34 12.12.2021
6508 Clear -22 1029 59 10000 5.66 310 13:26 12.12.2021
6509 Clear -22 1029 59 10000 4.63 320 12:30 12.12.2021
6510 Clear -22 1028 59 10000 5.66 290 11:44 12.12.2021
6511 Clear -22 1028 59 10000 5.66 290 11:20 12.12.2021
6512 Clear -23 1028 64 10000 5.14 340 10:22 12.12.2021
6513 Clear -32 1029 98 10000 2.69 338 09:38 12.12.2021
6514 Clouds -32 1027 99 10000 2.77 333 07:57 12.12.2021
6515 Clouds -32 1026 99 10000 2.7 332 05:57 12.12.2021
6516 Clouds -22 1022 71 10000 7.72 330 04:56 12.12.2021
6517 Clear -22 1022 64 10000 5.66 310 03:31 12.12.2021
6518 Clouds -22 1019 71 10000 5.66 300 23:44 11.12.2021
6519 Clouds -22 1019 71 10000 7.72 300 22:22 11.12.2021
6520 Mist -22 1018 77 4828 7.2 300 21:52 11.12.2021
6521 Mist -22 1018 84 4828 8.75 290 20:51 11.12.2021
6522 Clouds -22 1016 77 10000 8.75 310 19:27 11.12.2021
6523 Clouds -21 1016 71 10000 4.63 300 18:52 11.12.2021
6524 Clouds -21 1016 71 10000 6.17 310 18:25 11.12.2021
6525 Clear -21 1016 71 10000 3.09 310 17:21 11.12.2021
6526 Clouds -28 1016 90 10000 3.33 319 15:55 11.12.2021
6527 Clear -21 1014 71 10000 7.2 280 15:28 11.12.2021
6528 Clouds -25 1014 85 10000 4.83 310 12:57 11.12.2021
6529 Clouds -21 1011 71 10000 6.17 310 11:26 11.12.2021
6530 Clear -22 1010 71 10000 6.17 290 09:46 11.12.2021
6531 Clear -21 1009 65 10000 4.63 300 08:28 11.12.2021
6532 Clouds -20 1005 65 10000 5.66 290 02:29 11.12.2021
6533 Clouds -29 1006 93 10000 3.36 320 00:36 11.12.2021
6534 Clear -18 1002 60 10000 5.14 320 23:23 10.12.2021
6535 Clouds -27 1002 93 10000 2.9 317 21:57 10.12.2021
6536 Clear -18 1000 65 10000 5.14 320 21:31 10.12.2021
6537 Clouds -26 999 91 10000 3.3 319 19:22 10.12.2021
6538 Clouds -26 998 95 10000 3.14 318 18:21 10.12.2021
6539 Haze -16 996 78 9656 9.26 360 16:56 10.12.2021
6540 Clouds -16 995 72 4023 13.89 360 16:29 10.12.2021
6541 Clear -16 994 72 6437 12.35 340 15:41 10.12.2021
6542 Clear -16 994 72 6437 12.35 340 15:21 10.12.2021
6543 Clouds -16 993 66 4828 9.77 340 13:52 10.12.2021
6544 Clouds -16 992 72 2816 13.38 360 13:26 10.12.2021
6545 Clear -16 992 66 10000 6.17 330 12:45 10.12.2021
6546 Clear -15 991 61 10000 4.12 360 11:30 10.12.2021
6547 Clear -17 991 71 10000 3.6 360 10:38 10.12.2021
6548 Clear -16 990 72 10000 8.75 350 09:19 10.12.2021
6549 Clouds -21 989 88 10000 4.1 350 06:59 10.12.2021
6550 Clouds -13 986 66 10000 6.69 360 02:50 10.12.2021
6551 Clouds -20 987 88 10000 4.5 4 00:55 10.12.2021
6552 Clouds -11 986 67 10000 5.14 350 23:37 09.12.2021
6553 Clouds -11 986 67 10000 6.17 360 22:40 09.12.2021
6554 Clouds -11 986 67 10000 6.17 360 22:19 09.12.2021
6555 Clouds -12 986 72 10000 5.14 350 21:20 09.12.2021
6556 Clouds -13 987 72 10000 2.57 360 20:29 09.12.2021
6557 Clouds -12 987 72 10000 3.6 40 19:22 09.12.2021
6558 Clouds -12 987 72 10000 5.14 20 18:50 09.12.2021
6559 Clouds -16 988 93 10000 3.03 30 17:57 09.12.2021
6560 Clouds -12 988 79 10000 3.6 40 17:27 09.12.2021
6561 Clouds -16 989 95 2190 3.07 39 16:57 09.12.2021
6562 Snow -12 988 79 9656 2.57 60 15:59 09.12.2021
6563 Snow -11 990 79 4828 4.12 70 14:51 09.12.2021
6564 Snow -15 991 88 341 2.15 61 13:50 09.12.2021
6565 Snow -12 991 85 4023 3.6 70 12:47 09.12.2021
6566 Snow -12 991 79 8047 4.12 80 11:25 09.12.2021
6567 Snow -12 992 73 9656 3.09 80 09:45 09.12.2021
6568 Clouds -17 992 78 10000 0 0 06:51 09.12.2021
6569 Clear -20 991 77 10000 3.09 20 03:49 09.12.2021
6570 Clear -14 992 67 10000 4.63 350 23:50 08.12.2021
6571 Clear -14 992 67 10000 4.63 350 23:31 08.12.2021
6572 Clouds -18 993 85 10000 3.27 29 22:53 08.12.2021
6573 Clear -14 992 67 10000 2.06 10 21:49 08.12.2021
6574 Clear -14 992 67 10000 2.06 10 21:30 08.12.2021
6575 Clear -16 992 78 10000 4.63 350 20:30 08.12.2021
6576 Clear -15 992 78 10000 4.12 340 19:39 08.12.2021
6577 Clear -14 992 73 10000 3.6 360 18:54 08.12.2021
6578 Clear -14 992 73 10000 3.6 360 18:21 08.12.2021
6579 Clouds -11 993 73 10000 4.63 20 16:44 08.12.2021
6580 Clouds -12 994 79 10000 3.6 30 15:40 08.12.2021
6581 Clouds -12 994 79 10000 3.6 30 15:21 08.12.2021
6582 Clouds -13 995 78 10000 3.09 20 13:21 08.12.2021
6583 Clouds -16 998 78 10000 2.57 10 10:42 08.12.2021
6584 Clouds -19 999 78 10000 3.09 40 09:32 08.12.2021
6585 Clear -22 1000 84 10000 0 0 07:37 08.12.2021
6586 Clear -19 1000 78 10000 0 0 05:22 08.12.2021
6587 Clouds -17 1000 71 10000 5.66 280 00:21 08.12.2021
6588 Clouds -16 1000 78 10000 5.66 280 22:48 07.12.2021
6589 Clouds -14 999 78 10000 7.72 280 21:24 07.12.2021
6590 Mist -13 998 78 10000 4.63 310 20:25 07.12.2021
6591 Clouds -23 999 97 10000 2.89 338 18:57 07.12.2021
6592 Clouds -23 998 98 10000 2.79 329 18:20 07.12.2021
6593 Clouds -22 997 98 10000 2.85 323 17:23 07.12.2021
6594 Clouds -22 997 98 10000 2.85 323 16:41 07.12.2021
6595 Clouds -22 995 98 10000 2.98 325 15:59 07.12.2021
6596 Clouds -10 992 73 10000 6.69 300 14:37 07.12.2021
6597 Clouds -9 991 67 10000 6.69 290 13:29 07.12.2021
6598 Clouds -10 991 79 10000 5.14 290 12:22 07.12.2021
6599 Clouds -8 988 79 10000 3.09 280 10:48 07.12.2021
6600 Clouds -8 988 79 10000 4.63 280 09:20 07.12.2021
6601 Clouds -18 989 100 6440 2.03 326 06:40 07.12.2021
6602 Snow -6 985 86 4828 3.09 290 05:50 07.12.2021
6603 Snow -5 983 86 4828 6.69 240 02:35 07.12.2021
6604 Snow -4 981 86 1207 8.23 230 23:21 06.12.2021
6605 Snow -4 981 86 1207 6.69 220 22:40 06.12.2021
6606 Snow -4 981 86 2414 7.72 220 21:59 06.12.2021
6607 Snow -3 980 86 1609 6.17 220 21:27 06.12.2021
6608 Snow -3 980 80 6437 6.69 220 20:32 06.12.2021
6609 Snow -3 980 80 6437 6.69 220 20:32 06.12.2021
6610 Snow -3 979 93 10000 6.69 220 19:24 06.12.2021
6611 Snow -3 978 86 10000 7.2 230 18:34 06.12.2021
6612 Snow -3 981 96 122 6.14 212 17:53 06.12.2021
6613 Snow -6 981 95 122 6.14 212 17:33 06.12.2021
6614 Snow -3 980 96 176 7.15 202 15:51 06.12.2021
6615 Snow -4 979 95 440 7.6 202 14:38 06.12.2021
6616 Snow -4 978 95 231 8.63 200 13:23 06.12.2021
6617 Snow -4 978 95 231 8.63 200 12:37 06.12.2021
6618 Snow -3 976 96 186 9.07 202 09:56 06.12.2021
6619 Clouds -2 974 97 7599 9.7 195 07:38 06.12.2021
6620 Snow -1 970 93 805 13.89 160 02:20 06.12.2021
6621 Snow -1 972 100 1207 11.32 170 22:25 05.12.2021
6622 Snow -1 972 93 4828 12.35 150 21:25 05.12.2021
6623 Snow -1 973 93 4023 12.86 150 20:43 05.12.2021
6624 Snow -2 973 93 1207 12.86 140 20:18 05.12.2021
6625 Mist -2 975 93 1609 14.4 130 19:23 05.12.2021
6626 Snow -2 977 93 1609 13.89 130 18:28 05.12.2021
6627 Mist -2 978 93 1609 14.4 120 17:49 05.12.2021
6628 Snow -3 979 93 1207 14.4 120 17:18 05.12.2021
6629 Fog -4 981 86 805 16.98 120 16:28 05.12.2021
6630 Snow -4 982 86 402 18.01 120 15:59 05.12.2021
6631 Snow -5 985 93 402 19.03 120 14:48 05.12.2021
6632 Snow -5 985 93 402 19.03 120 14:29 05.12.2021
6633 Snow -4 988 86 402 18.52 120 13:33 05.12.2021
6634 Snow -7 990 93 402 15.43 110 12:43 05.12.2021
6635 Snow -7 992 86 402 18.52 100 12:25 05.12.2021
6636 Snow -7 994 86 402 16.98 100 11:43 05.12.2021
6637 Snow -8 999 86 402 15.43 110 10:25 05.12.2021
6638 Mist -8 1002 80 2414 13.38 100 09:41 05.12.2021
6639 Snow -11 1012 85 1609 9.26 80 05:30 05.12.2021
6640 Mist -11 1017 85 4828 3.09 80 01:24 05.12.2021
6641 Mist -14 1018 85 6437 0 0 22:45 04.12.2021
6642 Mist -16 1017 85 9656 0 0 21:38 04.12.2021
6643 Mist -11 1017 85 10000 2.57 70 20:47 04.12.2021
6644 Mist -11 1017 85 10000 0 0 19:54 04.12.2021
6645 Mist -11 1017 85 10000 0 0 19:30 04.12.2021
6646 Clouds -20 1017 100 6682 2.12 58 17:53 04.12.2021
6647 Clouds -10 1015 79 10000 4.63 60 17:35 04.12.2021
6648 Haze -11 1014 85 8047 6.17 60 16:47 04.12.2021
6649 Haze -11 1014 85 8047 6.17 60 16:28 04.12.2021
6650 Snow -12 1012 85 402 9.77 80 13:30 04.12.2021
6651 Snow -13 1012 85 1609 10.29 80 11:41 04.12.2021
6652 Snow -13 1012 85 1207 10.29 80 11:19 04.12.2021
6653 Snow -13 1011 78 1609 11.32 80 09:57 04.12.2021
6654 Snow -13 1011 85 805 10.29 80 08:42 04.12.2021
6655 Snow -14 1010 85 805 10.29 80 05:30 04.12.2021
6656 Fog -13 1011 78 805 9.26 80 04:40 04.12.2021
6657 Snow -14 1011 85 402 12.35 100 23:49 03.12.2021
6658 Snow -14 1011 85 805 12.86 100 22:56 03.12.2021
6659 Snow -14 1012 78 805 13.38 90 22:00 03.12.2021
6660 Snow -14 1012 78 1207 14.4 90 21:25 03.12.2021
6661 Snow -14 1013 78 1207 14.4 90 20:43 03.12.2021
6662 Snow -15 1014 85 1207 12.35 90 19:36 03.12.2021
6663 Mist -16 1016 85 2012 12.35 90 18:26 03.12.2021
6664 Snow -16 1017 85 1609 11.32 100 17:44 03.12.2021
6665 Clouds -17 1021 67 10000 12.35 90 14:20 03.12.2021
6666 Clouds -18 1024 71 10000 10.29 90 12:52 03.12.2021
6667 Clouds -18 1025 71 10000 10.8 90 11:24 03.12.2021
6668 Clouds -18 1026 79 8623 6.4 80 09:57 03.12.2021
6669 Clouds -18 1028 72 10000 7.2 90 08:24 03.12.2021
6670 Clouds -19 1028 78 10000 5.66 90 07:38 03.12.2021
6671 Clouds -20 1031 77 10000 5.14 70 02:24 03.12.2021
6672 Clear -19 1032 71 10000 4.63 80 00:47 03.12.2021
6673 Clear -21 1033 71 10000 4.12 80 23:46 02.12.2021
6674 Clear -23 1031 77 10000 0 0 21:43 02.12.2021
6675 Clear -23 1031 77 10000 0 0 21:20 02.12.2021
6676 Clear -25 1031 77 10000 0 0 20:38 02.12.2021
6677 Clear -26 1031 76 10000 0 0 19:31 02.12.2021
6678 Clear -28 1030 69 10000 1.54 360 17:43 02.12.2021
6679 Clear -30 1028 76 10000 2.06 30 15:42 02.12.2021
6680 Clear -30 1028 76 10000 2.06 30 15:20 02.12.2021
6681 Clear -27 1027 69 10000 0 0 14:43 02.12.2021
6682 Clear -28 1026 69 10000 2.06 10 12:52 02.12.2021
6683 Clear -28 1026 69 10000 2.06 10 12:18 02.12.2021
6684 Clear -23 1024 65</